<?xml version='1.0' encoding='UTF-8'?><gpx version="1.1" creator="JPX - https://github.com/jenetics/jpx" xmlns="http://www.topografix.com/GPX/1/1"><trk><trkseg><trkpt lat="42.7389616" lon="11.8541254"><ele>430.99999999999994</ele><time>2026-04-01T10:48:50.207Z</time></trkpt><trkpt lat="42.7389549" lon="11.8540161"><ele>431.0</ele><time>2026-04-01T10:48:52.206Z</time></trkpt><trkpt lat="42.7389355" lon="11.8539018"><ele>431.0</ele><time>2026-04-01T10:48:54.207Z</time></trkpt><trkpt lat="42.7389164" lon="11.8537796"><ele>431.0</ele><time>2026-04-01T10:48:56.206Z</time></trkpt><trkpt lat="42.7389081" lon="11.8536711"><ele>430.99999999999994</ele><time>2026-04-01T10:48:58.207Z</time></trkpt><trkpt lat="42.738899" lon="11.8535692"><ele>431.0</ele><time>2026-04-01T10:49:01.206Z</time></trkpt><trkpt lat="42.7389193" lon="11.8534837"><ele>431.0</ele><time>2026-04-01T10:49:06.206Z</time></trkpt><trkpt lat="42.7389944" lon="11.8534182"><ele>431.0</ele><time>2026-04-01T10:49:29.207Z</time></trkpt><trkpt lat="42.7390841" lon="11.8534378"><ele>431.0</ele><time>2026-04-01T10:50:19.206Z</time></trkpt><trkpt lat="42.7391767" lon="11.8534552"><ele>431.0</ele><time>2026-04-01T10:50:21.207Z</time></trkpt><trkpt lat="42.739299" lon="11.8534978"><ele>431.0</ele><time>2026-04-01T10:50:23.206Z</time></trkpt><trkpt lat="42.7393576" lon="11.85354"><ele>430.42857142857144</ele><time>2026-04-01T10:50:24.206Z</time></trkpt><trkpt lat="42.7394108" lon="11.853603"><ele>429.85714285714283</ele><time>2026-04-01T10:50:25.207Z</time></trkpt><trkpt lat="42.739462" lon="11.853668"><ele>429.2857142857143</ele><time>2026-04-01T10:50:26.207Z</time></trkpt><trkpt lat="42.7395167" lon="11.8537267"><ele>428.7142857142857</ele><time>2026-04-01T10:50:27.206Z</time></trkpt><trkpt lat="42.7395751" lon="11.8537703"><ele>428.1428571428571</ele><time>2026-04-01T10:50:28.206Z</time></trkpt><trkpt lat="42.7396435" lon="11.8538026"><ele>427.57142857142856</ele><time>2026-04-01T10:50:29.207Z</time></trkpt><trkpt lat="42.7397239" lon="11.8538354"><ele>427.0</ele><time>2026-04-01T10:50:30.207Z</time></trkpt><trkpt lat="42.7397958" lon="11.8538517"><ele>427.00000000000006</ele><time>2026-04-01T10:50:31.207Z</time></trkpt><trkpt lat="42.7398625" lon="11.8538679"><ele>427.0</ele><time>2026-04-01T10:50:32.207Z</time></trkpt><trkpt lat="42.7399432" lon="11.8539023"><ele>427.0</ele><time>2026-04-01T10:50:34.206Z</time></trkpt><trkpt lat="42.7399979" lon="11.8539541"><ele>427.0</ele><time>2026-04-01T10:50:36.207Z</time></trkpt><trkpt lat="42.7400166" lon="11.8540734"><ele>427.00000000000006</ele><time>2026-04-01T10:50:38.207Z</time></trkpt><trkpt lat="42.7400063" lon="11.8541661"><ele>427.0</ele><time>2026-04-01T10:50:39.207Z</time></trkpt><trkpt lat="42.739996" lon="11.8542807"><ele>427.20000000000005</ele><time>2026-04-01T10:50:40.206Z</time></trkpt><trkpt lat="42.7399917" lon="11.8544048"><ele>427.40000000000003</ele><time>2026-04-01T10:50:41.206Z</time></trkpt><trkpt lat="42.7400041" lon="11.8545389"><ele>427.59999999999997</ele><time>2026-04-01T10:50:42.207Z</time></trkpt><trkpt lat="42.7400223" lon="11.8546871"><ele>427.79999999999995</ele><time>2026-04-01T10:50:43.207Z</time></trkpt><trkpt lat="42.7400415" lon="11.854833"><ele>428.0</ele><time>2026-04-01T10:50:44.207Z</time></trkpt><trkpt lat="42.7400535" lon="11.8549716"><ele>428.0</ele><time>2026-04-01T10:50:45.206Z</time></trkpt><trkpt lat="42.7400702" lon="11.8551002"><ele>427.99999999999994</ele><time>2026-04-01T10:50:46.206Z</time></trkpt><trkpt lat="42.740082" lon="11.8552172"><ele>427.99999999999994</ele><time>2026-04-01T10:50:47.206Z</time></trkpt><trkpt lat="42.7401048" lon="11.8553317"><ele>428.0</ele><time>2026-04-01T10:50:48.207Z</time></trkpt><trkpt lat="42.740126" lon="11.8554357"><ele>428.0</ele><time>2026-04-01T10:50:49.206Z</time></trkpt><trkpt lat="42.7401512" lon="11.8555696"><ele>428.0</ele><time>2026-04-01T10:50:51.206Z</time></trkpt><trkpt lat="42.7401279" lon="11.8556538"><ele>427.99999999999994</ele><time>2026-04-01T10:50:54.207Z</time></trkpt><trkpt lat="42.7400831" lon="11.8557324"><ele>427.99999999999994</ele><time>2026-04-01T10:50:59.207Z</time></trkpt><trkpt lat="42.7400045" lon="11.8557677"><ele>428.0</ele><time>2026-04-01T10:51:01.207Z</time></trkpt><trkpt lat="42.7398695" lon="11.8557835"><ele>428.0</ele><time>2026-04-01T10:51:03.206Z</time></trkpt><trkpt lat="42.7397561" lon="11.8557796"><ele>427.99999999999994</ele><time>2026-04-01T10:51:05.207Z</time></trkpt><trkpt lat="42.7396888" lon="11.855788"><ele>428.0</ele><time>2026-04-01T10:51:07.207Z</time></trkpt><trkpt lat="42.7397573" lon="11.8558416"><ele>428.0</ele><time>2026-04-01T10:51:12.207Z</time></trkpt><trkpt lat="42.7398524" lon="11.8558995"><ele>428.0</ele><time>2026-04-01T10:51:14.206Z</time></trkpt><trkpt lat="42.7399083" lon="11.8559477"><ele>427.99999999999994</ele><time>2026-04-01T10:51:15.206Z</time></trkpt><trkpt lat="42.73996" lon="11.8560002"><ele>428.0</ele><time>2026-04-01T10:51:16.207Z</time></trkpt><trkpt lat="42.7400014" lon="11.856075"><ele>425.59999999999997</ele><time>2026-04-01T10:51:17.206Z</time></trkpt><trkpt lat="42.740028" lon="11.8561809"><ele>423.19999999999993</ele><time>2026-04-01T10:51:18.206Z</time></trkpt><trkpt lat="42.7400453" lon="11.8562992"><ele>420.8</ele><time>2026-04-01T10:51:19.207Z</time></trkpt><trkpt lat="42.7400611" lon="11.8564271"><ele>418.4</ele><time>2026-04-01T10:51:20.206Z</time></trkpt><trkpt lat="42.7400835" lon="11.8565819"><ele>416.0</ele><time>2026-04-01T10:51:21.206Z</time></trkpt><trkpt lat="42.7401047" lon="11.8567419"><ele>412.75</ele><time>2026-04-01T10:51:22.207Z</time></trkpt><trkpt lat="42.7401423" lon="11.8569031"><ele>409.5</ele><time>2026-04-01T10:51:23.206Z</time></trkpt><trkpt lat="42.7401861" lon="11.8570556"><ele>406.25</ele><time>2026-04-01T10:51:24.206Z</time></trkpt><trkpt lat="42.7402456" lon="11.8571913"><ele>403.0</ele><time>2026-04-01T10:51:25.207Z</time></trkpt><trkpt lat="42.7403017" lon="11.8573275"><ele>402.59999999999997</ele><time>2026-04-01T10:51:26.207Z</time></trkpt><trkpt lat="42.7403525" lon="11.8574632"><ele>402.2</ele><time>2026-04-01T10:51:27.206Z</time></trkpt><trkpt lat="42.7403953" lon="11.8575987"><ele>401.8</ele><time>2026-04-01T10:51:28.207Z</time></trkpt><trkpt lat="42.7404308" lon="11.8577288"><ele>401.4</ele><time>2026-04-01T10:51:29.207Z</time></trkpt><trkpt lat="42.7404653" lon="11.8578445"><ele>401.0</ele><time>2026-04-01T10:51:30.207Z</time></trkpt><trkpt lat="42.7405095" lon="11.8579631"><ele>402.0</ele><time>2026-04-01T10:51:31.207Z</time></trkpt><trkpt lat="42.740552" lon="11.858089"><ele>403.0</ele><time>2026-04-01T10:51:32.207Z</time></trkpt><trkpt lat="42.7405907" lon="11.8582106"><ele>404.0</ele><time>2026-04-01T10:51:33.207Z</time></trkpt><trkpt lat="42.7406333" lon="11.858332"><ele>405.0</ele><time>2026-04-01T10:51:34.207Z</time></trkpt><trkpt lat="42.7406862" lon="11.8584375"><ele>406.0</ele><time>2026-04-01T10:51:35.207Z</time></trkpt><trkpt lat="42.7407643" lon="11.8585054"><ele>408.75</ele><time>2026-04-01T10:51:36.206Z</time></trkpt><trkpt lat="42.7408669" lon="11.8585467"><ele>411.5</ele><time>2026-04-01T10:51:37.206Z</time></trkpt><trkpt lat="42.7409885" lon="11.8585641"><ele>414.25</ele><time>2026-04-01T10:51:38.206Z</time></trkpt><trkpt lat="42.7411089" lon="11.8585662"><ele>417.0</ele><time>2026-04-01T10:51:39.207Z</time></trkpt><trkpt lat="42.7412269" lon="11.8585635"><ele>417.5</ele><time>2026-04-01T10:51:40.207Z</time></trkpt><trkpt lat="42.7413474" lon="11.8585623"><ele>418.0</ele><time>2026-04-01T10:51:41.206Z</time></trkpt><trkpt lat="42.7414644" lon="11.8585863"><ele>418.5</ele><time>2026-04-01T10:51:42.207Z</time></trkpt><trkpt lat="42.7415686" lon="11.8586215"><ele>419.0</ele><time>2026-04-01T10:51:43.207Z</time></trkpt><trkpt lat="42.7416669" lon="11.8586741"><ele>419.0</ele><time>2026-04-01T10:51:44.207Z</time></trkpt><trkpt lat="42.7417533" lon="11.8587305"><ele>419.0</ele><time>2026-04-01T10:51:45.207Z</time></trkpt><trkpt lat="42.7418404" lon="11.858787"><ele>419.0</ele><time>2026-04-01T10:51:46.207Z</time></trkpt><trkpt lat="42.7419128" lon="11.8588651"><ele>419.0</ele><time>2026-04-01T10:51:47.207Z</time></trkpt><trkpt lat="42.741972" lon="11.8589433"><ele>419.0</ele><time>2026-04-01T10:51:48.207Z</time></trkpt><trkpt lat="42.7420304" lon="11.8590293"><ele>418.79999999999995</ele><time>2026-04-01T10:51:49.207Z</time></trkpt><trkpt lat="42.7420821" lon="11.8591201"><ele>418.59999999999997</ele><time>2026-04-01T10:51:50.206Z</time></trkpt><trkpt lat="42.7421195" lon="11.8592264"><ele>418.4</ele><time>2026-04-01T10:51:51.207Z</time></trkpt><trkpt lat="42.7421507" lon="11.8593448"><ele>418.2</ele><time>2026-04-01T10:51:52.207Z</time></trkpt><trkpt lat="42.7421849" lon="11.8594723"><ele>418.0</ele><time>2026-04-01T10:51:53.207Z</time></trkpt><trkpt lat="42.7422153" lon="11.859613"><ele>418.5</ele><time>2026-04-01T10:51:54.207Z</time></trkpt><trkpt lat="42.7422448" lon="11.859767"><ele>419.0</ele><time>2026-04-01T10:51:55.206Z</time></trkpt><trkpt lat="42.742277" lon="11.8599213"><ele>419.5</ele><time>2026-04-01T10:51:56.206Z</time></trkpt><trkpt lat="42.7422983" lon="11.8600749"><ele>420.0</ele><time>2026-04-01T10:51:57.206Z</time></trkpt><trkpt lat="42.7423084" lon="11.860227"><ele>417.6</ele><time>2026-04-01T10:51:58.207Z</time></trkpt><trkpt lat="42.7423096" lon="11.8603795"><ele>415.2</ele><time>2026-04-01T10:51:59.207Z</time></trkpt><trkpt lat="42.7423165" lon="11.8605173"><ele>412.79999999999995</ele><time>2026-04-01T10:52:00.207Z</time></trkpt><trkpt lat="42.7423368" lon="11.8606624"><ele>410.4</ele><time>2026-04-01T10:52:01.206Z</time></trkpt><trkpt lat="42.742359" lon="11.8608035"><ele>408.0</ele><time>2026-04-01T10:52:02.207Z</time></trkpt><trkpt lat="42.7423871" lon="11.8609603"><ele>405.59999999999997</ele><time>2026-04-01T10:52:03.207Z</time></trkpt><trkpt lat="42.7424008" lon="11.8611189"><ele>403.2</ele><time>2026-04-01T10:52:04.207Z</time></trkpt><trkpt lat="42.7423914" lon="11.8612608"><ele>400.8</ele><time>2026-04-01T10:52:05.207Z</time></trkpt><trkpt lat="42.7423637" lon="11.8614005"><ele>398.4</ele><time>2026-04-01T10:52:06.207Z</time></trkpt><trkpt lat="42.7423357" lon="11.8615447"><ele>396.0</ele><time>2026-04-01T10:52:07.207Z</time></trkpt><trkpt lat="42.7423108" lon="11.8616929"><ele>395.4</ele><time>2026-04-01T10:52:08.207Z</time></trkpt><trkpt lat="42.7422814" lon="11.8618493"><ele>394.8</ele><time>2026-04-01T10:52:09.206Z</time></trkpt><trkpt lat="42.7422538" lon="11.8619938"><ele>394.2</ele><time>2026-04-01T10:52:10.206Z</time></trkpt><trkpt lat="42.7422243" lon="11.8621408"><ele>393.59999999999997</ele><time>2026-04-01T10:52:11.206Z</time></trkpt><trkpt lat="42.7421943" lon="11.8622735"><ele>393.0</ele><time>2026-04-01T10:52:12.207Z</time></trkpt><trkpt lat="42.7421705" lon="11.8624083"><ele>393.0</ele><time>2026-04-01T10:52:13.206Z</time></trkpt><trkpt lat="42.7421786" lon="11.8625424"><ele>393.0</ele><time>2026-04-01T10:52:14.207Z</time></trkpt><trkpt lat="42.7422024" lon="11.8626617"><ele>393.0</ele><time>2026-04-01T10:52:15.206Z</time></trkpt><trkpt lat="42.7422477" lon="11.8627629"><ele>393.0</ele><time>2026-04-01T10:52:16.207Z</time></trkpt><trkpt lat="42.7422986" lon="11.862842"><ele>393.0</ele><time>2026-04-01T10:52:17.207Z</time></trkpt><trkpt lat="42.7423745" lon="11.8629044"><ele>393.0</ele><time>2026-04-01T10:52:18.207Z</time></trkpt><trkpt lat="42.7424642" lon="11.8629548"><ele>393.0</ele><time>2026-04-01T10:52:19.206Z</time></trkpt><trkpt lat="42.7425692" lon="11.8630028"><ele>393.0</ele><time>2026-04-01T10:52:20.207Z</time></trkpt><trkpt lat="42.7426816" lon="11.8630494"><ele>393.0</ele><time>2026-04-01T10:52:21.207Z</time></trkpt><trkpt lat="42.7427893" lon="11.8630768"><ele>393.0</ele><time>2026-04-01T10:52:22.207Z</time></trkpt><trkpt lat="42.7428813" lon="11.8630737"><ele>393.0</ele><time>2026-04-01T10:52:23.207Z</time></trkpt><trkpt lat="42.7429581" lon="11.8630613"><ele>393.0</ele><time>2026-04-01T10:52:24.207Z</time></trkpt><trkpt lat="42.7430329" lon="11.8630523"><ele>393.0</ele><time>2026-04-01T10:52:25.207Z</time></trkpt><trkpt lat="42.7431155" lon="11.8630854"><ele>393.0</ele><time>2026-04-01T10:52:26.206Z</time></trkpt><trkpt lat="42.7432036" lon="11.8631538"><ele>393.0</ele><time>2026-04-01T10:52:28.207Z</time></trkpt><trkpt lat="42.7432234" lon="11.8632452"><ele>393.0</ele><time>2026-04-01T10:52:30.207Z</time></trkpt><trkpt lat="42.7433148" lon="11.8632709"><ele>393.0</ele><time>2026-04-01T10:52:42.207Z</time></trkpt><trkpt lat="42.7434244" lon="11.8632204"><ele>393.0</ele><time>2026-04-01T10:52:44.207Z</time></trkpt><trkpt lat="42.7435408" lon="11.8631768"><ele>393.0</ele><time>2026-04-01T10:52:46.206Z</time></trkpt><trkpt lat="42.7436045" lon="11.8631526"><ele>393.0</ele><time>2026-04-01T10:52:47.206Z</time></trkpt><trkpt lat="42.7436786" lon="11.8631237"><ele>393.0</ele><time>2026-04-01T10:52:48.207Z</time></trkpt><trkpt lat="42.7437515" lon="11.8631013"><ele>393.0</ele><time>2026-04-01T10:52:49.207Z</time></trkpt><trkpt lat="42.7438207" lon="11.8630881"><ele>393.0</ele><time>2026-04-01T10:52:50.207Z</time></trkpt><trkpt lat="42.7438923" lon="11.8630835"><ele>393.1666666666667</ele><time>2026-04-01T10:52:51.207Z</time></trkpt><trkpt lat="42.7439623" lon="11.8630925"><ele>393.33333333333337</ele><time>2026-04-01T10:52:52.207Z</time></trkpt><trkpt lat="42.7440332" lon="11.8630944"><ele>393.5</ele><time>2026-04-01T10:52:53.207Z</time></trkpt><trkpt lat="42.7441006" lon="11.8631061"><ele>393.6666666666667</ele><time>2026-04-01T10:52:54.207Z</time></trkpt><trkpt lat="42.7441821" lon="11.8631087"><ele>393.83333333333337</ele><time>2026-04-01T10:52:55.207Z</time></trkpt><trkpt lat="42.7442637" lon="11.8631134"><ele>394.0</ele><time>2026-04-01T10:52:56.206Z</time></trkpt><trkpt lat="42.744346" lon="11.8631091"><ele>393.00000000000006</ele><time>2026-04-01T10:52:57.207Z</time></trkpt><trkpt lat="42.7444328" lon="11.8631099"><ele>392.0</ele><time>2026-04-01T10:52:58.206Z</time></trkpt><trkpt lat="42.7445138" lon="11.8631108"><ele>391.0</ele><time>2026-04-01T10:52:59.207Z</time></trkpt><trkpt lat="42.7446011" lon="11.8631225"><ele>390.0</ele><time>2026-04-01T10:53:00.207Z</time></trkpt><trkpt lat="42.7446814" lon="11.8631398"><ele>389.00000000000006</ele><time>2026-04-01T10:53:01.206Z</time></trkpt><trkpt lat="42.7447612" lon="11.8631547"><ele>388.0</ele><time>2026-04-01T10:53:02.207Z</time></trkpt><trkpt lat="42.7448573" lon="11.8631691"><ele>388.0</ele><time>2026-04-01T10:53:03.207Z</time></trkpt><trkpt lat="42.7449492" lon="11.8631723"><ele>388.0</ele><time>2026-04-01T10:53:04.207Z</time></trkpt><trkpt lat="42.745059" lon="11.8631694"><ele>388.0</ele><time>2026-04-01T10:53:05.206Z</time></trkpt><trkpt lat="42.7451699" lon="11.8631749"><ele>388.0</ele><time>2026-04-01T10:53:06.206Z</time></trkpt><trkpt lat="42.7452683" lon="11.8631838"><ele>388.0</ele><time>2026-04-01T10:53:07.207Z</time></trkpt><trkpt lat="42.7453577" lon="11.8631806"><ele>386.4</ele><time>2026-04-01T10:53:08.207Z</time></trkpt><trkpt lat="42.7454589" lon="11.8631826"><ele>384.79999999999995</ele><time>2026-04-01T10:53:09.207Z</time></trkpt><trkpt lat="42.7455548" lon="11.8631927"><ele>383.2</ele><time>2026-04-01T10:53:10.207Z</time></trkpt><trkpt lat="42.7456457" lon="11.8631985"><ele>381.6</ele><time>2026-04-01T10:53:11.206Z</time></trkpt><trkpt lat="42.7457386" lon="11.8631948"><ele>380.0</ele><time>2026-04-01T10:53:12.207Z</time></trkpt><trkpt lat="42.745824" lon="11.8631925"><ele>380.0</ele><time>2026-04-01T10:53:13.207Z</time></trkpt><trkpt lat="42.7459112" lon="11.8631986"><ele>380.0</ele><time>2026-04-01T10:53:14.207Z</time></trkpt><trkpt lat="42.746" lon="11.8632068"><ele>380.0</ele><time>2026-04-01T10:53:15.207Z</time></trkpt><trkpt lat="42.7460868" lon="11.8632105"><ele>380.0</ele><time>2026-04-01T10:53:16.207Z</time></trkpt><trkpt lat="42.7461719" lon="11.8632141"><ele>380.0</ele><time>2026-04-01T10:53:17.207Z</time></trkpt><trkpt lat="42.7462406" lon="11.8632228"><ele>380.0</ele><time>2026-04-01T10:53:18.206Z</time></trkpt><trkpt lat="42.7463036" lon="11.8632508"><ele>379.5</ele><time>2026-04-01T10:53:20.207Z</time></trkpt><trkpt lat="42.7463848" lon="11.8632652"><ele>379.0</ele><time>2026-04-01T10:53:34.206Z</time></trkpt><trkpt lat="42.7464487" lon="11.8632743"><ele>378.5</ele><time>2026-04-01T10:53:37.207Z</time></trkpt><trkpt lat="42.7463377" lon="11.8631894"><ele>378.0</ele><time>2026-04-01T10:54:06.207Z</time></trkpt><trkpt lat="42.7462698" lon="11.8631629"><ele>377.5</ele><time>2026-04-01T10:54:07.207Z</time></trkpt><trkpt lat="42.7461908" lon="11.8631433"><ele>377.0</ele><time>2026-04-01T10:54:08.207Z</time></trkpt><trkpt lat="42.7461067" lon="11.8631152"><ele>377.75</ele><time>2026-04-01T10:54:09.207Z</time></trkpt><trkpt lat="42.7460094" lon="11.8630946"><ele>378.5</ele><time>2026-04-01T10:54:10.207Z</time></trkpt><trkpt lat="42.745887" lon="11.86307"><ele>379.25</ele><time>2026-04-01T10:54:11.206Z</time></trkpt><trkpt lat="42.7457592" lon="11.8630442"><ele>380.0</ele><time>2026-04-01T10:54:12.207Z</time></trkpt><trkpt lat="42.7456344" lon="11.8630278"><ele>380.0</ele><time>2026-04-01T10:54:13.207Z</time></trkpt><trkpt lat="42.7455003" lon="11.8630171"><ele>380.0</ele><time>2026-04-01T10:54:14.207Z</time></trkpt><trkpt lat="42.7453602" lon="11.8630108"><ele>380.0</ele><time>2026-04-01T10:54:15.207Z</time></trkpt><trkpt lat="42.7451966" lon="11.8630161"><ele>380.0</ele><time>2026-04-01T10:54:16.207Z</time></trkpt><trkpt lat="42.7450165" lon="11.8630124"><ele>382.6666666666667</ele><time>2026-04-01T10:54:17.207Z</time></trkpt><trkpt lat="42.7448363" lon="11.8630098"><ele>385.33333333333337</ele><time>2026-04-01T10:54:18.207Z</time></trkpt><trkpt lat="42.7446537" lon="11.8630051"><ele>388.0</ele><time>2026-04-01T10:54:19.206Z</time></trkpt><trkpt lat="42.7445002" lon="11.8630092"><ele>389.5</ele><time>2026-04-01T10:54:20.207Z</time></trkpt><trkpt lat="42.7443502" lon="11.8630127"><ele>391.0</ele><time>2026-04-01T10:54:21.207Z</time></trkpt><trkpt lat="42.7442119" lon="11.8630161"><ele>392.5</ele><time>2026-04-01T10:54:22.206Z</time></trkpt><trkpt lat="42.7440753" lon="11.8630095"><ele>394.0</ele><time>2026-04-01T10:54:23.207Z</time></trkpt><trkpt lat="42.7439385" lon="11.863001"><ele>394.0</ele><time>2026-04-01T10:54:24.206Z</time></trkpt><trkpt lat="42.7438097" lon="11.8630034"><ele>394.0</ele><time>2026-04-01T10:54:25.207Z</time></trkpt><trkpt lat="42.7436913" lon="11.8630323"><ele>394.0</ele><time>2026-04-01T10:54:26.206Z</time></trkpt><trkpt lat="42.7435706" lon="11.8630802"><ele>394.0</ele><time>2026-04-01T10:54:27.207Z</time></trkpt><trkpt lat="42.7434447" lon="11.8631838"><ele>394.0</ele><time>2026-04-01T10:54:28.206Z</time></trkpt><trkpt lat="42.7433061" lon="11.8632801"><ele>394.0</ele><time>2026-04-01T10:54:29.206Z</time></trkpt><trkpt lat="42.7431507" lon="11.8633734"><ele>394.0</ele><time>2026-04-01T10:54:30.206Z</time></trkpt><trkpt lat="42.7429786" lon="11.8634829"><ele>394.0</ele><time>2026-04-01T10:54:31.206Z</time></trkpt><trkpt lat="42.7427998" lon="11.8635932"><ele>394.0</ele><time>2026-04-01T10:54:32.206Z</time></trkpt><trkpt lat="42.7426402" lon="11.8636851"><ele>394.0</ele><time>2026-04-01T10:54:33.207Z</time></trkpt><trkpt lat="42.7425044" lon="11.8637555"><ele>393.0</ele><time>2026-04-01T10:54:34.206Z</time></trkpt><trkpt lat="42.7424004" lon="11.8638393"><ele>392.0</ele><time>2026-04-01T10:54:35.207Z</time></trkpt><trkpt lat="42.742344" lon="11.8639761"><ele>391.0</ele><time>2026-04-01T10:54:36.207Z</time></trkpt><trkpt lat="42.7423263" lon="11.8641372"><ele>390.0</ele><time>2026-04-01T10:54:37.207Z</time></trkpt><trkpt lat="42.742323" lon="11.8642875"><ele>390.0</ele><time>2026-04-01T10:54:38.207Z</time></trkpt><trkpt lat="42.7423267" lon="11.8644171"><ele>390.0</ele><time>2026-04-01T10:54:39.206Z</time></trkpt><trkpt lat="42.7423092" lon="11.8645165"><ele>390.0</ele><time>2026-04-01T10:54:40.207Z</time></trkpt><trkpt lat="42.7422533" lon="11.8645992"><ele>390.0</ele><time>2026-04-01T10:54:41.207Z</time></trkpt><trkpt lat="42.7421816" lon="11.8646542"><ele>390.0</ele><time>2026-04-01T10:54:42.207Z</time></trkpt><trkpt lat="42.7420927" lon="11.8646696"><ele>390.0</ele><time>2026-04-01T10:54:43.207Z</time></trkpt><trkpt lat="42.7419765" lon="11.8646208"><ele>389.75</ele><time>2026-04-01T10:54:44.207Z</time></trkpt><trkpt lat="42.7418547" lon="11.8645471"><ele>389.5</ele><time>2026-04-01T10:54:45.207Z</time></trkpt><trkpt lat="42.7417415" lon="11.8644826"><ele>389.25</ele><time>2026-04-01T10:54:46.207Z</time></trkpt><trkpt lat="42.741634" lon="11.8644432"><ele>389.0</ele><time>2026-04-01T10:54:47.207Z</time></trkpt><trkpt lat="42.7415348" lon="11.8644567"><ele>388.99999999999994</ele><time>2026-04-01T10:54:48.207Z</time></trkpt><trkpt lat="42.7414448" lon="11.8645207"><ele>389.0</ele><time>2026-04-01T10:54:49.207Z</time></trkpt><trkpt lat="42.7413732" lon="11.864594"><ele>389.0</ele><time>2026-04-01T10:54:50.207Z</time></trkpt><trkpt lat="42.7413229" lon="11.8646657"><ele>389.0</ele><time>2026-04-01T10:54:51.206Z</time></trkpt><trkpt lat="42.7412773" lon="11.8647418"><ele>388.99999999999994</ele><time>2026-04-01T10:54:52.207Z</time></trkpt><trkpt lat="42.7412086" lon="11.8648092"><ele>389.0</ele><time>2026-04-01T10:54:54.207Z</time></trkpt><trkpt lat="42.7411548" lon="11.8648846"><ele>388.99999999999994</ele><time>2026-04-01T10:58:21.208Z</time></trkpt><trkpt lat="42.7412181" lon="11.8648958"><ele>389.0</ele><time>2026-04-01T10:58:30.208Z</time></trkpt><trkpt lat="42.7412614" lon="11.8648174"><ele>389.0</ele><time>2026-04-01T11:00:35.208Z</time></trkpt><trkpt lat="42.7413064" lon="11.8647353"><ele>389.0</ele><time>2026-04-01T11:00:38.208Z</time></trkpt><trkpt lat="42.741387" lon="11.8646457"><ele>388.99999999999994</ele><time>2026-04-01T11:00:48.207Z</time></trkpt><trkpt lat="42.7414551" lon="11.8645836"><ele>389.0</ele><time>2026-04-01T11:00:49.208Z</time></trkpt><trkpt lat="42.7415513" lon="11.8645335"><ele>389.0</ele><time>2026-04-01T11:00:50.208Z</time></trkpt><trkpt lat="42.7416503" lon="11.8645047"><ele>389.0</ele><time>2026-04-01T11:00:51.207Z</time></trkpt><trkpt lat="42.7417546" lon="11.8645076"><ele>389.0</ele><time>2026-04-01T11:00:52.207Z</time></trkpt><trkpt lat="42.7418563" lon="11.8645416"><ele>389.0</ele><time>2026-04-01T11:00:53.208Z</time></trkpt><trkpt lat="42.7419608" lon="11.8645992"><ele>389.0</ele><time>2026-04-01T11:00:54.208Z</time></trkpt><trkpt lat="42.7420608" lon="11.8646569"><ele>389.2</ele><time>2026-04-01T11:00:55.208Z</time></trkpt><trkpt lat="42.7421569" lon="11.8646885"><ele>389.4</ele><time>2026-04-01T11:00:56.208Z</time></trkpt><trkpt lat="42.742253" lon="11.8646775"><ele>389.6</ele><time>2026-04-01T11:00:57.208Z</time></trkpt><trkpt lat="42.7423367" lon="11.8646222"><ele>389.8</ele><time>2026-04-01T11:00:58.208Z</time></trkpt><trkpt lat="42.7424011" lon="11.8645359"><ele>390.0</ele><time>2026-04-01T11:00:59.208Z</time></trkpt><trkpt lat="42.742443" lon="11.8644219"><ele>392.75</ele><time>2026-04-01T11:01:00.207Z</time></trkpt><trkpt lat="42.7424706" lon="11.8642776"><ele>395.5</ele><time>2026-04-01T11:01:01.208Z</time></trkpt><trkpt lat="42.742483" lon="11.8641021"><ele>398.25</ele><time>2026-04-01T11:01:02.207Z</time></trkpt><trkpt lat="42.7425079" lon="11.8639461"><ele>401.0</ele><time>2026-04-01T11:01:03.208Z</time></trkpt><trkpt lat="42.7425568" lon="11.8638151"><ele>401.0</ele><time>2026-04-01T11:01:04.207Z</time></trkpt><trkpt lat="42.7426408" lon="11.8637397"><ele>401.0</ele><time>2026-04-01T11:01:05.208Z</time></trkpt><trkpt lat="42.7427433" lon="11.8636894"><ele>401.0</ele><time>2026-04-01T11:01:06.208Z</time></trkpt><trkpt lat="42.7428461" lon="11.8636302"><ele>401.0</ele><time>2026-04-01T11:01:07.208Z</time></trkpt><trkpt lat="42.7429449" lon="11.8635753"><ele>401.0</ele><time>2026-04-01T11:01:08.208Z</time></trkpt><trkpt lat="42.7430445" lon="11.8635194"><ele>399.6</ele><time>2026-04-01T11:01:09.207Z</time></trkpt><trkpt lat="42.7431494" lon="11.8634559"><ele>398.20000000000005</ele><time>2026-04-01T11:01:10.208Z</time></trkpt><trkpt lat="42.7432596" lon="11.8634023"><ele>396.79999999999995</ele><time>2026-04-01T11:01:11.208Z</time></trkpt><trkpt lat="42.743362" lon="11.8633497"><ele>395.4</ele><time>2026-04-01T11:01:12.208Z</time></trkpt><trkpt lat="42.7434597" lon="11.8632926"><ele>394.0</ele><time>2026-04-01T11:01:13.208Z</time></trkpt><trkpt lat="42.7435566" lon="11.8632256"><ele>394.0</ele><time>2026-04-01T11:01:14.207Z</time></trkpt><trkpt lat="42.7436581" lon="11.863164"><ele>394.0</ele><time>2026-04-01T11:01:15.207Z</time></trkpt><trkpt lat="42.7437722" lon="11.8631053"><ele>394.0</ele><time>2026-04-01T11:01:16.207Z</time></trkpt><trkpt lat="42.7438849" lon="11.863057"><ele>394.0</ele><time>2026-04-01T11:01:17.208Z</time></trkpt><trkpt lat="42.7440099" lon="11.8630375"><ele>394.0</ele><time>2026-04-01T11:01:18.207Z</time></trkpt><trkpt lat="42.7441372" lon="11.8630373"><ele>394.0</ele><time>2026-04-01T11:01:19.208Z</time></trkpt><trkpt lat="42.7442648" lon="11.8630494"><ele>394.0</ele><time>2026-04-01T11:01:20.207Z</time></trkpt><trkpt lat="42.7443935" lon="11.8630564"><ele>394.0</ele><time>2026-04-01T11:01:21.207Z</time></trkpt><trkpt lat="42.7445104" lon="11.8630716"><ele>392.5</ele><time>2026-04-01T11:01:22.208Z</time></trkpt><trkpt lat="42.744637" lon="11.8630811"><ele>391.0</ele><time>2026-04-01T11:01:23.207Z</time></trkpt><trkpt lat="42.7447691" lon="11.8630839"><ele>389.5</ele><time>2026-04-01T11:01:24.207Z</time></trkpt><trkpt lat="42.7449025" lon="11.8630905"><ele>388.0</ele><time>2026-04-01T11:01:25.207Z</time></trkpt><trkpt lat="42.7450394" lon="11.8631047"><ele>388.0</ele><time>2026-04-01T11:01:26.208Z</time></trkpt><trkpt lat="42.7451835" lon="11.8631111"><ele>388.0</ele><time>2026-04-01T11:01:27.208Z</time></trkpt><trkpt lat="42.7453268" lon="11.8631126"><ele>388.0</ele><time>2026-04-01T11:01:28.208Z</time></trkpt><trkpt lat="42.7454671" lon="11.8631255"><ele>388.0</ele><time>2026-04-01T11:01:29.208Z</time></trkpt><trkpt lat="42.7455983" lon="11.8631312"><ele>386.0</ele><time>2026-04-01T11:01:30.207Z</time></trkpt><trkpt lat="42.7457206" lon="11.8631292"><ele>384.0</ele><time>2026-04-01T11:01:31.207Z</time></trkpt><trkpt lat="42.7458343" lon="11.8631364"><ele>382.0</ele><time>2026-04-01T11:01:32.207Z</time></trkpt><trkpt lat="42.745947" lon="11.8631548"><ele>380.0</ele><time>2026-04-01T11:01:33.207Z</time></trkpt><trkpt lat="42.7460587" lon="11.8631712"><ele>379.5</ele><time>2026-04-01T11:01:34.208Z</time></trkpt><trkpt lat="42.7461628" lon="11.8631863"><ele>379.0</ele><time>2026-04-01T11:01:35.207Z</time></trkpt><trkpt lat="42.7462551" lon="11.8631963"><ele>378.5</ele><time>2026-04-01T11:01:36.207Z</time></trkpt><trkpt lat="42.7463208" lon="11.863198"><ele>378.0</ele><time>2026-04-01T11:01:37.208Z</time></trkpt><trkpt lat="42.7464068" lon="11.8631756"><ele>377.5</ele><time>2026-04-01T11:01:39.207Z</time></trkpt><trkpt lat="42.7464558" lon="11.8630804"><ele>377.0</ele><time>2026-04-01T11:01:41.208Z</time></trkpt><trkpt lat="42.7464889" lon="11.8629123"><ele>377.0</ele><time>2026-04-01T11:01:43.208Z</time></trkpt><trkpt lat="42.7464877" lon="11.8627984"><ele>377.0</ele><time>2026-04-01T11:01:44.208Z</time></trkpt><trkpt lat="42.7464919" lon="11.8626931"><ele>377.0</ele><time>2026-04-01T11:01:45.208Z</time></trkpt><trkpt lat="42.7465121" lon="11.8625888"><ele>377.0</ele><time>2026-04-01T11:01:46.208Z</time></trkpt><trkpt lat="42.7465644" lon="11.8624816"><ele>377.0</ele><time>2026-04-01T11:01:47.207Z</time></trkpt><trkpt lat="42.7466241" lon="11.8623736"><ele>377.0</ele><time>2026-04-01T11:01:48.208Z</time></trkpt><trkpt lat="42.7466898" lon="11.8622781"><ele>377.0</ele><time>2026-04-01T11:01:49.207Z</time></trkpt><trkpt lat="42.7467499" lon="11.8621832"><ele>377.0</ele><time>2026-04-01T11:01:50.208Z</time></trkpt><trkpt lat="42.7468071" lon="11.8620933"><ele>377.0</ele><time>2026-04-01T11:01:51.207Z</time></trkpt><trkpt lat="42.7468661" lon="11.8620014"><ele>377.0</ele><time>2026-04-01T11:01:52.207Z</time></trkpt><trkpt lat="42.7469215" lon="11.8618985"><ele>377.0</ele><time>2026-04-01T11:01:53.207Z</time></trkpt><trkpt lat="42.746983" lon="11.8617644"><ele>381.5</ele><time>2026-04-01T11:01:54.207Z</time></trkpt><trkpt lat="42.7470422" lon="11.8616077"><ele>386.0</ele><time>2026-04-01T11:01:55.207Z</time></trkpt><trkpt lat="42.7470772" lon="11.8614459"><ele>390.5</ele><time>2026-04-01T11:01:56.207Z</time></trkpt><trkpt lat="42.7470976" lon="11.8612893"><ele>395.0</ele><time>2026-04-01T11:01:57.208Z</time></trkpt><trkpt lat="42.7471058" lon="11.8611359"><ele>395.0</ele><time>2026-04-01T11:01:58.208Z</time></trkpt><trkpt lat="42.7471273" lon="11.860977"><ele>395.0</ele><time>2026-04-01T11:01:59.208Z</time></trkpt><trkpt lat="42.7471598" lon="11.8608205"><ele>395.0</ele><time>2026-04-01T11:02:00.207Z</time></trkpt><trkpt lat="42.7471986" lon="11.8607081"><ele>395.0</ele><time>2026-04-01T11:02:01.207Z</time></trkpt><trkpt lat="42.7472371" lon="11.8606246"><ele>395.0</ele><time>2026-04-01T11:02:02.208Z</time></trkpt><trkpt lat="42.7473076" lon="11.8605019"><ele>394.99999999999994</ele><time>2026-04-01T11:02:04.208Z</time></trkpt><trkpt lat="42.7472754" lon="11.8605852"><ele>395.0</ele><time>2026-04-01T11:02:12.207Z</time></trkpt><trkpt lat="42.7472396" lon="11.8606855"><ele>395.0</ele><time>2026-04-01T11:02:14.207Z</time></trkpt><trkpt lat="42.7472321" lon="11.8607751"><ele>395.0</ele><time>2026-04-01T11:02:16.208Z</time></trkpt><trkpt lat="42.7472783" lon="11.8608745"><ele>394.99999999999994</ele><time>2026-04-01T11:02:18.208Z</time></trkpt><trkpt lat="42.7473513" lon="11.8609492"><ele>395.0</ele><time>2026-04-01T11:02:20.208Z</time></trkpt><trkpt lat="42.7474123" lon="11.861011"><ele>397.4</ele><time>2026-04-01T11:02:22.208Z</time></trkpt><trkpt lat="42.7473671" lon="11.8609368"><ele>399.8</ele><time>2026-04-01T11:02:29.207Z</time></trkpt><trkpt lat="42.7473093" lon="11.86089"><ele>402.20000000000005</ele><time>2026-04-01T11:02:30.207Z</time></trkpt><trkpt lat="42.7472427" lon="11.8607603"><ele>404.6</ele><time>2026-04-01T11:02:32.208Z</time></trkpt><trkpt lat="42.7472217" lon="11.8606228"><ele>407.0</ele><time>2026-04-01T11:02:34.208Z</time></trkpt><trkpt lat="42.7472562" lon="11.8604862"><ele>406.99999999999994</ele><time>2026-04-01T11:02:36.207Z</time></trkpt><trkpt lat="42.7472293" lon="11.8604002"><ele>407.0</ele><time>2026-04-01T11:02:44.207Z</time></trkpt><trkpt lat="42.7472943" lon="11.8603224"><ele>407.0</ele><time>2026-04-01T11:02:46.207Z</time></trkpt><trkpt lat="42.7473448" lon="11.8602061"><ele>407.0</ele><time>2026-04-01T11:02:48.208Z</time></trkpt><trkpt lat="42.7474042" lon="11.8601238"><ele>406.99999999999994</ele><time>2026-04-01T11:02:51.208Z</time></trkpt><trkpt lat="42.7474899" lon="11.8601003"><ele>407.0</ele><time>2026-04-01T11:02:53.208Z</time></trkpt><trkpt lat="42.7475618" lon="11.8600799"><ele>407.99999999999994</ele><time>2026-04-01T11:02:54.208Z</time></trkpt><trkpt lat="42.7476346" lon="11.8600553"><ele>409.0</ele><time>2026-04-01T11:02:55.207Z</time></trkpt><trkpt lat="42.7477211" lon="11.8600287"><ele>410.0</ele><time>2026-04-01T11:02:56.207Z</time></trkpt><trkpt lat="42.7478004" lon="11.8599983"><ele>411.0</ele><time>2026-04-01T11:02:57.208Z</time></trkpt><trkpt lat="42.7478742" lon="11.8599687"><ele>411.99999999999994</ele><time>2026-04-01T11:02:58.207Z</time></trkpt><trkpt lat="42.7479538" lon="11.8599687"><ele>413.0</ele><time>2026-04-01T11:03:00.207Z</time></trkpt><trkpt lat="42.7480292" lon="11.860006"><ele>413.0</ele><time>2026-04-01T11:03:03.208Z</time></trkpt><trkpt lat="42.7481113" lon="11.8600067"><ele>413.0</ele><time>2026-04-01T11:03:05.208Z</time></trkpt><trkpt lat="42.7482516" lon="11.8599938"><ele>413.0</ele><time>2026-04-01T11:03:07.207Z</time></trkpt><trkpt lat="42.7483282" lon="11.8599842"><ele>413.0</ele><time>2026-04-01T11:03:08.208Z</time></trkpt><trkpt lat="42.7484126" lon="11.8599689"><ele>413.0</ele><time>2026-04-01T11:03:09.208Z</time></trkpt><trkpt lat="42.7484971" lon="11.8599401"><ele>412.79999999999995</ele><time>2026-04-01T11:03:10.207Z</time></trkpt><trkpt lat="42.7485869" lon="11.8599069"><ele>412.6</ele><time>2026-04-01T11:03:11.208Z</time></trkpt><trkpt lat="42.7486749" lon="11.8598802"><ele>412.4</ele><time>2026-04-01T11:03:12.207Z</time></trkpt><trkpt lat="42.7488105" lon="11.8598695"><ele>412.20000000000005</ele><time>2026-04-01T11:03:14.208Z</time></trkpt><trkpt lat="42.7489017" lon="11.8599016"><ele>412.0</ele><time>2026-04-01T11:03:15.207Z</time></trkpt><trkpt lat="42.7489521" lon="11.859955"><ele>412.0</ele><time>2026-04-01T11:03:16.208Z</time></trkpt><trkpt lat="42.7490338" lon="11.8600148"><ele>412.0</ele><time>2026-04-01T11:03:17.207Z</time></trkpt><trkpt lat="42.7491245" lon="11.8601019"><ele>412.0</ele><time>2026-04-01T11:03:18.208Z</time></trkpt><trkpt lat="42.7492216" lon="11.8601725"><ele>412.0</ele><time>2026-04-01T11:03:19.207Z</time></trkpt><trkpt lat="42.7493156" lon="11.8602178"><ele>412.0</ele><time>2026-04-01T11:03:20.208Z</time></trkpt><trkpt lat="42.7494146" lon="11.8602447"><ele>409.40000000000003</ele><time>2026-04-01T11:03:21.207Z</time></trkpt><trkpt lat="42.7495295" lon="11.860245"><ele>406.8</ele><time>2026-04-01T11:03:22.209Z</time></trkpt><trkpt lat="42.7496404" lon="11.8602324"><ele>404.2</ele><time>2026-04-01T11:03:23.209Z</time></trkpt><trkpt lat="42.7497479" lon="11.8602193"><ele>401.6</ele><time>2026-04-01T11:03:24.209Z</time></trkpt><trkpt lat="42.7498563" lon="11.8602064"><ele>399.0</ele><time>2026-04-01T11:03:25.209Z</time></trkpt><trkpt lat="42.749954" lon="11.8601981"><ele>399.0</ele><time>2026-04-01T11:03:26.209Z</time></trkpt><trkpt lat="42.7500495" lon="11.8601764"><ele>399.0</ele><time>2026-04-01T11:03:27.208Z</time></trkpt><trkpt lat="42.7501394" lon="11.8601535"><ele>399.0</ele><time>2026-04-01T11:03:28.208Z</time></trkpt><trkpt lat="42.7502287" lon="11.8601176"><ele>399.0</ele><time>2026-04-01T11:03:29.209Z</time></trkpt><trkpt lat="42.7503159" lon="11.8600844"><ele>399.0</ele><time>2026-04-01T11:03:30.209Z</time></trkpt><trkpt lat="42.7504204" lon="11.8600624"><ele>400.4</ele><time>2026-04-01T11:03:31.209Z</time></trkpt><trkpt lat="42.7505188" lon="11.8600702"><ele>401.79999999999995</ele><time>2026-04-01T11:03:32.208Z</time></trkpt><trkpt lat="42.7506234" lon="11.8601032"><ele>403.20000000000005</ele><time>2026-04-01T11:03:33.208Z</time></trkpt><trkpt lat="42.7507222" lon="11.8601384"><ele>404.6</ele><time>2026-04-01T11:03:34.208Z</time></trkpt><trkpt lat="42.7508236" lon="11.8601644"><ele>406.0</ele><time>2026-04-01T11:03:35.209Z</time></trkpt><trkpt lat="42.7509324" lon="11.8601758"><ele>403.8</ele><time>2026-04-01T11:03:36.209Z</time></trkpt><trkpt lat="42.7510302" lon="11.8601643"><ele>401.6</ele><time>2026-04-01T11:03:37.209Z</time></trkpt><trkpt lat="42.7511282" lon="11.8601288"><ele>399.4</ele><time>2026-04-01T11:03:38.208Z</time></trkpt><trkpt lat="42.7512194" lon="11.8600431"><ele>397.2</ele><time>2026-04-01T11:03:39.208Z</time></trkpt><trkpt lat="42.7513009" lon="11.8599241"><ele>395.0</ele><time>2026-04-01T11:03:40.208Z</time></trkpt><trkpt lat="42.7513716" lon="11.8597981"><ele>395.0</ele><time>2026-04-01T11:03:41.208Z</time></trkpt><trkpt lat="42.751428" lon="11.8596616"><ele>395.0</ele><time>2026-04-01T11:03:42.208Z</time></trkpt><trkpt lat="42.7514776" lon="11.8595218"><ele>395.0</ele><time>2026-04-01T11:03:43.209Z</time></trkpt><trkpt lat="42.7515363" lon="11.8593844"><ele>395.0</ele><time>2026-04-01T11:03:44.209Z</time></trkpt><trkpt lat="42.7516175" lon="11.8592468"><ele>396.0</ele><time>2026-04-01T11:03:45.209Z</time></trkpt><trkpt lat="42.7517125" lon="11.8591331"><ele>397.0</ele><time>2026-04-01T11:03:46.209Z</time></trkpt><trkpt lat="42.7518174" lon="11.8590224"><ele>398.0</ele><time>2026-04-01T11:03:47.209Z</time></trkpt><trkpt lat="42.7519087" lon="11.8589286"><ele>399.0</ele><time>2026-04-01T11:03:48.209Z</time></trkpt><trkpt lat="42.7519889" lon="11.8588451"><ele>399.25</ele><time>2026-04-01T11:03:49.209Z</time></trkpt><trkpt lat="42.7520757" lon="11.8587525"><ele>399.5</ele><time>2026-04-01T11:03:50.208Z</time></trkpt><trkpt lat="42.7521619" lon="11.8586471"><ele>399.75</ele><time>2026-04-01T11:03:51.209Z</time></trkpt><trkpt lat="42.7522375" lon="11.8585306"><ele>400.0</ele><time>2026-04-01T11:03:52.209Z</time></trkpt><trkpt lat="42.752308" lon="11.8584058"><ele>400.0</ele><time>2026-04-01T11:03:53.209Z</time></trkpt><trkpt lat="42.7523672" lon="11.8582567"><ele>400.0</ele><time>2026-04-01T11:03:54.209Z</time></trkpt><trkpt lat="42.752425" lon="11.8580904"><ele>400.0</ele><time>2026-04-01T11:03:55.208Z</time></trkpt><trkpt lat="42.7524851" lon="11.8579325"><ele>400.0</ele><time>2026-04-01T11:03:56.209Z</time></trkpt><trkpt lat="42.7525595" lon="11.85778"><ele>400.0</ele><time>2026-04-01T11:03:57.209Z</time></trkpt><trkpt lat="42.752654" lon="11.8576443"><ele>400.0</ele><time>2026-04-01T11:03:58.208Z</time></trkpt><trkpt lat="42.7527476" lon="11.8575168"><ele>400.0</ele><time>2026-04-01T11:03:59.209Z</time></trkpt><trkpt lat="42.7528473" lon="11.8574009"><ele>400.0</ele><time>2026-04-01T11:04:00.209Z</time></trkpt><trkpt lat="42.7529388" lon="11.8572761"><ele>400.25</ele><time>2026-04-01T11:04:01.209Z</time></trkpt><trkpt lat="42.7530295" lon="11.857153"><ele>400.5</ele><time>2026-04-01T11:04:02.209Z</time></trkpt><trkpt lat="42.7531155" lon="11.8570227"><ele>400.75</ele><time>2026-04-01T11:04:03.208Z</time></trkpt><trkpt lat="42.7531931" lon="11.8568956"><ele>401.0</ele><time>2026-04-01T11:04:04.209Z</time></trkpt><trkpt lat="42.75327" lon="11.8567786"><ele>401.0</ele><time>2026-04-01T11:04:05.209Z</time></trkpt><trkpt lat="42.7533473" lon="11.8566715"><ele>401.0</ele><time>2026-04-01T11:04:06.209Z</time></trkpt><trkpt lat="42.7534106" lon="11.8565704"><ele>401.0</ele><time>2026-04-01T11:04:07.208Z</time></trkpt><trkpt lat="42.7534685" lon="11.8564791"><ele>401.0</ele><time>2026-04-01T11:04:08.209Z</time></trkpt><trkpt lat="42.7535276" lon="11.8563993"><ele>401.0</ele><time>2026-04-01T11:04:09.209Z</time></trkpt><trkpt lat="42.7535916" lon="11.8563203"><ele>399.6</ele><time>2026-04-01T11:04:10.208Z</time></trkpt><trkpt lat="42.7536557" lon="11.8562401"><ele>398.20000000000005</ele><time>2026-04-01T11:04:11.209Z</time></trkpt><trkpt lat="42.7537347" lon="11.8561556"><ele>396.79999999999995</ele><time>2026-04-01T11:04:12.209Z</time></trkpt><trkpt lat="42.7538142" lon="11.8560634"><ele>395.4</ele><time>2026-04-01T11:04:13.208Z</time></trkpt><trkpt lat="42.7538838" lon="11.8559735"><ele>394.0</ele><time>2026-04-01T11:04:14.209Z</time></trkpt><trkpt lat="42.7539487" lon="11.8558846"><ele>394.0</ele><time>2026-04-01T11:04:15.209Z</time></trkpt><trkpt lat="42.7540181" lon="11.8558006"><ele>394.0</ele><time>2026-04-01T11:04:16.209Z</time></trkpt><trkpt lat="42.7540992" lon="11.8557192"><ele>394.0</ele><time>2026-04-01T11:04:17.208Z</time></trkpt><trkpt lat="42.7541767" lon="11.8556406"><ele>394.0</ele><time>2026-04-01T11:04:18.208Z</time></trkpt><trkpt lat="42.7542496" lon="11.855572"><ele>394.0</ele><time>2026-04-01T11:04:19.208Z</time></trkpt><trkpt lat="42.7543113" lon="11.8555023"><ele>394.00000000000006</ele><time>2026-04-01T11:04:20.209Z</time></trkpt><trkpt lat="42.7543673" lon="11.8554398"><ele>394.0</ele><time>2026-04-01T11:04:21.208Z</time></trkpt><trkpt lat="42.7544411" lon="11.8553743"><ele>394.0</ele><time>2026-04-01T11:04:22.209Z</time></trkpt><trkpt lat="42.7545234" lon="11.8553148"><ele>394.0</ele><time>2026-04-01T11:04:23.208Z</time></trkpt><trkpt lat="42.7546019" lon="11.8552627"><ele>394.00000000000006</ele><time>2026-04-01T11:04:24.209Z</time></trkpt><trkpt lat="42.7546804" lon="11.8552152"><ele>394.0</ele><time>2026-04-01T11:04:25.209Z</time></trkpt><trkpt lat="42.754769" lon="11.8551688"><ele>393.2</ele><time>2026-04-01T11:04:26.209Z</time></trkpt><trkpt lat="42.7548605" lon="11.8551322"><ele>392.4</ele><time>2026-04-01T11:04:27.208Z</time></trkpt><trkpt lat="42.7549606" lon="11.8550897"><ele>391.6</ele><time>2026-04-01T11:04:28.209Z</time></trkpt><trkpt lat="42.7550485" lon="11.85505"><ele>390.8</ele><time>2026-04-01T11:04:29.209Z</time></trkpt><trkpt lat="42.7551398" lon="11.8549977"><ele>390.0</ele><time>2026-04-01T11:04:30.209Z</time></trkpt><trkpt lat="42.7552328" lon="11.85495"><ele>390.0</ele><time>2026-04-01T11:04:31.208Z</time></trkpt><trkpt lat="42.7553112" lon="11.8549089"><ele>390.0</ele><time>2026-04-01T11:04:32.209Z</time></trkpt><trkpt lat="42.7553933" lon="11.8548602"><ele>390.0</ele><time>2026-04-01T11:04:33.208Z</time></trkpt><trkpt lat="42.7554775" lon="11.8548233"><ele>390.0</ele><time>2026-04-01T11:04:34.208Z</time></trkpt><trkpt lat="42.7555738" lon="11.8547905"><ele>390.0</ele><time>2026-04-01T11:04:36.209Z</time></trkpt><trkpt lat="42.7555818" lon="11.8546758"><ele>390.0</ele><time>2026-04-01T11:04:39.209Z</time></trkpt><trkpt lat="42.7555483" lon="11.8545938"><ele>390.0</ele><time>2026-04-01T11:04:41.209Z</time></trkpt><trkpt lat="42.7554897" lon="11.854458"><ele>390.0</ele><time>2026-04-01T11:04:43.208Z</time></trkpt><trkpt lat="42.7553987" lon="11.854343"><ele>390.0</ele><time>2026-04-01T11:04:45.209Z</time></trkpt><trkpt lat="42.7553395" lon="11.8542577"><ele>390.0</ele><time>2026-04-01T11:04:47.208Z</time></trkpt><trkpt lat="42.7553821" lon="11.8541173"><ele>390.0</ele><time>2026-04-01T11:04:49.208Z</time></trkpt><trkpt lat="42.7554379" lon="11.854018"><ele>390.8</ele><time>2026-04-01T11:04:50.209Z</time></trkpt><trkpt lat="42.7554966" lon="11.853906"><ele>391.6</ele><time>2026-04-01T11:04:51.208Z</time></trkpt><trkpt lat="42.7555528" lon="11.8537924"><ele>392.4</ele><time>2026-04-01T11:04:52.209Z</time></trkpt><trkpt lat="42.7556061" lon="11.8536791"><ele>393.2</ele><time>2026-04-01T11:04:53.209Z</time></trkpt><trkpt lat="42.755652" lon="11.853585"><ele>394.0</ele><time>2026-04-01T11:04:54.208Z</time></trkpt><trkpt lat="42.7557003" lon="11.8534919"><ele>394.79999999999995</ele><time>2026-04-01T11:04:55.208Z</time></trkpt><trkpt lat="42.7557395" lon="11.8534031"><ele>395.59999999999997</ele><time>2026-04-01T11:04:56.208Z</time></trkpt><trkpt lat="42.7557731" lon="11.8533125"><ele>396.4</ele><time>2026-04-01T11:04:57.209Z</time></trkpt><trkpt lat="42.7558021" lon="11.8532319"><ele>397.2</ele><time>2026-04-01T11:04:58.208Z</time></trkpt><trkpt lat="42.7558008" lon="11.8530823"><ele>398.0</ele><time>2026-04-01T11:05:00.209Z</time></trkpt><trkpt lat="42.7557105" lon="11.8529581"><ele>397.99999999999994</ele><time>2026-04-01T11:05:02.208Z</time></trkpt><trkpt lat="42.7556308" lon="11.852903"><ele>398.0</ele><time>2026-04-01T11:05:03.209Z</time></trkpt><trkpt lat="42.7555513" lon="11.8528419"><ele>398.0</ele><time>2026-04-01T11:05:04.209Z</time></trkpt><trkpt lat="42.7554757" lon="11.8527827"><ele>398.0</ele><time>2026-04-01T11:05:05.209Z</time></trkpt><trkpt lat="42.7554177" lon="11.8527211"><ele>397.99999999999994</ele><time>2026-04-01T11:05:06.209Z</time></trkpt><trkpt lat="42.7553736" lon="11.8526447"><ele>398.0</ele><time>2026-04-01T11:05:07.208Z</time></trkpt><trkpt lat="42.7553143" lon="11.852489"><ele>397.99999999999994</ele><time>2026-04-01T11:05:09.208Z</time></trkpt><trkpt lat="42.7552804" lon="11.8523927"><ele>398.0</ele><time>2026-04-01T11:05:10.209Z</time></trkpt><trkpt lat="42.7552405" lon="11.8522795"><ele>398.0</ele><time>2026-04-01T11:05:11.208Z</time></trkpt><trkpt lat="42.7552033" lon="11.8521561"><ele>398.0</ele><time>2026-04-01T11:05:12.209Z</time></trkpt><trkpt lat="42.7551784" lon="11.8520398"><ele>397.99999999999994</ele><time>2026-04-01T11:05:13.208Z</time></trkpt><trkpt lat="42.75515" lon="11.8519348"><ele>398.0</ele><time>2026-04-01T11:05:14.208Z</time></trkpt><trkpt lat="42.7551292" lon="11.8518349"><ele>398.4</ele><time>2026-04-01T11:05:15.209Z</time></trkpt><trkpt lat="42.7551235" lon="11.8516887"><ele>398.79999999999995</ele><time>2026-04-01T11:05:17.209Z</time></trkpt><trkpt lat="42.755155" lon="11.8515366"><ele>399.2</ele><time>2026-04-01T11:05:19.209Z</time></trkpt><trkpt lat="42.7551964" lon="11.8514297"><ele>399.6</ele><time>2026-04-01T11:05:21.209Z</time></trkpt><trkpt lat="42.7552925" lon="11.8513406"><ele>400.0</ele><time>2026-04-01T11:05:23.209Z</time></trkpt><trkpt lat="42.7553547" lon="11.8512752"><ele>400.2</ele><time>2026-04-01T11:05:24.209Z</time></trkpt><trkpt lat="42.7554169" lon="11.8511936"><ele>400.4</ele><time>2026-04-01T11:05:25.208Z</time></trkpt><trkpt lat="42.7554833" lon="11.8510972"><ele>400.6</ele><time>2026-04-01T11:05:26.208Z</time></trkpt><trkpt lat="42.7555509" lon="11.8510002"><ele>400.8</ele><time>2026-04-01T11:05:27.209Z</time></trkpt><trkpt lat="42.7556074" lon="11.8508951"><ele>401.0</ele><time>2026-04-01T11:05:28.209Z</time></trkpt><trkpt lat="42.7556471" lon="11.850805"><ele>401.0</ele><time>2026-04-01T11:05:29.208Z</time></trkpt><trkpt lat="42.755703" lon="11.8506752"><ele>401.0</ele><time>2026-04-01T11:05:31.209Z</time></trkpt><trkpt lat="42.7556982" lon="11.8505872"><ele>401.0</ele><time>2026-04-01T11:05:33.209Z</time></trkpt><trkpt lat="42.7556509" lon="11.8505289"><ele>401.0</ele><time>2026-04-01T11:05:35.208Z</time></trkpt><trkpt lat="42.7555819" lon="11.8504547"><ele>401.0</ele><time>2026-04-01T11:05:37.208Z</time></trkpt><trkpt lat="42.7555055" lon="11.8503224"><ele>400.99999999999994</ele><time>2026-04-01T11:05:39.209Z</time></trkpt><trkpt lat="42.7554787" lon="11.8502159"><ele>401.0</ele><time>2026-04-01T11:05:41.209Z</time></trkpt><trkpt lat="42.7554958" lon="11.8501164"><ele>401.0</ele><time>2026-04-01T11:05:43.209Z</time></trkpt><trkpt lat="42.755528" lon="11.8500272"><ele>401.0</ele><time>2026-04-01T11:05:45.209Z</time></trkpt><trkpt lat="42.7555517" lon="11.8499477"><ele>400.99999999999994</ele><time>2026-04-01T11:05:46.209Z</time></trkpt><trkpt lat="42.7555657" lon="11.8498295"><ele>401.0</ele><time>2026-04-01T11:05:47.209Z</time></trkpt><trkpt lat="42.7555606" lon="11.8497048"><ele>396.6</ele><time>2026-04-01T11:05:48.208Z</time></trkpt><trkpt lat="42.7555364" lon="11.8495899"><ele>392.20000000000005</ele><time>2026-04-01T11:05:49.208Z</time></trkpt><trkpt lat="42.7554947" lon="11.8494886"><ele>387.79999999999995</ele><time>2026-04-01T11:05:50.208Z</time></trkpt><trkpt lat="42.7554419" lon="11.8493877"><ele>383.4</ele><time>2026-04-01T11:05:51.209Z</time></trkpt><trkpt lat="42.7553692" lon="11.8493019"><ele>379.0</ele><time>2026-04-01T11:05:52.209Z</time></trkpt><trkpt lat="42.7553025" lon="11.8492177"><ele>376.8333333333333</ele><time>2026-04-01T11:05:53.209Z</time></trkpt><trkpt lat="42.7552512" lon="11.8491292"><ele>374.66666666666663</ele><time>2026-04-01T11:05:54.209Z</time></trkpt><trkpt lat="42.7552192" lon="11.849043"><ele>372.5</ele><time>2026-04-01T11:05:55.208Z</time></trkpt><trkpt lat="42.7552527" lon="11.8488904"><ele>370.3333333333333</ele><time>2026-04-01T11:05:57.208Z</time></trkpt><trkpt lat="42.7553145" lon="11.8488369"><ele>368.1666666666667</ele><time>2026-04-01T11:05:58.208Z</time></trkpt><trkpt lat="42.7554123" lon="11.8488046"><ele>366.0</ele><time>2026-04-01T11:05:59.209Z</time></trkpt><trkpt lat="42.7555415" lon="11.8487874"><ele>366.0</ele><time>2026-04-01T11:06:00.209Z</time></trkpt><trkpt lat="42.7556903" lon="11.848818"><ele>366.0</ele><time>2026-04-01T11:06:01.209Z</time></trkpt><trkpt lat="42.7558573" lon="11.8489236"><ele>366.0</ele><time>2026-04-01T11:06:02.208Z</time></trkpt><trkpt lat="42.7560182" lon="11.8490496"><ele>362.25</ele><time>2026-04-01T11:06:03.208Z</time></trkpt><trkpt lat="42.7561576" lon="11.8491333"><ele>358.5</ele><time>2026-04-01T11:06:04.208Z</time></trkpt><trkpt lat="42.7562897" lon="11.8491712"><ele>354.75</ele><time>2026-04-01T11:06:05.209Z</time></trkpt><trkpt lat="42.756403" lon="11.8492058"><ele>351.0</ele><time>2026-04-01T11:06:06.209Z</time></trkpt><trkpt lat="42.7565021" lon="11.8492551"><ele>350.6</ele><time>2026-04-01T11:06:07.209Z</time></trkpt><trkpt lat="42.7565994" lon="11.849304"><ele>350.20000000000005</ele><time>2026-04-01T11:06:08.209Z</time></trkpt><trkpt lat="42.7566972" lon="11.8493481"><ele>349.79999999999995</ele><time>2026-04-01T11:06:09.209Z</time></trkpt><trkpt lat="42.7567957" lon="11.8493825"><ele>349.4</ele><time>2026-04-01T11:06:10.208Z</time></trkpt><trkpt lat="42.7568791" lon="11.8494012"><ele>349.0</ele><time>2026-04-01T11:06:11.208Z</time></trkpt><trkpt lat="42.7569544" lon="11.8494086"><ele>349.0</ele><time>2026-04-01T11:06:12.209Z</time></trkpt><trkpt lat="42.7570735" lon="11.8493441"><ele>349.0</ele><time>2026-04-01T11:06:14.208Z</time></trkpt><trkpt lat="42.7571298" lon="11.8492536"><ele>349.0</ele><time>2026-04-01T11:06:15.209Z</time></trkpt><trkpt lat="42.7571862" lon="11.8491547"><ele>349.0</ele><time>2026-04-01T11:06:16.209Z</time></trkpt><trkpt lat="42.7572324" lon="11.8490433"><ele>349.0</ele><time>2026-04-01T11:06:17.209Z</time></trkpt><trkpt lat="42.7572689" lon="11.84894"><ele>346.79999999999995</ele><time>2026-04-01T11:06:18.209Z</time></trkpt><trkpt lat="42.7572854" lon="11.8488401"><ele>344.59999999999997</ele><time>2026-04-01T11:06:19.209Z</time></trkpt><trkpt lat="42.7572918" lon="11.8487354"><ele>342.4</ele><time>2026-04-01T11:06:20.209Z</time></trkpt><trkpt lat="42.7572684" lon="11.8486122"><ele>340.2</ele><time>2026-04-01T11:06:21.209Z</time></trkpt><trkpt lat="42.7572237" lon="11.8484779"><ele>338.0</ele><time>2026-04-01T11:06:22.208Z</time></trkpt><trkpt lat="42.7571673" lon="11.8483534"><ele>336.75</ele><time>2026-04-01T11:06:23.209Z</time></trkpt><trkpt lat="42.7570889" lon="11.8482245"><ele>335.5</ele><time>2026-04-01T11:06:24.208Z</time></trkpt><trkpt lat="42.7569798" lon="11.8480871"><ele>334.25</ele><time>2026-04-01T11:06:25.208Z</time></trkpt><trkpt lat="42.7568575" lon="11.8479656"><ele>333.0</ele><time>2026-04-01T11:06:26.209Z</time></trkpt><trkpt lat="42.7567441" lon="11.8478581"><ele>331.75</ele><time>2026-04-01T11:06:27.209Z</time></trkpt><trkpt lat="42.7566327" lon="11.8477571"><ele>330.5</ele><time>2026-04-01T11:06:28.208Z</time></trkpt><trkpt lat="42.7565251" lon="11.8476644"><ele>329.25</ele><time>2026-04-01T11:06:29.209Z</time></trkpt><trkpt lat="42.7564066" lon="11.8475865"><ele>328.0</ele><time>2026-04-01T11:06:30.209Z</time></trkpt><trkpt lat="42.756282" lon="11.8475135"><ele>328.0</ele><time>2026-04-01T11:06:31.209Z</time></trkpt><trkpt lat="42.7561625" lon="11.8474456"><ele>328.0</ele><time>2026-04-01T11:06:32.208Z</time></trkpt><trkpt lat="42.756057" lon="11.8473811"><ele>328.0</ele><time>2026-04-01T11:06:33.209Z</time></trkpt><trkpt lat="42.755972" lon="11.8473277"><ele>328.0</ele><time>2026-04-01T11:06:34.209Z</time></trkpt><trkpt lat="42.7558971" lon="11.8472773"><ele>328.0</ele><time>2026-04-01T11:06:35.209Z</time></trkpt><trkpt lat="42.7558305" lon="11.8472196"><ele>327.66666666666663</ele><time>2026-04-01T11:06:36.209Z</time></trkpt><trkpt lat="42.7557617" lon="11.84717"><ele>327.3333333333333</ele><time>2026-04-01T11:06:37.208Z</time></trkpt><trkpt lat="42.7556903" lon="11.847116"><ele>327.0</ele><time>2026-04-01T11:06:38.208Z</time></trkpt><trkpt lat="42.7556288" lon="11.8470558"><ele>326.6666666666667</ele><time>2026-04-01T11:06:39.209Z</time></trkpt><trkpt lat="42.7555852" lon="11.8469651"><ele>326.33333333333337</ele><time>2026-04-01T11:06:40.208Z</time></trkpt><trkpt lat="42.7555388" lon="11.8468658"><ele>326.0</ele><time>2026-04-01T11:06:41.209Z</time></trkpt><trkpt lat="42.7554987" lon="11.8467559"><ele>326.0</ele><time>2026-04-01T11:06:42.208Z</time></trkpt><trkpt lat="42.7554619" lon="11.8466292"><ele>326.0</ele><time>2026-04-01T11:06:43.209Z</time></trkpt><trkpt lat="42.7554441" lon="11.8465124"><ele>326.0</ele><time>2026-04-01T11:06:44.209Z</time></trkpt><trkpt lat="42.755422" lon="11.8463879"><ele>326.0</ele><time>2026-04-01T11:06:45.208Z</time></trkpt><trkpt lat="42.7554031" lon="11.8462791"><ele>326.0</ele><time>2026-04-01T11:06:46.209Z</time></trkpt><trkpt lat="42.7553804" lon="11.8461799"><ele>326.0</ele><time>2026-04-01T11:06:47.209Z</time></trkpt><trkpt lat="42.7553547" lon="11.8460896"><ele>326.0</ele><time>2026-04-01T11:06:48.208Z</time></trkpt><trkpt lat="42.7553473" lon="11.8459655"><ele>326.0</ele><time>2026-04-01T11:06:50.209Z</time></trkpt><trkpt lat="42.7553749" lon="11.8458515"><ele>326.0</ele><time>2026-04-01T11:06:52.208Z</time></trkpt><trkpt lat="42.7554863" lon="11.8457658"><ele>326.0</ele><time>2026-04-01T11:06:54.209Z</time></trkpt><trkpt lat="42.7555908" lon="11.8457387"><ele>326.0</ele><time>2026-04-01T11:06:55.209Z</time></trkpt><trkpt lat="42.7557147" lon="11.845718"><ele>324.75</ele><time>2026-04-01T11:06:56.208Z</time></trkpt><trkpt lat="42.7558492" lon="11.8457009"><ele>323.5</ele><time>2026-04-01T11:06:57.208Z</time></trkpt><trkpt lat="42.7559864" lon="11.8456869"><ele>322.25</ele><time>2026-04-01T11:06:58.208Z</time></trkpt><trkpt lat="42.7561421" lon="11.8456845"><ele>321.0</ele><time>2026-04-01T11:06:59.209Z</time></trkpt><trkpt lat="42.756312" lon="11.8456855"><ele>317.75</ele><time>2026-04-01T11:07:00.209Z</time></trkpt><trkpt lat="42.7564705" lon="11.8456963"><ele>314.5</ele><time>2026-04-01T11:07:01.209Z</time></trkpt><trkpt lat="42.7566197" lon="11.8457084"><ele>311.25</ele><time>2026-04-01T11:07:02.209Z</time></trkpt><trkpt lat="42.7567537" lon="11.8457156"><ele>308.0</ele><time>2026-04-01T11:07:03.208Z</time></trkpt><trkpt lat="42.7568835" lon="11.845743"><ele>305.75</ele><time>2026-04-01T11:07:04.209Z</time></trkpt><trkpt lat="42.7570141" lon="11.8457768"><ele>303.5</ele><time>2026-04-01T11:07:05.209Z</time></trkpt><trkpt lat="42.7571408" lon="11.8458101"><ele>301.25</ele><time>2026-04-01T11:07:06.208Z</time></trkpt><trkpt lat="42.7572665" lon="11.8458343"><ele>299.0</ele><time>2026-04-01T11:07:07.208Z</time></trkpt><trkpt lat="42.7573845" lon="11.8458447"><ele>299.0</ele><time>2026-04-01T11:07:08.209Z</time></trkpt><trkpt lat="42.7575162" lon="11.8458534"><ele>299.0</ele><time>2026-04-01T11:07:09.209Z</time></trkpt><trkpt lat="42.7576466" lon="11.8458473"><ele>299.0</ele><time>2026-04-01T11:07:10.208Z</time></trkpt><trkpt lat="42.7577693" lon="11.8458301"><ele>299.0</ele><time>2026-04-01T11:07:11.209Z</time></trkpt><trkpt lat="42.7578862" lon="11.8458283"><ele>298.4</ele><time>2026-04-01T11:07:12.209Z</time></trkpt><trkpt lat="42.7579908" lon="11.8458413"><ele>297.79999999999995</ele><time>2026-04-01T11:07:13.209Z</time></trkpt><trkpt lat="42.758087" lon="11.8458712"><ele>297.20000000000005</ele><time>2026-04-01T11:07:14.209Z</time></trkpt><trkpt lat="42.7581869" lon="11.8459103"><ele>296.6</ele><time>2026-04-01T11:07:15.209Z</time></trkpt><trkpt lat="42.7582835" lon="11.845954"><ele>296.0</ele><time>2026-04-01T11:07:16.208Z</time></trkpt><trkpt lat="42.7583792" lon="11.8459984"><ele>297.75</ele><time>2026-04-01T11:07:17.208Z</time></trkpt><trkpt lat="42.758464" lon="11.8460485"><ele>299.5</ele><time>2026-04-01T11:07:18.209Z</time></trkpt><trkpt lat="42.7585575" lon="11.8461135"><ele>301.25</ele><time>2026-04-01T11:07:19.209Z</time></trkpt><trkpt lat="42.7586643" lon="11.8461947"><ele>303.0</ele><time>2026-04-01T11:07:20.209Z</time></trkpt><trkpt lat="42.7587776" lon="11.8462847"><ele>299.25</ele><time>2026-04-01T11:07:21.209Z</time></trkpt><trkpt lat="42.7588988" lon="11.846378"><ele>295.5</ele><time>2026-04-01T11:07:22.209Z</time></trkpt><trkpt lat="42.7590073" lon="11.8464641"><ele>291.75</ele><time>2026-04-01T11:07:23.208Z</time></trkpt><trkpt lat="42.7591139" lon="11.8465419"><ele>288.0</ele><time>2026-04-01T11:07:24.209Z</time></trkpt><trkpt lat="42.7592171" lon="11.8466193"><ele>288.0</ele><time>2026-04-01T11:07:25.208Z</time></trkpt><trkpt lat="42.7593013" lon="11.8466981"><ele>288.0</ele><time>2026-04-01T11:07:26.209Z</time></trkpt><trkpt lat="42.7593821" lon="11.8467712"><ele>288.0</ele><time>2026-04-01T11:07:27.209Z</time></trkpt><trkpt lat="42.7594571" lon="11.8468307"><ele>288.0</ele><time>2026-04-01T11:07:28.209Z</time></trkpt><trkpt lat="42.7595182" lon="11.846871"><ele>288.0</ele><time>2026-04-01T11:07:29.209Z</time></trkpt><trkpt lat="42.7596138" lon="11.8469443"><ele>285.8333333333333</ele><time>2026-04-01T11:07:31.209Z</time></trkpt><trkpt lat="42.7596677" lon="11.8469955"><ele>283.6666666666667</ele><time>2026-04-01T11:07:33.208Z</time></trkpt><trkpt lat="42.7597343" lon="11.8469784"><ele>281.5</ele><time>2026-04-01T11:07:37.208Z</time></trkpt><trkpt lat="42.7597311" lon="11.8468908"><ele>279.33333333333337</ele><time>2026-04-01T11:07:39.209Z</time></trkpt><trkpt lat="42.7596902" lon="11.8467218"><ele>277.1666666666667</ele><time>2026-04-01T11:07:41.209Z</time></trkpt><trkpt lat="42.7596568" lon="11.846613"><ele>275.0</ele><time>2026-04-01T11:07:42.209Z</time></trkpt><trkpt lat="42.7596137" lon="11.8464749"><ele>273.5</ele><time>2026-04-01T11:07:43.208Z</time></trkpt><trkpt lat="42.759562" lon="11.8463242"><ele>272.0</ele><time>2026-04-01T11:07:44.209Z</time></trkpt><trkpt lat="42.7595046" lon="11.8461674"><ele>270.5</ele><time>2026-04-01T11:07:45.208Z</time></trkpt><trkpt lat="42.7594378" lon="11.8460131"><ele>269.0</ele><time>2026-04-01T11:07:46.209Z</time></trkpt><trkpt lat="42.7593545" lon="11.8458692"><ele>273.6666666666667</ele><time>2026-04-01T11:07:47.208Z</time></trkpt><trkpt lat="42.7592711" lon="11.8457213"><ele>278.3333333333333</ele><time>2026-04-01T11:07:48.209Z</time></trkpt><trkpt lat="42.7591736" lon="11.845554"><ele>283.0</ele><time>2026-04-01T11:07:49.209Z</time></trkpt><trkpt lat="42.7590514" lon="11.8453829"><ele>283.0</ele><time>2026-04-01T11:07:50.209Z</time></trkpt><trkpt lat="42.758939" lon="11.8452049"><ele>283.0</ele><time>2026-04-01T11:07:51.208Z</time></trkpt><trkpt lat="42.7588166" lon="11.8450328"><ele>283.0</ele><time>2026-04-01T11:07:52.208Z</time></trkpt><trkpt lat="42.758689" lon="11.8448667"><ele>283.3333333333333</ele><time>2026-04-01T11:07:53.209Z</time></trkpt><trkpt lat="42.7585406" lon="11.8447011"><ele>283.6666666666667</ele><time>2026-04-01T11:07:54.209Z</time></trkpt><trkpt lat="42.758386" lon="11.8445236"><ele>284.0</ele><time>2026-04-01T11:07:55.209Z</time></trkpt><trkpt lat="42.75824" lon="11.8443505"><ele>280.6666666666667</ele><time>2026-04-01T11:07:56.209Z</time></trkpt><trkpt lat="42.7581025" lon="11.8441842"><ele>277.3333333333333</ele><time>2026-04-01T11:07:57.209Z</time></trkpt><trkpt lat="42.757974" lon="11.8440245"><ele>274.0</ele><time>2026-04-01T11:07:58.209Z</time></trkpt><trkpt lat="42.757848" lon="11.8438657"><ele>274.0</ele><time>2026-04-01T11:07:59.209Z</time></trkpt><trkpt lat="42.7577313" lon="11.8437116"><ele>274.0</ele><time>2026-04-01T11:08:00.208Z</time></trkpt><trkpt lat="42.7576384" lon="11.8435805"><ele>274.0</ele><time>2026-04-01T11:08:01.209Z</time></trkpt><trkpt lat="42.7575566" lon="11.8434447"><ele>274.0</ele><time>2026-04-01T11:08:02.208Z</time></trkpt><trkpt lat="42.7574879" lon="11.8433106"><ele>273.2</ele><time>2026-04-01T11:08:03.209Z</time></trkpt><trkpt lat="42.7574407" lon="11.8431716"><ele>272.4</ele><time>2026-04-01T11:08:04.208Z</time></trkpt><trkpt lat="42.7574247" lon="11.8430313"><ele>271.6</ele><time>2026-04-01T11:08:05.209Z</time></trkpt><trkpt lat="42.7574491" lon="11.8428965"><ele>270.8</ele><time>2026-04-01T11:08:06.209Z</time></trkpt><trkpt lat="42.7575073" lon="11.8427506"><ele>270.0</ele><time>2026-04-01T11:08:07.209Z</time></trkpt><trkpt lat="42.7576051" lon="11.8426086"><ele>266.3333333333333</ele><time>2026-04-01T11:08:08.209Z</time></trkpt><trkpt lat="42.7577246" lon="11.8424518"><ele>262.66666666666663</ele><time>2026-04-01T11:08:09.208Z</time></trkpt><trkpt lat="42.7578559" lon="11.8422867"><ele>259.0</ele><time>2026-04-01T11:08:10.209Z</time></trkpt><trkpt lat="42.7579984" lon="11.8421238"><ele>259.0</ele><time>2026-04-01T11:08:11.209Z</time></trkpt><trkpt lat="42.7581331" lon="11.8419449"><ele>259.0</ele><time>2026-04-01T11:08:12.209Z</time></trkpt><trkpt lat="42.7582669" lon="11.8417705"><ele>259.0</ele><time>2026-04-01T11:08:13.209Z</time></trkpt><trkpt lat="42.7584036" lon="11.8415851"><ele>257.66666666666663</ele><time>2026-04-01T11:08:14.209Z</time></trkpt><trkpt lat="42.7585515" lon="11.841392"><ele>256.3333333333333</ele><time>2026-04-01T11:08:15.208Z</time></trkpt><trkpt lat="42.7586989" lon="11.8412042"><ele>255.0</ele><time>2026-04-01T11:08:16.208Z</time></trkpt><trkpt lat="42.7588274" lon="11.8410375"><ele>255.5</ele><time>2026-04-01T11:08:17.209Z</time></trkpt><trkpt lat="42.7589442" lon="11.8408853"><ele>256.0</ele><time>2026-04-01T11:08:18.208Z</time></trkpt><trkpt lat="42.7590432" lon="11.8407554"><ele>256.5</ele><time>2026-04-01T11:08:19.209Z</time></trkpt><trkpt lat="42.7591326" lon="11.84064"><ele>257.0</ele><time>2026-04-01T11:08:20.209Z</time></trkpt><trkpt lat="42.759212" lon="11.840542"><ele>257.0</ele><time>2026-04-01T11:08:21.209Z</time></trkpt><trkpt lat="42.7592739" lon="11.8404672"><ele>257.0</ele><time>2026-04-01T11:08:22.209Z</time></trkpt><trkpt lat="42.7593539" lon="11.8403867"><ele>257.0</ele><time>2026-04-01T11:08:24.209Z</time></trkpt><trkpt lat="42.7592841" lon="11.840387"><ele>257.0</ele><time>2026-04-01T11:08:29.209Z</time></trkpt><trkpt lat="42.7592334" lon="11.8404614"><ele>257.0</ele><time>2026-04-01T11:08:30.209Z</time></trkpt><trkpt lat="42.759161" lon="11.8405797"><ele>257.0</ele><time>2026-04-01T11:08:31.209Z</time></trkpt><trkpt lat="42.759064" lon="11.8407253"><ele>257.0</ele><time>2026-04-01T11:08:32.209Z</time></trkpt><trkpt lat="42.7589543" lon="11.8408751"><ele>257.0</ele><time>2026-04-01T11:08:33.209Z</time></trkpt><trkpt lat="42.7588559" lon="11.8409984"><ele>257.0</ele><time>2026-04-01T11:08:34.208Z</time></trkpt><trkpt lat="42.7587922" lon="11.8410902"><ele>257.0</ele><time>2026-04-01T11:08:35.208Z</time></trkpt><trkpt lat="42.7587383" lon="11.8411524"><ele>257.0</ele><time>2026-04-01T11:08:36.209Z</time></trkpt><trkpt lat="42.7586718" lon="11.8411794"><ele>257.0</ele><time>2026-04-01T11:08:38.209Z</time></trkpt><trkpt lat="42.758683" lon="11.841056"><ele>257.0</ele><time>2026-04-01T11:08:49.209Z</time></trkpt><trkpt lat="42.7587171" lon="11.8408975"><ele>257.0</ele><time>2026-04-01T11:08:51.209Z</time></trkpt><trkpt lat="42.7587449" lon="11.8407874"><ele>257.0</ele><time>2026-04-01T11:08:52.209Z</time></trkpt><trkpt lat="42.7587649" lon="11.8406686"><ele>257.0</ele><time>2026-04-01T11:08:53.209Z</time></trkpt><trkpt lat="42.7587777" lon="11.8405595"><ele>257.0</ele><time>2026-04-01T11:08:54.209Z</time></trkpt><trkpt lat="42.7587863" lon="11.8404423"><ele>257.0</ele><time>2026-04-01T11:08:55.209Z</time></trkpt><trkpt lat="42.7587999" lon="11.8403276"><ele>257.0</ele><time>2026-04-01T11:08:56.209Z</time></trkpt><trkpt lat="42.758815" lon="11.8402"><ele>257.0</ele><time>2026-04-01T11:08:57.209Z</time></trkpt><trkpt lat="42.7588067" lon="11.840065"><ele>257.0</ele><time>2026-04-01T11:08:58.209Z</time></trkpt><trkpt lat="42.7587733" lon="11.8399417"><ele>258.0</ele><time>2026-04-01T11:08:59.208Z</time></trkpt><trkpt lat="42.7587433" lon="11.8398233"><ele>259.0</ele><time>2026-04-01T11:09:00.208Z</time></trkpt><trkpt lat="42.75872" lon="11.8397033"><ele>260.0</ele><time>2026-04-01T11:09:01.209Z</time></trkpt><trkpt lat="42.7587117" lon="11.8396033"><ele>261.0</ele><time>2026-04-01T11:09:02.209Z</time></trkpt><trkpt lat="42.758765" lon="11.8394867"><ele>262.0</ele><time>2026-04-01T11:09:04.209Z</time></trkpt><trkpt lat="42.758825" lon="11.83946"><ele>263.0</ele><time>2026-04-01T11:09:05.208Z</time></trkpt><trkpt lat="42.75891" lon="11.8394517"><ele>263.0</ele><time>2026-04-01T11:09:06.209Z</time></trkpt><trkpt lat="42.7590217" lon="11.8394483"><ele>263.0</ele><time>2026-04-01T11:09:07.208Z</time></trkpt><trkpt lat="42.759135" lon="11.839445"><ele>263.0</ele><time>2026-04-01T11:09:08.208Z</time></trkpt><trkpt lat="42.759225" lon="11.8394283"><ele>263.0</ele><time>2026-04-01T11:09:09.208Z</time></trkpt><trkpt lat="42.7593183" lon="11.8394"><ele>263.0</ele><time>2026-04-01T11:09:10.208Z</time></trkpt><trkpt lat="42.7594083" lon="11.8393583"><ele>262.6</ele><time>2026-04-01T11:09:11.209Z</time></trkpt><trkpt lat="42.7594933" lon="11.8393017"><ele>262.20000000000005</ele><time>2026-04-01T11:09:12.209Z</time></trkpt><trkpt lat="42.7595783" lon="11.8392383"><ele>261.8</ele><time>2026-04-01T11:09:13.208Z</time></trkpt><trkpt lat="42.7596617" lon="11.839175"><ele>261.40000000000003</ele><time>2026-04-01T11:09:14.208Z</time></trkpt><trkpt lat="42.7597417" lon="11.839115"><ele>261.0</ele><time>2026-04-01T11:09:15.209Z</time></trkpt><trkpt lat="42.759805" lon="11.8390617"><ele>262.40000000000003</ele><time>2026-04-01T11:09:16.209Z</time></trkpt><trkpt lat="42.75988" lon="11.8390067"><ele>263.8</ele><time>2026-04-01T11:09:18.208Z</time></trkpt><trkpt lat="42.7599483" lon="11.83896"><ele>265.20000000000005</ele><time>2026-04-01T11:09:20.208Z</time></trkpt><trkpt lat="42.760025" lon="11.838805"><ele>266.6</ele><time>2026-04-01T11:09:22.209Z</time></trkpt><trkpt lat="42.7600617" lon="11.8387"><ele>268.0</ele><time>2026-04-01T11:09:23.208Z</time></trkpt><trkpt lat="42.76012" lon="11.83858"><ele>270.25</ele><time>2026-04-01T11:09:24.209Z</time></trkpt><trkpt lat="42.7601917" lon="11.8384417"><ele>272.5</ele><time>2026-04-01T11:09:25.209Z</time></trkpt><trkpt lat="42.760265" lon="11.8382967"><ele>274.75</ele><time>2026-04-01T11:09:26.209Z</time></trkpt><trkpt lat="42.76034" lon="11.8381567"><ele>277.0</ele><time>2026-04-01T11:09:27.209Z</time></trkpt><trkpt lat="42.7604367" lon="11.838025"><ele>277.3333333333333</ele><time>2026-04-01T11:09:28.209Z</time></trkpt><trkpt lat="42.76057" lon="11.8379167"><ele>277.6666666666667</ele><time>2026-04-01T11:09:29.209Z</time></trkpt><trkpt lat="42.7607217" lon="11.8378383"><ele>278.0</ele><time>2026-04-01T11:09:30.209Z</time></trkpt><trkpt lat="42.7608867" lon="11.837795"><ele>280.6666666666667</ele><time>2026-04-01T11:09:31.209Z</time></trkpt><trkpt lat="42.7610683" lon="11.8377983"><ele>283.3333333333333</ele><time>2026-04-01T11:09:32.209Z</time></trkpt><trkpt lat="42.76125" lon="11.8378183"><ele>286.0</ele><time>2026-04-01T11:09:33.208Z</time></trkpt><trkpt lat="42.7614167" lon="11.8378317"><ele>286.0</ele><time>2026-04-01T11:09:34.209Z</time></trkpt><trkpt lat="42.7615817" lon="11.8378217"><ele>286.0</ele><time>2026-04-01T11:09:35.209Z</time></trkpt><trkpt lat="42.7617417" lon="11.837785"><ele>286.0</ele><time>2026-04-01T11:09:36.208Z</time></trkpt><trkpt lat="42.7618983" lon="11.8377133"><ele>288.0</ele><time>2026-04-01T11:09:37.208Z</time></trkpt><trkpt lat="42.7620567" lon="11.8376183"><ele>290.0</ele><time>2026-04-01T11:09:38.209Z</time></trkpt><trkpt lat="42.7622083" lon="11.8375067"><ele>292.0</ele><time>2026-04-01T11:09:39.209Z</time></trkpt><trkpt lat="42.7623633" lon="11.8373917"><ele>292.0</ele><time>2026-04-01T11:09:40.209Z</time></trkpt><trkpt lat="42.76252" lon="11.8372917"><ele>292.0</ele><time>2026-04-01T11:09:41.208Z</time></trkpt><trkpt lat="42.7626917" lon="11.8372133"><ele>292.0</ele><time>2026-04-01T11:09:42.208Z</time></trkpt><trkpt lat="42.7628667" lon="11.8371517"><ele>292.0</ele><time>2026-04-01T11:09:43.209Z</time></trkpt><trkpt lat="42.7630433" lon="11.8370917"><ele>292.0</ele><time>2026-04-01T11:09:44.208Z</time></trkpt><trkpt lat="42.7631967" lon="11.8370383"><ele>292.0</ele><time>2026-04-01T11:09:45.209Z</time></trkpt><trkpt lat="42.7633433" lon="11.8369667"><ele>292.0</ele><time>2026-04-01T11:09:46.208Z</time></trkpt><trkpt lat="42.763485" lon="11.8368583"><ele>292.0</ele><time>2026-04-01T11:09:47.209Z</time></trkpt><trkpt lat="42.763625" lon="11.8367233"><ele>292.0</ele><time>2026-04-01T11:09:48.208Z</time></trkpt><trkpt lat="42.763765" lon="11.836585"><ele>296.0</ele><time>2026-04-01T11:09:49.209Z</time></trkpt><trkpt lat="42.7639117" lon="11.83647"><ele>300.0</ele><time>2026-04-01T11:09:50.209Z</time></trkpt><trkpt lat="42.764065" lon="11.8363767"><ele>304.0</ele><time>2026-04-01T11:09:51.209Z</time></trkpt><trkpt lat="42.7642317" lon="11.8362967"><ele>303.5</ele><time>2026-04-01T11:09:52.208Z</time></trkpt><trkpt lat="42.7643683" lon="11.8362283"><ele>303.0</ele><time>2026-04-01T11:09:53.209Z</time></trkpt><trkpt lat="42.7644917" lon="11.83615"><ele>302.5</ele><time>2026-04-01T11:09:54.209Z</time></trkpt><trkpt lat="42.76459" lon="11.83605"><ele>302.0</ele><time>2026-04-01T11:09:55.209Z</time></trkpt><trkpt lat="42.7646567" lon="11.8359317"><ele>302.0</ele><time>2026-04-01T11:09:56.209Z</time></trkpt><trkpt lat="42.76467" lon="11.8357917"><ele>302.0</ele><time>2026-04-01T11:09:57.209Z</time></trkpt><trkpt lat="42.7646333" lon="11.8356583"><ele>302.0</ele><time>2026-04-01T11:09:58.208Z</time></trkpt><trkpt lat="42.7645567" lon="11.8355567"><ele>302.0</ele><time>2026-04-01T11:09:59.209Z</time></trkpt><trkpt lat="42.7644517" lon="11.8354767"><ele>302.0</ele><time>2026-04-01T11:10:00.209Z</time></trkpt><trkpt lat="42.7643333" lon="11.8354117"><ele>306.33333333333337</ele><time>2026-04-01T11:10:01.209Z</time></trkpt><trkpt lat="42.7641967" lon="11.8353417"><ele>310.6666666666667</ele><time>2026-04-01T11:10:02.208Z</time></trkpt><trkpt lat="42.7640617" lon="11.8352517"><ele>315.0</ele><time>2026-04-01T11:10:03.208Z</time></trkpt><trkpt lat="42.7639417" lon="11.83511"><ele>315.0</ele><time>2026-04-01T11:10:04.208Z</time></trkpt><trkpt lat="42.763845" lon="11.8349367"><ele>315.0</ele><time>2026-04-01T11:10:05.209Z</time></trkpt><trkpt lat="42.7637533" lon="11.8347267"><ele>315.0</ele><time>2026-04-01T11:10:06.209Z</time></trkpt><trkpt lat="42.76368" lon="11.8345317"><ele>315.0</ele><time>2026-04-01T11:10:07.209Z</time></trkpt><trkpt lat="42.7635917" lon="11.834335"><ele>315.0</ele><time>2026-04-01T11:10:08.209Z</time></trkpt><trkpt lat="42.7634933" lon="11.8341417"><ele>315.0</ele><time>2026-04-01T11:10:09.208Z</time></trkpt><trkpt lat="42.7633833" lon="11.833965"><ele>321.6666666666667</ele><time>2026-04-01T11:10:10.208Z</time></trkpt><trkpt lat="42.7632683" lon="11.8338067"><ele>328.33333333333337</ele><time>2026-04-01T11:10:11.209Z</time></trkpt><trkpt lat="42.7631483" lon="11.8336733"><ele>335.0</ele><time>2026-04-01T11:10:12.209Z</time></trkpt><trkpt lat="42.763015" lon="11.83356"><ele>334.0</ele><time>2026-04-01T11:10:13.209Z</time></trkpt><trkpt lat="42.7628917" lon="11.83345"><ele>333.0</ele><time>2026-04-01T11:10:14.209Z</time></trkpt><trkpt lat="42.7627583" lon="11.8333817"><ele>332.0</ele><time>2026-04-01T11:10:15.208Z</time></trkpt><trkpt lat="42.7626283" lon="11.8333517"><ele>331.0</ele><time>2026-04-01T11:10:16.208Z</time></trkpt><trkpt lat="42.7625033" lon="11.8333767"><ele>333.75</ele><time>2026-04-01T11:10:17.208Z</time></trkpt><trkpt lat="42.76237" lon="11.8334333"><ele>336.5</ele><time>2026-04-01T11:10:18.208Z</time></trkpt><trkpt lat="42.7622533" lon="11.8334983"><ele>339.25</ele><time>2026-04-01T11:10:19.209Z</time></trkpt><trkpt lat="42.7621317" lon="11.8335533"><ele>342.0</ele><time>2026-04-01T11:10:20.208Z</time></trkpt><trkpt lat="42.762015" lon="11.8335833"><ele>342.8</ele><time>2026-04-01T11:10:21.208Z</time></trkpt><trkpt lat="42.7618983" lon="11.8335717"><ele>343.6</ele><time>2026-04-01T11:10:22.208Z</time></trkpt><trkpt lat="42.7618067" lon="11.8335683"><ele>344.40000000000003</ele><time>2026-04-01T11:10:23.208Z</time></trkpt><trkpt lat="42.7617083" lon="11.8335183"><ele>345.20000000000005</ele><time>2026-04-01T11:10:24.209Z</time></trkpt><trkpt lat="42.7616133" lon="11.8334583"><ele>346.0</ele><time>2026-04-01T11:10:25.208Z</time></trkpt><trkpt lat="42.7615183" lon="11.8334017"><ele>346.8</ele><time>2026-04-01T11:10:26.209Z</time></trkpt><trkpt lat="42.761425" lon="11.8333367"><ele>347.6</ele><time>2026-04-01T11:10:27.209Z</time></trkpt><trkpt lat="42.76132" lon="11.8332733"><ele>348.4</ele><time>2026-04-01T11:10:28.21Z</time></trkpt><trkpt lat="42.7612333" lon="11.8332083"><ele>349.2</ele><time>2026-04-01T11:10:29.209Z</time></trkpt><trkpt lat="42.7611633" lon="11.8331367"><ele>350.0</ele><time>2026-04-01T11:10:30.209Z</time></trkpt><trkpt lat="42.7611017" lon="11.83308"><ele>350.0</ele><time>2026-04-01T11:10:31.21Z</time></trkpt><trkpt lat="42.7610367" lon="11.8329783"><ele>350.0</ele><time>2026-04-01T11:10:33.209Z</time></trkpt><trkpt lat="42.76104" lon="11.8328817"><ele>350.0</ele><time>2026-04-01T11:10:35.21Z</time></trkpt><trkpt lat="42.761085" lon="11.8328067"><ele>350.0</ele><time>2026-04-01T11:10:37.21Z</time></trkpt><trkpt lat="42.7611267" lon="11.8327317"><ele>350.0</ele><time>2026-04-01T11:10:40.21Z</time></trkpt><trkpt lat="42.76108" lon="11.8328067"><ele>350.0</ele><time>2026-04-01T11:11:31.209Z</time></trkpt><trkpt lat="42.76101" lon="11.83286"><ele>349.5</ele><time>2026-04-01T11:11:33.209Z</time></trkpt><trkpt lat="42.7609383" lon="11.8328683"><ele>349.0</ele><time>2026-04-01T11:11:36.21Z</time></trkpt><trkpt lat="42.7608567" lon="11.8328033"><ele>348.5</ele><time>2026-04-01T11:11:39.21Z</time></trkpt><trkpt lat="42.7607967" lon="11.83275"><ele>348.0</ele><time>2026-04-01T11:11:41.209Z</time></trkpt><trkpt lat="42.7607383" lon="11.832695"><ele>347.5</ele><time>2026-04-01T11:11:43.21Z</time></trkpt><trkpt lat="42.7606767" lon="11.83264"><ele>347.0</ele><time>2026-04-01T11:11:46.21Z</time></trkpt><trkpt lat="42.7606117" lon="11.8325717"><ele>347.0</ele><time>2026-04-01T11:11:48.21Z</time></trkpt><trkpt lat="42.760525" lon="11.8324717"><ele>347.0</ele><time>2026-04-01T11:11:50.209Z</time></trkpt><trkpt lat="42.76047" lon="11.8324083"><ele>347.0</ele><time>2026-04-01T11:11:51.209Z</time></trkpt><trkpt lat="42.760415" lon="11.83235"><ele>347.0</ele><time>2026-04-01T11:11:52.209Z</time></trkpt><trkpt lat="42.760315" lon="11.8322467"><ele>347.0</ele><time>2026-04-01T11:11:54.21Z</time></trkpt><trkpt lat="42.7602533" lon="11.83218"><ele>348.6</ele><time>2026-04-01T11:11:55.21Z</time></trkpt><trkpt lat="42.7601967" lon="11.8321133"><ele>350.20000000000005</ele><time>2026-04-01T11:11:56.21Z</time></trkpt><trkpt lat="42.7601233" lon="11.8320317"><ele>351.8</ele><time>2026-04-01T11:11:57.21Z</time></trkpt><trkpt lat="42.7600533" lon="11.8319567"><ele>353.4</ele><time>2026-04-01T11:11:58.21Z</time></trkpt><trkpt lat="42.7599683" lon="11.8318783"><ele>355.0</ele><time>2026-04-01T11:11:59.21Z</time></trkpt><trkpt lat="42.75988" lon="11.8317817"><ele>356.5</ele><time>2026-04-01T11:12:00.209Z</time></trkpt><trkpt lat="42.7597967" lon="11.831655"><ele>358.0</ele><time>2026-04-01T11:12:01.21Z</time></trkpt><trkpt lat="42.7597217" lon="11.8315217"><ele>359.5</ele><time>2026-04-01T11:12:02.209Z</time></trkpt><trkpt lat="42.7596517" lon="11.8313933"><ele>361.0</ele><time>2026-04-01T11:12:03.21Z</time></trkpt><trkpt lat="42.7595767" lon="11.83126"><ele>361.0</ele><time>2026-04-01T11:12:04.21Z</time></trkpt><trkpt lat="42.7594967" lon="11.8311383"><ele>361.0</ele><time>2026-04-01T11:12:05.21Z</time></trkpt><trkpt lat="42.7594017" lon="11.8310017"><ele>361.0</ele><time>2026-04-01T11:12:06.209Z</time></trkpt><trkpt lat="42.7593117" lon="11.8308233"><ele>361.0</ele><time>2026-04-01T11:12:07.209Z</time></trkpt><trkpt lat="42.7592367" lon="11.830655"><ele>363.0</ele><time>2026-04-01T11:12:08.21Z</time></trkpt><trkpt lat="42.759165" lon="11.8304583"><ele>365.0</ele><time>2026-04-01T11:12:09.21Z</time></trkpt><trkpt lat="42.7591133" lon="11.830255"><ele>367.0</ele><time>2026-04-01T11:12:10.209Z</time></trkpt><trkpt lat="42.75909" lon="11.8300017"><ele>367.0</ele><time>2026-04-01T11:12:11.21Z</time></trkpt><trkpt lat="42.7590483" lon="11.829775"><ele>367.0</ele><time>2026-04-01T11:12:12.21Z</time></trkpt><trkpt lat="42.759005" lon="11.8295683"><ele>367.0</ele><time>2026-04-01T11:12:13.21Z</time></trkpt><trkpt lat="42.7589517" lon="11.829385"><ele>364.0</ele><time>2026-04-01T11:12:14.21Z</time></trkpt><trkpt lat="42.7588983" lon="11.8292233"><ele>361.0</ele><time>2026-04-01T11:12:15.21Z</time></trkpt><trkpt lat="42.7588317" lon="11.8290717"><ele>358.0</ele><time>2026-04-01T11:12:16.209Z</time></trkpt><trkpt lat="42.758775" lon="11.8289417"><ele>355.0</ele><time>2026-04-01T11:12:17.209Z</time></trkpt><trkpt lat="42.7587417" lon="11.8288033"><ele>355.0</ele><time>2026-04-01T11:12:18.21Z</time></trkpt><trkpt lat="42.7587483" lon="11.8286617"><ele>355.0</ele><time>2026-04-01T11:12:19.21Z</time></trkpt><trkpt lat="42.758785" lon="11.8285117"><ele>355.0</ele><time>2026-04-01T11:12:20.21Z</time></trkpt><trkpt lat="42.75884" lon="11.82836"><ele>355.0</ele><time>2026-04-01T11:12:21.21Z</time></trkpt><trkpt lat="42.7589133" lon="11.8281983"><ele>356.25</ele><time>2026-04-01T11:12:22.209Z</time></trkpt><trkpt lat="42.75899" lon="11.8280317"><ele>357.5</ele><time>2026-04-01T11:12:23.21Z</time></trkpt><trkpt lat="42.75906" lon="11.8278533"><ele>358.75</ele><time>2026-04-01T11:12:24.209Z</time></trkpt><trkpt lat="42.7591167" lon="11.827665"><ele>360.0</ele><time>2026-04-01T11:12:25.21Z</time></trkpt><trkpt lat="42.759175" lon="11.8274733"><ele>361.0</ele><time>2026-04-01T11:12:26.21Z</time></trkpt><trkpt lat="42.7592433" lon="11.827295"><ele>362.0</ele><time>2026-04-01T11:12:27.209Z</time></trkpt><trkpt lat="42.759305" lon="11.827105"><ele>363.0</ele><time>2026-04-01T11:12:28.209Z</time></trkpt><trkpt lat="42.75936" lon="11.826925"><ele>364.0</ele><time>2026-04-01T11:12:29.209Z</time></trkpt><trkpt lat="42.7594067" lon="11.8267467"><ele>364.0</ele><time>2026-04-01T11:12:30.21Z</time></trkpt><trkpt lat="42.7594667" lon="11.8265817"><ele>364.0</ele><time>2026-04-01T11:12:31.209Z</time></trkpt><trkpt lat="42.7595367" lon="11.8264233"><ele>364.0</ele><time>2026-04-01T11:12:32.21Z</time></trkpt><trkpt lat="42.7595883" lon="11.8262717"><ele>364.0</ele><time>2026-04-01T11:12:33.21Z</time></trkpt><trkpt lat="42.7596517" lon="11.8261133"><ele>366.25</ele><time>2026-04-01T11:12:34.21Z</time></trkpt><trkpt lat="42.7597267" lon="11.82596"><ele>368.5</ele><time>2026-04-01T11:12:35.209Z</time></trkpt><trkpt lat="42.75981" lon="11.8258117"><ele>370.75</ele><time>2026-04-01T11:12:36.21Z</time></trkpt><trkpt lat="42.7598883" lon="11.825685"><ele>373.0</ele><time>2026-04-01T11:12:37.21Z</time></trkpt><trkpt lat="42.759945" lon="11.82559"><ele>373.0</ele><time>2026-04-01T11:12:38.209Z</time></trkpt><trkpt lat="42.760015" lon="11.8254783"><ele>373.0</ele><time>2026-04-01T11:12:40.209Z</time></trkpt><trkpt lat="42.760045" lon="11.825395"><ele>373.0</ele><time>2026-04-01T11:12:57.21Z</time></trkpt><trkpt lat="42.7599883" lon="11.8253333"><ele>373.0</ele><time>2026-04-01T11:13:00.21Z</time></trkpt><trkpt lat="42.7598983" lon="11.825395"><ele>373.0</ele><time>2026-04-01T11:13:03.21Z</time></trkpt><trkpt lat="42.7598233" lon="11.8254717"><ele>373.0</ele><time>2026-04-01T11:13:05.21Z</time></trkpt><trkpt lat="42.7597317" lon="11.82556"><ele>373.0</ele><time>2026-04-01T11:13:07.209Z</time></trkpt><trkpt lat="42.7596767" lon="11.8256117"><ele>373.0</ele><time>2026-04-01T11:13:08.21Z</time></trkpt><trkpt lat="42.7596117" lon="11.8256733"><ele>373.0</ele><time>2026-04-01T11:13:09.209Z</time></trkpt><trkpt lat="42.7595533" lon="11.825735"><ele>373.0</ele><time>2026-04-01T11:13:10.209Z</time></trkpt><trkpt lat="42.7594967" lon="11.8257883"><ele>373.0</ele><time>2026-04-01T11:13:11.21Z</time></trkpt><trkpt lat="42.7594383" lon="11.82585"><ele>373.0</ele><time>2026-04-01T11:13:12.209Z</time></trkpt><trkpt lat="42.7593433" lon="11.8259617"><ele>375.66666666666663</ele><time>2026-04-01T11:13:14.209Z</time></trkpt><trkpt lat="42.7592767" lon="11.8260017"><ele>378.3333333333333</ele><time>2026-04-01T11:13:15.209Z</time></trkpt><trkpt lat="42.7592133" lon="11.8260317"><ele>381.0</ele><time>2026-04-01T11:13:16.21Z</time></trkpt><trkpt lat="42.75913" lon="11.8260667"><ele>383.66666666666663</ele><time>2026-04-01T11:13:17.21Z</time></trkpt><trkpt lat="42.7590483" lon="11.82611"><ele>386.3333333333333</ele><time>2026-04-01T11:13:18.21Z</time></trkpt><trkpt lat="42.7589733" lon="11.82616"><ele>389.0</ele><time>2026-04-01T11:13:19.209Z</time></trkpt><trkpt lat="42.758895" lon="11.82623"><ele>389.0</ele><time>2026-04-01T11:13:20.21Z</time></trkpt><trkpt lat="42.7588183" lon="11.8262983"><ele>389.0</ele><time>2026-04-01T11:13:21.21Z</time></trkpt><trkpt lat="42.75874" lon="11.8263633"><ele>389.0</ele><time>2026-04-01T11:13:22.209Z</time></trkpt><trkpt lat="42.7586617" lon="11.8264417"><ele>389.0</ele><time>2026-04-01T11:13:23.21Z</time></trkpt><trkpt lat="42.7585867" lon="11.8265033"><ele>389.0</ele><time>2026-04-01T11:13:24.209Z</time></trkpt><trkpt lat="42.7585133" lon="11.8265533"><ele>388.99999999999994</ele><time>2026-04-01T11:13:25.21Z</time></trkpt><trkpt lat="42.7584317" lon="11.826595"><ele>389.0</ele><time>2026-04-01T11:13:26.209Z</time></trkpt><trkpt lat="42.7583433" lon="11.8266083"><ele>389.0</ele><time>2026-04-01T11:13:27.21Z</time></trkpt><trkpt lat="42.758255" lon="11.826615"><ele>389.0</ele><time>2026-04-01T11:13:28.21Z</time></trkpt><trkpt lat="42.7581633" lon="11.8266"><ele>388.99999999999994</ele><time>2026-04-01T11:13:29.209Z</time></trkpt><trkpt lat="42.758075" lon="11.8265767"><ele>389.0</ele><time>2026-04-01T11:13:30.209Z</time></trkpt><trkpt lat="42.7579917" lon="11.8265483"><ele>389.0</ele><time>2026-04-01T11:13:31.21Z</time></trkpt><trkpt lat="42.7579167" lon="11.8265217"><ele>389.0</ele><time>2026-04-01T11:13:32.21Z</time></trkpt><trkpt lat="42.7578133" lon="11.8264733"><ele>389.0</ele><time>2026-04-01T11:13:34.21Z</time></trkpt><trkpt lat="42.7577417" lon="11.8263817"><ele>389.0</ele><time>2026-04-01T11:13:36.209Z</time></trkpt><trkpt lat="42.75773" lon="11.826215"><ele>389.0</ele><time>2026-04-01T11:13:38.209Z</time></trkpt><trkpt lat="42.757755" lon="11.82613"><ele>388.99999999999994</ele><time>2026-04-01T11:13:39.21Z</time></trkpt><trkpt lat="42.7577883" lon="11.8260383"><ele>389.0</ele><time>2026-04-01T11:13:40.209Z</time></trkpt><trkpt lat="42.757825" lon="11.825945"><ele>389.0</ele><time>2026-04-01T11:13:41.21Z</time></trkpt><trkpt lat="42.757865" lon="11.825845"><ele>389.0</ele><time>2026-04-01T11:13:42.21Z</time></trkpt><trkpt lat="42.7578983" lon="11.8257367"><ele>388.99999999999994</ele><time>2026-04-01T11:13:43.21Z</time></trkpt><trkpt lat="42.7579217" lon="11.8256283"><ele>389.0</ele><time>2026-04-01T11:13:44.209Z</time></trkpt><trkpt lat="42.7579417" lon="11.8255467"><ele>386.66666666666663</ele><time>2026-04-01T11:13:45.209Z</time></trkpt><trkpt lat="42.7579617" lon="11.8254533"><ele>384.3333333333333</ele><time>2026-04-01T11:13:47.209Z</time></trkpt><trkpt lat="42.758" lon="11.825375"><ele>382.0</ele><time>2026-04-01T11:13:49.21Z</time></trkpt><trkpt lat="42.7581183" lon="11.8253533"><ele>379.66666666666663</ele><time>2026-04-01T11:13:51.21Z</time></trkpt><trkpt lat="42.7581983" lon="11.82534"><ele>377.3333333333333</ele><time>2026-04-01T11:13:52.21Z</time></trkpt><trkpt lat="42.7582833" lon="11.8253217"><ele>375.0</ele><time>2026-04-01T11:13:53.21Z</time></trkpt><trkpt lat="42.7583617" lon="11.8252933"><ele>375.0</ele><time>2026-04-01T11:13:54.21Z</time></trkpt><trkpt lat="42.7584417" lon="11.8252517"><ele>375.0</ele><time>2026-04-01T11:13:55.209Z</time></trkpt><trkpt lat="42.7585133" lon="11.82519"><ele>375.0</ele><time>2026-04-01T11:13:56.21Z</time></trkpt><trkpt lat="42.7585783" lon="11.8251083"><ele>375.0</ele><time>2026-04-01T11:13:57.209Z</time></trkpt><trkpt lat="42.7586333" lon="11.824995"><ele>375.0</ele><time>2026-04-01T11:13:58.21Z</time></trkpt><trkpt lat="42.7586883" lon="11.824875"><ele>373.5</ele><time>2026-04-01T11:13:59.209Z</time></trkpt><trkpt lat="42.75874" lon="11.8247583"><ele>372.0</ele><time>2026-04-01T11:14:00.21Z</time></trkpt><trkpt lat="42.7587867" lon="11.82467"><ele>370.5</ele><time>2026-04-01T11:14:01.21Z</time></trkpt><trkpt lat="42.7588383" lon="11.8245917"><ele>369.0</ele><time>2026-04-01T11:14:02.209Z</time></trkpt><trkpt lat="42.7588883" lon="11.8245183"><ele>367.5</ele><time>2026-04-01T11:14:03.21Z</time></trkpt><trkpt lat="42.7589483" lon="11.824465"><ele>366.0</ele><time>2026-04-01T11:14:04.21Z</time></trkpt><trkpt lat="42.75903" lon="11.8244333"><ele>366.0</ele><time>2026-04-01T11:14:05.21Z</time></trkpt><trkpt lat="42.759135" lon="11.8244283"><ele>366.0</ele><time>2026-04-01T11:14:06.21Z</time></trkpt><trkpt lat="42.7592533" lon="11.8244533"><ele>366.0</ele><time>2026-04-01T11:14:07.209Z</time></trkpt><trkpt lat="42.7593683" lon="11.8244817"><ele>366.0</ele><time>2026-04-01T11:14:08.209Z</time></trkpt><trkpt lat="42.7594717" lon="11.8245117"><ele>366.0</ele><time>2026-04-01T11:14:09.21Z</time></trkpt><trkpt lat="42.7595483" lon="11.8245217"><ele>367.5</ele><time>2026-04-01T11:14:10.21Z</time></trkpt><trkpt lat="42.75965" lon="11.8244883"><ele>369.0</ele><time>2026-04-01T11:14:12.21Z</time></trkpt><trkpt lat="42.7597367" lon="11.824325"><ele>370.5</ele><time>2026-04-01T11:14:14.209Z</time></trkpt><trkpt lat="42.759795" lon="11.824205"><ele>372.0</ele><time>2026-04-01T11:14:15.21Z</time></trkpt><trkpt lat="42.759885" lon="11.824025"><ele>372.6666666666667</ele><time>2026-04-01T11:14:16.21Z</time></trkpt><trkpt lat="42.759995" lon="11.82382"><ele>373.33333333333337</ele><time>2026-04-01T11:14:17.21Z</time></trkpt><trkpt lat="42.7600983" lon="11.82358"><ele>374.0</ele><time>2026-04-01T11:14:18.21Z</time></trkpt><trkpt lat="42.7602033" lon="11.8233333"><ele>374.0</ele><time>2026-04-01T11:14:19.209Z</time></trkpt><trkpt lat="42.7602667" lon="11.8231"><ele>374.0</ele><time>2026-04-01T11:14:20.21Z</time></trkpt><trkpt lat="42.7602933" lon="11.8228533"><ele>374.0</ele><time>2026-04-01T11:14:21.21Z</time></trkpt><trkpt lat="42.7602983" lon="11.8225933"><ele>374.0</ele><time>2026-04-01T11:14:22.21Z</time></trkpt><trkpt lat="42.7602917" lon="11.8223467"><ele>374.0</ele><time>2026-04-01T11:14:23.21Z</time></trkpt><trkpt lat="42.7602867" lon="11.8221333"><ele>374.0</ele><time>2026-04-01T11:14:24.209Z</time></trkpt><trkpt lat="42.7602917" lon="11.8219383"><ele>372.25</ele><time>2026-04-01T11:14:25.21Z</time></trkpt><trkpt lat="42.7603067" lon="11.8217617"><ele>370.5</ele><time>2026-04-01T11:14:26.21Z</time></trkpt><trkpt lat="42.7603383" lon="11.82159"><ele>368.75</ele><time>2026-04-01T11:14:27.21Z</time></trkpt><trkpt lat="42.760385" lon="11.82141"><ele>367.0</ele><time>2026-04-01T11:14:28.21Z</time></trkpt><trkpt lat="42.760455" lon="11.8212117"><ele>367.0</ele><time>2026-04-01T11:14:29.209Z</time></trkpt><trkpt lat="42.76052" lon="11.8210017"><ele>367.0</ele><time>2026-04-01T11:14:30.21Z</time></trkpt><trkpt lat="42.7605767" lon="11.8207933"><ele>367.0</ele><time>2026-04-01T11:14:31.209Z</time></trkpt><trkpt lat="42.7606233" lon="11.82058"><ele>363.0</ele><time>2026-04-01T11:14:32.21Z</time></trkpt><trkpt lat="42.76068" lon="11.8203883"><ele>359.0</ele><time>2026-04-01T11:14:33.209Z</time></trkpt><trkpt lat="42.7607283" lon="11.8201917"><ele>355.0</ele><time>2026-04-01T11:14:34.209Z</time></trkpt><trkpt lat="42.7607817" lon="11.8199783"><ele>351.66666666666663</ele><time>2026-04-01T11:14:35.21Z</time></trkpt><trkpt lat="42.760835" lon="11.8197483"><ele>348.3333333333333</ele><time>2026-04-01T11:14:36.21Z</time></trkpt><trkpt lat="42.7609" lon="11.81952"><ele>345.0</ele><time>2026-04-01T11:14:37.209Z</time></trkpt><trkpt lat="42.760975" lon="11.8193083"><ele>349.0</ele><time>2026-04-01T11:14:38.21Z</time></trkpt><trkpt lat="42.7610617" lon="11.8191033"><ele>353.0</ele><time>2026-04-01T11:14:39.21Z</time></trkpt><trkpt lat="42.7611333" lon="11.81891"><ele>357.0</ele><time>2026-04-01T11:14:40.209Z</time></trkpt><trkpt lat="42.7611833" lon="11.81871"><ele>357.0</ele><time>2026-04-01T11:14:41.209Z</time></trkpt><trkpt lat="42.7612133" lon="11.8185033"><ele>357.0</ele><time>2026-04-01T11:14:42.21Z</time></trkpt><trkpt lat="42.76123" lon="11.8183033"><ele>357.0</ele><time>2026-04-01T11:14:43.21Z</time></trkpt><trkpt lat="42.7612417" lon="11.8180967"><ele>356.0</ele><time>2026-04-01T11:14:44.209Z</time></trkpt><trkpt lat="42.7612483" lon="11.81789"><ele>355.0</ele><time>2026-04-01T11:14:45.21Z</time></trkpt><trkpt lat="42.7612517" lon="11.817675"><ele>354.0</ele><time>2026-04-01T11:14:46.209Z</time></trkpt><trkpt lat="42.7612633" lon="11.817445"><ele>352.3333333333333</ele><time>2026-04-01T11:14:47.21Z</time></trkpt><trkpt lat="42.7612783" lon="11.8172267"><ele>350.66666666666663</ele><time>2026-04-01T11:14:48.21Z</time></trkpt><trkpt lat="42.7612817" lon="11.8169783"><ele>349.0</ele><time>2026-04-01T11:14:49.209Z</time></trkpt><trkpt lat="42.7612817" lon="11.8167267"><ele>344.0</ele><time>2026-04-01T11:14:50.21Z</time></trkpt><trkpt lat="42.76129" lon="11.81647"><ele>339.0</ele><time>2026-04-01T11:14:51.21Z</time></trkpt><trkpt lat="42.7612917" lon="11.8161983"><ele>334.0</ele><time>2026-04-01T11:14:52.209Z</time></trkpt><trkpt lat="42.7612933" lon="11.8159433"><ele>331.66666666666663</ele><time>2026-04-01T11:14:53.21Z</time></trkpt><trkpt lat="42.7612867" lon="11.8157133"><ele>329.3333333333333</ele><time>2026-04-01T11:14:54.209Z</time></trkpt><trkpt lat="42.761295" lon="11.815515"><ele>327.0</ele><time>2026-04-01T11:14:55.21Z</time></trkpt><trkpt lat="42.7613083" lon="11.81533"><ele>327.0</ele><time>2026-04-01T11:14:56.21Z</time></trkpt><trkpt lat="42.7613367" lon="11.8151583"><ele>327.0</ele><time>2026-04-01T11:14:57.21Z</time></trkpt><trkpt lat="42.76139" lon="11.815015"><ele>327.0</ele><time>2026-04-01T11:14:58.21Z</time></trkpt><trkpt lat="42.7614667" lon="11.8148817"><ele>327.0</ele><time>2026-04-01T11:14:59.21Z</time></trkpt><trkpt lat="42.7615583" lon="11.8147517"><ele>326.5</ele><time>2026-04-01T11:15:00.21Z</time></trkpt><trkpt lat="42.7616633" lon="11.814625"><ele>326.0</ele><time>2026-04-01T11:15:01.209Z</time></trkpt><trkpt lat="42.7617783" lon="11.81449"><ele>325.5</ele><time>2026-04-01T11:15:02.21Z</time></trkpt><trkpt lat="42.7618917" lon="11.8143583"><ele>325.0</ele><time>2026-04-01T11:15:03.21Z</time></trkpt><trkpt lat="42.7620033" lon="11.8142183"><ele>325.0</ele><time>2026-04-01T11:15:04.21Z</time></trkpt><trkpt lat="42.7621283" lon="11.81408"><ele>325.0</ele><time>2026-04-01T11:15:05.209Z</time></trkpt><trkpt lat="42.76225" lon="11.8139483"><ele>325.0</ele><time>2026-04-01T11:15:06.21Z</time></trkpt><trkpt lat="42.7623433" lon="11.813825"><ele>325.0</ele><time>2026-04-01T11:15:07.21Z</time></trkpt><trkpt lat="42.762425" lon="11.8136867"><ele>325.0</ele><time>2026-04-01T11:15:08.21Z</time></trkpt><trkpt lat="42.7624867" lon="11.813535"><ele>325.0</ele><time>2026-04-01T11:15:09.21Z</time></trkpt><trkpt lat="42.7625383" lon="11.81338"><ele>325.0</ele><time>2026-04-01T11:15:10.209Z</time></trkpt><trkpt lat="42.76259" lon="11.8132367"><ele>325.0</ele><time>2026-04-01T11:15:11.209Z</time></trkpt><trkpt lat="42.7626517" lon="11.81309"><ele>326.0</ele><time>2026-04-01T11:15:12.21Z</time></trkpt><trkpt lat="42.7627233" lon="11.8129383"><ele>327.0</ele><time>2026-04-01T11:15:13.209Z</time></trkpt><trkpt lat="42.7627933" lon="11.8127967"><ele>328.0</ele><time>2026-04-01T11:15:14.209Z</time></trkpt><trkpt lat="42.762865" lon="11.8126767"><ele>329.0</ele><time>2026-04-01T11:15:15.21Z</time></trkpt><trkpt lat="42.7629317" lon="11.8125833"><ele>329.0</ele><time>2026-04-01T11:15:16.21Z</time></trkpt><trkpt lat="42.7629983" lon="11.8124967"><ele>329.0</ele><time>2026-04-01T11:15:17.209Z</time></trkpt><trkpt lat="42.7630683" lon="11.8124233"><ele>329.0</ele><time>2026-04-01T11:15:18.21Z</time></trkpt><trkpt lat="42.76312" lon="11.8123333"><ele>329.0</ele><time>2026-04-01T11:15:19.21Z</time></trkpt><trkpt lat="42.7631617" lon="11.81224"><ele>329.0</ele><time>2026-04-01T11:15:20.209Z</time></trkpt><trkpt lat="42.7632033" lon="11.8121183"><ele>329.0</ele><time>2026-04-01T11:15:21.21Z</time></trkpt><trkpt lat="42.76325" lon="11.8119917"><ele>329.0</ele><time>2026-04-01T11:15:22.209Z</time></trkpt><trkpt lat="42.7633083" lon="11.8118533"><ele>329.0</ele><time>2026-04-01T11:15:23.21Z</time></trkpt><trkpt lat="42.7633767" lon="11.8117"><ele>329.0</ele><time>2026-04-01T11:15:24.21Z</time></trkpt><trkpt lat="42.7634417" lon="11.8115383"><ele>329.0</ele><time>2026-04-01T11:15:25.21Z</time></trkpt><trkpt lat="42.7634933" lon="11.8113883"><ele>329.0</ele><time>2026-04-01T11:15:26.21Z</time></trkpt><trkpt lat="42.7635217" lon="11.81125"><ele>329.0</ele><time>2026-04-01T11:15:27.209Z</time></trkpt><trkpt lat="42.7635533" lon="11.81112"><ele>329.0</ele><time>2026-04-01T11:15:28.21Z</time></trkpt><trkpt lat="42.7635833" lon="11.811005"><ele>329.0</ele><time>2026-04-01T11:15:29.209Z</time></trkpt><trkpt lat="42.763615" lon="11.810895"><ele>329.0</ele><time>2026-04-01T11:15:30.21Z</time></trkpt><trkpt lat="42.7636567" lon="11.8108017"><ele>329.0</ele><time>2026-04-01T11:15:31.21Z</time></trkpt><trkpt lat="42.76371" lon="11.810725"><ele>329.0</ele><time>2026-04-01T11:15:32.21Z</time></trkpt><trkpt lat="42.7637583" lon="11.8106533"><ele>329.0</ele><time>2026-04-01T11:15:33.209Z</time></trkpt><trkpt lat="42.76381" lon="11.810595"><ele>329.0</ele><time>2026-04-01T11:15:34.21Z</time></trkpt><trkpt lat="42.7638583" lon="11.81054"><ele>329.0</ele><time>2026-04-01T11:15:35.21Z</time></trkpt><trkpt lat="42.7639267" lon="11.8104133"><ele>329.0</ele><time>2026-04-01T11:15:37.21Z</time></trkpt><trkpt lat="42.763955" lon="11.8103367"><ele>329.0</ele><time>2026-04-01T11:15:38.209Z</time></trkpt><trkpt lat="42.7639867" lon="11.8101817"><ele>329.0</ele><time>2026-04-01T11:15:40.209Z</time></trkpt><trkpt lat="42.764" lon="11.81004"><ele>329.0</ele><time>2026-04-01T11:15:42.21Z</time></trkpt><trkpt lat="42.7640383" lon="11.8098967"><ele>329.0</ele><time>2026-04-01T11:15:44.21Z</time></trkpt><trkpt lat="42.7640683" lon="11.8097383"><ele>328.5</ele><time>2026-04-01T11:15:46.21Z</time></trkpt><trkpt lat="42.7640917" lon="11.8096467"><ele>328.0</ele><time>2026-04-01T11:15:47.21Z</time></trkpt><trkpt lat="42.7641217" lon="11.80956"><ele>327.5</ele><time>2026-04-01T11:15:48.21Z</time></trkpt><trkpt lat="42.7641467" lon="11.8094717"><ele>327.0</ele><time>2026-04-01T11:15:49.21Z</time></trkpt><trkpt lat="42.76418" lon="11.8093817"><ele>326.5</ele><time>2026-04-01T11:15:50.21Z</time></trkpt><trkpt lat="42.7642183" lon="11.8092917"><ele>326.0</ele><time>2026-04-01T11:15:51.21Z</time></trkpt><trkpt lat="42.7642583" lon="11.8091833"><ele>325.6</ele><time>2026-04-01T11:15:52.21Z</time></trkpt><trkpt lat="42.7642983" lon="11.8090617"><ele>325.20000000000005</ele><time>2026-04-01T11:15:53.21Z</time></trkpt><trkpt lat="42.7643483" lon="11.8089367"><ele>324.79999999999995</ele><time>2026-04-01T11:15:54.209Z</time></trkpt><trkpt lat="42.7643883" lon="11.8088283"><ele>324.4</ele><time>2026-04-01T11:15:55.209Z</time></trkpt><trkpt lat="42.7644283" lon="11.8087117"><ele>324.0</ele><time>2026-04-01T11:15:56.21Z</time></trkpt><trkpt lat="42.764455" lon="11.8085917"><ele>327.6</ele><time>2026-04-01T11:15:57.21Z</time></trkpt><trkpt lat="42.76448" lon="11.8084833"><ele>331.2</ele><time>2026-04-01T11:15:58.21Z</time></trkpt><trkpt lat="42.7645" lon="11.808365"><ele>334.8</ele><time>2026-04-01T11:15:59.21Z</time></trkpt><trkpt lat="42.7645233" lon="11.8082483"><ele>338.40000000000003</ele><time>2026-04-01T11:16:00.209Z</time></trkpt><trkpt lat="42.7645633" lon="11.80812"><ele>342.0</ele><time>2026-04-01T11:16:01.21Z</time></trkpt><trkpt lat="42.76461" lon="11.807975"><ele>342.0</ele><time>2026-04-01T11:16:02.209Z</time></trkpt><trkpt lat="42.7646567" lon="11.8078367"><ele>342.0</ele><time>2026-04-01T11:16:03.209Z</time></trkpt><trkpt lat="42.7646917" lon="11.8076933"><ele>342.0</ele><time>2026-04-01T11:16:04.21Z</time></trkpt><trkpt lat="42.76471" lon="11.8075483"><ele>342.0</ele><time>2026-04-01T11:16:05.21Z</time></trkpt><trkpt lat="42.764725" lon="11.8074167"><ele>342.0</ele><time>2026-04-01T11:16:06.21Z</time></trkpt><trkpt lat="42.7647433" lon="11.8072867"><ele>340.8</ele><time>2026-04-01T11:16:07.21Z</time></trkpt><trkpt lat="42.7647667" lon="11.80716"><ele>339.6</ele><time>2026-04-01T11:16:08.21Z</time></trkpt><trkpt lat="42.7648033" lon="11.807045"><ele>338.40000000000003</ele><time>2026-04-01T11:16:09.209Z</time></trkpt><trkpt lat="42.7648433" lon="11.80691"><ele>337.20000000000005</ele><time>2026-04-01T11:16:10.21Z</time></trkpt><trkpt lat="42.7648867" lon="11.8067833"><ele>336.0</ele><time>2026-04-01T11:16:11.209Z</time></trkpt><trkpt lat="42.7649433" lon="11.8066567"><ele>334.75</ele><time>2026-04-01T11:16:12.209Z</time></trkpt><trkpt lat="42.7649983" lon="11.8065267"><ele>333.5</ele><time>2026-04-01T11:16:13.209Z</time></trkpt><trkpt lat="42.7650517" lon="11.806395"><ele>332.25</ele><time>2026-04-01T11:16:14.21Z</time></trkpt><trkpt lat="42.7651033" lon="11.806265"><ele>331.0</ele><time>2026-04-01T11:16:15.209Z</time></trkpt><trkpt lat="42.7651467" lon="11.8061117"><ele>330.25</ele><time>2026-04-01T11:16:16.21Z</time></trkpt><trkpt lat="42.765195" lon="11.8059617"><ele>329.5</ele><time>2026-04-01T11:16:17.209Z</time></trkpt><trkpt lat="42.7652667" lon="11.80583"><ele>328.75</ele><time>2026-04-01T11:16:18.21Z</time></trkpt><trkpt lat="42.7653383" lon="11.8056783"><ele>328.0</ele><time>2026-04-01T11:16:19.21Z</time></trkpt><trkpt lat="42.7654117" lon="11.8055417"><ele>329.0</ele><time>2026-04-01T11:16:20.209Z</time></trkpt><trkpt lat="42.7654917" lon="11.8053967"><ele>330.0</ele><time>2026-04-01T11:16:21.209Z</time></trkpt><trkpt lat="42.7655933" lon="11.805255"><ele>331.0</ele><time>2026-04-01T11:16:22.209Z</time></trkpt><trkpt lat="42.7656967" lon="11.805125"><ele>332.0</ele><time>2026-04-01T11:16:23.209Z</time></trkpt><trkpt lat="42.7657867" lon="11.8049883"><ele>332.0</ele><time>2026-04-01T11:16:24.21Z</time></trkpt><trkpt lat="42.76587" lon="11.8048633"><ele>332.0</ele><time>2026-04-01T11:16:25.209Z</time></trkpt><trkpt lat="42.76594" lon="11.8047233"><ele>332.0</ele><time>2026-04-01T11:16:26.209Z</time></trkpt><trkpt lat="42.7660067" lon="11.8045867"><ele>332.0</ele><time>2026-04-01T11:16:27.21Z</time></trkpt><trkpt lat="42.7660517" lon="11.804455"><ele>333.0</ele><time>2026-04-01T11:16:28.209Z</time></trkpt><trkpt lat="42.7660833" lon="11.8043117"><ele>334.0</ele><time>2026-04-01T11:16:29.209Z</time></trkpt><trkpt lat="42.7660883" lon="11.80415"><ele>335.0</ele><time>2026-04-01T11:16:30.209Z</time></trkpt><trkpt lat="42.7660817" lon="11.80397"><ele>336.0</ele><time>2026-04-01T11:16:31.21Z</time></trkpt><trkpt lat="42.7660733" lon="11.8037867"><ele>336.0</ele><time>2026-04-01T11:16:32.209Z</time></trkpt><trkpt lat="42.7660667" lon="11.803605"><ele>336.0</ele><time>2026-04-01T11:16:33.209Z</time></trkpt><trkpt lat="42.7660867" lon="11.8034233"><ele>336.0</ele><time>2026-04-01T11:16:34.21Z</time></trkpt><trkpt lat="42.766115" lon="11.8032467"><ele>336.0</ele><time>2026-04-01T11:16:35.209Z</time></trkpt><trkpt lat="42.766145" lon="11.8030583"><ele>336.0</ele><time>2026-04-01T11:16:36.209Z</time></trkpt><trkpt lat="42.76618" lon="11.802885"><ele>336.0</ele><time>2026-04-01T11:16:37.21Z</time></trkpt><trkpt lat="42.7662083" lon="11.802705"><ele>336.0</ele><time>2026-04-01T11:16:38.21Z</time></trkpt><trkpt lat="42.7662317" lon="11.8025383"><ele>336.0</ele><time>2026-04-01T11:16:39.21Z</time></trkpt><trkpt lat="42.7662533" lon="11.8023867"><ele>336.0</ele><time>2026-04-01T11:16:40.21Z</time></trkpt><trkpt lat="42.76628" lon="11.8022433"><ele>336.0</ele><time>2026-04-01T11:16:41.21Z</time></trkpt><trkpt lat="42.7663017" lon="11.8021217"><ele>336.0</ele><time>2026-04-01T11:16:42.209Z</time></trkpt><trkpt lat="42.766325" lon="11.8020067"><ele>336.0</ele><time>2026-04-01T11:16:43.21Z</time></trkpt><trkpt lat="42.7663367" lon="11.8019133"><ele>336.0</ele><time>2026-04-01T11:16:44.21Z</time></trkpt><trkpt lat="42.7663333" lon="11.8018233"><ele>336.0</ele><time>2026-04-01T11:16:45.209Z</time></trkpt><trkpt lat="42.7663117" lon="11.8016817"><ele>335.5</ele><time>2026-04-01T11:16:47.21Z</time></trkpt><trkpt lat="42.7663" lon="11.8015833"><ele>335.0</ele><time>2026-04-01T11:17:18.21Z</time></trkpt><trkpt lat="42.76624" lon="11.8015"><ele>334.5</ele><time>2026-04-01T11:17:21.21Z</time></trkpt><trkpt lat="42.7661583" lon="11.80147"><ele>334.0</ele><time>2026-04-01T11:17:23.21Z</time></trkpt><trkpt lat="42.7660967" lon="11.8014433"><ele>333.5</ele><time>2026-04-01T11:17:25.21Z</time></trkpt><trkpt lat="42.766105" lon="11.8013483"><ele>333.0</ele><time>2026-04-01T11:17:28.209Z</time></trkpt><trkpt lat="42.7661833" lon="11.8013133"><ele>333.0</ele><time>2026-04-01T11:17:30.21Z</time></trkpt><trkpt lat="42.7662733" lon="11.8012333"><ele>333.0</ele><time>2026-04-01T11:17:32.21Z</time></trkpt><trkpt lat="42.7663333" lon="11.80112"><ele>333.0</ele><time>2026-04-01T11:17:34.21Z</time></trkpt><trkpt lat="42.7663667" lon="11.8010267"><ele>333.0</ele><time>2026-04-01T11:17:36.21Z</time></trkpt><trkpt lat="42.7663967" lon="11.8009233"><ele>333.0</ele><time>2026-04-01T11:17:38.21Z</time></trkpt><trkpt lat="42.7664167" lon="11.8007867"><ele>332.8333333333333</ele><time>2026-04-01T11:17:40.211Z</time></trkpt><trkpt lat="42.7664017" lon="11.800685"><ele>332.6666666666667</ele><time>2026-04-01T11:17:42.211Z</time></trkpt><trkpt lat="42.7663617" lon="11.8005783"><ele>332.5</ele><time>2026-04-01T11:17:44.21Z</time></trkpt><trkpt lat="42.7663383" lon="11.80046"><ele>332.33333333333337</ele><time>2026-04-01T11:17:46.211Z</time></trkpt><trkpt lat="42.7663267" lon="11.8003433"><ele>332.1666666666667</ele><time>2026-04-01T11:17:48.211Z</time></trkpt><trkpt lat="42.7663033" lon="11.8002067"><ele>332.0</ele><time>2026-04-01T11:17:50.21Z</time></trkpt><trkpt lat="42.76629" lon="11.8001217"><ele>333.0</ele><time>2026-04-01T11:17:51.21Z</time></trkpt><trkpt lat="42.7662833" lon="11.8000133"><ele>334.0</ele><time>2026-04-01T11:17:52.21Z</time></trkpt><trkpt lat="42.7662817" lon="11.79988"><ele>335.0</ele><time>2026-04-01T11:17:53.211Z</time></trkpt><trkpt lat="42.76629" lon="11.7997283"><ele>336.0</ele><time>2026-04-01T11:17:54.211Z</time></trkpt><trkpt lat="42.7663033" lon="11.7995717"><ele>337.0</ele><time>2026-04-01T11:17:55.211Z</time></trkpt><trkpt lat="42.76631" lon="11.7994233"><ele>337.5</ele><time>2026-04-01T11:17:56.21Z</time></trkpt><trkpt lat="42.766315" lon="11.7993017"><ele>338.0</ele><time>2026-04-01T11:17:57.21Z</time></trkpt><trkpt lat="42.7663167" lon="11.7991917"><ele>338.5</ele><time>2026-04-01T11:17:58.211Z</time></trkpt><trkpt lat="42.7662833" lon="11.799035"><ele>339.0</ele><time>2026-04-01T11:18:00.211Z</time></trkpt><trkpt lat="42.766265" lon="11.798935"><ele>339.5</ele><time>2026-04-01T11:18:02.211Z</time></trkpt><trkpt lat="42.7662417" lon="11.79884"><ele>340.0</ele><time>2026-04-01T11:18:04.21Z</time></trkpt><trkpt lat="42.7662083" lon="11.7987117"><ele>340.0</ele><time>2026-04-01T11:18:06.21Z</time></trkpt><trkpt lat="42.7661817" lon="11.7986017"><ele>340.0</ele><time>2026-04-01T11:18:08.211Z</time></trkpt><trkpt lat="42.76618" lon="11.79848"><ele>340.0</ele><time>2026-04-01T11:18:10.21Z</time></trkpt><trkpt lat="42.766165" lon="11.79831"><ele>340.0</ele><time>2026-04-01T11:18:12.211Z</time></trkpt><trkpt lat="42.766125" lon="11.798175"><ele>340.0</ele><time>2026-04-01T11:18:14.211Z</time></trkpt><trkpt lat="42.766065" lon="11.798055"><ele>340.0</ele><time>2026-04-01T11:18:16.211Z</time></trkpt><trkpt lat="42.7660383" lon="11.7979717"><ele>340.0</ele><time>2026-04-01T11:18:17.211Z</time></trkpt><trkpt lat="42.7660083" lon="11.79789"><ele>340.0</ele><time>2026-04-01T11:18:18.211Z</time></trkpt><trkpt lat="42.7659917" lon="11.7977317"><ele>340.0</ele><time>2026-04-01T11:18:20.211Z</time></trkpt><trkpt lat="42.7660267" lon="11.7976017"><ele>340.0</ele><time>2026-04-01T11:18:22.21Z</time></trkpt><trkpt lat="42.7660667" lon="11.7974517"><ele>339.66666666666663</ele><time>2026-04-01T11:18:24.211Z</time></trkpt><trkpt lat="42.7660833" lon="11.7973517"><ele>339.3333333333333</ele><time>2026-04-01T11:18:25.211Z</time></trkpt><trkpt lat="42.7660917" lon="11.7972367"><ele>339.0</ele><time>2026-04-01T11:18:26.211Z</time></trkpt><trkpt lat="42.7661017" lon="11.797125"><ele>338.6666666666667</ele><time>2026-04-01T11:18:27.211Z</time></trkpt><trkpt lat="42.7661" lon="11.797005"><ele>338.33333333333337</ele><time>2026-04-01T11:18:28.211Z</time></trkpt><trkpt lat="42.7661033" lon="11.7969133"><ele>338.0</ele><time>2026-04-01T11:18:29.211Z</time></trkpt><trkpt lat="42.766095" lon="11.7968033"><ele>338.1666666666667</ele><time>2026-04-01T11:18:31.211Z</time></trkpt><trkpt lat="42.7660683" lon="11.796905"><ele>338.33333333333337</ele><time>2026-04-01T11:18:49.21Z</time></trkpt><trkpt lat="42.7660583" lon="11.7970583"><ele>338.5</ele><time>2026-04-01T11:18:51.21Z</time></trkpt><trkpt lat="42.76604" lon="11.7971767"><ele>338.6666666666667</ele><time>2026-04-01T11:18:53.211Z</time></trkpt><trkpt lat="42.766025" lon="11.79728"><ele>338.8333333333333</ele><time>2026-04-01T11:18:56.211Z</time></trkpt><trkpt lat="42.7660183" lon="11.7973933"><ele>339.0</ele><time>2026-04-01T11:18:59.211Z</time></trkpt><trkpt lat="42.7660517" lon="11.7975117"><ele>339.1666666666667</ele><time>2026-04-01T11:19:02.21Z</time></trkpt><trkpt lat="42.7660967" lon="11.797615"><ele>339.3333333333333</ele><time>2026-04-01T11:19:04.21Z</time></trkpt><trkpt lat="42.766145" lon="11.7977117"><ele>339.5</ele><time>2026-04-01T11:19:06.21Z</time></trkpt><trkpt lat="42.76615" lon="11.79781"><ele>339.66666666666663</ele><time>2026-04-01T11:19:09.21Z</time></trkpt><trkpt lat="42.766185" lon="11.7979333"><ele>339.8333333333333</ele><time>2026-04-01T11:19:42.211Z</time></trkpt><trkpt lat="42.76625" lon="11.7979967"><ele>340.0</ele><time>2026-04-01T11:19:45.211Z</time></trkpt><trkpt lat="42.7663117" lon="11.7980333"><ele>340.0</ele><time>2026-04-01T11:19:47.211Z</time></trkpt><trkpt lat="42.766415" lon="11.798095"><ele>340.0</ele><time>2026-04-01T11:19:53.211Z</time></trkpt><trkpt lat="42.7664783" lon="11.7980467"><ele>340.0</ele><time>2026-04-01T11:20:05.211Z</time></trkpt><trkpt lat="42.7665067" lon="11.7979667"><ele>340.0</ele><time>2026-04-01T11:20:07.211Z</time></trkpt><trkpt lat="42.7665133" lon="11.7978667"><ele>340.0</ele><time>2026-04-01T11:48:09.214Z</time></trkpt><trkpt lat="42.7665433" lon="11.7977583"><ele>340.0</ele><time>2026-04-01T11:48:11.213Z</time></trkpt><trkpt lat="42.766595" lon="11.7976333"><ele>340.6</ele><time>2026-04-01T11:48:13.213Z</time></trkpt><trkpt lat="42.7666567" lon="11.7974983"><ele>341.2</ele><time>2026-04-01T11:48:15.213Z</time></trkpt><trkpt lat="42.7667267" lon="11.7973917"><ele>341.79999999999995</ele><time>2026-04-01T11:48:17.214Z</time></trkpt><trkpt lat="42.766805" lon="11.7972917"><ele>342.4</ele><time>2026-04-01T11:48:19.214Z</time></trkpt><trkpt lat="42.7668667" lon="11.7972183"><ele>343.0</ele><time>2026-04-01T11:48:21.214Z</time></trkpt><trkpt lat="42.7669383" lon="11.7971367"><ele>344.0</ele><time>2026-04-01T11:48:23.214Z</time></trkpt><trkpt lat="42.7670317" lon="11.7970417"><ele>345.0</ele><time>2026-04-01T11:48:25.214Z</time></trkpt><trkpt lat="42.76714" lon="11.7969617"><ele>346.0</ele><time>2026-04-01T11:48:27.213Z</time></trkpt><trkpt lat="42.767255" lon="11.79688"><ele>347.0</ele><time>2026-04-01T11:48:29.214Z</time></trkpt><trkpt lat="42.767355" lon="11.796815"><ele>347.0</ele><time>2026-04-01T11:48:31.214Z</time></trkpt><trkpt lat="42.7674383" lon="11.79677"><ele>347.0</ele><time>2026-04-01T11:48:33.213Z</time></trkpt><trkpt lat="42.7675283" lon="11.7967433"><ele>347.0</ele><time>2026-04-01T11:48:35.214Z</time></trkpt><trkpt lat="42.7676033" lon="11.7967567"><ele>347.0</ele><time>2026-04-01T11:48:37.214Z</time></trkpt><trkpt lat="42.7676717" lon="11.796815"><ele>347.0</ele><time>2026-04-01T11:48:39.213Z</time></trkpt><trkpt lat="42.7676883" lon="11.7969217"><ele>347.0</ele><time>2026-04-01T11:48:41.213Z</time></trkpt><trkpt lat="42.767635" lon="11.7970433"><ele>350.33333333333337</ele><time>2026-04-01T11:48:43.214Z</time></trkpt><trkpt lat="42.7675933" lon="11.7971717"><ele>353.6666666666667</ele><time>2026-04-01T11:48:45.214Z</time></trkpt><trkpt lat="42.7676033" lon="11.79728"><ele>357.0</ele><time>2026-04-01T11:48:47.214Z</time></trkpt><trkpt lat="42.7676683" lon="11.7973183"><ele>360.3333333333333</ele><time>2026-04-01T11:48:49.214Z</time></trkpt><trkpt lat="42.76777" lon="11.797325"><ele>363.66666666666663</ele><time>2026-04-01T11:48:51.214Z</time></trkpt><trkpt lat="42.7678433" lon="11.7972933"><ele>367.0</ele><time>2026-04-01T11:48:53.213Z</time></trkpt><trkpt lat="42.767905" lon="11.7972167"><ele>369.0</ele><time>2026-04-01T11:49:01.214Z</time></trkpt><trkpt lat="42.7679683" lon="11.7971783"><ele>371.0</ele><time>2026-04-01T11:49:03.214Z</time></trkpt><trkpt lat="42.76804" lon="11.797165"><ele>373.0</ele><time>2026-04-01T11:49:05.214Z</time></trkpt><trkpt lat="42.768135" lon="11.7971867"><ele>375.0</ele><time>2026-04-01T11:49:07.214Z</time></trkpt><trkpt lat="42.7682517" lon="11.7972033"><ele>377.0</ele><time>2026-04-01T11:49:09.214Z</time></trkpt><trkpt lat="42.768315" lon="11.7972217"><ele>379.0</ele><time>2026-04-01T11:49:10.214Z</time></trkpt><trkpt lat="42.7683767" lon="11.79725"><ele>379.00000000000006</ele><time>2026-04-01T11:49:11.214Z</time></trkpt><trkpt lat="42.7684383" lon="11.797285"><ele>379.0</ele><time>2026-04-01T11:49:12.214Z</time></trkpt><trkpt lat="42.7685083" lon="11.797315"><ele>379.0</ele><time>2026-04-01T11:49:13.213Z</time></trkpt><trkpt lat="42.7685733" lon="11.797345"><ele>379.0</ele><time>2026-04-01T11:49:14.213Z</time></trkpt><trkpt lat="42.7686433" lon="11.79738"><ele>379.0</ele><time>2026-04-01T11:49:15.213Z</time></trkpt><trkpt lat="42.7687133" lon="11.7974067"><ele>379.00000000000006</ele><time>2026-04-01T11:49:16.213Z</time></trkpt><trkpt lat="42.768785" lon="11.7974483"><ele>379.0</ele><time>2026-04-01T11:49:17.214Z</time></trkpt><trkpt lat="42.76884" lon="11.7975"><ele>376.66666666666663</ele><time>2026-04-01T11:49:18.214Z</time></trkpt><trkpt lat="42.7689017" lon="11.7975383"><ele>374.3333333333333</ele><time>2026-04-01T11:49:19.214Z</time></trkpt><trkpt lat="42.76896" lon="11.797585"><ele>372.0</ele><time>2026-04-01T11:49:20.214Z</time></trkpt><trkpt lat="42.76904" lon="11.7976167"><ele>369.6666666666667</ele><time>2026-04-01T11:49:22.214Z</time></trkpt><trkpt lat="42.7691067" lon="11.7976317"><ele>367.33333333333337</ele><time>2026-04-01T11:49:24.214Z</time></trkpt><trkpt lat="42.7691833" lon="11.797625"><ele>365.0</ele><time>2026-04-01T11:49:27.213Z</time></trkpt><trkpt lat="42.7692767" lon="11.7976133"><ele>363.6</ele><time>2026-04-01T11:49:30.214Z</time></trkpt><trkpt lat="42.76937" lon="11.79761"><ele>362.2</ele><time>2026-04-01T11:49:32.214Z</time></trkpt><trkpt lat="42.7694833" lon="11.797615"><ele>360.79999999999995</ele><time>2026-04-01T11:49:34.214Z</time></trkpt><trkpt lat="42.7696067" lon="11.797605"><ele>359.4</ele><time>2026-04-01T11:49:36.214Z</time></trkpt><trkpt lat="42.76967" lon="11.7976033"><ele>358.0</ele><time>2026-04-01T11:49:37.214Z</time></trkpt><trkpt lat="42.7697367" lon="11.7975933"><ele>358.0</ele><time>2026-04-01T11:49:38.214Z</time></trkpt><trkpt lat="42.7698017" lon="11.797585"><ele>358.0</ele><time>2026-04-01T11:49:39.214Z</time></trkpt><trkpt lat="42.7698717" lon="11.7975733"><ele>358.0</ele><time>2026-04-01T11:49:40.214Z</time></trkpt><trkpt lat="42.7699417" lon="11.7975583"><ele>358.0</ele><time>2026-04-01T11:49:41.213Z</time></trkpt><trkpt lat="42.770025" lon="11.79754"><ele>358.0</ele><time>2026-04-01T11:49:42.213Z</time></trkpt><trkpt lat="42.7701017" lon="11.797525"><ele>358.0</ele><time>2026-04-01T11:49:43.213Z</time></trkpt><trkpt lat="42.7701833" lon="11.797505"><ele>357.5</ele><time>2026-04-01T11:49:44.213Z</time></trkpt><trkpt lat="42.7702483" lon="11.797485"><ele>357.0</ele><time>2026-04-01T11:49:45.213Z</time></trkpt><trkpt lat="42.7703233" lon="11.79746"><ele>356.5</ele><time>2026-04-01T11:49:46.214Z</time></trkpt><trkpt lat="42.7704033" lon="11.7974317"><ele>356.0</ele><time>2026-04-01T11:49:47.213Z</time></trkpt><trkpt lat="42.7704783" lon="11.7973967"><ele>355.5</ele><time>2026-04-01T11:49:48.214Z</time></trkpt><trkpt lat="42.7705517" lon="11.7973617"><ele>355.0</ele><time>2026-04-01T11:49:49.214Z</time></trkpt><trkpt lat="42.770625" lon="11.7973333"><ele>355.0</ele><time>2026-04-01T11:49:50.213Z</time></trkpt><trkpt lat="42.7707017" lon="11.797305"><ele>355.0</ele><time>2026-04-01T11:49:51.213Z</time></trkpt><trkpt lat="42.770775" lon="11.7972917"><ele>355.0</ele><time>2026-04-01T11:49:52.214Z</time></trkpt><trkpt lat="42.770855" lon="11.7972883"><ele>355.0</ele><time>2026-04-01T11:49:53.214Z</time></trkpt><trkpt lat="42.7709533" lon="11.7972817"><ele>355.0</ele><time>2026-04-01T11:49:54.213Z</time></trkpt><trkpt lat="42.77105" lon="11.7972717"><ele>355.0</ele><time>2026-04-01T11:49:55.213Z</time></trkpt><trkpt lat="42.7711383" lon="11.79724"><ele>356.16666666666663</ele><time>2026-04-01T11:49:56.214Z</time></trkpt><trkpt lat="42.7712117" lon="11.797195"><ele>357.3333333333333</ele><time>2026-04-01T11:49:57.214Z</time></trkpt><trkpt lat="42.7712633" lon="11.797125"><ele>358.5</ele><time>2026-04-01T11:49:58.213Z</time></trkpt><trkpt lat="42.7713083" lon="11.7970333"><ele>359.6666666666667</ele><time>2026-04-01T11:49:59.213Z</time></trkpt><trkpt lat="42.7713583" lon="11.796955"><ele>360.83333333333337</ele><time>2026-04-01T11:50:00.213Z</time></trkpt><trkpt lat="42.7714283" lon="11.7969017"><ele>362.0</ele><time>2026-04-01T11:50:01.213Z</time></trkpt><trkpt lat="42.7715017" lon="11.79687"><ele>362.0</ele><time>2026-04-01T11:50:02.214Z</time></trkpt><trkpt lat="42.7715833" lon="11.7968467"><ele>362.0</ele><time>2026-04-01T11:50:03.213Z</time></trkpt><trkpt lat="42.771665" lon="11.7968433"><ele>362.0</ele><time>2026-04-01T11:50:04.213Z</time></trkpt><trkpt lat="42.771745" lon="11.7968483"><ele>362.0</ele><time>2026-04-01T11:50:05.214Z</time></trkpt><trkpt lat="42.7718283" lon="11.7968483"><ele>362.0</ele><time>2026-04-01T11:50:06.213Z</time></trkpt><trkpt lat="42.7719033" lon="11.796845"><ele>362.0</ele><time>2026-04-01T11:50:07.214Z</time></trkpt><trkpt lat="42.7719717" lon="11.79686"><ele>363.8</ele><time>2026-04-01T11:50:08.214Z</time></trkpt><trkpt lat="42.772065" lon="11.796925"><ele>365.6</ele><time>2026-04-01T11:50:10.213Z</time></trkpt><trkpt lat="42.77211" lon="11.797035"><ele>367.40000000000003</ele><time>2026-04-01T11:50:12.214Z</time></trkpt><trkpt lat="42.7721633" lon="11.7971367"><ele>369.20000000000005</ele><time>2026-04-01T11:50:15.213Z</time></trkpt><trkpt lat="42.7722267" lon="11.7972433"><ele>371.0</ele><time>2026-04-01T11:50:18.214Z</time></trkpt><trkpt lat="42.77229" lon="11.7973033"><ele>371.0</ele><time>2026-04-01T11:50:20.214Z</time></trkpt><trkpt lat="42.7723817" lon="11.7973483"><ele>371.0</ele><time>2026-04-01T11:50:22.214Z</time></trkpt><trkpt lat="42.7724933" lon="11.7973967"><ele>371.0</ele><time>2026-04-01T11:50:24.213Z</time></trkpt><trkpt lat="42.772565" lon="11.7974183"><ele>371.0</ele><time>2026-04-01T11:50:25.214Z</time></trkpt><trkpt lat="42.772635" lon="11.7974417"><ele>371.0</ele><time>2026-04-01T11:50:26.213Z</time></trkpt><trkpt lat="42.7726983" lon="11.79747"><ele>371.0</ele><time>2026-04-01T11:50:27.213Z</time></trkpt><trkpt lat="42.772755" lon="11.79751"><ele>370.42857142857144</ele><time>2026-04-01T11:50:28.213Z</time></trkpt><trkpt lat="42.77282" lon="11.79755"><ele>369.8571428571429</ele><time>2026-04-01T11:50:29.214Z</time></trkpt><trkpt lat="42.7728783" lon="11.7975867"><ele>369.2857142857143</ele><time>2026-04-01T11:50:30.214Z</time></trkpt><trkpt lat="42.7729433" lon="11.797625"><ele>368.7142857142857</ele><time>2026-04-01T11:50:31.214Z</time></trkpt><trkpt lat="42.7730083" lon="11.7976483"><ele>368.14285714285717</ele><time>2026-04-01T11:50:32.213Z</time></trkpt><trkpt lat="42.773085" lon="11.7976617"><ele>367.57142857142856</ele><time>2026-04-01T11:50:33.213Z</time></trkpt><trkpt lat="42.77316" lon="11.79767"><ele>367.0</ele><time>2026-04-01T11:50:34.214Z</time></trkpt><trkpt lat="42.7732317" lon="11.797655"><ele>369.5</ele><time>2026-04-01T11:50:35.213Z</time></trkpt><trkpt lat="42.7732933" lon="11.7976267"><ele>372.0</ele><time>2026-04-01T11:50:36.213Z</time></trkpt><trkpt lat="42.77341" lon="11.7975633"><ele>374.5</ele><time>2026-04-01T11:50:38.214Z</time></trkpt><trkpt lat="42.7734717" lon="11.797525"><ele>377.0</ele><time>2026-04-01T11:50:39.214Z</time></trkpt><trkpt lat="42.7735267" lon="11.7974817"><ele>379.5</ele><time>2026-04-01T11:50:40.214Z</time></trkpt><trkpt lat="42.7736167" lon="11.7974"><ele>382.0</ele><time>2026-04-01T11:50:42.214Z</time></trkpt><trkpt lat="42.7736717" lon="11.797335"><ele>383.20000000000005</ele><time>2026-04-01T11:50:43.214Z</time></trkpt><trkpt lat="42.7737217" lon="11.79727"><ele>384.4</ele><time>2026-04-01T11:50:44.214Z</time></trkpt><trkpt lat="42.7737667" lon="11.7971467"><ele>385.6</ele><time>2026-04-01T11:50:46.214Z</time></trkpt><trkpt lat="42.773715" lon="11.7970333"><ele>386.79999999999995</ele><time>2026-04-01T11:50:48.214Z</time></trkpt><trkpt lat="42.7736333" lon="11.79692"><ele>388.0</ele><time>2026-04-01T11:50:50.213Z</time></trkpt><trkpt lat="42.7735883" lon="11.7967783"><ele>391.0</ele><time>2026-04-01T11:50:52.214Z</time></trkpt><trkpt lat="42.7735783" lon="11.7966933"><ele>394.0</ele><time>2026-04-01T11:50:53.214Z</time></trkpt><trkpt lat="42.7735817" lon="11.7965383"><ele>397.0</ele><time>2026-04-01T11:50:55.214Z</time></trkpt><trkpt lat="42.7735983" lon="11.7963817"><ele>400.0</ele><time>2026-04-01T11:50:57.214Z</time></trkpt><trkpt lat="42.7736217" lon="11.7962117"><ele>403.0</ele><time>2026-04-01T11:50:59.214Z</time></trkpt><trkpt lat="42.7736467" lon="11.7961183"><ele>403.0</ele><time>2026-04-01T11:51:00.213Z</time></trkpt><trkpt lat="42.773675" lon="11.7960317"><ele>403.0</ele><time>2026-04-01T11:51:01.214Z</time></trkpt><trkpt lat="42.7737367" lon="11.79591"><ele>403.0</ele><time>2026-04-01T11:51:03.213Z</time></trkpt><trkpt lat="42.7738383" lon="11.7958583"><ele>403.0</ele><time>2026-04-01T11:51:05.214Z</time></trkpt><trkpt lat="42.7739467" lon="11.7958567"><ele>403.0</ele><time>2026-04-01T11:51:07.213Z</time></trkpt><trkpt lat="42.7740733" lon="11.7958533"><ele>405.00000000000006</ele><time>2026-04-01T11:51:09.213Z</time></trkpt><trkpt lat="42.77415" lon="11.7958533"><ele>407.0</ele><time>2026-04-01T11:51:11.214Z</time></trkpt><trkpt lat="42.774265" lon="11.7958767"><ele>409.0</ele><time>2026-04-01T11:51:44.214Z</time></trkpt><trkpt lat="42.7743267" lon="11.795895"><ele>411.0</ele><time>2026-04-01T11:51:45.214Z</time></trkpt><trkpt lat="42.7743917" lon="11.79591"><ele>413.00000000000006</ele><time>2026-04-01T11:51:46.214Z</time></trkpt><trkpt lat="42.774455" lon="11.7959333"><ele>415.0</ele><time>2026-04-01T11:51:47.214Z</time></trkpt><trkpt lat="42.7745167" lon="11.7959533"><ele>415.83333333333337</ele><time>2026-04-01T11:51:48.213Z</time></trkpt><trkpt lat="42.7745817" lon="11.79597"><ele>416.6666666666667</ele><time>2026-04-01T11:51:49.214Z</time></trkpt><trkpt lat="42.7747083" lon="11.7959883"><ele>417.5</ele><time>2026-04-01T11:51:51.213Z</time></trkpt><trkpt lat="42.7747733" lon="11.7959967"><ele>418.33333333333337</ele><time>2026-04-01T11:51:52.213Z</time></trkpt><trkpt lat="42.77484" lon="11.7960033"><ele>419.1666666666667</ele><time>2026-04-01T11:51:53.213Z</time></trkpt><trkpt lat="42.7749067" lon="11.7960183"><ele>420.0</ele><time>2026-04-01T11:51:54.214Z</time></trkpt><trkpt lat="42.77497" lon="11.7960333"><ele>418.3333333333333</ele><time>2026-04-01T11:51:55.214Z</time></trkpt><trkpt lat="42.77504" lon="11.7960317"><ele>416.66666666666663</ele><time>2026-04-01T11:51:56.214Z</time></trkpt><trkpt lat="42.7751167" lon="11.796035"><ele>415.0</ele><time>2026-04-01T11:51:57.214Z</time></trkpt><trkpt lat="42.7752" lon="11.796035"><ele>413.3333333333333</ele><time>2026-04-01T11:51:58.214Z</time></trkpt><trkpt lat="42.77528" lon="11.796035"><ele>411.66666666666663</ele><time>2026-04-01T11:51:59.214Z</time></trkpt><trkpt lat="42.775365" lon="11.7960367"><ele>410.0</ele><time>2026-04-01T11:52:00.214Z</time></trkpt><trkpt lat="42.7754417" lon="11.7960367"><ele>408.99999999999994</ele><time>2026-04-01T11:52:01.213Z</time></trkpt><trkpt lat="42.7755167" lon="11.7960367"><ele>408.0</ele><time>2026-04-01T11:52:02.214Z</time></trkpt><trkpt lat="42.7756117" lon="11.7960317"><ele>407.0</ele><time>2026-04-01T11:52:03.213Z</time></trkpt><trkpt lat="42.7757017" lon="11.796035"><ele>406.0</ele><time>2026-04-01T11:52:04.214Z</time></trkpt><trkpt lat="42.7757833" lon="11.796045"><ele>404.99999999999994</ele><time>2026-04-01T11:52:05.213Z</time></trkpt><trkpt lat="42.7758667" lon="11.7960467"><ele>404.0</ele><time>2026-04-01T11:52:06.213Z</time></trkpt><trkpt lat="42.7759417" lon="11.7960367"><ele>403.99999999999994</ele><time>2026-04-01T11:52:07.214Z</time></trkpt><trkpt lat="42.77601" lon="11.7960083"><ele>404.0</ele><time>2026-04-01T11:52:08.213Z</time></trkpt><trkpt lat="42.77608" lon="11.795985"><ele>404.0</ele><time>2026-04-01T11:52:09.214Z</time></trkpt><trkpt lat="42.7761533" lon="11.7959683"><ele>404.0</ele><time>2026-04-01T11:52:10.213Z</time></trkpt><trkpt lat="42.7762367" lon="11.79596"><ele>403.99999999999994</ele><time>2026-04-01T11:52:11.213Z</time></trkpt><trkpt lat="42.77632" lon="11.7959733"><ele>404.0</ele><time>2026-04-01T11:52:12.214Z</time></trkpt><trkpt lat="42.776405" lon="11.7959967"><ele>403.8333333333333</ele><time>2026-04-01T11:52:13.213Z</time></trkpt><trkpt lat="42.776485" lon="11.7960233"><ele>403.66666666666663</ele><time>2026-04-01T11:52:14.213Z</time></trkpt><trkpt lat="42.77658" lon="11.7960483"><ele>403.5</ele><time>2026-04-01T11:52:15.213Z</time></trkpt><trkpt lat="42.776665" lon="11.7960783"><ele>403.33333333333337</ele><time>2026-04-01T11:52:16.214Z</time></trkpt><trkpt lat="42.776755" lon="11.7961"><ele>403.1666666666667</ele><time>2026-04-01T11:52:17.214Z</time></trkpt><trkpt lat="42.77684" lon="11.7961133"><ele>403.0</ele><time>2026-04-01T11:52:18.213Z</time></trkpt><trkpt lat="42.7769267" lon="11.7961333"><ele>402.1666666666667</ele><time>2026-04-01T11:52:19.214Z</time></trkpt><trkpt lat="42.7770033" lon="11.7961733"><ele>401.33333333333337</ele><time>2026-04-01T11:52:20.213Z</time></trkpt><trkpt lat="42.7770717" lon="11.7962267"><ele>400.5</ele><time>2026-04-01T11:52:21.213Z</time></trkpt><trkpt lat="42.7771267" lon="11.7962917"><ele>399.66666666666663</ele><time>2026-04-01T11:52:22.214Z</time></trkpt><trkpt lat="42.7771917" lon="11.7963483"><ele>398.8333333333333</ele><time>2026-04-01T11:52:23.214Z</time></trkpt><trkpt lat="42.777255" lon="11.7963733"><ele>398.0</ele><time>2026-04-01T11:52:24.214Z</time></trkpt><trkpt lat="42.7773283" lon="11.7963567"><ele>397.99999999999994</ele><time>2026-04-01T11:52:25.214Z</time></trkpt><trkpt lat="42.7773967" lon="11.7963083"><ele>398.0</ele><time>2026-04-01T11:52:26.214Z</time></trkpt><trkpt lat="42.777475" lon="11.79625"><ele>398.0</ele><time>2026-04-01T11:52:27.214Z</time></trkpt><trkpt lat="42.7775317" lon="11.7961933"><ele>398.0</ele><time>2026-04-01T11:52:28.214Z</time></trkpt><trkpt lat="42.7776133" lon="11.7961067"><ele>397.99999999999994</ele><time>2026-04-01T11:52:30.214Z</time></trkpt><trkpt lat="42.777635" lon="11.7960167"><ele>398.0</ele><time>2026-04-01T11:52:33.214Z</time></trkpt><trkpt lat="42.7776067" lon="11.79589"><ele>398.66666666666663</ele><time>2026-04-01T11:52:49.214Z</time></trkpt><trkpt lat="42.7775917" lon="11.7958017"><ele>399.3333333333333</ele><time>2026-04-01T11:52:50.213Z</time></trkpt><trkpt lat="42.77758" lon="11.7956967"><ele>400.0</ele><time>2026-04-01T11:52:51.214Z</time></trkpt><trkpt lat="42.7775633" lon="11.79558"><ele>400.66666666666663</ele><time>2026-04-01T11:52:52.214Z</time></trkpt><trkpt lat="42.7775433" lon="11.7954483"><ele>401.3333333333333</ele><time>2026-04-01T11:52:53.213Z</time></trkpt><trkpt lat="42.777505" lon="11.795295"><ele>402.0</ele><time>2026-04-01T11:52:54.213Z</time></trkpt><trkpt lat="42.7774533" lon="11.7951433"><ele>403.0</ele><time>2026-04-01T11:52:55.214Z</time></trkpt><trkpt lat="42.7774017" lon="11.7949883"><ele>404.0</ele><time>2026-04-01T11:52:56.214Z</time></trkpt><trkpt lat="42.77734" lon="11.79482"><ele>405.0</ele><time>2026-04-01T11:52:57.214Z</time></trkpt><trkpt lat="42.7772733" lon="11.7946333"><ele>406.0</ele><time>2026-04-01T11:52:58.214Z</time></trkpt><trkpt lat="42.7771917" lon="11.794425"><ele>404.33333333333337</ele><time>2026-04-01T11:52:59.213Z</time></trkpt><trkpt lat="42.7771067" lon="11.79419"><ele>402.66666666666663</ele><time>2026-04-01T11:53:00.214Z</time></trkpt><trkpt lat="42.7770267" lon="11.7939683"><ele>401.0</ele><time>2026-04-01T11:53:01.214Z</time></trkpt><trkpt lat="42.776955" lon="11.793765"><ele>401.0</ele><time>2026-04-01T11:53:02.214Z</time></trkpt><trkpt lat="42.7768867" lon="11.7935867"><ele>401.0</ele><time>2026-04-01T11:53:03.214Z</time></trkpt><trkpt lat="42.7768217" lon="11.7934317"><ele>401.0</ele><time>2026-04-01T11:53:04.214Z</time></trkpt><trkpt lat="42.776755" lon="11.7932867"><ele>401.0</ele><time>2026-04-01T11:53:05.213Z</time></trkpt><trkpt lat="42.7766883" lon="11.7931467"><ele>404.0</ele><time>2026-04-01T11:53:06.213Z</time></trkpt><trkpt lat="42.7766183" lon="11.7930133"><ele>407.0</ele><time>2026-04-01T11:53:07.213Z</time></trkpt><trkpt lat="42.7765517" lon="11.792885"><ele>410.0</ele><time>2026-04-01T11:53:08.214Z</time></trkpt><trkpt lat="42.7765" lon="11.79276"><ele>413.0</ele><time>2026-04-01T11:53:09.213Z</time></trkpt><trkpt lat="42.776435" lon="11.79261"><ele>413.0</ele><time>2026-04-01T11:53:10.214Z</time></trkpt><trkpt lat="42.7763867" lon="11.7924717"><ele>413.0</ele><time>2026-04-01T11:53:11.214Z</time></trkpt><trkpt lat="42.7763367" lon="11.7923317"><ele>413.0</ele><time>2026-04-01T11:53:12.213Z</time></trkpt><trkpt lat="42.776285" lon="11.7921933"><ele>413.0</ele><time>2026-04-01T11:53:13.214Z</time></trkpt><trkpt lat="42.77624" lon="11.79205"><ele>413.0</ele><time>2026-04-01T11:53:14.214Z</time></trkpt><trkpt lat="42.776195" lon="11.791905"><ele>413.0</ele><time>2026-04-01T11:53:15.214Z</time></trkpt><trkpt lat="42.776145" lon="11.79177"><ele>413.0</ele><time>2026-04-01T11:53:16.214Z</time></trkpt><trkpt lat="42.7760983" lon="11.79163"><ele>413.0</ele><time>2026-04-01T11:53:17.213Z</time></trkpt><trkpt lat="42.77605" lon="11.7914867"><ele>414.4</ele><time>2026-04-01T11:53:18.214Z</time></trkpt><trkpt lat="42.7759983" lon="11.791345"><ele>415.79999999999995</ele><time>2026-04-01T11:53:19.214Z</time></trkpt><trkpt lat="42.77595" lon="11.7912167"><ele>417.2</ele><time>2026-04-01T11:53:20.214Z</time></trkpt><trkpt lat="42.775905" lon="11.7910933"><ele>418.6</ele><time>2026-04-01T11:53:21.214Z</time></trkpt><trkpt lat="42.7758633" lon="11.7909667"><ele>420.0</ele><time>2026-04-01T11:53:22.214Z</time></trkpt><trkpt lat="42.7758183" lon="11.7908267"><ele>420.0</ele><time>2026-04-01T11:53:23.214Z</time></trkpt><trkpt lat="42.7757733" lon="11.79069"><ele>420.0</ele><time>2026-04-01T11:53:24.214Z</time></trkpt><trkpt lat="42.7757333" lon="11.7905667"><ele>420.0</ele><time>2026-04-01T11:53:25.214Z</time></trkpt><trkpt lat="42.775705" lon="11.7904317"><ele>420.0</ele><time>2026-04-01T11:53:26.214Z</time></trkpt><trkpt lat="42.7757" lon="11.7903"><ele>420.0</ele><time>2026-04-01T11:53:27.214Z</time></trkpt><trkpt lat="42.7756833" lon="11.7901583"><ele>420.2</ele><time>2026-04-01T11:53:28.214Z</time></trkpt><trkpt lat="42.7756733" lon="11.7900267"><ele>420.4</ele><time>2026-04-01T11:53:29.213Z</time></trkpt><trkpt lat="42.7756617" lon="11.7899"><ele>420.6</ele><time>2026-04-01T11:53:30.214Z</time></trkpt><trkpt lat="42.775645" lon="11.7897833"><ele>420.8</ele><time>2026-04-01T11:53:31.213Z</time></trkpt><trkpt lat="42.7756283" lon="11.7896633"><ele>421.0</ele><time>2026-04-01T11:53:32.214Z</time></trkpt><trkpt lat="42.7756117" lon="11.78954"><ele>421.0</ele><time>2026-04-01T11:53:33.214Z</time></trkpt><trkpt lat="42.7756" lon="11.7894167"><ele>421.0</ele><time>2026-04-01T11:53:34.213Z</time></trkpt><trkpt lat="42.7755867" lon="11.7892883"><ele>421.0</ele><time>2026-04-01T11:53:35.214Z</time></trkpt><trkpt lat="42.7755817" lon="11.7891617"><ele>421.0</ele><time>2026-04-01T11:53:36.213Z</time></trkpt><trkpt lat="42.7755817" lon="11.78903"><ele>421.0</ele><time>2026-04-01T11:53:37.213Z</time></trkpt><trkpt lat="42.7755783" lon="11.7888967"><ele>421.4</ele><time>2026-04-01T11:53:38.214Z</time></trkpt><trkpt lat="42.7755733" lon="11.7887733"><ele>421.8</ele><time>2026-04-01T11:53:39.214Z</time></trkpt><trkpt lat="42.77557" lon="11.788655"><ele>422.2</ele><time>2026-04-01T11:53:40.215Z</time></trkpt><trkpt lat="42.77557" lon="11.7885317"><ele>422.59999999999997</ele><time>2026-04-01T11:53:41.214Z</time></trkpt><trkpt lat="42.7755667" lon="11.7884"><ele>423.0</ele><time>2026-04-01T11:53:42.214Z</time></trkpt><trkpt lat="42.7755517" lon="11.7882683"><ele>421.4</ele><time>2026-04-01T11:53:43.215Z</time></trkpt><trkpt lat="42.77553" lon="11.7881317"><ele>419.79999999999995</ele><time>2026-04-01T11:53:44.215Z</time></trkpt><trkpt lat="42.775505" lon="11.788"><ele>418.2</ele><time>2026-04-01T11:53:45.214Z</time></trkpt><trkpt lat="42.7754733" lon="11.787865"><ele>416.6</ele><time>2026-04-01T11:53:46.215Z</time></trkpt><trkpt lat="42.7754417" lon="11.7877167"><ele>415.0</ele><time>2026-04-01T11:53:47.215Z</time></trkpt><trkpt lat="42.7754083" lon="11.7875717"><ele>412.2</ele><time>2026-04-01T11:53:48.215Z</time></trkpt><trkpt lat="42.7753817" lon="11.7874383"><ele>409.4</ele><time>2026-04-01T11:53:49.215Z</time></trkpt><trkpt lat="42.775355" lon="11.7873117"><ele>406.6</ele><time>2026-04-01T11:53:50.214Z</time></trkpt><trkpt lat="42.7753267" lon="11.7871833"><ele>403.8</ele><time>2026-04-01T11:53:51.215Z</time></trkpt><trkpt lat="42.7752933" lon="11.787045"><ele>401.0</ele><time>2026-04-01T11:53:52.215Z</time></trkpt><trkpt lat="42.77526" lon="11.7868983"><ele>402.0</ele><time>2026-04-01T11:53:53.215Z</time></trkpt><trkpt lat="42.775225" lon="11.7867517"><ele>403.0</ele><time>2026-04-01T11:53:54.215Z</time></trkpt><trkpt lat="42.7751717" lon="11.7866083"><ele>404.0</ele><time>2026-04-01T11:53:55.215Z</time></trkpt><trkpt lat="42.7751183" lon="11.7864717"><ele>405.0</ele><time>2026-04-01T11:53:56.214Z</time></trkpt><trkpt lat="42.7750583" lon="11.7863483"><ele>405.0</ele><time>2026-04-01T11:53:57.215Z</time></trkpt><trkpt lat="42.775" lon="11.7862317"><ele>405.0</ele><time>2026-04-01T11:53:58.214Z</time></trkpt><trkpt lat="42.7749417" lon="11.786135"><ele>405.0</ele><time>2026-04-01T11:53:59.214Z</time></trkpt><trkpt lat="42.7748883" lon="11.7860433"><ele>405.0</ele><time>2026-04-01T11:54:00.214Z</time></trkpt><trkpt lat="42.7748333" lon="11.7859533"><ele>405.0</ele><time>2026-04-01T11:54:01.215Z</time></trkpt><trkpt lat="42.7747983" lon="11.7858433"><ele>403.2</ele><time>2026-04-01T11:54:02.215Z</time></trkpt><trkpt lat="42.7747867" lon="11.7857183"><ele>401.4</ele><time>2026-04-01T11:54:03.215Z</time></trkpt><trkpt lat="42.77481" lon="11.7855883"><ele>399.6</ele><time>2026-04-01T11:54:04.215Z</time></trkpt><trkpt lat="42.7748483" lon="11.7854417"><ele>397.8</ele><time>2026-04-01T11:54:05.215Z</time></trkpt><trkpt lat="42.7748933" lon="11.7852933"><ele>396.0</ele><time>2026-04-01T11:54:06.214Z</time></trkpt><trkpt lat="42.7749367" lon="11.7851167"><ele>395.20000000000005</ele><time>2026-04-01T11:54:07.215Z</time></trkpt><trkpt lat="42.7749667" lon="11.7849767"><ele>394.40000000000003</ele><time>2026-04-01T11:54:08.214Z</time></trkpt><trkpt lat="42.7749967" lon="11.78483"><ele>393.6</ele><time>2026-04-01T11:54:09.215Z</time></trkpt><trkpt lat="42.77503" lon="11.7847033"><ele>392.8</ele><time>2026-04-01T11:54:10.214Z</time></trkpt><trkpt lat="42.775065" lon="11.78458"><ele>392.0</ele><time>2026-04-01T11:54:11.215Z</time></trkpt><trkpt lat="42.7751017" lon="11.78446"><ele>392.0</ele><time>2026-04-01T11:54:12.215Z</time></trkpt><trkpt lat="42.7751517" lon="11.7843417"><ele>392.0</ele><time>2026-04-01T11:54:13.214Z</time></trkpt><trkpt lat="42.77521" lon="11.7842233"><ele>392.0</ele><time>2026-04-01T11:54:14.215Z</time></trkpt><trkpt lat="42.7752583" lon="11.7841033"><ele>392.0</ele><time>2026-04-01T11:54:15.214Z</time></trkpt><trkpt lat="42.7753" lon="11.783985"><ele>392.0</ele><time>2026-04-01T11:54:16.214Z</time></trkpt><trkpt lat="42.775335" lon="11.783875"><ele>390.3333333333333</ele><time>2026-04-01T11:54:17.215Z</time></trkpt><trkpt lat="42.77537" lon="11.7837683"><ele>388.66666666666663</ele><time>2026-04-01T11:54:18.214Z</time></trkpt><trkpt lat="42.7754" lon="11.78367"><ele>387.0</ele><time>2026-04-01T11:54:19.215Z</time></trkpt><trkpt lat="42.7754267" lon="11.7835717"><ele>385.3333333333333</ele><time>2026-04-01T11:54:20.215Z</time></trkpt><trkpt lat="42.7754583" lon="11.7834883"><ele>383.66666666666663</ele><time>2026-04-01T11:54:21.214Z</time></trkpt><trkpt lat="42.7754967" lon="11.7834067"><ele>382.0</ele><time>2026-04-01T11:54:22.215Z</time></trkpt><trkpt lat="42.77554" lon="11.78332"><ele>382.0</ele><time>2026-04-01T11:54:23.215Z</time></trkpt><trkpt lat="42.7755767" lon="11.783225"><ele>382.0</ele><time>2026-04-01T11:54:24.215Z</time></trkpt><trkpt lat="42.7756133" lon="11.7831333"><ele>382.0</ele><time>2026-04-01T11:54:25.214Z</time></trkpt><trkpt lat="42.775655" lon="11.7830417"><ele>382.0</ele><time>2026-04-01T11:54:26.215Z</time></trkpt><trkpt lat="42.7756983" lon="11.78295"><ele>382.0</ele><time>2026-04-01T11:54:27.215Z</time></trkpt><trkpt lat="42.7757383" lon="11.7828617"><ele>382.0</ele><time>2026-04-01T11:54:28.214Z</time></trkpt><trkpt lat="42.775775" lon="11.7827867"><ele>381.8333333333333</ele><time>2026-04-01T11:54:29.215Z</time></trkpt><trkpt lat="42.7758317" lon="11.782645"><ele>381.66666666666663</ele><time>2026-04-01T11:54:31.215Z</time></trkpt><trkpt lat="42.77587" lon="11.7824917"><ele>381.5</ele><time>2026-04-01T11:54:33.215Z</time></trkpt><trkpt lat="42.7758917" lon="11.7824017"><ele>381.3333333333333</ele><time>2026-04-01T11:54:34.215Z</time></trkpt><trkpt lat="42.775905" lon="11.7823117"><ele>381.1666666666667</ele><time>2026-04-01T11:54:35.215Z</time></trkpt><trkpt lat="42.7759083" lon="11.7822167"><ele>381.0</ele><time>2026-04-01T11:54:36.215Z</time></trkpt><trkpt lat="42.7759033" lon="11.7821083"><ele>381.0</ele><time>2026-04-01T11:54:37.215Z</time></trkpt><trkpt lat="42.77589" lon="11.7819933"><ele>381.0</ele><time>2026-04-01T11:54:38.214Z</time></trkpt><trkpt lat="42.7758667" lon="11.781885"><ele>381.0</ele><time>2026-04-01T11:54:39.215Z</time></trkpt><trkpt lat="42.775845" lon="11.781765"><ele>381.0</ele><time>2026-04-01T11:54:40.215Z</time></trkpt><trkpt lat="42.7758233" lon="11.7816583"><ele>381.0</ele><time>2026-04-01T11:54:41.214Z</time></trkpt><trkpt lat="42.7758117" lon="11.7815533"><ele>381.0</ele><time>2026-04-01T11:54:42.215Z</time></trkpt><trkpt lat="42.7757917" lon="11.7814567"><ele>380.8333333333333</ele><time>2026-04-01T11:54:43.214Z</time></trkpt><trkpt lat="42.77577" lon="11.781355"><ele>380.6666666666667</ele><time>2026-04-01T11:54:44.215Z</time></trkpt><trkpt lat="42.7757583" lon="11.7812433"><ele>380.5</ele><time>2026-04-01T11:54:45.215Z</time></trkpt><trkpt lat="42.77576" lon="11.781115"><ele>380.33333333333337</ele><time>2026-04-01T11:54:46.214Z</time></trkpt><trkpt lat="42.7757717" lon="11.780985"><ele>380.1666666666667</ele><time>2026-04-01T11:54:47.215Z</time></trkpt><trkpt lat="42.7757833" lon="11.7808567"><ele>380.0</ele><time>2026-04-01T11:54:48.215Z</time></trkpt><trkpt lat="42.7758067" lon="11.7807133"><ele>379.75</ele><time>2026-04-01T11:54:49.215Z</time></trkpt><trkpt lat="42.7758333" lon="11.7805617"><ele>379.5</ele><time>2026-04-01T11:54:50.215Z</time></trkpt><trkpt lat="42.775855" lon="11.7804133"><ele>379.25</ele><time>2026-04-01T11:54:51.215Z</time></trkpt><trkpt lat="42.77589" lon="11.7802433"><ele>379.0</ele><time>2026-04-01T11:54:52.215Z</time></trkpt><trkpt lat="42.7759283" lon="11.7800517"><ele>378.5</ele><time>2026-04-01T11:54:53.214Z</time></trkpt><trkpt lat="42.775975" lon="11.779855"><ele>378.0</ele><time>2026-04-01T11:54:54.215Z</time></trkpt><trkpt lat="42.77601" lon="11.779655"><ele>377.5</ele><time>2026-04-01T11:54:55.214Z</time></trkpt><trkpt lat="42.77605" lon="11.77947"><ele>377.0</ele><time>2026-04-01T11:54:56.214Z</time></trkpt><trkpt lat="42.7760867" lon="11.779295"><ele>375.25</ele><time>2026-04-01T11:54:57.215Z</time></trkpt><trkpt lat="42.7761183" lon="11.7791317"><ele>373.5</ele><time>2026-04-01T11:54:58.215Z</time></trkpt><trkpt lat="42.7761417" lon="11.7789633"><ele>371.75</ele><time>2026-04-01T11:54:59.215Z</time></trkpt><trkpt lat="42.77618" lon="11.7787983"><ele>370.0</ele><time>2026-04-01T11:55:00.215Z</time></trkpt><trkpt lat="42.7762017" lon="11.7786317"><ele>369.75</ele><time>2026-04-01T11:55:01.215Z</time></trkpt><trkpt lat="42.7762217" lon="11.77847"><ele>369.5</ele><time>2026-04-01T11:55:02.214Z</time></trkpt><trkpt lat="42.7762283" lon="11.7783133"><ele>369.25</ele><time>2026-04-01T11:55:03.215Z</time></trkpt><trkpt lat="42.7762433" lon="11.7781583"><ele>369.0</ele><time>2026-04-01T11:55:04.215Z</time></trkpt><trkpt lat="42.776265" lon="11.7779933"><ele>369.0</ele><time>2026-04-01T11:55:05.215Z</time></trkpt><trkpt lat="42.7762867" lon="11.7778383"><ele>369.0</ele><time>2026-04-01T11:55:06.215Z</time></trkpt><trkpt lat="42.7763167" lon="11.7776767"><ele>369.0</ele><time>2026-04-01T11:55:07.214Z</time></trkpt><trkpt lat="42.7763483" lon="11.7775233"><ele>369.0</ele><time>2026-04-01T11:55:08.214Z</time></trkpt><trkpt lat="42.7763733" lon="11.77737"><ele>369.0</ele><time>2026-04-01T11:55:09.214Z</time></trkpt><trkpt lat="42.7764033" lon="11.777215"><ele>369.0</ele><time>2026-04-01T11:55:10.215Z</time></trkpt><trkpt lat="42.7764317" lon="11.77706"><ele>369.0</ele><time>2026-04-01T11:55:11.215Z</time></trkpt><trkpt lat="42.77647" lon="11.7769067"><ele>369.0</ele><time>2026-04-01T11:55:12.214Z</time></trkpt><trkpt lat="42.7765083" lon="11.7767433"><ele>369.25</ele><time>2026-04-01T11:55:13.214Z</time></trkpt><trkpt lat="42.77655" lon="11.776585"><ele>369.5</ele><time>2026-04-01T11:55:14.215Z</time></trkpt><trkpt lat="42.7765917" lon="11.7764333"><ele>369.75</ele><time>2026-04-01T11:55:15.214Z</time></trkpt><trkpt lat="42.776625" lon="11.7762933"><ele>370.0</ele><time>2026-04-01T11:55:16.214Z</time></trkpt><trkpt lat="42.77666" lon="11.7761533"><ele>370.0</ele><time>2026-04-01T11:55:17.215Z</time></trkpt><trkpt lat="42.7767083" lon="11.7760383"><ele>370.0</ele><time>2026-04-01T11:55:18.214Z</time></trkpt><trkpt lat="42.7767617" lon="11.7759133"><ele>370.0</ele><time>2026-04-01T11:55:19.215Z</time></trkpt><trkpt lat="42.77682" lon="11.7757867"><ele>370.0</ele><time>2026-04-01T11:55:20.214Z</time></trkpt><trkpt lat="42.77689" lon="11.7756683"><ele>370.0</ele><time>2026-04-01T11:55:21.214Z</time></trkpt><trkpt lat="42.77696" lon="11.7755617"><ele>369.6</ele><time>2026-04-01T11:55:22.215Z</time></trkpt><trkpt lat="42.77703" lon="11.7754517"><ele>369.2</ele><time>2026-04-01T11:55:23.215Z</time></trkpt><trkpt lat="42.77709" lon="11.77535"><ele>368.79999999999995</ele><time>2026-04-01T11:55:24.214Z</time></trkpt><trkpt lat="42.777155" lon="11.7752433"><ele>368.4</ele><time>2026-04-01T11:55:25.215Z</time></trkpt><trkpt lat="42.7772117" lon="11.77513"><ele>368.0</ele><time>2026-04-01T11:55:26.215Z</time></trkpt><trkpt lat="42.77726" lon="11.775005"><ele>368.0</ele><time>2026-04-01T11:55:27.215Z</time></trkpt><trkpt lat="42.7773133" lon="11.7748767"><ele>368.0</ele><time>2026-04-01T11:55:28.215Z</time></trkpt><trkpt lat="42.7773517" lon="11.77475"><ele>368.0</ele><time>2026-04-01T11:55:29.214Z</time></trkpt><trkpt lat="42.7773867" lon="11.7746167"><ele>368.0</ele><time>2026-04-01T11:55:30.214Z</time></trkpt><trkpt lat="42.7774233" lon="11.7744833"><ele>368.0</ele><time>2026-04-01T11:55:31.215Z</time></trkpt><trkpt lat="42.7774633" lon="11.7743417"><ele>367.4</ele><time>2026-04-01T11:55:32.215Z</time></trkpt><trkpt lat="42.7775017" lon="11.774205"><ele>366.79999999999995</ele><time>2026-04-01T11:55:33.214Z</time></trkpt><trkpt lat="42.7775333" lon="11.7740717"><ele>366.2</ele><time>2026-04-01T11:55:34.214Z</time></trkpt><trkpt lat="42.7775717" lon="11.7739367"><ele>365.6</ele><time>2026-04-01T11:55:35.215Z</time></trkpt><trkpt lat="42.777605" lon="11.7738117"><ele>365.0</ele><time>2026-04-01T11:55:36.214Z</time></trkpt><trkpt lat="42.77764" lon="11.77369"><ele>365.0</ele><time>2026-04-01T11:55:37.215Z</time></trkpt><trkpt lat="42.77767" lon="11.7735733"><ele>365.0</ele><time>2026-04-01T11:55:38.214Z</time></trkpt><trkpt lat="42.7777" lon="11.7734633"><ele>365.0</ele><time>2026-04-01T11:55:39.215Z</time></trkpt><trkpt lat="42.7777383" lon="11.77336"><ele>365.0</ele><time>2026-04-01T11:55:40.215Z</time></trkpt><trkpt lat="42.7777733" lon="11.7732583"><ele>365.0</ele><time>2026-04-01T11:55:41.215Z</time></trkpt><trkpt lat="42.7778117" lon="11.77316"><ele>365.0</ele><time>2026-04-01T11:55:42.214Z</time></trkpt><trkpt lat="42.7778583" lon="11.7730617"><ele>363.33333333333337</ele><time>2026-04-01T11:55:43.215Z</time></trkpt><trkpt lat="42.7779083" lon="11.7729767"><ele>361.6666666666667</ele><time>2026-04-01T11:55:44.215Z</time></trkpt><trkpt lat="42.7779667" lon="11.77291"><ele>360.0</ele><time>2026-04-01T11:55:45.215Z</time></trkpt><trkpt lat="42.7780233" lon="11.772835"><ele>358.3333333333333</ele><time>2026-04-01T11:55:46.215Z</time></trkpt><trkpt lat="42.7780833" lon="11.7727567"><ele>356.66666666666663</ele><time>2026-04-01T11:55:47.215Z</time></trkpt><trkpt lat="42.7781383" lon="11.7726817"><ele>355.0</ele><time>2026-04-01T11:55:48.215Z</time></trkpt><trkpt lat="42.7781983" lon="11.7726067"><ele>354.6</ele><time>2026-04-01T11:55:49.215Z</time></trkpt><trkpt lat="42.7782683" lon="11.772515"><ele>354.2</ele><time>2026-04-01T11:55:50.215Z</time></trkpt><trkpt lat="42.7783367" lon="11.772425"><ele>353.79999999999995</ele><time>2026-04-01T11:55:51.215Z</time></trkpt><trkpt lat="42.778405" lon="11.7723433"><ele>353.4</ele><time>2026-04-01T11:55:52.214Z</time></trkpt><trkpt lat="42.7784833" lon="11.77226"><ele>353.0</ele><time>2026-04-01T11:55:53.215Z</time></trkpt><trkpt lat="42.7785767" lon="11.7721867"><ele>352.0</ele><time>2026-04-01T11:55:54.215Z</time></trkpt><trkpt lat="42.7786633" lon="11.77212"><ele>351.0</ele><time>2026-04-01T11:55:55.215Z</time></trkpt><trkpt lat="42.7787517" lon="11.77206"><ele>350.0</ele><time>2026-04-01T11:55:56.214Z</time></trkpt><trkpt lat="42.7788333" lon="11.7720283"><ele>349.0</ele><time>2026-04-01T11:55:57.215Z</time></trkpt><trkpt lat="42.7789167" lon="11.7720183"><ele>348.0</ele><time>2026-04-01T11:55:58.215Z</time></trkpt><trkpt lat="42.779005" lon="11.772025"><ele>348.0</ele><time>2026-04-01T11:55:59.215Z</time></trkpt><trkpt lat="42.7791" lon="11.7720483"><ele>348.0</ele><time>2026-04-01T11:56:00.215Z</time></trkpt><trkpt lat="42.779185" lon="11.7720733"><ele>348.0</ele><time>2026-04-01T11:56:01.215Z</time></trkpt><trkpt lat="42.77927" lon="11.7720917"><ele>348.0</ele><time>2026-04-01T11:56:02.214Z</time></trkpt><trkpt lat="42.7793567" lon="11.7721167"><ele>348.0</ele><time>2026-04-01T11:56:03.215Z</time></trkpt><trkpt lat="42.77945" lon="11.77215"><ele>347.0</ele><time>2026-04-01T11:56:04.215Z</time></trkpt><trkpt lat="42.7795467" lon="11.7721867"><ele>346.0</ele><time>2026-04-01T11:56:05.215Z</time></trkpt><trkpt lat="42.7796633" lon="11.7722333"><ele>345.0</ele><time>2026-04-01T11:56:06.214Z</time></trkpt><trkpt lat="42.7797883" lon="11.772275"><ele>344.0</ele><time>2026-04-01T11:56:07.215Z</time></trkpt><trkpt lat="42.7799233" lon="11.77233"><ele>344.0</ele><time>2026-04-01T11:56:08.214Z</time></trkpt><trkpt lat="42.7800617" lon="11.77238"><ele>344.0</ele><time>2026-04-01T11:56:09.215Z</time></trkpt><trkpt lat="42.78019" lon="11.772435"><ele>344.0</ele><time>2026-04-01T11:56:10.214Z</time></trkpt><trkpt lat="42.7803217" lon="11.7724867"><ele>344.0</ele><time>2026-04-01T11:56:11.215Z</time></trkpt><trkpt lat="42.7804417" lon="11.7725417"><ele>342.33333333333337</ele><time>2026-04-01T11:56:12.214Z</time></trkpt><trkpt lat="42.78057" lon="11.7726"><ele>340.6666666666667</ele><time>2026-04-01T11:56:13.215Z</time></trkpt><trkpt lat="42.7807117" lon="11.7726667"><ele>339.0</ele><time>2026-04-01T11:56:14.214Z</time></trkpt><trkpt lat="42.780875" lon="11.77273"><ele>335.6666666666667</ele><time>2026-04-01T11:56:15.214Z</time></trkpt><trkpt lat="42.7810583" lon="11.7728083"><ele>332.33333333333337</ele><time>2026-04-01T11:56:16.215Z</time></trkpt><trkpt lat="42.781265" lon="11.7728817"><ele>329.0</ele><time>2026-04-01T11:56:17.215Z</time></trkpt><trkpt lat="42.7814867" lon="11.772985"><ele>329.0</ele><time>2026-04-01T11:56:18.215Z</time></trkpt><trkpt lat="42.7817133" lon="11.7730867"><ele>329.0</ele><time>2026-04-01T11:56:19.215Z</time></trkpt><trkpt lat="42.781915" lon="11.77319"><ele>329.33333333333337</ele><time>2026-04-01T11:56:20.215Z</time></trkpt><trkpt lat="42.7820967" lon="11.773285"><ele>329.6666666666667</ele><time>2026-04-01T11:56:21.215Z</time></trkpt><trkpt lat="42.7822533" lon="11.7733617"><ele>330.0</ele><time>2026-04-01T11:56:22.214Z</time></trkpt><trkpt lat="42.7823917" lon="11.7734217"><ele>330.0</ele><time>2026-04-01T11:56:23.215Z</time></trkpt><trkpt lat="42.7825133" lon="11.7734733"><ele>330.0</ele><time>2026-04-01T11:56:24.215Z</time></trkpt><trkpt lat="42.7826217" lon="11.77352"><ele>330.0</ele><time>2026-04-01T11:56:25.215Z</time></trkpt><trkpt lat="42.78272" lon="11.7735617"><ele>330.0</ele><time>2026-04-01T11:56:26.214Z</time></trkpt><trkpt lat="42.7828083" lon="11.7736183"><ele>330.0</ele><time>2026-04-01T11:56:27.215Z</time></trkpt><trkpt lat="42.7829017" lon="11.773675"><ele>329.2</ele><time>2026-04-01T11:56:28.215Z</time></trkpt><trkpt lat="42.7829917" lon="11.7737567"><ele>328.4</ele><time>2026-04-01T11:56:29.215Z</time></trkpt><trkpt lat="42.78307" lon="11.77386"><ele>327.6</ele><time>2026-04-01T11:56:30.215Z</time></trkpt><trkpt lat="42.7831383" lon="11.7739733"><ele>326.8</ele><time>2026-04-01T11:56:31.215Z</time></trkpt><trkpt lat="42.783205" lon="11.7741033"><ele>326.0</ele><time>2026-04-01T11:56:32.214Z</time></trkpt><trkpt lat="42.7832717" lon="11.7742333"><ele>326.0</ele><time>2026-04-01T11:56:33.215Z</time></trkpt><trkpt lat="42.7833367" lon="11.77435"><ele>326.0</ele><time>2026-04-01T11:56:34.214Z</time></trkpt><trkpt lat="42.7834067" lon="11.774465"><ele>326.0</ele><time>2026-04-01T11:56:35.215Z</time></trkpt><trkpt lat="42.7834683" lon="11.77458"><ele>326.0</ele><time>2026-04-01T11:56:36.214Z</time></trkpt><trkpt lat="42.7835283" lon="11.7746867"><ele>326.0</ele><time>2026-04-01T11:56:37.215Z</time></trkpt><trkpt lat="42.783585" lon="11.774795"><ele>325.6</ele><time>2026-04-01T11:56:38.215Z</time></trkpt><trkpt lat="42.783645" lon="11.774905"><ele>325.20000000000005</ele><time>2026-04-01T11:56:39.214Z</time></trkpt><trkpt lat="42.7837083" lon="11.7750133"><ele>324.79999999999995</ele><time>2026-04-01T11:56:40.214Z</time></trkpt><trkpt lat="42.7837683" lon="11.7751267"><ele>324.4</ele><time>2026-04-01T11:56:41.215Z</time></trkpt><trkpt lat="42.7838317" lon="11.7752383"><ele>324.0</ele><time>2026-04-01T11:56:42.215Z</time></trkpt><trkpt lat="42.7839033" lon="11.775355"><ele>322.4</ele><time>2026-04-01T11:56:43.215Z</time></trkpt><trkpt lat="42.7839717" lon="11.775465"><ele>320.79999999999995</ele><time>2026-04-01T11:56:44.215Z</time></trkpt><trkpt lat="42.78403" lon="11.7755783"><ele>319.20000000000005</ele><time>2026-04-01T11:56:45.215Z</time></trkpt><trkpt lat="42.7840833" lon="11.77569"><ele>317.6</ele><time>2026-04-01T11:56:46.215Z</time></trkpt><trkpt lat="42.78414" lon="11.775805"><ele>316.0</ele><time>2026-04-01T11:56:47.215Z</time></trkpt><trkpt lat="42.7841983" lon="11.77591"><ele>316.0</ele><time>2026-04-01T11:56:48.214Z</time></trkpt><trkpt lat="42.7842667" lon="11.776015"><ele>316.0</ele><time>2026-04-01T11:56:49.215Z</time></trkpt><trkpt lat="42.7843433" lon="11.77611"><ele>316.0</ele><time>2026-04-01T11:56:50.214Z</time></trkpt><trkpt lat="42.7844217" lon="11.7761933"><ele>316.0</ele><time>2026-04-01T11:56:51.215Z</time></trkpt><trkpt lat="42.784505" lon="11.7762683"><ele>316.0</ele><time>2026-04-01T11:56:52.215Z</time></trkpt><trkpt lat="42.7845833" lon="11.7763433"><ele>314.0</ele><time>2026-04-01T11:56:53.215Z</time></trkpt><trkpt lat="42.7846667" lon="11.7764117"><ele>312.0</ele><time>2026-04-01T11:56:54.214Z</time></trkpt><trkpt lat="42.7847683" lon="11.77647"><ele>310.0</ele><time>2026-04-01T11:56:55.215Z</time></trkpt><trkpt lat="42.78489" lon="11.77652"><ele>308.0</ele><time>2026-04-01T11:56:56.214Z</time></trkpt><trkpt lat="42.7850167" lon="11.7765683"><ele>308.0</ele><time>2026-04-01T11:56:57.215Z</time></trkpt><trkpt lat="42.7851533" lon="11.77662"><ele>308.0</ele><time>2026-04-01T11:56:58.215Z</time></trkpt><trkpt lat="42.7852883" lon="11.7766717"><ele>308.0</ele><time>2026-04-01T11:56:59.215Z</time></trkpt><trkpt lat="42.7854267" lon="11.7767183"><ele>308.0</ele><time>2026-04-01T11:57:00.215Z</time></trkpt><trkpt lat="42.7855533" lon="11.776765"><ele>307.25</ele><time>2026-04-01T11:57:01.215Z</time></trkpt><trkpt lat="42.7856833" lon="11.77682"><ele>306.5</ele><time>2026-04-01T11:57:02.215Z</time></trkpt><trkpt lat="42.7858" lon="11.776865"><ele>305.75</ele><time>2026-04-01T11:57:03.214Z</time></trkpt><trkpt lat="42.7859117" lon="11.7769"><ele>305.0</ele><time>2026-04-01T11:57:04.214Z</time></trkpt><trkpt lat="42.7860267" lon="11.7769267"><ele>304.25</ele><time>2026-04-01T11:57:05.215Z</time></trkpt><trkpt lat="42.786145" lon="11.7769283"><ele>303.5</ele><time>2026-04-01T11:57:06.214Z</time></trkpt><trkpt lat="42.78628" lon="11.7769167"><ele>302.75</ele><time>2026-04-01T11:57:07.215Z</time></trkpt><trkpt lat="42.786425" lon="11.7768983"><ele>302.0</ele><time>2026-04-01T11:57:08.215Z</time></trkpt><trkpt lat="42.78656" lon="11.77688"><ele>302.0</ele><time>2026-04-01T11:57:09.215Z</time></trkpt><trkpt lat="42.78669" lon="11.7768683"><ele>302.0</ele><time>2026-04-01T11:57:10.214Z</time></trkpt><trkpt lat="42.78681" lon="11.7768533"><ele>302.0</ele><time>2026-04-01T11:57:11.215Z</time></trkpt><trkpt lat="42.7869183" lon="11.7768417"><ele>302.0</ele><time>2026-04-01T11:57:12.215Z</time></trkpt><trkpt lat="42.7870133" lon="11.776835"><ele>301.6</ele><time>2026-04-01T11:57:13.215Z</time></trkpt><trkpt lat="42.7871067" lon="11.7768367"><ele>301.2</ele><time>2026-04-01T11:57:14.214Z</time></trkpt><trkpt lat="42.7871867" lon="11.7768333"><ele>300.8</ele><time>2026-04-01T11:57:15.215Z</time></trkpt><trkpt lat="42.787255" lon="11.7768233"><ele>300.4</ele><time>2026-04-01T11:57:16.214Z</time></trkpt><trkpt lat="42.7873617" lon="11.7767867"><ele>300.0</ele><time>2026-04-01T11:57:18.215Z</time></trkpt><trkpt lat="42.7874183" lon="11.77667"><ele>300.0</ele><time>2026-04-01T11:57:20.214Z</time></trkpt><trkpt lat="42.787425" lon="11.7764933"><ele>300.0</ele><time>2026-04-01T11:57:22.214Z</time></trkpt><trkpt lat="42.787395" lon="11.7763983"><ele>300.0</ele><time>2026-04-01T11:57:23.215Z</time></trkpt><trkpt lat="42.7873483" lon="11.7763083"><ele>300.0</ele><time>2026-04-01T11:57:24.215Z</time></trkpt><trkpt lat="42.7872983" lon="11.7762083"><ele>300.0</ele><time>2026-04-01T11:57:25.215Z</time></trkpt><trkpt lat="42.78725" lon="11.7760883"><ele>299.75</ele><time>2026-04-01T11:57:26.215Z</time></trkpt><trkpt lat="42.7872033" lon="11.775945"><ele>299.5</ele><time>2026-04-01T11:57:27.215Z</time></trkpt><trkpt lat="42.7871433" lon="11.7757967"><ele>299.25</ele><time>2026-04-01T11:57:28.214Z</time></trkpt><trkpt lat="42.787085" lon="11.77566"><ele>299.0</ele><time>2026-04-01T11:57:29.215Z</time></trkpt><trkpt lat="42.7870417" lon="11.775515"><ele>299.0</ele><time>2026-04-01T11:57:30.215Z</time></trkpt><trkpt lat="42.7870167" lon="11.7753617"><ele>299.0</ele><time>2026-04-01T11:57:31.215Z</time></trkpt><trkpt lat="42.7870233" lon="11.77521"><ele>299.0</ele><time>2026-04-01T11:57:32.215Z</time></trkpt><trkpt lat="42.7870383" lon="11.775065"><ele>299.0</ele><time>2026-04-01T11:57:33.214Z</time></trkpt><trkpt lat="42.7870667" lon="11.7749167"><ele>299.0</ele><time>2026-04-01T11:57:34.214Z</time></trkpt><trkpt lat="42.787105" lon="11.7747467"><ele>299.0</ele><time>2026-04-01T11:57:35.214Z</time></trkpt><trkpt lat="42.7871483" lon="11.7745733"><ele>299.0</ele><time>2026-04-01T11:57:36.214Z</time></trkpt><trkpt lat="42.7871867" lon="11.7744117"><ele>299.0</ele><time>2026-04-01T11:57:37.215Z</time></trkpt><trkpt lat="42.7872183" lon="11.774255"><ele>299.0</ele><time>2026-04-01T11:57:38.215Z</time></trkpt><trkpt lat="42.78725" lon="11.774105"><ele>299.2</ele><time>2026-04-01T11:57:39.215Z</time></trkpt><trkpt lat="42.78728" lon="11.7739567"><ele>299.4</ele><time>2026-04-01T11:57:40.215Z</time></trkpt><trkpt lat="42.7873017" lon="11.7738133"><ele>299.6</ele><time>2026-04-01T11:57:41.214Z</time></trkpt><trkpt lat="42.7873333" lon="11.77367"><ele>299.8</ele><time>2026-04-01T11:57:42.214Z</time></trkpt><trkpt lat="42.7873633" lon="11.7735383"><ele>300.0</ele><time>2026-04-01T11:57:43.215Z</time></trkpt><trkpt lat="42.78739" lon="11.7733967"><ele>300.0</ele><time>2026-04-01T11:57:44.214Z</time></trkpt><trkpt lat="42.7874133" lon="11.7732533"><ele>300.0</ele><time>2026-04-01T11:57:45.215Z</time></trkpt><trkpt lat="42.7874467" lon="11.7731283"><ele>300.0</ele><time>2026-04-01T11:57:46.215Z</time></trkpt><trkpt lat="42.787465" lon="11.7730117"><ele>300.0</ele><time>2026-04-01T11:57:47.215Z</time></trkpt><trkpt lat="42.7874967" lon="11.7728883"><ele>300.0</ele><time>2026-04-01T11:57:48.215Z</time></trkpt><trkpt lat="42.7875183" lon="11.7727517"><ele>300.5</ele><time>2026-04-01T11:57:49.215Z</time></trkpt><trkpt lat="42.7875483" lon="11.77261"><ele>301.0</ele><time>2026-04-01T11:57:50.215Z</time></trkpt><trkpt lat="42.7875767" lon="11.7724717"><ele>301.5</ele><time>2026-04-01T11:57:51.214Z</time></trkpt><trkpt lat="42.7875967" lon="11.77231"><ele>302.0</ele><time>2026-04-01T11:57:52.215Z</time></trkpt><trkpt lat="42.7876117" lon="11.7721433"><ele>302.0</ele><time>2026-04-01T11:57:53.214Z</time></trkpt><trkpt lat="42.7876167" lon="11.7719667"><ele>302.0</ele><time>2026-04-01T11:57:54.215Z</time></trkpt><trkpt lat="42.7876167" lon="11.771795"><ele>302.0</ele><time>2026-04-01T11:57:55.215Z</time></trkpt><trkpt lat="42.7876083" lon="11.7716133"><ele>302.0</ele><time>2026-04-01T11:57:56.215Z</time></trkpt><trkpt lat="42.7875883" lon="11.7714183"><ele>302.0</ele><time>2026-04-01T11:57:57.214Z</time></trkpt><trkpt lat="42.7875717" lon="11.7712183"><ele>302.0</ele><time>2026-04-01T11:57:58.215Z</time></trkpt><trkpt lat="42.78756" lon="11.7710133"><ele>302.0</ele><time>2026-04-01T11:57:59.215Z</time></trkpt><trkpt lat="42.7875533" lon="11.770795"><ele>302.6666666666667</ele><time>2026-04-01T11:58:00.215Z</time></trkpt><trkpt lat="42.7875467" lon="11.7705717"><ele>303.3333333333333</ele><time>2026-04-01T11:58:01.215Z</time></trkpt><trkpt lat="42.7875433" lon="11.77032"><ele>304.0</ele><time>2026-04-01T11:58:02.215Z</time></trkpt><trkpt lat="42.7875333" lon="11.7700617"><ele>304.66666666666663</ele><time>2026-04-01T11:58:03.215Z</time></trkpt><trkpt lat="42.7875167" lon="11.7697917"><ele>305.3333333333333</ele><time>2026-04-01T11:58:04.215Z</time></trkpt><trkpt lat="42.7875033" lon="11.769505"><ele>306.0</ele><time>2026-04-01T11:58:05.214Z</time></trkpt><trkpt lat="42.787495" lon="11.7692217"><ele>306.0</ele><time>2026-04-01T11:58:06.215Z</time></trkpt><trkpt lat="42.78748" lon="11.76893"><ele>306.0</ele><time>2026-04-01T11:58:07.215Z</time></trkpt><trkpt lat="42.7874667" lon="11.7686467"><ele>306.0</ele><time>2026-04-01T11:58:08.215Z</time></trkpt><trkpt lat="42.7874567" lon="11.768375"><ele>306.3333333333333</ele><time>2026-04-01T11:58:09.214Z</time></trkpt><trkpt lat="42.7874433" lon="11.7681283"><ele>306.66666666666663</ele><time>2026-04-01T11:58:10.215Z</time></trkpt><trkpt lat="42.7874367" lon="11.7678983"><ele>307.0</ele><time>2026-04-01T11:58:11.215Z</time></trkpt><trkpt lat="42.78743" lon="11.7676717"><ele>307.3333333333333</ele><time>2026-04-01T11:58:12.214Z</time></trkpt><trkpt lat="42.787415" lon="11.7674367"><ele>307.6666666666667</ele><time>2026-04-01T11:58:13.214Z</time></trkpt><trkpt lat="42.787405" lon="11.767195"><ele>308.0</ele><time>2026-04-01T11:58:14.215Z</time></trkpt><trkpt lat="42.7873933" lon="11.7669517"><ele>308.33333333333337</ele><time>2026-04-01T11:58:15.215Z</time></trkpt><trkpt lat="42.7873783" lon="11.76671"><ele>308.6666666666667</ele><time>2026-04-01T11:58:16.215Z</time></trkpt><trkpt lat="42.7873733" lon="11.7664867"><ele>309.0</ele><time>2026-04-01T11:58:17.215Z</time></trkpt><trkpt lat="42.7873583" lon="11.7662717"><ele>309.0</ele><time>2026-04-01T11:58:18.215Z</time></trkpt><trkpt lat="42.7873383" lon="11.7660517"><ele>309.0</ele><time>2026-04-01T11:58:19.214Z</time></trkpt><trkpt lat="42.7873117" lon="11.76583"><ele>309.0</ele><time>2026-04-01T11:58:20.215Z</time></trkpt><trkpt lat="42.7872917" lon="11.765625"><ele>310.6666666666667</ele><time>2026-04-01T11:58:21.215Z</time></trkpt><trkpt lat="42.7872733" lon="11.7654133"><ele>312.33333333333337</ele><time>2026-04-01T11:58:22.215Z</time></trkpt><trkpt lat="42.7872567" lon="11.7651967"><ele>314.0</ele><time>2026-04-01T11:58:23.215Z</time></trkpt><trkpt lat="42.7872317" lon="11.7649767"><ele>317.0</ele><time>2026-04-01T11:58:24.214Z</time></trkpt><trkpt lat="42.7872083" lon="11.76475"><ele>320.0</ele><time>2026-04-01T11:58:25.215Z</time></trkpt><trkpt lat="42.78719" lon="11.76451"><ele>323.0</ele><time>2026-04-01T11:58:26.215Z</time></trkpt><trkpt lat="42.78717" lon="11.7642617"><ele>325.0</ele><time>2026-04-01T11:58:27.215Z</time></trkpt><trkpt lat="42.7871433" lon="11.76402"><ele>327.0</ele><time>2026-04-01T11:58:28.214Z</time></trkpt><trkpt lat="42.7871183" lon="11.7637833"><ele>329.0</ele><time>2026-04-01T11:58:29.215Z</time></trkpt><trkpt lat="42.787095" lon="11.7635533"><ele>330.0</ele><time>2026-04-01T11:58:30.215Z</time></trkpt><trkpt lat="42.7870733" lon="11.7633183"><ele>331.0</ele><time>2026-04-01T11:58:31.215Z</time></trkpt><trkpt lat="42.7870517" lon="11.7630817"><ele>332.0</ele><time>2026-04-01T11:58:32.215Z</time></trkpt><trkpt lat="42.7870267" lon="11.7628417"><ele>331.6666666666667</ele><time>2026-04-01T11:58:33.215Z</time></trkpt><trkpt lat="42.7870017" lon="11.7625983"><ele>331.3333333333333</ele><time>2026-04-01T11:58:34.215Z</time></trkpt><trkpt lat="42.7869767" lon="11.7623633"><ele>331.0</ele><time>2026-04-01T11:58:35.215Z</time></trkpt><trkpt lat="42.7869483" lon="11.76212"><ele>331.0</ele><time>2026-04-01T11:58:36.215Z</time></trkpt><trkpt lat="42.7869233" lon="11.7618683"><ele>331.0</ele><time>2026-04-01T11:58:37.215Z</time></trkpt><trkpt lat="42.7869033" lon="11.7616033"><ele>331.0</ele><time>2026-04-01T11:58:38.215Z</time></trkpt><trkpt lat="42.7868833" lon="11.7613267"><ele>331.66666666666663</ele><time>2026-04-01T11:58:39.215Z</time></trkpt><trkpt lat="42.78686" lon="11.7610433"><ele>332.3333333333333</ele><time>2026-04-01T11:58:40.215Z</time></trkpt><trkpt lat="42.786835" lon="11.760765"><ele>333.0</ele><time>2026-04-01T11:58:41.215Z</time></trkpt><trkpt lat="42.78682" lon="11.7605133"><ele>330.6666666666667</ele><time>2026-04-01T11:58:42.214Z</time></trkpt><trkpt lat="42.7867933" lon="11.7602683"><ele>328.33333333333337</ele><time>2026-04-01T11:58:43.215Z</time></trkpt><trkpt lat="42.78677" lon="11.7600267"><ele>326.0</ele><time>2026-04-01T11:58:44.215Z</time></trkpt><trkpt lat="42.7867433" lon="11.7597917"><ele>326.0</ele><time>2026-04-01T11:58:45.214Z</time></trkpt><trkpt lat="42.786725" lon="11.7595617"><ele>326.0</ele><time>2026-04-01T11:58:46.215Z</time></trkpt><trkpt lat="42.7867017" lon="11.75934"><ele>326.0</ele><time>2026-04-01T11:58:47.215Z</time></trkpt><trkpt lat="42.7866817" lon="11.7591183"><ele>327.25</ele><time>2026-04-01T11:58:48.214Z</time></trkpt><trkpt lat="42.7866733" lon="11.75892"><ele>328.5</ele><time>2026-04-01T11:58:49.214Z</time></trkpt><trkpt lat="42.7866633" lon="11.7587267"><ele>329.75</ele><time>2026-04-01T11:58:50.214Z</time></trkpt><trkpt lat="42.786645" lon="11.75854"><ele>331.0</ele><time>2026-04-01T11:58:51.215Z</time></trkpt><trkpt lat="42.7866283" lon="11.75837"><ele>332.4</ele><time>2026-04-01T11:58:52.215Z</time></trkpt><trkpt lat="42.786615" lon="11.75821"><ele>333.8</ele><time>2026-04-01T11:58:53.215Z</time></trkpt><trkpt lat="42.7866067" lon="11.7580533"><ele>335.2</ele><time>2026-04-01T11:58:54.215Z</time></trkpt><trkpt lat="42.7865967" lon="11.7579167"><ele>336.59999999999997</ele><time>2026-04-01T11:58:55.214Z</time></trkpt><trkpt lat="42.7865817" lon="11.7578"><ele>338.0</ele><time>2026-04-01T11:58:56.215Z</time></trkpt><trkpt lat="42.7865633" lon="11.7577067"><ele>338.6666666666667</ele><time>2026-04-01T11:58:57.215Z</time></trkpt><trkpt lat="42.7865517" lon="11.75762"><ele>339.33333333333337</ele><time>2026-04-01T11:58:58.215Z</time></trkpt><trkpt lat="42.7865767" lon="11.75747"><ele>340.0</ele><time>2026-04-01T11:59:00.215Z</time></trkpt><trkpt lat="42.7866117" lon="11.7573967"><ele>340.6666666666667</ele><time>2026-04-01T11:59:01.214Z</time></trkpt><trkpt lat="42.786655" lon="11.7573083"><ele>341.3333333333333</ele><time>2026-04-01T11:59:02.215Z</time></trkpt><trkpt lat="42.7866933" lon="11.7572233"><ele>342.0</ele><time>2026-04-01T11:59:03.214Z</time></trkpt><trkpt lat="42.7867367" lon="11.7571433"><ele>342.0</ele><time>2026-04-01T11:59:04.215Z</time></trkpt><trkpt lat="42.786775" lon="11.7570583"><ele>342.0</ele><time>2026-04-01T11:59:05.215Z</time></trkpt><trkpt lat="42.786815" lon="11.7569717"><ele>342.0</ele><time>2026-04-01T11:59:06.215Z</time></trkpt><trkpt lat="42.78686" lon="11.7568833"><ele>342.0</ele><time>2026-04-01T11:59:07.215Z</time></trkpt><trkpt lat="42.7869067" lon="11.7567917"><ele>342.0</ele><time>2026-04-01T11:59:08.215Z</time></trkpt><trkpt lat="42.7869533" lon="11.7567033"><ele>342.0</ele><time>2026-04-01T11:59:09.215Z</time></trkpt><trkpt lat="42.7869933" lon="11.7566067"><ele>342.6</ele><time>2026-04-01T11:59:10.215Z</time></trkpt><trkpt lat="42.7870183" lon="11.7565"><ele>343.20000000000005</ele><time>2026-04-01T11:59:11.215Z</time></trkpt><trkpt lat="42.7870583" lon="11.7563917"><ele>343.8</ele><time>2026-04-01T11:59:12.215Z</time></trkpt><trkpt lat="42.7871033" lon="11.7562817"><ele>344.4</ele><time>2026-04-01T11:59:13.214Z</time></trkpt><trkpt lat="42.7871533" lon="11.75617"><ele>345.0</ele><time>2026-04-01T11:59:14.215Z</time></trkpt><trkpt lat="42.7872" lon="11.7560533"><ele>344.75</ele><time>2026-04-01T11:59:15.215Z</time></trkpt><trkpt lat="42.7872533" lon="11.7559267"><ele>344.5</ele><time>2026-04-01T11:59:16.214Z</time></trkpt><trkpt lat="42.7873133" lon="11.7557817"><ele>344.25</ele><time>2026-04-01T11:59:17.214Z</time></trkpt><trkpt lat="42.7873833" lon="11.7556133"><ele>344.0</ele><time>2026-04-01T11:59:18.215Z</time></trkpt><trkpt lat="42.787455" lon="11.7554367"><ele>344.0</ele><time>2026-04-01T11:59:19.214Z</time></trkpt><trkpt lat="42.7875267" lon="11.7552617"><ele>344.0</ele><time>2026-04-01T11:59:20.215Z</time></trkpt><trkpt lat="42.7876033" lon="11.7550783"><ele>344.0</ele><time>2026-04-01T11:59:21.214Z</time></trkpt><trkpt lat="42.787685" lon="11.7548883"><ele>344.0</ele><time>2026-04-01T11:59:22.214Z</time></trkpt><trkpt lat="42.787765" lon="11.7546983"><ele>344.0</ele><time>2026-04-01T11:59:23.214Z</time></trkpt><trkpt lat="42.7878483" lon="11.75451"><ele>344.0</ele><time>2026-04-01T11:59:24.214Z</time></trkpt><trkpt lat="42.78793" lon="11.75431"><ele>344.6666666666667</ele><time>2026-04-01T11:59:25.214Z</time></trkpt><trkpt lat="42.7880167" lon="11.7541033"><ele>345.3333333333333</ele><time>2026-04-01T11:59:26.215Z</time></trkpt><trkpt lat="42.7881" lon="11.753895"><ele>346.0</ele><time>2026-04-01T11:59:27.215Z</time></trkpt><trkpt lat="42.788185" lon="11.753695"><ele>346.3333333333333</ele><time>2026-04-01T11:59:28.214Z</time></trkpt><trkpt lat="42.7882733" lon="11.75349"><ele>346.6666666666667</ele><time>2026-04-01T11:59:29.214Z</time></trkpt><trkpt lat="42.7883567" lon="11.7532933"><ele>347.0</ele><time>2026-04-01T11:59:30.214Z</time></trkpt><trkpt lat="42.78844" lon="11.7530967"><ele>347.0</ele><time>2026-04-01T11:59:31.214Z</time></trkpt><trkpt lat="42.788525" lon="11.7528967"><ele>347.0</ele><time>2026-04-01T11:59:32.215Z</time></trkpt><trkpt lat="42.78861" lon="11.752705"><ele>347.0</ele><time>2026-04-01T11:59:33.215Z</time></trkpt><trkpt lat="42.7886833" lon="11.7525133"><ele>347.0</ele><time>2026-04-01T11:59:34.215Z</time></trkpt><trkpt lat="42.7887583" lon="11.752325"><ele>347.0</ele><time>2026-04-01T11:59:35.214Z</time></trkpt><trkpt lat="42.7888417" lon="11.7521367"><ele>347.0</ele><time>2026-04-01T11:59:36.215Z</time></trkpt><trkpt lat="42.7889183" lon="11.7519467"><ele>348.0</ele><time>2026-04-01T11:59:37.215Z</time></trkpt><trkpt lat="42.7889967" lon="11.7517683"><ele>349.0</ele><time>2026-04-01T11:59:38.215Z</time></trkpt><trkpt lat="42.7890733" lon="11.75159"><ele>350.0</ele><time>2026-04-01T11:59:39.215Z</time></trkpt><trkpt lat="42.7891433" lon="11.751425"><ele>351.0</ele><time>2026-04-01T11:59:40.215Z</time></trkpt><trkpt lat="42.7892067" lon="11.7512783"><ele>351.0</ele><time>2026-04-01T11:59:41.215Z</time></trkpt><trkpt lat="42.7892633" lon="11.7511383"><ele>351.0</ele><time>2026-04-01T11:59:42.215Z</time></trkpt><trkpt lat="42.7893233" lon="11.7510033"><ele>351.0</ele><time>2026-04-01T11:59:43.215Z</time></trkpt><trkpt lat="42.78938" lon="11.750855"><ele>351.0</ele><time>2026-04-01T11:59:44.214Z</time></trkpt><trkpt lat="42.7894367" lon="11.75071"><ele>351.25</ele><time>2026-04-01T11:59:45.215Z</time></trkpt><trkpt lat="42.7894983" lon="11.75056"><ele>351.5</ele><time>2026-04-01T11:59:46.215Z</time></trkpt><trkpt lat="42.7895667" lon="11.7504117"><ele>351.75</ele><time>2026-04-01T11:59:47.215Z</time></trkpt><trkpt lat="42.78963" lon="11.750275"><ele>352.0</ele><time>2026-04-01T11:59:48.214Z</time></trkpt><trkpt lat="42.789675" lon="11.75014"><ele>353.16666666666663</ele><time>2026-04-01T11:59:49.215Z</time></trkpt><trkpt lat="42.7896833" lon="11.7500267"><ele>354.3333333333333</ele><time>2026-04-01T11:59:50.215Z</time></trkpt><trkpt lat="42.7897283" lon="11.74991"><ele>355.5</ele><time>2026-04-01T11:59:52.215Z</time></trkpt><trkpt lat="42.7896967" lon="11.7498"><ele>356.6666666666667</ele><time>2026-04-01T12:00:05.215Z</time></trkpt><trkpt lat="42.78963" lon="11.7497833"><ele>357.83333333333337</ele><time>2026-04-01T12:00:17.214Z</time></trkpt><trkpt lat="42.78954" lon="11.7497883"><ele>359.0</ele><time>2026-04-01T12:00:21.214Z</time></trkpt><trkpt lat="42.7894367" lon="11.7497567"><ele>359.0</ele><time>2026-04-01T12:00:23.214Z</time></trkpt><trkpt lat="42.7893667" lon="11.7497333"><ele>359.0</ele><time>2026-04-01T12:00:24.215Z</time></trkpt><trkpt lat="42.7892967" lon="11.7497133"><ele>359.0</ele><time>2026-04-01T12:00:25.215Z</time></trkpt><trkpt lat="42.78923" lon="11.7496933"><ele>359.0</ele><time>2026-04-01T12:00:26.215Z</time></trkpt><trkpt lat="42.78916" lon="11.7496633"><ele>359.0</ele><time>2026-04-01T12:00:27.215Z</time></trkpt><trkpt lat="42.7890917" lon="11.7496217"><ele>359.0</ele><time>2026-04-01T12:00:28.215Z</time></trkpt><trkpt lat="42.7890267" lon="11.7495667"><ele>359.0</ele><time>2026-04-01T12:00:29.215Z</time></trkpt><trkpt lat="42.7889583" lon="11.7494967"><ele>359.0</ele><time>2026-04-01T12:00:30.216Z</time></trkpt><trkpt lat="42.7888933" lon="11.74942"><ele>359.0</ele><time>2026-04-01T12:00:31.215Z</time></trkpt><trkpt lat="42.7888167" lon="11.7493333"><ele>359.0</ele><time>2026-04-01T12:00:32.216Z</time></trkpt><trkpt lat="42.7887417" lon="11.749245"><ele>359.0</ele><time>2026-04-01T12:00:33.216Z</time></trkpt><trkpt lat="42.7886617" lon="11.7491667"><ele>359.0</ele><time>2026-04-01T12:00:34.215Z</time></trkpt><trkpt lat="42.7885817" lon="11.749085"><ele>359.0</ele><time>2026-04-01T12:00:35.216Z</time></trkpt><trkpt lat="42.788505" lon="11.749"><ele>359.0</ele><time>2026-04-01T12:00:36.215Z</time></trkpt><trkpt lat="42.78843" lon="11.748925"><ele>359.0</ele><time>2026-04-01T12:00:37.215Z</time></trkpt><trkpt lat="42.7883533" lon="11.7488467"><ele>359.0</ele><time>2026-04-01T12:00:38.216Z</time></trkpt><trkpt lat="42.788275" lon="11.748765"><ele>359.0</ele><time>2026-04-01T12:00:39.215Z</time></trkpt><trkpt lat="42.7881983" lon="11.7486817"><ele>359.0</ele><time>2026-04-01T12:00:40.216Z</time></trkpt><trkpt lat="42.7881217" lon="11.7485967"><ele>359.0</ele><time>2026-04-01T12:00:41.215Z</time></trkpt><trkpt lat="42.78806" lon="11.7485117"><ele>359.0</ele><time>2026-04-01T12:00:42.216Z</time></trkpt><trkpt lat="42.7880033" lon="11.7484183"><ele>359.0</ele><time>2026-04-01T12:00:43.216Z</time></trkpt><trkpt lat="42.7879567" lon="11.7483417"><ele>359.0</ele><time>2026-04-01T12:00:44.215Z</time></trkpt><trkpt lat="42.7879017" lon="11.74825"><ele>359.0</ele><time>2026-04-01T12:00:46.216Z</time></trkpt><trkpt lat="42.7879667" lon="11.7481967"><ele>360.0</ele><time>2026-04-01T12:00:51.216Z</time></trkpt><trkpt lat="42.7878733" lon="11.7481683"><ele>361.0</ele><time>2026-04-01T12:01:39.216Z</time></trkpt><trkpt lat="42.7878133" lon="11.74807"><ele>362.0</ele><time>2026-04-01T12:01:40.216Z</time></trkpt><trkpt lat="42.78774" lon="11.74794"><ele>363.0</ele><time>2026-04-01T12:01:41.215Z</time></trkpt><trkpt lat="42.7876483" lon="11.747785"><ele>360.3333333333333</ele><time>2026-04-01T12:01:42.216Z</time></trkpt><trkpt lat="42.7875483" lon="11.7476033"><ele>357.66666666666663</ele><time>2026-04-01T12:01:43.216Z</time></trkpt><trkpt lat="42.7874483" lon="11.7474183"><ele>355.0</ele><time>2026-04-01T12:01:44.216Z</time></trkpt><trkpt lat="42.7873683" lon="11.74726"><ele>355.0</ele><time>2026-04-01T12:01:45.215Z</time></trkpt><trkpt lat="42.7873183" lon="11.7471033"><ele>355.0</ele><time>2026-04-01T12:01:46.215Z</time></trkpt><trkpt lat="42.7872933" lon="11.7469"><ele>355.0</ele><time>2026-04-01T12:01:47.216Z</time></trkpt><trkpt lat="42.787305" lon="11.7466633"><ele>355.66666666666663</ele><time>2026-04-01T12:01:48.216Z</time></trkpt><trkpt lat="42.7873467" lon="11.74641"><ele>356.3333333333333</ele><time>2026-04-01T12:01:49.216Z</time></trkpt><trkpt lat="42.7873883" lon="11.7461817"><ele>357.0</ele><time>2026-04-01T12:01:50.216Z</time></trkpt><trkpt lat="42.7874233" lon="11.74599"><ele>356.0</ele><time>2026-04-01T12:01:51.216Z</time></trkpt><trkpt lat="42.787435" lon="11.7458183"><ele>355.0</ele><time>2026-04-01T12:01:52.216Z</time></trkpt><trkpt lat="42.7874033" lon="11.7456617"><ele>354.0</ele><time>2026-04-01T12:01:53.216Z</time></trkpt><trkpt lat="42.78733" lon="11.7455067"><ele>353.0</ele><time>2026-04-01T12:01:54.216Z</time></trkpt><trkpt lat="42.7872133" lon="11.7453533"><ele>351.6666666666667</ele><time>2026-04-01T12:01:55.216Z</time></trkpt><trkpt lat="42.7870617" lon="11.7452"><ele>350.3333333333333</ele><time>2026-04-01T12:01:56.215Z</time></trkpt><trkpt lat="42.7868817" lon="11.7450317"><ele>349.0</ele><time>2026-04-01T12:01:57.215Z</time></trkpt><trkpt lat="42.7866933" lon="11.7448483"><ele>347.0</ele><time>2026-04-01T12:01:58.215Z</time></trkpt><trkpt lat="42.7864983" lon="11.74465"><ele>345.0</ele><time>2026-04-01T12:01:59.215Z</time></trkpt><trkpt lat="42.786295" lon="11.7444383"><ele>346.0</ele><time>2026-04-01T12:02:00.215Z</time></trkpt><trkpt lat="42.78608" lon="11.7442183"><ele>347.0</ele><time>2026-04-01T12:02:01.215Z</time></trkpt><trkpt lat="42.7858817" lon="11.74402"><ele>347.0</ele><time>2026-04-01T12:02:02.215Z</time></trkpt><trkpt lat="42.7857033" lon="11.7438333"><ele>347.0</ele><time>2026-04-01T12:02:03.215Z</time></trkpt><trkpt lat="42.7855317" lon="11.7436717"><ele>347.0</ele><time>2026-04-01T12:02:04.216Z</time></trkpt><trkpt lat="42.7853833" lon="11.7435133"><ele>347.6666666666667</ele><time>2026-04-01T12:02:05.216Z</time></trkpt><trkpt lat="42.7852417" lon="11.74338"><ele>348.3333333333333</ele><time>2026-04-01T12:02:06.215Z</time></trkpt><trkpt lat="42.7850917" lon="11.743295"><ele>349.0</ele><time>2026-04-01T12:02:07.216Z</time></trkpt><trkpt lat="42.78494" lon="11.743285"><ele>348.66666666666663</ele><time>2026-04-01T12:02:08.216Z</time></trkpt><trkpt lat="42.78479" lon="11.7433417"><ele>348.3333333333333</ele><time>2026-04-01T12:02:09.216Z</time></trkpt><trkpt lat="42.7846333" lon="11.7434467"><ele>348.0</ele><time>2026-04-01T12:02:10.215Z</time></trkpt><trkpt lat="42.7844633" lon="11.7436067"><ele>352.0</ele><time>2026-04-01T12:02:11.215Z</time></trkpt><trkpt lat="42.784285" lon="11.7437867"><ele>356.0</ele><time>2026-04-01T12:02:12.215Z</time></trkpt><trkpt lat="42.7840933" lon="11.743965"><ele>356.0</ele><time>2026-04-01T12:02:13.216Z</time></trkpt><trkpt lat="42.7839283" lon="11.744135"><ele>356.0</ele><time>2026-04-01T12:02:14.216Z</time></trkpt><trkpt lat="42.783775" lon="11.7442967"><ele>356.0</ele><time>2026-04-01T12:02:15.216Z</time></trkpt><trkpt lat="42.7836383" lon="11.7444333"><ele>357.0</ele><time>2026-04-01T12:02:16.215Z</time></trkpt><trkpt lat="42.7835117" lon="11.7445267"><ele>358.0</ele><time>2026-04-01T12:02:17.216Z</time></trkpt><trkpt lat="42.783375" lon="11.7445683"><ele>359.0</ele><time>2026-04-01T12:02:18.215Z</time></trkpt><trkpt lat="42.7832317" lon="11.7445667"><ele>360.0</ele><time>2026-04-01T12:02:19.215Z</time></trkpt><trkpt lat="42.78309" lon="11.7445267"><ele>360.0</ele><time>2026-04-01T12:02:20.215Z</time></trkpt><trkpt lat="42.782965" lon="11.7444867"><ele>360.0</ele><time>2026-04-01T12:02:21.216Z</time></trkpt><trkpt lat="42.7828633" lon="11.7444367"><ele>360.0</ele><time>2026-04-01T12:02:22.215Z</time></trkpt><trkpt lat="42.7827633" lon="11.744375"><ele>360.0</ele><time>2026-04-01T12:02:23.216Z</time></trkpt><trkpt lat="42.7826533" lon="11.7442833"><ele>360.75</ele><time>2026-04-01T12:02:24.216Z</time></trkpt><trkpt lat="42.782535" lon="11.7441633"><ele>361.5</ele><time>2026-04-01T12:02:25.216Z</time></trkpt><trkpt lat="42.7824283" lon="11.7440317"><ele>362.25</ele><time>2026-04-01T12:02:26.215Z</time></trkpt><trkpt lat="42.7823233" lon="11.7438867"><ele>363.0</ele><time>2026-04-01T12:02:27.216Z</time></trkpt><trkpt lat="42.782215" lon="11.7437567"><ele>363.0</ele><time>2026-04-01T12:02:28.216Z</time></trkpt><trkpt lat="42.782085" lon="11.7436583"><ele>363.0</ele><time>2026-04-01T12:02:29.216Z</time></trkpt><trkpt lat="42.7819283" lon="11.74358"><ele>363.0</ele><time>2026-04-01T12:02:30.215Z</time></trkpt><trkpt lat="42.781755" lon="11.7435033"><ele>360.75</ele><time>2026-04-01T12:02:31.215Z</time></trkpt><trkpt lat="42.7816067" lon="11.7434233"><ele>358.5</ele><time>2026-04-01T12:02:32.216Z</time></trkpt><trkpt lat="42.7814767" lon="11.74337"><ele>356.25</ele><time>2026-04-01T12:02:33.216Z</time></trkpt><trkpt lat="42.7813683" lon="11.74333"><ele>354.0</ele><time>2026-04-01T12:02:34.215Z</time></trkpt><trkpt lat="42.7812567" lon="11.74333"><ele>354.0</ele><time>2026-04-01T12:02:35.216Z</time></trkpt><trkpt lat="42.7811567" lon="11.7433933"><ele>354.0</ele><time>2026-04-01T12:02:36.215Z</time></trkpt><trkpt lat="42.781065" lon="11.743515"><ele>354.0</ele><time>2026-04-01T12:02:37.215Z</time></trkpt><trkpt lat="42.7809833" lon="11.7436933"><ele>354.0</ele><time>2026-04-01T12:02:38.215Z</time></trkpt><trkpt lat="42.78092" lon="11.7439167"><ele>355.0</ele><time>2026-04-01T12:02:39.216Z</time></trkpt><trkpt lat="42.78086" lon="11.74415"><ele>356.0</ele><time>2026-04-01T12:02:40.216Z</time></trkpt><trkpt lat="42.7807967" lon="11.7443667"><ele>357.0</ele><time>2026-04-01T12:02:41.215Z</time></trkpt><trkpt lat="42.7807233" lon="11.7445167"><ele>357.0</ele><time>2026-04-01T12:02:42.215Z</time></trkpt><trkpt lat="42.7806267" lon="11.744595"><ele>357.0</ele><time>2026-04-01T12:02:43.216Z</time></trkpt><trkpt lat="42.7805183" lon="11.7446067"><ele>357.0</ele><time>2026-04-01T12:02:44.216Z</time></trkpt><trkpt lat="42.780385" lon="11.74456"><ele>357.0</ele><time>2026-04-01T12:02:45.216Z</time></trkpt><trkpt lat="42.7802383" lon="11.7444967"><ele>359.3333333333333</ele><time>2026-04-01T12:02:46.216Z</time></trkpt><trkpt lat="42.7800533" lon="11.744425"><ele>361.66666666666663</ele><time>2026-04-01T12:02:47.216Z</time></trkpt><trkpt lat="42.779845" lon="11.7443367"><ele>364.0</ele><time>2026-04-01T12:02:48.216Z</time></trkpt><trkpt lat="42.779625" lon="11.7442417"><ele>365.0</ele><time>2026-04-01T12:02:49.215Z</time></trkpt><trkpt lat="42.7793933" lon="11.7441417"><ele>366.0</ele><time>2026-04-01T12:02:50.216Z</time></trkpt><trkpt lat="42.7791467" lon="11.7440417"><ele>367.5</ele><time>2026-04-01T12:02:51.215Z</time></trkpt><trkpt lat="42.7788883" lon="11.743945"><ele>369.0</ele><time>2026-04-01T12:02:52.216Z</time></trkpt><trkpt lat="42.7786183" lon="11.7438367"><ele>369.5</ele><time>2026-04-01T12:02:53.216Z</time></trkpt><trkpt lat="42.7783433" lon="11.7437267"><ele>370.0</ele><time>2026-04-01T12:02:54.215Z</time></trkpt><trkpt lat="42.7780533" lon="11.74361"><ele>371.0</ele><time>2026-04-01T12:02:55.216Z</time></trkpt><trkpt lat="42.777775" lon="11.7434983"><ele>372.0</ele><time>2026-04-01T12:02:56.216Z</time></trkpt><trkpt lat="42.7775167" lon="11.743395"><ele>373.0</ele><time>2026-04-01T12:02:57.215Z</time></trkpt><trkpt lat="42.7772783" lon="11.7432933"><ele>374.0</ele><time>2026-04-01T12:02:58.216Z</time></trkpt><trkpt lat="42.7770583" lon="11.7432117"><ele>374.0</ele><time>2026-04-01T12:02:59.216Z</time></trkpt><trkpt lat="42.7768617" lon="11.743135"><ele>374.0</ele><time>2026-04-01T12:03:00.216Z</time></trkpt><trkpt lat="42.776685" lon="11.74307"><ele>374.0</ele><time>2026-04-01T12:03:01.216Z</time></trkpt><trkpt lat="42.77652" lon="11.743005"><ele>374.0</ele><time>2026-04-01T12:03:02.216Z</time></trkpt><trkpt lat="42.776395" lon="11.7429317"><ele>374.0</ele><time>2026-04-01T12:03:03.216Z</time></trkpt><trkpt lat="42.7762983" lon="11.7428283"><ele>374.0</ele><time>2026-04-01T12:03:04.216Z</time></trkpt><trkpt lat="42.77624" lon="11.7426983"><ele>374.0</ele><time>2026-04-01T12:03:05.216Z</time></trkpt><trkpt lat="42.77621" lon="11.7425383"><ele>374.0</ele><time>2026-04-01T12:03:06.215Z</time></trkpt><trkpt lat="42.7762" lon="11.742355"><ele>374.0</ele><time>2026-04-01T12:03:07.216Z</time></trkpt><trkpt lat="42.7761867" lon="11.74216"><ele>374.0</ele><time>2026-04-01T12:03:08.215Z</time></trkpt><trkpt lat="42.7761633" lon="11.7419683"><ele>374.0</ele><time>2026-04-01T12:03:09.216Z</time></trkpt><trkpt lat="42.7761367" lon="11.7417867"><ele>374.25</ele><time>2026-04-01T12:03:10.216Z</time></trkpt><trkpt lat="42.7760867" lon="11.7416217"><ele>374.5</ele><time>2026-04-01T12:03:11.216Z</time></trkpt><trkpt lat="42.7760083" lon="11.7414717"><ele>374.75</ele><time>2026-04-01T12:03:12.216Z</time></trkpt><trkpt lat="42.7759067" lon="11.7413217"><ele>375.0</ele><time>2026-04-01T12:03:13.216Z</time></trkpt><trkpt lat="42.7757883" lon="11.74119"><ele>373.25</ele><time>2026-04-01T12:03:14.216Z</time></trkpt><trkpt lat="42.775675" lon="11.7410833"><ele>371.5</ele><time>2026-04-01T12:03:15.215Z</time></trkpt><trkpt lat="42.7755617" lon="11.740985"><ele>369.75</ele><time>2026-04-01T12:03:16.216Z</time></trkpt><trkpt lat="42.7754383" lon="11.7409117"><ele>368.0</ele><time>2026-04-01T12:03:17.216Z</time></trkpt><trkpt lat="42.7753117" lon="11.74083"><ele>364.0</ele><time>2026-04-01T12:03:18.216Z</time></trkpt><trkpt lat="42.7751683" lon="11.740745"><ele>360.0</ele><time>2026-04-01T12:03:19.215Z</time></trkpt><trkpt lat="42.775" lon="11.7406583"><ele>356.0</ele><time>2026-04-01T12:03:20.216Z</time></trkpt><trkpt lat="42.7748183" lon="11.74056"><ele>356.0</ele><time>2026-04-01T12:03:21.216Z</time></trkpt><trkpt lat="42.7746333" lon="11.7404533"><ele>356.0</ele><time>2026-04-01T12:03:22.216Z</time></trkpt><trkpt lat="42.7744383" lon="11.7403367"><ele>356.0</ele><time>2026-04-01T12:03:23.216Z</time></trkpt><trkpt lat="42.7742383" lon="11.74022"><ele>357.0</ele><time>2026-04-01T12:03:24.216Z</time></trkpt><trkpt lat="42.7740167" lon="11.740125"><ele>358.0</ele><time>2026-04-01T12:03:25.215Z</time></trkpt><trkpt lat="42.7737717" lon="11.740045"><ele>358.0</ele><time>2026-04-01T12:03:26.215Z</time></trkpt><trkpt lat="42.7735317" lon="11.7399733"><ele>358.0</ele><time>2026-04-01T12:03:27.215Z</time></trkpt><trkpt lat="42.7732983" lon="11.7399017"><ele>356.0</ele><time>2026-04-01T12:03:28.215Z</time></trkpt><trkpt lat="42.773075" lon="11.73984"><ele>354.0</ele><time>2026-04-01T12:03:29.216Z</time></trkpt><trkpt lat="42.77284" lon="11.7397967"><ele>354.0</ele><time>2026-04-01T12:03:30.216Z</time></trkpt><trkpt lat="42.77258" lon="11.73978"><ele>354.0</ele><time>2026-04-01T12:03:31.216Z</time></trkpt><trkpt lat="42.7723083" lon="11.7397733"><ele>354.0</ele><time>2026-04-01T12:03:32.216Z</time></trkpt><trkpt lat="42.772025" lon="11.7397617"><ele>354.0</ele><time>2026-04-01T12:03:33.216Z</time></trkpt><trkpt lat="42.7717433" lon="11.7397417"><ele>355.0</ele><time>2026-04-01T12:03:34.215Z</time></trkpt><trkpt lat="42.77146" lon="11.7397217"><ele>356.0</ele><time>2026-04-01T12:03:35.216Z</time></trkpt><trkpt lat="42.7712017" lon="11.73971"><ele>356.5</ele><time>2026-04-01T12:03:36.216Z</time></trkpt><trkpt lat="42.7709567" lon="11.7396983"><ele>357.0</ele><time>2026-04-01T12:03:37.216Z</time></trkpt><trkpt lat="42.770735" lon="11.73969"><ele>357.0</ele><time>2026-04-01T12:03:38.216Z</time></trkpt><trkpt lat="42.7705333" lon="11.739695"><ele>357.0</ele><time>2026-04-01T12:03:39.216Z</time></trkpt><trkpt lat="42.7703517" lon="11.739765"><ele>357.0</ele><time>2026-04-01T12:03:40.216Z</time></trkpt><trkpt lat="42.7701833" lon="11.73991"><ele>360.0</ele><time>2026-04-01T12:03:41.216Z</time></trkpt><trkpt lat="42.7700083" lon="11.7401183"><ele>363.0</ele><time>2026-04-01T12:03:42.216Z</time></trkpt><trkpt lat="42.7698183" lon="11.740365"><ele>363.0</ele><time>2026-04-01T12:03:43.216Z</time></trkpt><trkpt lat="42.76962" lon="11.740625"><ele>363.0</ele><time>2026-04-01T12:03:44.216Z</time></trkpt><trkpt lat="42.769415" lon="11.740875"><ele>369.5</ele><time>2026-04-01T12:03:45.215Z</time></trkpt><trkpt lat="42.76919" lon="11.7411033"><ele>376.0</ele><time>2026-04-01T12:03:46.215Z</time></trkpt><trkpt lat="42.768945" lon="11.741315"><ele>376.0</ele><time>2026-04-01T12:03:47.215Z</time></trkpt><trkpt lat="42.7687183" lon="11.7415133"><ele>376.0</ele><time>2026-04-01T12:03:48.216Z</time></trkpt><trkpt lat="42.7685367" lon="11.7416867"><ele>377.0</ele><time>2026-04-01T12:03:49.215Z</time></trkpt><trkpt lat="42.7683817" lon="11.7418383"><ele>378.0</ele><time>2026-04-01T12:03:50.215Z</time></trkpt><trkpt lat="42.76827" lon="11.7419433"><ele>379.0</ele><time>2026-04-01T12:03:51.216Z</time></trkpt><trkpt lat="42.7681783" lon="11.7420267"><ele>380.0</ele><time>2026-04-01T12:03:52.215Z</time></trkpt><trkpt lat="42.768115" lon="11.74209"><ele>380.0</ele><time>2026-04-01T12:03:53.216Z</time></trkpt><trkpt lat="42.7680717" lon="11.7422367"><ele>380.0</ele><time>2026-04-01T12:03:55.216Z</time></trkpt><trkpt lat="42.7681267" lon="11.74234"><ele>380.0</ele><time>2026-04-01T12:03:57.216Z</time></trkpt><trkpt lat="42.76823" lon="11.742375"><ele>380.0</ele><time>2026-04-01T12:03:59.216Z</time></trkpt><trkpt lat="42.76829" lon="11.74233"><ele>380.0</ele><time>2026-04-01T12:04:13.216Z</time></trkpt><trkpt lat="42.7682133" lon="11.7422867"><ele>380.0</ele><time>2026-04-01T12:04:16.215Z</time></trkpt><trkpt lat="42.768145" lon="11.74224"><ele>380.0</ele><time>2026-04-01T12:04:18.216Z</time></trkpt><trkpt lat="42.7681217" lon="11.7421383"><ele>380.0</ele><time>2026-04-01T12:04:20.216Z</time></trkpt><trkpt lat="42.768195" lon="11.7420367"><ele>380.0</ele><time>2026-04-01T12:04:22.216Z</time></trkpt><trkpt lat="42.7682583" lon="11.7419933"><ele>380.0</ele><time>2026-04-01T12:04:23.216Z</time></trkpt><trkpt lat="42.76832" lon="11.741945"><ele>380.0</ele><time>2026-04-01T12:04:24.216Z</time></trkpt><trkpt lat="42.76838" lon="11.7418783"><ele>379.2</ele><time>2026-04-01T12:04:25.216Z</time></trkpt><trkpt lat="42.7684433" lon="11.74181"><ele>378.4</ele><time>2026-04-01T12:04:26.216Z</time></trkpt><trkpt lat="42.7685117" lon="11.7417417"><ele>377.6</ele><time>2026-04-01T12:04:27.216Z</time></trkpt><trkpt lat="42.76859" lon="11.7416717"><ele>376.8</ele><time>2026-04-01T12:04:28.216Z</time></trkpt><trkpt lat="42.7686817" lon="11.7415867"><ele>376.0</ele><time>2026-04-01T12:04:29.216Z</time></trkpt><trkpt lat="42.7687833" lon="11.741485"><ele>376.0</ele><time>2026-04-01T12:04:30.216Z</time></trkpt><trkpt lat="42.7688967" lon="11.7413733"><ele>376.0</ele><time>2026-04-01T12:04:31.215Z</time></trkpt><trkpt lat="42.7690183" lon="11.7412683"><ele>376.0</ele><time>2026-04-01T12:04:32.216Z</time></trkpt><trkpt lat="42.7691433" lon="11.7411633"><ele>376.0</ele><time>2026-04-01T12:04:33.216Z</time></trkpt><trkpt lat="42.7692717" lon="11.7410567"><ele>371.66666666666663</ele><time>2026-04-01T12:04:34.216Z</time></trkpt><trkpt lat="42.7693967" lon="11.7409483"><ele>367.3333333333333</ele><time>2026-04-01T12:04:35.215Z</time></trkpt><trkpt lat="42.7695167" lon="11.740825"><ele>363.0</ele><time>2026-04-01T12:04:36.215Z</time></trkpt><trkpt lat="42.7696333" lon="11.7406833"><ele>363.0</ele><time>2026-04-01T12:04:37.216Z</time></trkpt><trkpt lat="42.7697367" lon="11.740535"><ele>363.0</ele><time>2026-04-01T12:04:38.215Z</time></trkpt><trkpt lat="42.76984" lon="11.7403867"><ele>363.0</ele><time>2026-04-01T12:04:39.216Z</time></trkpt><trkpt lat="42.76995" lon="11.7402433"><ele>363.3333333333333</ele><time>2026-04-01T12:04:40.216Z</time></trkpt><trkpt lat="42.7700717" lon="11.7401017"><ele>363.66666666666663</ele><time>2026-04-01T12:04:41.216Z</time></trkpt><trkpt lat="42.7701833" lon="11.7399717"><ele>364.0</ele><time>2026-04-01T12:04:42.215Z</time></trkpt><trkpt lat="42.7703033" lon="11.73986"><ele>362.25</ele><time>2026-04-01T12:04:43.215Z</time></trkpt><trkpt lat="42.77043" lon="11.7397717"><ele>360.5</ele><time>2026-04-01T12:04:44.216Z</time></trkpt><trkpt lat="42.7705767" lon="11.7397233"><ele>358.75</ele><time>2026-04-01T12:04:45.216Z</time></trkpt><trkpt lat="42.7707267" lon="11.739715"><ele>357.0</ele><time>2026-04-01T12:04:46.216Z</time></trkpt><trkpt lat="42.77089" lon="11.7397217"><ele>356.6666666666667</ele><time>2026-04-01T12:04:47.216Z</time></trkpt><trkpt lat="42.7710467" lon="11.7397433"><ele>356.33333333333337</ele><time>2026-04-01T12:04:48.216Z</time></trkpt><trkpt lat="42.771205" lon="11.7397567"><ele>356.0</ele><time>2026-04-01T12:04:49.215Z</time></trkpt><trkpt lat="42.7713683" lon="11.7397683"><ele>356.0</ele><time>2026-04-01T12:04:50.216Z</time></trkpt><trkpt lat="42.7715367" lon="11.739785"><ele>356.0</ele><time>2026-04-01T12:04:51.215Z</time></trkpt><trkpt lat="42.7717117" lon="11.7397917"><ele>356.0</ele><time>2026-04-01T12:04:52.216Z</time></trkpt><trkpt lat="42.771885" lon="11.7398067"><ele>355.33333333333337</ele><time>2026-04-01T12:04:53.216Z</time></trkpt><trkpt lat="42.7720683" lon="11.7398217"><ele>354.6666666666667</ele><time>2026-04-01T12:04:54.216Z</time></trkpt><trkpt lat="42.7722533" lon="11.7398383"><ele>354.0</ele><time>2026-04-01T12:04:55.215Z</time></trkpt><trkpt lat="42.772445" lon="11.7398433"><ele>354.0</ele><time>2026-04-01T12:04:56.216Z</time></trkpt><trkpt lat="42.772635" lon="11.7398467"><ele>354.0</ele><time>2026-04-01T12:04:57.215Z</time></trkpt><trkpt lat="42.77283" lon="11.7398567"><ele>354.0</ele><time>2026-04-01T12:04:58.216Z</time></trkpt><trkpt lat="42.7730283" lon="11.7398733"><ele>354.0</ele><time>2026-04-01T12:04:59.216Z</time></trkpt><trkpt lat="42.7732267" lon="11.7399067"><ele>354.0</ele><time>2026-04-01T12:05:00.216Z</time></trkpt><trkpt lat="42.7734283" lon="11.7399583"><ele>354.0</ele><time>2026-04-01T12:05:01.216Z</time></trkpt><trkpt lat="42.7736267" lon="11.7400217"><ele>353.0</ele><time>2026-04-01T12:05:02.216Z</time></trkpt><trkpt lat="42.7738217" lon="11.74009"><ele>352.0</ele><time>2026-04-01T12:05:03.215Z</time></trkpt><trkpt lat="42.774005" lon="11.74016"><ele>351.0</ele><time>2026-04-01T12:05:04.216Z</time></trkpt><trkpt lat="42.7741783" lon="11.74023"><ele>352.6666666666667</ele><time>2026-04-01T12:05:05.215Z</time></trkpt><trkpt lat="42.7743567" lon="11.7403183"><ele>354.33333333333337</ele><time>2026-04-01T12:05:06.216Z</time></trkpt><trkpt lat="42.7745333" lon="11.740415"><ele>356.0</ele><time>2026-04-01T12:05:07.216Z</time></trkpt><trkpt lat="42.77471" lon="11.74052"><ele>356.0</ele><time>2026-04-01T12:05:08.216Z</time></trkpt><trkpt lat="42.774885" lon="11.7406283"><ele>356.0</ele><time>2026-04-01T12:05:09.215Z</time></trkpt><trkpt lat="42.7750467" lon="11.740725"><ele>356.0</ele><time>2026-04-01T12:05:10.216Z</time></trkpt><trkpt lat="42.775205" lon="11.7408117"><ele>358.33333333333337</ele><time>2026-04-01T12:05:11.216Z</time></trkpt><trkpt lat="42.7753667" lon="11.7409083"><ele>360.6666666666667</ele><time>2026-04-01T12:05:12.215Z</time></trkpt><trkpt lat="42.77553" lon="11.7410167"><ele>363.0</ele><time>2026-04-01T12:05:13.215Z</time></trkpt><trkpt lat="42.7756767" lon="11.74113"><ele>363.0</ele><time>2026-04-01T12:05:14.216Z</time></trkpt><trkpt lat="42.7758133" lon="11.7412567"><ele>363.0</ele><time>2026-04-01T12:05:15.215Z</time></trkpt><trkpt lat="42.7759367" lon="11.741405"><ele>363.0</ele><time>2026-04-01T12:05:16.216Z</time></trkpt><trkpt lat="42.776035" lon="11.7415867"><ele>366.6666666666667</ele><time>2026-04-01T12:05:17.215Z</time></trkpt><trkpt lat="42.776125" lon="11.7417967"><ele>370.33333333333337</ele><time>2026-04-01T12:05:18.216Z</time></trkpt><trkpt lat="42.7761833" lon="11.7420183"><ele>374.0</ele><time>2026-04-01T12:05:19.216Z</time></trkpt><trkpt lat="42.7762117" lon="11.7422417"><ele>374.0</ele><time>2026-04-01T12:05:20.216Z</time></trkpt><trkpt lat="42.7762133" lon="11.7424617"><ele>374.0</ele><time>2026-04-01T12:05:21.216Z</time></trkpt><trkpt lat="42.776225" lon="11.7426517"><ele>374.0</ele><time>2026-04-01T12:05:22.216Z</time></trkpt><trkpt lat="42.7762783" lon="11.742815"><ele>374.0</ele><time>2026-04-01T12:05:23.216Z</time></trkpt><trkpt lat="42.7763583" lon="11.7429483"><ele>374.0</ele><time>2026-04-01T12:05:24.216Z</time></trkpt><trkpt lat="42.7764667" lon="11.7430317"><ele>374.0</ele><time>2026-04-01T12:05:25.215Z</time></trkpt><trkpt lat="42.7766017" lon="11.7430767"><ele>374.0</ele><time>2026-04-01T12:05:26.216Z</time></trkpt><trkpt lat="42.7767433" lon="11.7431267"><ele>374.0</ele><time>2026-04-01T12:05:27.216Z</time></trkpt><trkpt lat="42.7768933" lon="11.7431783"><ele>374.0</ele><time>2026-04-01T12:05:28.215Z</time></trkpt><trkpt lat="42.7770467" lon="11.743235"><ele>374.0</ele><time>2026-04-01T12:05:29.216Z</time></trkpt><trkpt lat="42.7772083" lon="11.7433017"><ele>374.0</ele><time>2026-04-01T12:05:30.216Z</time></trkpt><trkpt lat="42.7773767" lon="11.7433617"><ele>374.0</ele><time>2026-04-01T12:05:31.216Z</time></trkpt><trkpt lat="42.7775433" lon="11.7434233"><ele>374.0</ele><time>2026-04-01T12:05:32.216Z</time></trkpt><trkpt lat="42.777715" lon="11.7434917"><ele>374.0</ele><time>2026-04-01T12:05:33.215Z</time></trkpt><trkpt lat="42.77789" lon="11.7435617"><ele>372.6666666666667</ele><time>2026-04-01T12:05:34.215Z</time></trkpt><trkpt lat="42.7780667" lon="11.7436333"><ele>371.3333333333333</ele><time>2026-04-01T12:05:35.216Z</time></trkpt><trkpt lat="42.7782467" lon="11.7437067"><ele>370.0</ele><time>2026-04-01T12:05:36.215Z</time></trkpt><trkpt lat="42.7784317" lon="11.74378"><ele>369.66666666666663</ele><time>2026-04-01T12:05:37.215Z</time></trkpt><trkpt lat="42.7786133" lon="11.7438517"><ele>369.3333333333333</ele><time>2026-04-01T12:05:38.216Z</time></trkpt><trkpt lat="42.7787867" lon="11.743925"><ele>369.0</ele><time>2026-04-01T12:05:39.215Z</time></trkpt><trkpt lat="42.778965" lon="11.743995"><ele>369.0</ele><time>2026-04-01T12:05:40.216Z</time></trkpt><trkpt lat="42.7791433" lon="11.744075"><ele>369.0</ele><time>2026-04-01T12:05:41.216Z</time></trkpt><trkpt lat="42.7793233" lon="11.74415"><ele>369.0</ele><time>2026-04-01T12:05:42.215Z</time></trkpt><trkpt lat="42.7795033" lon="11.7442217"><ele>368.0</ele><time>2026-04-01T12:05:43.216Z</time></trkpt><trkpt lat="42.7796883" lon="11.7442933"><ele>367.0</ele><time>2026-04-01T12:05:44.216Z</time></trkpt><trkpt lat="42.77987" lon="11.7443617"><ele>366.0</ele><time>2026-04-01T12:05:45.216Z</time></trkpt><trkpt lat="42.7800517" lon="11.7444383"><ele>363.0</ele><time>2026-04-01T12:05:46.215Z</time></trkpt><trkpt lat="42.780215" lon="11.74451"><ele>360.0</ele><time>2026-04-01T12:05:47.216Z</time></trkpt><trkpt lat="42.780365" lon="11.7445667"><ele>357.0</ele><time>2026-04-01T12:05:48.215Z</time></trkpt><trkpt lat="42.7804917" lon="11.744615"><ele>357.0</ele><time>2026-04-01T12:05:49.215Z</time></trkpt><trkpt lat="42.7806083" lon="11.7446317"><ele>357.0</ele><time>2026-04-01T12:05:50.215Z</time></trkpt><trkpt lat="42.780715" lon="11.744585"><ele>357.0</ele><time>2026-04-01T12:05:51.216Z</time></trkpt><trkpt lat="42.7808083" lon="11.744485"><ele>357.0</ele><time>2026-04-01T12:05:52.215Z</time></trkpt><trkpt lat="42.7808667" lon="11.74433"><ele>358.0</ele><time>2026-04-01T12:05:53.215Z</time></trkpt><trkpt lat="42.7809133" lon="11.7441283"><ele>359.0</ele><time>2026-04-01T12:05:54.215Z</time></trkpt><trkpt lat="42.78096" lon="11.7439217"><ele>360.0</ele><time>2026-04-01T12:05:55.216Z</time></trkpt><trkpt lat="42.78101" lon="11.7437333"><ele>358.5</ele><time>2026-04-01T12:05:56.216Z</time></trkpt><trkpt lat="42.7810767" lon="11.743565"><ele>357.0</ele><time>2026-04-01T12:05:57.215Z</time></trkpt><trkpt lat="42.78117" lon="11.743435"><ele>355.5</ele><time>2026-04-01T12:05:58.216Z</time></trkpt><trkpt lat="42.781275" lon="11.7433667"><ele>354.0</ele><time>2026-04-01T12:05:59.216Z</time></trkpt><trkpt lat="42.7814133" lon="11.74336"><ele>354.0</ele><time>2026-04-01T12:06:00.215Z</time></trkpt><trkpt lat="42.781565" lon="11.7433983"><ele>354.0</ele><time>2026-04-01T12:06:01.215Z</time></trkpt><trkpt lat="42.7817217" lon="11.7434783"><ele>354.0</ele><time>2026-04-01T12:06:02.216Z</time></trkpt><trkpt lat="42.7818983" lon="11.7435717"><ele>357.0</ele><time>2026-04-01T12:06:03.215Z</time></trkpt><trkpt lat="42.7820583" lon="11.7436683"><ele>360.0</ele><time>2026-04-01T12:06:04.216Z</time></trkpt><trkpt lat="42.7822033" lon="11.74377"><ele>363.0</ele><time>2026-04-01T12:06:05.215Z</time></trkpt><trkpt lat="42.7823233" lon="11.7439067"><ele>363.0</ele><time>2026-04-01T12:06:06.216Z</time></trkpt><trkpt lat="42.7824217" lon="11.744065"><ele>363.0</ele><time>2026-04-01T12:06:07.216Z</time></trkpt><trkpt lat="42.7825283" lon="11.7441933"><ele>363.0</ele><time>2026-04-01T12:06:08.215Z</time></trkpt><trkpt lat="42.7826367" lon="11.744305"><ele>363.0</ele><time>2026-04-01T12:06:09.216Z</time></trkpt><trkpt lat="42.78276" lon="11.7443867"><ele>362.25</ele><time>2026-04-01T12:06:10.216Z</time></trkpt><trkpt lat="42.78289" lon="11.744455"><ele>361.5</ele><time>2026-04-01T12:06:11.215Z</time></trkpt><trkpt lat="42.783025" lon="11.7445217"><ele>360.75</ele><time>2026-04-01T12:06:12.216Z</time></trkpt><trkpt lat="42.7831683" lon="11.74457"><ele>360.0</ele><time>2026-04-01T12:06:13.216Z</time></trkpt><trkpt lat="42.7833033" lon="11.744615"><ele>360.0</ele><time>2026-04-01T12:06:14.216Z</time></trkpt><trkpt lat="42.7834333" lon="11.7446217"><ele>360.0</ele><time>2026-04-01T12:06:15.216Z</time></trkpt><trkpt lat="42.7835283" lon="11.74457"><ele>360.0</ele><time>2026-04-01T12:06:16.216Z</time></trkpt><trkpt lat="42.7836167" lon="11.7444817"><ele>360.0</ele><time>2026-04-01T12:06:17.216Z</time></trkpt><trkpt lat="42.7837033" lon="11.7443983"><ele>360.0</ele><time>2026-04-01T12:06:18.216Z</time></trkpt><trkpt lat="42.7837983" lon="11.7443067"><ele>359.0</ele><time>2026-04-01T12:06:19.216Z</time></trkpt><trkpt lat="42.78389" lon="11.7442183"><ele>358.0</ele><time>2026-04-01T12:06:20.216Z</time></trkpt><trkpt lat="42.783985" lon="11.7441233"><ele>357.0</ele><time>2026-04-01T12:06:21.216Z</time></trkpt><trkpt lat="42.78409" lon="11.7440183"><ele>356.0</ele><time>2026-04-01T12:06:22.216Z</time></trkpt><trkpt lat="42.7841967" lon="11.7439233"><ele>356.0</ele><time>2026-04-01T12:06:23.215Z</time></trkpt><trkpt lat="42.7842983" lon="11.7438233"><ele>356.0</ele><time>2026-04-01T12:06:24.216Z</time></trkpt><trkpt lat="42.7844067" lon="11.7437217"><ele>356.0</ele><time>2026-04-01T12:06:25.216Z</time></trkpt><trkpt lat="42.78452" lon="11.74363"><ele>356.0</ele><time>2026-04-01T12:06:26.216Z</time></trkpt><trkpt lat="42.7846283" lon="11.74355"><ele>355.5</ele><time>2026-04-01T12:06:27.215Z</time></trkpt><trkpt lat="42.78473" lon="11.743465"><ele>355.0</ele><time>2026-04-01T12:06:28.216Z</time></trkpt><trkpt lat="42.7848367" lon="11.7433883"><ele>354.5</ele><time>2026-04-01T12:06:29.216Z</time></trkpt><trkpt lat="42.7849467" lon="11.7433467"><ele>354.0</ele><time>2026-04-01T12:06:30.216Z</time></trkpt><trkpt lat="42.7850617" lon="11.743335"><ele>352.75</ele><time>2026-04-01T12:06:31.216Z</time></trkpt><trkpt lat="42.78518" lon="11.7433733"><ele>351.5</ele><time>2026-04-01T12:06:32.215Z</time></trkpt><trkpt lat="42.7852933" lon="11.7434533"><ele>350.25</ele><time>2026-04-01T12:06:33.216Z</time></trkpt><trkpt lat="42.7854017" lon="11.7435517"><ele>349.0</ele><time>2026-04-01T12:06:34.215Z</time></trkpt><trkpt lat="42.7855067" lon="11.7436633"><ele>348.5</ele><time>2026-04-01T12:06:35.215Z</time></trkpt><trkpt lat="42.7856167" lon="11.7437783"><ele>348.0</ele><time>2026-04-01T12:06:36.216Z</time></trkpt><trkpt lat="42.7857267" lon="11.7438883"><ele>347.5</ele><time>2026-04-01T12:06:37.216Z</time></trkpt><trkpt lat="42.785845" lon="11.7440083"><ele>347.0</ele><time>2026-04-01T12:06:38.215Z</time></trkpt><trkpt lat="42.78597" lon="11.7441333"><ele>347.0</ele><time>2026-04-01T12:06:39.216Z</time></trkpt><trkpt lat="42.7860917" lon="11.744255"><ele>347.0</ele><time>2026-04-01T12:06:40.216Z</time></trkpt><trkpt lat="42.7862117" lon="11.7443733"><ele>347.0</ele><time>2026-04-01T12:06:41.217Z</time></trkpt><trkpt lat="42.786325" lon="11.7444917"><ele>347.0</ele><time>2026-04-01T12:06:42.217Z</time></trkpt><trkpt lat="42.7864333" lon="11.744605"><ele>346.5</ele><time>2026-04-01T12:06:43.216Z</time></trkpt><trkpt lat="42.7865483" lon="11.7447133"><ele>346.0</ele><time>2026-04-01T12:06:44.217Z</time></trkpt><trkpt lat="42.7866617" lon="11.744825"><ele>345.5</ele><time>2026-04-01T12:06:45.217Z</time></trkpt><trkpt lat="42.78677" lon="11.74494"><ele>345.0</ele><time>2026-04-01T12:06:46.217Z</time></trkpt><trkpt lat="42.7868783" lon="11.7450517"><ele>346.0</ele><time>2026-04-01T12:06:47.217Z</time></trkpt><trkpt lat="42.7869967" lon="11.7451683"><ele>347.0</ele><time>2026-04-01T12:06:48.216Z</time></trkpt><trkpt lat="42.7871067" lon="11.7452783"><ele>348.0</ele><time>2026-04-01T12:06:49.217Z</time></trkpt><trkpt lat="42.7872167" lon="11.74539"><ele>349.0</ele><time>2026-04-01T12:06:50.216Z</time></trkpt><trkpt lat="42.7873083" lon="11.7455067"><ele>350.0</ele><time>2026-04-01T12:06:51.217Z</time></trkpt><trkpt lat="42.7873833" lon="11.7456283"><ele>351.0</ele><time>2026-04-01T12:06:52.216Z</time></trkpt><trkpt lat="42.787425" lon="11.745765"><ele>352.0</ele><time>2026-04-01T12:06:53.216Z</time></trkpt><trkpt lat="42.7874417" lon="11.7459167"><ele>353.0</ele><time>2026-04-01T12:06:54.216Z</time></trkpt><trkpt lat="42.787425" lon="11.7460883"><ele>354.0</ele><time>2026-04-01T12:06:55.217Z</time></trkpt><trkpt lat="42.7873867" lon="11.74628"><ele>355.0</ele><time>2026-04-01T12:06:56.216Z</time></trkpt><trkpt lat="42.7873417" lon="11.746465"><ele>356.0</ele><time>2026-04-01T12:06:57.217Z</time></trkpt><trkpt lat="42.7873083" lon="11.7466483"><ele>357.0</ele><time>2026-04-01T12:06:58.216Z</time></trkpt><trkpt lat="42.7872817" lon="11.746825"><ele>356.5</ele><time>2026-04-01T12:06:59.216Z</time></trkpt><trkpt lat="42.787285" lon="11.7469833"><ele>356.0</ele><time>2026-04-01T12:07:00.217Z</time></trkpt><trkpt lat="42.7873067" lon="11.7471483"><ele>355.5</ele><time>2026-04-01T12:07:01.217Z</time></trkpt><trkpt lat="42.78736" lon="11.7473017"><ele>355.0</ele><time>2026-04-01T12:07:02.217Z</time></trkpt><trkpt lat="42.7874283" lon="11.7474533"><ele>355.0</ele><time>2026-04-01T12:07:03.217Z</time></trkpt><trkpt lat="42.7874983" lon="11.7475833"><ele>355.0</ele><time>2026-04-01T12:07:04.216Z</time></trkpt><trkpt lat="42.7875767" lon="11.7477183"><ele>355.0</ele><time>2026-04-01T12:07:05.216Z</time></trkpt><trkpt lat="42.7876517" lon="11.7478533"><ele>355.0</ele><time>2026-04-01T12:07:06.216Z</time></trkpt><trkpt lat="42.7877283" lon="11.7479883"><ele>357.0</ele><time>2026-04-01T12:07:07.217Z</time></trkpt><trkpt lat="42.7878033" lon="11.7481267"><ele>359.0</ele><time>2026-04-01T12:07:08.217Z</time></trkpt><trkpt lat="42.7878767" lon="11.7482583"><ele>361.0</ele><time>2026-04-01T12:07:09.217Z</time></trkpt><trkpt lat="42.78795" lon="11.7483867"><ele>363.0</ele><time>2026-04-01T12:07:10.217Z</time></trkpt><trkpt lat="42.7880217" lon="11.748505"><ele>362.0</ele><time>2026-04-01T12:07:11.216Z</time></trkpt><trkpt lat="42.788095" lon="11.748625"><ele>361.0</ele><time>2026-04-01T12:07:12.217Z</time></trkpt><trkpt lat="42.7881783" lon="11.748725"><ele>360.0</ele><time>2026-04-01T12:07:13.217Z</time></trkpt><trkpt lat="42.7882667" lon="11.748815"><ele>359.0</ele><time>2026-04-01T12:07:14.217Z</time></trkpt><trkpt lat="42.7883617" lon="11.7489083"><ele>359.0</ele><time>2026-04-01T12:07:15.216Z</time></trkpt><trkpt lat="42.7884567" lon="11.749005"><ele>359.0</ele><time>2026-04-01T12:07:16.216Z</time></trkpt><trkpt lat="42.78855" lon="11.749105"><ele>359.0</ele><time>2026-04-01T12:07:17.217Z</time></trkpt><trkpt lat="42.7886483" lon="11.7491983"><ele>359.0</ele><time>2026-04-01T12:07:18.217Z</time></trkpt><trkpt lat="42.788745" lon="11.7493"><ele>359.0</ele><time>2026-04-01T12:07:19.216Z</time></trkpt><trkpt lat="42.7888333" lon="11.7493933"><ele>359.0</ele><time>2026-04-01T12:07:20.217Z</time></trkpt><trkpt lat="42.788915" lon="11.7494817"><ele>359.0</ele><time>2026-04-01T12:07:21.217Z</time></trkpt><trkpt lat="42.7889933" lon="11.749565"><ele>359.0</ele><time>2026-04-01T12:07:22.217Z</time></trkpt><trkpt lat="42.7890717" lon="11.7496383"><ele>359.0</ele><time>2026-04-01T12:07:23.217Z</time></trkpt><trkpt lat="42.789145" lon="11.749695"><ele>359.0</ele><time>2026-04-01T12:07:24.217Z</time></trkpt><trkpt lat="42.789215" lon="11.7497417"><ele>359.0</ele><time>2026-04-01T12:07:25.216Z</time></trkpt><trkpt lat="42.789285" lon="11.749765"><ele>359.0</ele><time>2026-04-01T12:07:26.217Z</time></trkpt><trkpt lat="42.7893567" lon="11.74978"><ele>359.0</ele><time>2026-04-01T12:07:27.217Z</time></trkpt><trkpt lat="42.7894267" lon="11.749795"><ele>359.0</ele><time>2026-04-01T12:07:28.217Z</time></trkpt><trkpt lat="42.7894883" lon="11.7498167"><ele>359.0</ele><time>2026-04-01T12:07:29.216Z</time></trkpt><trkpt lat="42.7896" lon="11.74983"><ele>359.0</ele><time>2026-04-01T12:07:31.217Z</time></trkpt><trkpt lat="42.78965" lon="11.7497533"><ele>359.0</ele><time>2026-04-01T12:07:34.216Z</time></trkpt><trkpt lat="42.7896567" lon="11.74965"><ele>359.0</ele><time>2026-04-01T12:07:42.216Z</time></trkpt><trkpt lat="42.7896683" lon="11.74954"><ele>359.0</ele><time>2026-04-01T12:07:46.217Z</time></trkpt><trkpt lat="42.7896917" lon="11.749425"><ele>359.0</ele><time>2026-04-01T12:07:48.217Z</time></trkpt><trkpt lat="42.7897083" lon="11.74931"><ele>359.0</ele><time>2026-04-01T12:07:50.217Z</time></trkpt><trkpt lat="42.7896967" lon="11.7491967"><ele>359.79999999999995</ele><time>2026-04-01T12:07:52.216Z</time></trkpt><trkpt lat="42.7896433" lon="11.7490983"><ele>360.59999999999997</ele><time>2026-04-01T12:07:54.217Z</time></trkpt><trkpt lat="42.7895767" lon="11.748985"><ele>361.4</ele><time>2026-04-01T12:07:56.217Z</time></trkpt><trkpt lat="42.7895217" lon="11.7488633"><ele>362.2</ele><time>2026-04-01T12:07:58.217Z</time></trkpt><trkpt lat="42.78947" lon="11.748755"><ele>363.0</ele><time>2026-04-01T12:08:00.217Z</time></trkpt><trkpt lat="42.7894583" lon="11.74867"><ele>363.0</ele><time>2026-04-01T12:08:03.216Z</time></trkpt><trkpt lat="42.7894867" lon="11.748755"><ele>363.0</ele><time>2026-04-01T12:08:13.217Z</time></trkpt><trkpt lat="42.789515" lon="11.748855"><ele>363.0</ele><time>2026-04-01T12:09:16.217Z</time></trkpt><trkpt lat="42.78955" lon="11.7489433"><ele>363.0</ele><time>2026-04-01T12:09:18.217Z</time></trkpt><trkpt lat="42.7896017" lon="11.7490333"><ele>363.0</ele><time>2026-04-01T12:09:20.217Z</time></trkpt><trkpt lat="42.7896567" lon="11.7491183"><ele>363.0</ele><time>2026-04-01T12:09:22.217Z</time></trkpt><trkpt lat="42.7897017" lon="11.7491933"><ele>363.0</ele><time>2026-04-01T12:09:24.217Z</time></trkpt><trkpt lat="42.7897183" lon="11.7493017"><ele>363.0</ele><time>2026-04-01T12:09:28.217Z</time></trkpt><trkpt lat="42.7897" lon="11.7494083"><ele>363.0</ele><time>2026-04-01T12:09:31.217Z</time></trkpt><trkpt lat="42.78968" lon="11.7495233"><ele>363.0</ele><time>2026-04-01T12:09:33.216Z</time></trkpt><trkpt lat="42.78966" lon="11.7496467"><ele>363.0</ele><time>2026-04-01T12:09:35.216Z</time></trkpt><trkpt lat="42.7896383" lon="11.74973"><ele>363.0</ele><time>2026-04-01T12:09:37.217Z</time></trkpt><trkpt lat="42.7896917" lon="11.7498217"><ele>362.2</ele><time>2026-04-01T12:10:16.217Z</time></trkpt><trkpt lat="42.7897533" lon="11.7498483"><ele>361.4</ele><time>2026-04-01T12:10:17.216Z</time></trkpt><trkpt lat="42.78984" lon="11.7498833"><ele>360.59999999999997</ele><time>2026-04-01T12:10:18.216Z</time></trkpt><trkpt lat="42.78995" lon="11.749905"><ele>359.79999999999995</ele><time>2026-04-01T12:10:19.217Z</time></trkpt><trkpt lat="42.7900667" lon="11.7499333"><ele>359.0</ele><time>2026-04-01T12:10:20.217Z</time></trkpt><trkpt lat="42.7901867" lon="11.7499733"><ele>358.5</ele><time>2026-04-01T12:10:21.217Z</time></trkpt><trkpt lat="42.7903117" lon="11.75001"><ele>358.0</ele><time>2026-04-01T12:10:22.217Z</time></trkpt><trkpt lat="42.7904433" lon="11.7500283"><ele>357.5</ele><time>2026-04-01T12:10:23.217Z</time></trkpt><trkpt lat="42.79058" lon="11.7500567"><ele>357.0</ele><time>2026-04-01T12:10:24.216Z</time></trkpt><trkpt lat="42.79072" lon="11.7500967"><ele>357.0</ele><time>2026-04-01T12:10:25.216Z</time></trkpt><trkpt lat="42.7908667" lon="11.7501267"><ele>357.0</ele><time>2026-04-01T12:10:26.217Z</time></trkpt><trkpt lat="42.7910167" lon="11.750155"><ele>357.0</ele><time>2026-04-01T12:10:27.216Z</time></trkpt><trkpt lat="42.7911667" lon="11.7501967"><ele>355.6666666666667</ele><time>2026-04-01T12:10:28.216Z</time></trkpt><trkpt lat="42.7913133" lon="11.75024"><ele>354.33333333333337</ele><time>2026-04-01T12:10:29.217Z</time></trkpt><trkpt lat="42.7914717" lon="11.7502733"><ele>353.0</ele><time>2026-04-01T12:10:30.217Z</time></trkpt><trkpt lat="42.79163" lon="11.7503167"><ele>353.0</ele><time>2026-04-01T12:10:31.216Z</time></trkpt><trkpt lat="42.7917967" lon="11.7503583"><ele>353.0</ele><time>2026-04-01T12:10:32.217Z</time></trkpt><trkpt lat="42.7919617" lon="11.7504017"><ele>353.0</ele><time>2026-04-01T12:10:33.217Z</time></trkpt><trkpt lat="42.7921317" lon="11.7504383"><ele>353.33333333333337</ele><time>2026-04-01T12:10:34.217Z</time></trkpt><trkpt lat="42.792305" lon="11.7504733"><ele>353.6666666666667</ele><time>2026-04-01T12:10:35.217Z</time></trkpt><trkpt lat="42.7924683" lon="11.7505133"><ele>354.0</ele><time>2026-04-01T12:10:36.216Z</time></trkpt><trkpt lat="42.7926317" lon="11.7505517"><ele>353.3333333333333</ele><time>2026-04-01T12:10:37.216Z</time></trkpt><trkpt lat="42.7927967" lon="11.75059"><ele>352.66666666666663</ele><time>2026-04-01T12:10:38.217Z</time></trkpt><trkpt lat="42.7929517" lon="11.7506233"><ele>352.0</ele><time>2026-04-01T12:10:39.217Z</time></trkpt><trkpt lat="42.7931067" lon="11.7506717"><ele>352.0</ele><time>2026-04-01T12:10:40.216Z</time></trkpt><trkpt lat="42.79326" lon="11.7507067"><ele>352.0</ele><time>2026-04-01T12:10:41.216Z</time></trkpt><trkpt lat="42.7934167" lon="11.7507483"><ele>352.0</ele><time>2026-04-01T12:10:42.216Z</time></trkpt><trkpt lat="42.79358" lon="11.75079"><ele>351.66666666666663</ele><time>2026-04-01T12:10:43.217Z</time></trkpt><trkpt lat="42.79374" lon="11.7508233"><ele>351.3333333333333</ele><time>2026-04-01T12:10:44.217Z</time></trkpt><trkpt lat="42.7939083" lon="11.7508667"><ele>351.0</ele><time>2026-04-01T12:10:45.216Z</time></trkpt><trkpt lat="42.7940767" lon="11.7509133"><ele>351.0</ele><time>2026-04-01T12:10:46.216Z</time></trkpt><trkpt lat="42.7942517" lon="11.7509567"><ele>351.0</ele><time>2026-04-01T12:10:47.217Z</time></trkpt><trkpt lat="42.7944333" lon="11.750995"><ele>351.0</ele><time>2026-04-01T12:10:48.217Z</time></trkpt><trkpt lat="42.79461" lon="11.751035"><ele>351.0</ele><time>2026-04-01T12:10:49.216Z</time></trkpt><trkpt lat="42.7947783" lon="11.7510733"><ele>351.0</ele><time>2026-04-01T12:10:50.217Z</time></trkpt><trkpt lat="42.7949333" lon="11.75111"><ele>351.0</ele><time>2026-04-01T12:10:51.216Z</time></trkpt><trkpt lat="42.7950883" lon="11.7511483"><ele>352.3333333333333</ele><time>2026-04-01T12:10:52.217Z</time></trkpt><trkpt lat="42.7952383" lon="11.751185"><ele>353.66666666666663</ele><time>2026-04-01T12:10:53.217Z</time></trkpt><trkpt lat="42.79539" lon="11.7512183"><ele>355.0</ele><time>2026-04-01T12:10:54.216Z</time></trkpt><trkpt lat="42.7955317" lon="11.7512517"><ele>355.0</ele><time>2026-04-01T12:10:55.217Z</time></trkpt><trkpt lat="42.7956617" lon="11.7512817"><ele>355.0</ele><time>2026-04-01T12:10:56.216Z</time></trkpt><trkpt lat="42.7957767" lon="11.75131"><ele>355.0</ele><time>2026-04-01T12:10:57.216Z</time></trkpt><trkpt lat="42.795885" lon="11.7513417"><ele>355.0</ele><time>2026-04-01T12:10:58.217Z</time></trkpt><trkpt lat="42.79598" lon="11.7513667"><ele>355.66666666666663</ele><time>2026-04-01T12:10:59.216Z</time></trkpt><trkpt lat="42.7960667" lon="11.7513817"><ele>356.3333333333333</ele><time>2026-04-01T12:11:00.216Z</time></trkpt><trkpt lat="42.7961367" lon="11.7513817"><ele>357.0</ele><time>2026-04-01T12:11:01.217Z</time></trkpt><trkpt lat="42.7962167" lon="11.7513167"><ele>357.6666666666667</ele><time>2026-04-01T12:11:03.217Z</time></trkpt><trkpt lat="42.7962" lon="11.7512217"><ele>358.33333333333337</ele><time>2026-04-01T12:11:06.216Z</time></trkpt><trkpt lat="42.7961467" lon="11.7511683"><ele>359.0</ele><time>2026-04-01T12:11:08.217Z</time></trkpt><trkpt lat="42.79608" lon="11.7510717"><ele>358.79999999999995</ele><time>2026-04-01T12:11:20.216Z</time></trkpt><trkpt lat="42.7959983" lon="11.75095"><ele>358.59999999999997</ele><time>2026-04-01T12:11:22.217Z</time></trkpt><trkpt lat="42.7959433" lon="11.750865"><ele>358.4</ele><time>2026-04-01T12:11:23.216Z</time></trkpt><trkpt lat="42.7958817" lon="11.7507683"><ele>358.2</ele><time>2026-04-01T12:11:24.216Z</time></trkpt><trkpt lat="42.795815" lon="11.7506733"><ele>358.0</ele><time>2026-04-01T12:11:25.216Z</time></trkpt><trkpt lat="42.79574" lon="11.75056"><ele>358.0</ele><time>2026-04-01T12:11:26.217Z</time></trkpt><trkpt lat="42.7956633" lon="11.7504417"><ele>358.0</ele><time>2026-04-01T12:11:27.217Z</time></trkpt><trkpt lat="42.7955933" lon="11.7503283"><ele>358.0</ele><time>2026-04-01T12:11:28.216Z</time></trkpt><trkpt lat="42.795545" lon="11.7502167"><ele>358.0</ele><time>2026-04-01T12:11:29.217Z</time></trkpt><trkpt lat="42.7955167" lon="11.7500917"><ele>358.0</ele><time>2026-04-01T12:11:30.217Z</time></trkpt><trkpt lat="42.7955" lon="11.749935"><ele>360.0</ele><time>2026-04-01T12:11:31.217Z</time></trkpt><trkpt lat="42.7954967" lon="11.7497717"><ele>362.0</ele><time>2026-04-01T12:11:32.216Z</time></trkpt><trkpt lat="42.7955" lon="11.749615"><ele>364.0</ele><time>2026-04-01T12:11:33.217Z</time></trkpt><trkpt lat="42.7955233" lon="11.7494517"><ele>366.0</ele><time>2026-04-01T12:11:34.217Z</time></trkpt><trkpt lat="42.7955533" lon="11.749295"><ele>367.75</ele><time>2026-04-01T12:11:35.216Z</time></trkpt><trkpt lat="42.7955967" lon="11.7491433"><ele>369.5</ele><time>2026-04-01T12:11:36.217Z</time></trkpt><trkpt lat="42.7956667" lon="11.7490117"><ele>371.25</ele><time>2026-04-01T12:11:37.216Z</time></trkpt><trkpt lat="42.7957483" lon="11.7488833"><ele>373.0</ele><time>2026-04-01T12:11:38.216Z</time></trkpt><trkpt lat="42.795845" lon="11.7487483"><ele>373.0</ele><time>2026-04-01T12:11:39.216Z</time></trkpt><trkpt lat="42.7959483" lon="11.7486083"><ele>373.0</ele><time>2026-04-01T12:11:40.216Z</time></trkpt><trkpt lat="42.7960483" lon="11.7484717"><ele>373.0</ele><time>2026-04-01T12:11:41.217Z</time></trkpt><trkpt lat="42.7961417" lon="11.748335"><ele>373.0</ele><time>2026-04-01T12:11:42.217Z</time></trkpt><trkpt lat="42.7962283" lon="11.748195"><ele>374.25</ele><time>2026-04-01T12:11:43.216Z</time></trkpt><trkpt lat="42.796305" lon="11.7480517"><ele>375.5</ele><time>2026-04-01T12:11:44.216Z</time></trkpt><trkpt lat="42.7963683" lon="11.747895"><ele>376.75</ele><time>2026-04-01T12:11:45.216Z</time></trkpt><trkpt lat="42.7964233" lon="11.7477333"><ele>378.0</ele><time>2026-04-01T12:11:46.217Z</time></trkpt><trkpt lat="42.7964717" lon="11.7475717"><ele>380.25</ele><time>2026-04-01T12:11:47.216Z</time></trkpt><trkpt lat="42.79653" lon="11.747405"><ele>382.5</ele><time>2026-04-01T12:11:48.216Z</time></trkpt><trkpt lat="42.796585" lon="11.7472433"><ele>384.75</ele><time>2026-04-01T12:11:49.216Z</time></trkpt><trkpt lat="42.7966267" lon="11.7470817"><ele>387.0</ele><time>2026-04-01T12:11:50.217Z</time></trkpt><trkpt lat="42.79668" lon="11.746915"><ele>387.5</ele><time>2026-04-01T12:11:51.217Z</time></trkpt><trkpt lat="42.7967367" lon="11.7467533"><ele>388.0</ele><time>2026-04-01T12:11:52.217Z</time></trkpt><trkpt lat="42.796795" lon="11.746585"><ele>388.5</ele><time>2026-04-01T12:11:53.216Z</time></trkpt><trkpt lat="42.7968517" lon="11.7464183"><ele>389.0</ele><time>2026-04-01T12:11:54.217Z</time></trkpt><trkpt lat="42.79691" lon="11.7462533"><ele>389.0</ele><time>2026-04-01T12:11:55.217Z</time></trkpt><trkpt lat="42.7969633" lon="11.7460783"><ele>389.0</ele><time>2026-04-01T12:11:56.217Z</time></trkpt><trkpt lat="42.7970167" lon="11.74591"><ele>389.0</ele><time>2026-04-01T12:11:57.216Z</time></trkpt><trkpt lat="42.79707" lon="11.7457417"><ele>389.0</ele><time>2026-04-01T12:11:58.217Z</time></trkpt><trkpt lat="42.797125" lon="11.7455867"><ele>390.0</ele><time>2026-04-01T12:11:59.216Z</time></trkpt><trkpt lat="42.7971733" lon="11.74545"><ele>391.0</ele><time>2026-04-01T12:12:00.216Z</time></trkpt><trkpt lat="42.7972233" lon="11.7453283"><ele>392.0</ele><time>2026-04-01T12:12:01.217Z</time></trkpt><trkpt lat="42.7972683" lon="11.74522"><ele>393.0</ele><time>2026-04-01T12:12:02.217Z</time></trkpt><trkpt lat="42.7973067" lon="11.7451217"><ele>394.0</ele><time>2026-04-01T12:12:03.216Z</time></trkpt><trkpt lat="42.7973267" lon="11.74504"><ele>395.6</ele><time>2026-04-01T12:12:04.216Z</time></trkpt><trkpt lat="42.7973333" lon="11.7448833"><ele>397.2</ele><time>2026-04-01T12:12:06.216Z</time></trkpt><trkpt lat="42.7972533" lon="11.744815"><ele>398.8</ele><time>2026-04-01T12:12:08.216Z</time></trkpt><trkpt lat="42.7971883" lon="11.7448383"><ele>400.40000000000003</ele><time>2026-04-01T12:12:09.216Z</time></trkpt><trkpt lat="42.7971133" lon="11.7448883"><ele>402.0</ele><time>2026-04-01T12:12:10.217Z</time></trkpt><trkpt lat="42.79703" lon="11.7449467"><ele>402.0</ele><time>2026-04-01T12:12:11.217Z</time></trkpt><trkpt lat="42.79693" lon="11.7450067"><ele>402.0</ele><time>2026-04-01T12:12:12.217Z</time></trkpt><trkpt lat="42.7968267" lon="11.7450717"><ele>402.0</ele><time>2026-04-01T12:12:13.217Z</time></trkpt><trkpt lat="42.7967217" lon="11.7451317"><ele>402.0</ele><time>2026-04-01T12:12:14.217Z</time></trkpt><trkpt lat="42.7966133" lon="11.7451917"><ele>402.0</ele><time>2026-04-01T12:12:15.216Z</time></trkpt><trkpt lat="42.7965017" lon="11.7452417"><ele>402.0</ele><time>2026-04-01T12:12:16.217Z</time></trkpt><trkpt lat="42.7963917" lon="11.7452683"><ele>402.0</ele><time>2026-04-01T12:12:17.217Z</time></trkpt><trkpt lat="42.7962783" lon="11.745275"><ele>402.0</ele><time>2026-04-01T12:12:18.217Z</time></trkpt><trkpt lat="42.7961633" lon="11.7452583"><ele>402.0</ele><time>2026-04-01T12:12:19.217Z</time></trkpt><trkpt lat="42.7960567" lon="11.745215"><ele>402.0</ele><time>2026-04-01T12:12:20.216Z</time></trkpt><trkpt lat="42.7959567" lon="11.7451483"><ele>402.0</ele><time>2026-04-01T12:12:21.216Z</time></trkpt><trkpt lat="42.7958517" lon="11.7450867"><ele>402.0</ele><time>2026-04-01T12:12:22.216Z</time></trkpt><trkpt lat="42.7957467" lon="11.7450217"><ele>405.75</ele><time>2026-04-01T12:12:23.216Z</time></trkpt><trkpt lat="42.7956367" lon="11.7449533"><ele>409.5</ele><time>2026-04-01T12:12:24.216Z</time></trkpt><trkpt lat="42.7955333" lon="11.744895"><ele>413.25</ele><time>2026-04-01T12:12:25.217Z</time></trkpt><trkpt lat="42.7954267" lon="11.74483"><ele>417.0</ele><time>2026-04-01T12:12:26.217Z</time></trkpt><trkpt lat="42.7953267" lon="11.74476"><ele>417.0</ele><time>2026-04-01T12:12:27.217Z</time></trkpt><trkpt lat="42.79523" lon="11.7446833"><ele>417.0</ele><time>2026-04-01T12:12:28.217Z</time></trkpt><trkpt lat="42.795155" lon="11.7445983"><ele>417.0</ele><time>2026-04-01T12:12:29.217Z</time></trkpt><trkpt lat="42.7950967" lon="11.7444917"><ele>417.0</ele><time>2026-04-01T12:12:30.217Z</time></trkpt><trkpt lat="42.7950533" lon="11.7443617"><ele>417.0</ele><time>2026-04-01T12:12:31.217Z</time></trkpt><trkpt lat="42.7950167" lon="11.7442017"><ele>418.0</ele><time>2026-04-01T12:12:32.217Z</time></trkpt><trkpt lat="42.79498" lon="11.7440333"><ele>419.0</ele><time>2026-04-01T12:12:33.217Z</time></trkpt><trkpt lat="42.794945" lon="11.7438767"><ele>420.0</ele><time>2026-04-01T12:12:34.217Z</time></trkpt><trkpt lat="42.7949133" lon="11.7437183"><ele>421.0</ele><time>2026-04-01T12:12:35.217Z</time></trkpt><trkpt lat="42.7948867" lon="11.7435567"><ele>422.75</ele><time>2026-04-01T12:12:36.216Z</time></trkpt><trkpt lat="42.7948783" lon="11.7433767"><ele>424.5</ele><time>2026-04-01T12:12:37.217Z</time></trkpt><trkpt lat="42.7948717" lon="11.7431733"><ele>426.25</ele><time>2026-04-01T12:12:38.217Z</time></trkpt><trkpt lat="42.794875" lon="11.7429633"><ele>428.0</ele><time>2026-04-01T12:12:39.217Z</time></trkpt><trkpt lat="42.7948767" lon="11.742735"><ele>429.0</ele><time>2026-04-01T12:12:40.216Z</time></trkpt><trkpt lat="42.7948783" lon="11.742515"><ele>430.0</ele><time>2026-04-01T12:12:41.216Z</time></trkpt><trkpt lat="42.7948817" lon="11.7423017"><ele>431.0</ele><time>2026-04-01T12:12:42.217Z</time></trkpt><trkpt lat="42.794895" lon="11.7421"><ele>431.0</ele><time>2026-04-01T12:12:43.217Z</time></trkpt><trkpt lat="42.7949233" lon="11.7419167"><ele>431.0</ele><time>2026-04-01T12:12:44.217Z</time></trkpt><trkpt lat="42.7949533" lon="11.7417433"><ele>431.0</ele><time>2026-04-01T12:12:45.217Z</time></trkpt><trkpt lat="42.7949667" lon="11.7415933"><ele>431.0</ele><time>2026-04-01T12:12:46.217Z</time></trkpt><trkpt lat="42.7949683" lon="11.7414467"><ele>431.20000000000005</ele><time>2026-04-01T12:12:47.216Z</time></trkpt><trkpt lat="42.7949433" lon="11.7413233"><ele>431.40000000000003</ele><time>2026-04-01T12:12:48.217Z</time></trkpt><trkpt lat="42.79489" lon="11.7412083"><ele>431.6</ele><time>2026-04-01T12:12:49.216Z</time></trkpt><trkpt lat="42.7948117" lon="11.74111"><ele>431.8</ele><time>2026-04-01T12:12:50.216Z</time></trkpt><trkpt lat="42.7947167" lon="11.741025"><ele>432.0</ele><time>2026-04-01T12:12:51.216Z</time></trkpt><trkpt lat="42.7946267" lon="11.7409467"><ele>432.0</ele><time>2026-04-01T12:12:52.216Z</time></trkpt><trkpt lat="42.794515" lon="11.7408583"><ele>432.0</ele><time>2026-04-01T12:12:53.216Z</time></trkpt><trkpt lat="42.7944017" lon="11.7407517"><ele>432.0</ele><time>2026-04-01T12:12:54.217Z</time></trkpt><trkpt lat="42.7942817" lon="11.7406317"><ele>432.0</ele><time>2026-04-01T12:12:55.216Z</time></trkpt><trkpt lat="42.7941517" lon="11.740535"><ele>432.5</ele><time>2026-04-01T12:12:56.217Z</time></trkpt><trkpt lat="42.79402" lon="11.7404233"><ele>433.0</ele><time>2026-04-01T12:12:57.216Z</time></trkpt><trkpt lat="42.7938967" lon="11.7403017"><ele>433.5</ele><time>2026-04-01T12:12:58.216Z</time></trkpt><trkpt lat="42.79378" lon="11.7401917"><ele>434.0</ele><time>2026-04-01T12:12:59.216Z</time></trkpt><trkpt lat="42.79368" lon="11.7400933"><ele>434.0</ele><time>2026-04-01T12:13:00.217Z</time></trkpt><trkpt lat="42.7935867" lon="11.7399883"><ele>434.0</ele><time>2026-04-01T12:13:01.217Z</time></trkpt><trkpt lat="42.79352" lon="11.7398817"><ele>434.0</ele><time>2026-04-01T12:13:02.217Z</time></trkpt><trkpt lat="42.79348" lon="11.73976"><ele>434.0</ele><time>2026-04-01T12:13:03.217Z</time></trkpt><trkpt lat="42.79347" lon="11.7396267"><ele>434.0</ele><time>2026-04-01T12:13:04.217Z</time></trkpt><trkpt lat="42.7934967" lon="11.7394883"><ele>435.79999999999995</ele><time>2026-04-01T12:13:05.217Z</time></trkpt><trkpt lat="42.79355" lon="11.7393833"><ele>437.59999999999997</ele><time>2026-04-01T12:13:06.217Z</time></trkpt><trkpt lat="42.793635" lon="11.7393067"><ele>439.4</ele><time>2026-04-01T12:13:07.217Z</time></trkpt><trkpt lat="42.7937417" lon="11.73925"><ele>441.2</ele><time>2026-04-01T12:13:08.217Z</time></trkpt><trkpt lat="42.7938567" lon="11.7392083"><ele>443.0</ele><time>2026-04-01T12:13:09.217Z</time></trkpt><trkpt lat="42.7939783" lon="11.7391667"><ele>443.0</ele><time>2026-04-01T12:13:10.217Z</time></trkpt><trkpt lat="42.7941" lon="11.7391233"><ele>443.0</ele><time>2026-04-01T12:13:11.217Z</time></trkpt><trkpt lat="42.7942233" lon="11.739075"><ele>443.0</ele><time>2026-04-01T12:13:12.217Z</time></trkpt><trkpt lat="42.7943483" lon="11.739015"><ele>443.0</ele><time>2026-04-01T12:13:13.217Z</time></trkpt><trkpt lat="42.79447" lon="11.73896"><ele>443.25</ele><time>2026-04-01T12:13:14.217Z</time></trkpt><trkpt lat="42.7945983" lon="11.7389067"><ele>443.5</ele><time>2026-04-01T12:13:15.217Z</time></trkpt><trkpt lat="42.7947317" lon="11.738845"><ele>443.75</ele><time>2026-04-01T12:13:16.216Z</time></trkpt><trkpt lat="42.7948567" lon="11.738785"><ele>444.0</ele><time>2026-04-01T12:13:17.217Z</time></trkpt><trkpt lat="42.7949617" lon="11.7387383"><ele>444.0</ele><time>2026-04-01T12:13:18.217Z</time></trkpt><trkpt lat="42.7950683" lon="11.7387017"><ele>444.0</ele><time>2026-04-01T12:13:19.217Z</time></trkpt><trkpt lat="42.7951683" lon="11.7386567"><ele>444.0</ele><time>2026-04-01T12:13:20.216Z</time></trkpt><trkpt lat="42.7952567" lon="11.7385883"><ele>444.0</ele><time>2026-04-01T12:13:21.216Z</time></trkpt><trkpt lat="42.795345" lon="11.738495"><ele>444.0</ele><time>2026-04-01T12:13:22.217Z</time></trkpt><trkpt lat="42.7954317" lon="11.7383933"><ele>443.4</ele><time>2026-04-01T12:13:23.217Z</time></trkpt><trkpt lat="42.79551" lon="11.738285"><ele>442.79999999999995</ele><time>2026-04-01T12:13:24.216Z</time></trkpt><trkpt lat="42.795575" lon="11.7381817"><ele>442.20000000000005</ele><time>2026-04-01T12:13:25.216Z</time></trkpt><trkpt lat="42.7956383" lon="11.7380917"><ele>441.6</ele><time>2026-04-01T12:13:26.217Z</time></trkpt><trkpt lat="42.7956917" lon="11.73801"><ele>441.0</ele><time>2026-04-01T12:13:27.216Z</time></trkpt><trkpt lat="42.7957467" lon="11.73793"><ele>441.0</ele><time>2026-04-01T12:13:28.216Z</time></trkpt><trkpt lat="42.7958067" lon="11.737845"><ele>441.0</ele><time>2026-04-01T12:13:29.217Z</time></trkpt><trkpt lat="42.79586" lon="11.7377833"><ele>441.0</ele><time>2026-04-01T12:13:30.216Z</time></trkpt><trkpt lat="42.7959133" lon="11.7376983"><ele>441.0</ele><time>2026-04-01T12:13:31.217Z</time></trkpt><trkpt lat="42.795955" lon="11.737585"><ele>441.0</ele><time>2026-04-01T12:13:32.217Z</time></trkpt><trkpt lat="42.79597" lon="11.737465"><ele>441.0</ele><time>2026-04-01T12:13:33.217Z</time></trkpt><trkpt lat="42.7959617" lon="11.737335"><ele>441.4</ele><time>2026-04-01T12:13:34.217Z</time></trkpt><trkpt lat="42.795945" lon="11.7372083"><ele>441.8</ele><time>2026-04-01T12:13:35.217Z</time></trkpt><trkpt lat="42.79593" lon="11.7370633"><ele>442.19999999999993</ele><time>2026-04-01T12:13:36.216Z</time></trkpt><trkpt lat="42.7958883" lon="11.7369433"><ele>442.59999999999997</ele><time>2026-04-01T12:13:37.217Z</time></trkpt><trkpt lat="42.7958367" lon="11.736825"><ele>443.0</ele><time>2026-04-01T12:13:38.217Z</time></trkpt><trkpt lat="42.79578" lon="11.7367033"><ele>442.0</ele><time>2026-04-01T12:13:39.217Z</time></trkpt><trkpt lat="42.79572" lon="11.73658"><ele>440.99999999999994</ele><time>2026-04-01T12:13:40.217Z</time></trkpt><trkpt lat="42.7956717" lon="11.73646"><ele>439.99999999999994</ele><time>2026-04-01T12:13:41.216Z</time></trkpt><trkpt lat="42.7956383" lon="11.7363217"><ele>439.0</ele><time>2026-04-01T12:13:42.217Z</time></trkpt><trkpt lat="42.7956267" lon="11.736175"><ele>438.0</ele><time>2026-04-01T12:13:43.217Z</time></trkpt><trkpt lat="42.7956417" lon="11.73601"><ele>437.0</ele><time>2026-04-01T12:13:44.217Z</time></trkpt><trkpt lat="42.7956733" lon="11.7358267"><ele>436.0</ele><time>2026-04-01T12:13:45.217Z</time></trkpt><trkpt lat="42.795705" lon="11.7356517"><ele>435.0</ele><time>2026-04-01T12:13:46.217Z</time></trkpt><trkpt lat="42.7957317" lon="11.7354667"><ele>434.0</ele><time>2026-04-01T12:13:47.216Z</time></trkpt><trkpt lat="42.7957583" lon="11.735315"><ele>434.4</ele><time>2026-04-01T12:13:48.217Z</time></trkpt><trkpt lat="42.7957967" lon="11.735175"><ele>434.79999999999995</ele><time>2026-04-01T12:13:49.216Z</time></trkpt><trkpt lat="42.7958517" lon="11.73505"><ele>435.20000000000005</ele><time>2026-04-01T12:13:50.217Z</time></trkpt><trkpt lat="42.7959317" lon="11.73496"><ele>435.6</ele><time>2026-04-01T12:13:51.217Z</time></trkpt><trkpt lat="42.7960217" lon="11.734885"><ele>436.0</ele><time>2026-04-01T12:13:52.217Z</time></trkpt><trkpt lat="42.7961217" lon="11.734815"><ele>434.20000000000005</ele><time>2026-04-01T12:13:53.216Z</time></trkpt><trkpt lat="42.7962167" lon="11.7347417"><ele>432.40000000000003</ele><time>2026-04-01T12:13:54.216Z</time></trkpt><trkpt lat="42.79631" lon="11.7346583"><ele>430.6</ele><time>2026-04-01T12:13:55.217Z</time></trkpt><trkpt lat="42.7963933" lon="11.7345733"><ele>428.8</ele><time>2026-04-01T12:13:56.217Z</time></trkpt><trkpt lat="42.796465" lon="11.7344833"><ele>427.0</ele><time>2026-04-01T12:13:57.218Z</time></trkpt><trkpt lat="42.7965283" lon="11.73438"><ele>427.0</ele><time>2026-04-01T12:13:58.218Z</time></trkpt><trkpt lat="42.796585" lon="11.7342567"><ele>427.00000000000006</ele><time>2026-04-01T12:13:59.218Z</time></trkpt><trkpt lat="42.796625" lon="11.7341233"><ele>427.00000000000006</ele><time>2026-04-01T12:14:00.217Z</time></trkpt><trkpt lat="42.7966517" lon="11.7339817"><ele>427.0</ele><time>2026-04-01T12:14:01.217Z</time></trkpt><trkpt lat="42.7966633" lon="11.73384"><ele>427.0</ele><time>2026-04-01T12:14:02.218Z</time></trkpt><trkpt lat="42.7966667" lon="11.7336917"><ele>427.0</ele><time>2026-04-01T12:14:03.218Z</time></trkpt><trkpt lat="42.7966467" lon="11.733565"><ele>427.00000000000006</ele><time>2026-04-01T12:14:04.218Z</time></trkpt><trkpt lat="42.796615" lon="11.7334383"><ele>427.00000000000006</ele><time>2026-04-01T12:14:05.217Z</time></trkpt><trkpt lat="42.79656" lon="11.7333267"><ele>427.0</ele><time>2026-04-01T12:14:06.218Z</time></trkpt><trkpt lat="42.7964933" lon="11.7332117"><ele>427.0</ele><time>2026-04-01T12:14:07.217Z</time></trkpt><trkpt lat="42.796415" lon="11.7331367"><ele>426.25</ele><time>2026-04-01T12:14:08.217Z</time></trkpt><trkpt lat="42.7963383" lon="11.7330283"><ele>425.5</ele><time>2026-04-01T12:14:09.218Z</time></trkpt><trkpt lat="42.79627" lon="11.7329"><ele>424.75</ele><time>2026-04-01T12:14:10.217Z</time></trkpt><trkpt lat="42.796225" lon="11.73275"><ele>424.0</ele><time>2026-04-01T12:14:11.218Z</time></trkpt><trkpt lat="42.7962133" lon="11.73258"><ele>421.5</ele><time>2026-04-01T12:14:12.217Z</time></trkpt><trkpt lat="42.7962083" lon="11.7323883"><ele>419.0</ele><time>2026-04-01T12:14:13.218Z</time></trkpt><trkpt lat="42.7962083" lon="11.7321967"><ele>416.5</ele><time>2026-04-01T12:14:14.217Z</time></trkpt><trkpt lat="42.7962033" lon="11.7319767"><ele>414.0</ele><time>2026-04-01T12:14:15.217Z</time></trkpt><trkpt lat="42.796205" lon="11.7317567"><ele>414.0</ele><time>2026-04-01T12:14:16.218Z</time></trkpt><trkpt lat="42.7962033" lon="11.731555"><ele>414.0</ele><time>2026-04-01T12:14:17.217Z</time></trkpt><trkpt lat="42.7962033" lon="11.7313567"><ele>414.0</ele><time>2026-04-01T12:14:18.218Z</time></trkpt><trkpt lat="42.7962083" lon="11.7311633"><ele>414.0</ele><time>2026-04-01T12:14:19.218Z</time></trkpt><trkpt lat="42.7961983" lon="11.7309567"><ele>414.0</ele><time>2026-04-01T12:14:20.217Z</time></trkpt><trkpt lat="42.7961833" lon="11.7307633"><ele>414.0</ele><time>2026-04-01T12:14:21.217Z</time></trkpt><trkpt lat="42.7961667" lon="11.730565"><ele>414.0</ele><time>2026-04-01T12:14:22.218Z</time></trkpt><trkpt lat="42.796135" lon="11.7303817"><ele>414.0</ele><time>2026-04-01T12:14:23.217Z</time></trkpt><trkpt lat="42.7961017" lon="11.7301867"><ele>414.0</ele><time>2026-04-01T12:14:24.218Z</time></trkpt><trkpt lat="42.796075" lon="11.7299867"><ele>414.0</ele><time>2026-04-01T12:14:25.217Z</time></trkpt><trkpt lat="42.7960433" lon="11.7297917"><ele>414.0</ele><time>2026-04-01T12:14:26.217Z</time></trkpt><trkpt lat="42.7960167" lon="11.72961"><ele>414.0</ele><time>2026-04-01T12:14:27.218Z</time></trkpt><trkpt lat="42.7959983" lon="11.7294383"><ele>415.5</ele><time>2026-04-01T12:14:28.218Z</time></trkpt><trkpt lat="42.7959983" lon="11.7292683"><ele>417.0</ele><time>2026-04-01T12:14:29.218Z</time></trkpt><trkpt lat="42.7960167" lon="11.7290917"><ele>418.5</ele><time>2026-04-01T12:14:30.218Z</time></trkpt><trkpt lat="42.7960533" lon="11.7289367"><ele>420.0</ele><time>2026-04-01T12:14:31.217Z</time></trkpt><trkpt lat="42.7961183" lon="11.72879"><ele>420.0</ele><time>2026-04-01T12:14:32.218Z</time></trkpt><trkpt lat="42.7962" lon="11.72866"><ele>420.0</ele><time>2026-04-01T12:14:33.217Z</time></trkpt><trkpt lat="42.7962833" lon="11.7285433"><ele>420.0</ele><time>2026-04-01T12:14:34.218Z</time></trkpt><trkpt lat="42.7963633" lon="11.72843"><ele>420.0</ele><time>2026-04-01T12:14:35.218Z</time></trkpt><trkpt lat="42.7964383" lon="11.7283167"><ele>422.25</ele><time>2026-04-01T12:14:36.218Z</time></trkpt><trkpt lat="42.796515" lon="11.7281917"><ele>424.5</ele><time>2026-04-01T12:14:37.218Z</time></trkpt><trkpt lat="42.7965867" lon="11.728065"><ele>426.75</ele><time>2026-04-01T12:14:38.218Z</time></trkpt><trkpt lat="42.7966517" lon="11.72793"><ele>429.0</ele><time>2026-04-01T12:14:39.218Z</time></trkpt><trkpt lat="42.79671" lon="11.7277783"><ele>429.25</ele><time>2026-04-01T12:14:40.217Z</time></trkpt><trkpt lat="42.79677" lon="11.7276267"><ele>429.5</ele><time>2026-04-01T12:14:41.218Z</time></trkpt><trkpt lat="42.796825" lon="11.7274733"><ele>429.75</ele><time>2026-04-01T12:14:42.217Z</time></trkpt><trkpt lat="42.796875" lon="11.7273283"><ele>430.0</ele><time>2026-04-01T12:14:43.217Z</time></trkpt><trkpt lat="42.79693" lon="11.7271783"><ele>430.0</ele><time>2026-04-01T12:14:44.218Z</time></trkpt><trkpt lat="42.7969867" lon="11.7270233"><ele>430.0</ele><time>2026-04-01T12:14:45.218Z</time></trkpt><trkpt lat="42.7970483" lon="11.726865"><ele>430.0</ele><time>2026-04-01T12:14:46.217Z</time></trkpt><trkpt lat="42.79712" lon="11.7267033"><ele>430.0</ele><time>2026-04-01T12:14:47.218Z</time></trkpt><trkpt lat="42.7971933" lon="11.7265417"><ele>433.0</ele><time>2026-04-01T12:14:48.217Z</time></trkpt><trkpt lat="42.7972567" lon="11.72637"><ele>436.0</ele><time>2026-04-01T12:14:49.218Z</time></trkpt><trkpt lat="42.7973117" lon="11.7261933"><ele>439.0</ele><time>2026-04-01T12:14:50.218Z</time></trkpt><trkpt lat="42.7973667" lon="11.7260217"><ele>442.0</ele><time>2026-04-01T12:14:51.218Z</time></trkpt><trkpt lat="42.797425" lon="11.7258433"><ele>444.75</ele><time>2026-04-01T12:14:52.217Z</time></trkpt><trkpt lat="42.7974817" lon="11.7256617"><ele>447.5</ele><time>2026-04-01T12:14:53.217Z</time></trkpt><trkpt lat="42.7975367" lon="11.7254733"><ele>450.25</ele><time>2026-04-01T12:14:54.218Z</time></trkpt><trkpt lat="42.7975917" lon="11.7252883"><ele>453.0</ele><time>2026-04-01T12:14:55.217Z</time></trkpt><trkpt lat="42.7976467" lon="11.7251"><ele>453.0</ele><time>2026-04-01T12:14:56.218Z</time></trkpt><trkpt lat="42.7977067" lon="11.7249183"><ele>453.0</ele><time>2026-04-01T12:14:57.218Z</time></trkpt><trkpt lat="42.7977617" lon="11.724745"><ele>453.0</ele><time>2026-04-01T12:14:58.217Z</time></trkpt><trkpt lat="42.797815" lon="11.724575"><ele>453.0</ele><time>2026-04-01T12:14:59.217Z</time></trkpt><trkpt lat="42.79787" lon="11.7243967"><ele>455.0</ele><time>2026-04-01T12:15:00.218Z</time></trkpt><trkpt lat="42.7979167" lon="11.7242267"><ele>456.99999999999994</ele><time>2026-04-01T12:15:01.218Z</time></trkpt><trkpt lat="42.7979717" lon="11.7240767"><ele>458.99999999999994</ele><time>2026-04-01T12:15:02.218Z</time></trkpt><trkpt lat="42.79802" lon="11.7239517"><ele>461.0</ele><time>2026-04-01T12:15:03.218Z</time></trkpt><trkpt lat="42.7980517" lon="11.7238433"><ele>463.0</ele><time>2026-04-01T12:15:04.218Z</time></trkpt><trkpt lat="42.7980667" lon="11.723735"><ele>463.00000000000006</ele><time>2026-04-01T12:15:05.217Z</time></trkpt><trkpt lat="42.798045" lon="11.7236333"><ele>463.0</ele><time>2026-04-01T12:15:06.218Z</time></trkpt><trkpt lat="42.7979833" lon="11.7235683"><ele>463.0</ele><time>2026-04-01T12:15:07.217Z</time></trkpt><trkpt lat="42.7979017" lon="11.7235283"><ele>463.0</ele><time>2026-04-01T12:15:08.218Z</time></trkpt><trkpt lat="42.7978133" lon="11.7235217"><ele>463.00000000000006</ele><time>2026-04-01T12:15:09.218Z</time></trkpt><trkpt lat="42.7977083" lon="11.723565"><ele>463.0</ele><time>2026-04-01T12:15:10.218Z</time></trkpt><trkpt lat="42.797605" lon="11.7236533"><ele>464.59999999999997</ele><time>2026-04-01T12:15:11.218Z</time></trkpt><trkpt lat="42.7975083" lon="11.723725"><ele>466.19999999999993</ele><time>2026-04-01T12:15:12.217Z</time></trkpt><trkpt lat="42.797415" lon="11.72375"><ele>467.8</ele><time>2026-04-01T12:15:13.217Z</time></trkpt><trkpt lat="42.7973233" lon="11.7237383"><ele>469.4</ele><time>2026-04-01T12:15:14.218Z</time></trkpt><trkpt lat="42.7972517" lon="11.723675"><ele>471.0</ele><time>2026-04-01T12:15:15.218Z</time></trkpt><trkpt lat="42.7972" lon="11.7235967"><ele>473.0</ele><time>2026-04-01T12:15:16.217Z</time></trkpt><trkpt lat="42.79718" lon="11.723505"><ele>475.0</ele><time>2026-04-01T12:15:17.218Z</time></trkpt><trkpt lat="42.797225" lon="11.7233383"><ele>477.0</ele><time>2026-04-01T12:15:19.218Z</time></trkpt><trkpt lat="42.79727" lon="11.7232683"><ele>479.0</ele><time>2026-04-01T12:15:20.218Z</time></trkpt><trkpt lat="42.7973183" lon="11.723205"><ele>481.0</ele><time>2026-04-01T12:15:21.218Z</time></trkpt><trkpt lat="42.7973667" lon="11.7231133"><ele>483.0</ele><time>2026-04-01T12:15:22.218Z</time></trkpt><trkpt lat="42.7974217" lon="11.7229983"><ele>483.0</ele><time>2026-04-01T12:15:23.217Z</time></trkpt><trkpt lat="42.797485" lon="11.722865"><ele>483.0</ele><time>2026-04-01T12:15:24.218Z</time></trkpt><trkpt lat="42.7975483" lon="11.72273"><ele>483.0</ele><time>2026-04-01T12:15:25.218Z</time></trkpt><trkpt lat="42.7976267" lon="11.7225833"><ele>483.0</ele><time>2026-04-01T12:15:26.218Z</time></trkpt><trkpt lat="42.79772" lon="11.7224317"><ele>482.5</ele><time>2026-04-01T12:15:27.218Z</time></trkpt><trkpt lat="42.79782" lon="11.722265"><ele>482.0</ele><time>2026-04-01T12:15:28.217Z</time></trkpt><trkpt lat="42.7979117" lon="11.7221067"><ele>481.5</ele><time>2026-04-01T12:15:29.217Z</time></trkpt><trkpt lat="42.7979967" lon="11.7219617"><ele>481.0</ele><time>2026-04-01T12:15:30.217Z</time></trkpt><trkpt lat="42.7980617" lon="11.7218333"><ele>484.0</ele><time>2026-04-01T12:15:31.218Z</time></trkpt><trkpt lat="42.7981333" lon="11.7216883"><ele>487.0</ele><time>2026-04-01T12:15:32.217Z</time></trkpt><trkpt lat="42.7982033" lon="11.7215583"><ele>490.0</ele><time>2026-04-01T12:15:33.217Z</time></trkpt><trkpt lat="42.7982783" lon="11.72143"><ele>493.0</ele><time>2026-04-01T12:15:34.218Z</time></trkpt><trkpt lat="42.79835" lon="11.721305"><ele>493.0</ele><time>2026-04-01T12:15:35.217Z</time></trkpt><trkpt lat="42.79842" lon="11.7211917"><ele>492.99999999999994</ele><time>2026-04-01T12:15:36.218Z</time></trkpt><trkpt lat="42.7984883" lon="11.7210867"><ele>492.99999999999994</ele><time>2026-04-01T12:15:37.217Z</time></trkpt><trkpt lat="42.79855" lon="11.7209833"><ele>493.0</ele><time>2026-04-01T12:15:38.218Z</time></trkpt><trkpt lat="42.7986017" lon="11.7208883"><ele>493.0</ele><time>2026-04-01T12:15:39.218Z</time></trkpt><trkpt lat="42.7986467" lon="11.7207833"><ele>493.50000000000006</ele><time>2026-04-01T12:15:40.217Z</time></trkpt><trkpt lat="42.798685" lon="11.720665"><ele>494.0</ele><time>2026-04-01T12:15:41.218Z</time></trkpt><trkpt lat="42.7987133" lon="11.7205483"><ele>494.5</ele><time>2026-04-01T12:15:42.218Z</time></trkpt><trkpt lat="42.7987317" lon="11.7204367"><ele>495.0</ele><time>2026-04-01T12:15:43.218Z</time></trkpt><trkpt lat="42.7987567" lon="11.7203217"><ele>495.50000000000006</ele><time>2026-04-01T12:15:44.218Z</time></trkpt><trkpt lat="42.798785" lon="11.7202067"><ele>496.0</ele><time>2026-04-01T12:15:45.218Z</time></trkpt><trkpt lat="42.7988117" lon="11.7201017"><ele>496.0</ele><time>2026-04-01T12:15:46.217Z</time></trkpt><trkpt lat="42.7988383" lon="11.719985"><ele>496.0</ele><time>2026-04-01T12:15:47.218Z</time></trkpt><trkpt lat="42.79886" lon="11.7198683"><ele>496.0</ele><time>2026-04-01T12:15:48.218Z</time></trkpt><trkpt lat="42.7988867" lon="11.71974"><ele>496.0</ele><time>2026-04-01T12:15:49.218Z</time></trkpt><trkpt lat="42.798925" lon="11.7196"><ele>496.0</ele><time>2026-04-01T12:15:50.218Z</time></trkpt><trkpt lat="42.7989533" lon="11.71946"><ele>498.0</ele><time>2026-04-01T12:15:51.218Z</time></trkpt><trkpt lat="42.79898" lon="11.7193133"><ele>500.0</ele><time>2026-04-01T12:15:52.217Z</time></trkpt><trkpt lat="42.7990017" lon="11.71916"><ele>502.0</ele><time>2026-04-01T12:15:53.218Z</time></trkpt><trkpt lat="42.7990233" lon="11.719"><ele>504.0</ele><time>2026-04-01T12:15:54.218Z</time></trkpt><trkpt lat="42.7990417" lon="11.7188433"><ele>504.0</ele><time>2026-04-01T12:15:55.218Z</time></trkpt><trkpt lat="42.799055" lon="11.7186667"><ele>504.0</ele><time>2026-04-01T12:15:56.217Z</time></trkpt><trkpt lat="42.799065" lon="11.718495"><ele>504.0</ele><time>2026-04-01T12:15:57.218Z</time></trkpt><trkpt lat="42.7990717" lon="11.7183367"><ele>504.0</ele><time>2026-04-01T12:15:58.218Z</time></trkpt><trkpt lat="42.7990783" lon="11.718195"><ele>505.25</ele><time>2026-04-01T12:15:59.217Z</time></trkpt><trkpt lat="42.79909" lon="11.718055"><ele>506.5</ele><time>2026-04-01T12:16:00.217Z</time></trkpt><trkpt lat="42.79911" lon="11.7179033"><ele>507.75</ele><time>2026-04-01T12:16:01.217Z</time></trkpt><trkpt lat="42.7991467" lon="11.71775"><ele>509.0</ele><time>2026-04-01T12:16:02.217Z</time></trkpt><trkpt lat="42.7991983" lon="11.7175983"><ele>510.75</ele><time>2026-04-01T12:16:03.218Z</time></trkpt><trkpt lat="42.7992617" lon="11.7174617"><ele>512.5</ele><time>2026-04-01T12:16:04.217Z</time></trkpt><trkpt lat="42.79933" lon="11.7173133"><ele>514.25</ele><time>2026-04-01T12:16:05.218Z</time></trkpt><trkpt lat="42.7994033" lon="11.7171767"><ele>516.0</ele><time>2026-04-01T12:16:06.218Z</time></trkpt><trkpt lat="42.799475" lon="11.7170417"><ele>512.75</ele><time>2026-04-01T12:16:07.218Z</time></trkpt><trkpt lat="42.799545" lon="11.716905"><ele>509.5</ele><time>2026-04-01T12:16:08.217Z</time></trkpt><trkpt lat="42.79961" lon="11.7167733"><ele>506.25</ele><time>2026-04-01T12:16:09.218Z</time></trkpt><trkpt lat="42.799675" lon="11.716645"><ele>503.0</ele><time>2026-04-01T12:16:10.217Z</time></trkpt><trkpt lat="42.7997417" lon="11.7164967"><ele>503.0</ele><time>2026-04-01T12:16:11.217Z</time></trkpt><trkpt lat="42.7998183" lon="11.7163433"><ele>503.0</ele><time>2026-04-01T12:16:12.218Z</time></trkpt><trkpt lat="42.799895" lon="11.71618"><ele>503.0</ele><time>2026-04-01T12:16:13.217Z</time></trkpt><trkpt lat="42.799975" lon="11.71604"><ele>503.0</ele><time>2026-04-01T12:16:14.218Z</time></trkpt><trkpt lat="42.8000533" lon="11.715905"><ele>505.0</ele><time>2026-04-01T12:16:15.217Z</time></trkpt><trkpt lat="42.8001267" lon="11.715755"><ele>507.0</ele><time>2026-04-01T12:16:16.218Z</time></trkpt><trkpt lat="42.80019" lon="11.7156067"><ele>509.0</ele><time>2026-04-01T12:16:17.218Z</time></trkpt><trkpt lat="42.80026" lon="11.7154533"><ele>511.0</ele><time>2026-04-01T12:16:18.217Z</time></trkpt><trkpt lat="42.8003367" lon="11.7153117"><ele>508.8</ele><time>2026-04-01T12:16:19.218Z</time></trkpt><trkpt lat="42.8004067" lon="11.7151867"><ele>506.6</ele><time>2026-04-01T12:16:20.218Z</time></trkpt><trkpt lat="42.8004667" lon="11.715065"><ele>504.4</ele><time>2026-04-01T12:16:21.218Z</time></trkpt><trkpt lat="42.80051" lon="11.7149367"><ele>502.2</ele><time>2026-04-01T12:16:22.218Z</time></trkpt><trkpt lat="42.8005367" lon="11.714805"><ele>500.0</ele><time>2026-04-01T12:16:23.218Z</time></trkpt><trkpt lat="42.80053" lon="11.7146617"><ele>500.0</ele><time>2026-04-01T12:16:24.218Z</time></trkpt><trkpt lat="42.800505" lon="11.7145383"><ele>500.0</ele><time>2026-04-01T12:16:25.218Z</time></trkpt><trkpt lat="42.8004633" lon="11.7144033"><ele>500.0</ele><time>2026-04-01T12:16:26.217Z</time></trkpt><trkpt lat="42.80041" lon="11.7142417"><ele>500.0</ele><time>2026-04-01T12:16:27.217Z</time></trkpt><trkpt lat="42.8003583" lon="11.71408"><ele>500.5</ele><time>2026-04-01T12:16:28.218Z</time></trkpt><trkpt lat="42.8003067" lon="11.7139083"><ele>501.0</ele><time>2026-04-01T12:16:29.218Z</time></trkpt><trkpt lat="42.8002517" lon="11.7137417"><ele>501.5</ele><time>2026-04-01T12:16:30.217Z</time></trkpt><trkpt lat="42.8002083" lon="11.7135783"><ele>502.0</ele><time>2026-04-01T12:16:31.217Z</time></trkpt><trkpt lat="42.8001583" lon="11.7134367"><ele>503.40000000000003</ele><time>2026-04-01T12:16:32.217Z</time></trkpt><trkpt lat="42.8001117" lon="11.71331"><ele>504.80000000000007</ele><time>2026-04-01T12:16:33.217Z</time></trkpt><trkpt lat="42.8000717" lon="11.7131733"><ele>506.2</ele><time>2026-04-01T12:16:34.218Z</time></trkpt><trkpt lat="42.8000467" lon="11.7130283"><ele>507.6</ele><time>2026-04-01T12:16:35.217Z</time></trkpt><trkpt lat="42.8000417" lon="11.7128767"><ele>509.0</ele><time>2026-04-01T12:16:36.218Z</time></trkpt><trkpt lat="42.8000667" lon="11.712715"><ele>509.0</ele><time>2026-04-01T12:16:37.217Z</time></trkpt><trkpt lat="42.8001117" lon="11.71256"><ele>509.0</ele><time>2026-04-01T12:16:38.218Z</time></trkpt><trkpt lat="42.8001617" lon="11.7124033"><ele>509.0</ele><time>2026-04-01T12:16:39.218Z</time></trkpt><trkpt lat="42.80022" lon="11.712235"><ele>509.0</ele><time>2026-04-01T12:16:40.218Z</time></trkpt><trkpt lat="42.8002883" lon="11.7120717"><ele>510.0</ele><time>2026-04-01T12:16:41.218Z</time></trkpt><trkpt lat="42.8003517" lon="11.7119083"><ele>511.0</ele><time>2026-04-01T12:16:42.217Z</time></trkpt><trkpt lat="42.80042" lon="11.7117233"><ele>512.0</ele><time>2026-04-01T12:16:43.218Z</time></trkpt><trkpt lat="42.800495" lon="11.7115283"><ele>513.0</ele><time>2026-04-01T12:16:44.217Z</time></trkpt><trkpt lat="42.80057" lon="11.711325"><ele>513.0</ele><time>2026-04-01T12:16:45.217Z</time></trkpt><trkpt lat="42.8006467" lon="11.711115"><ele>513.0</ele><time>2026-04-01T12:16:46.218Z</time></trkpt><trkpt lat="42.800715" lon="11.71091"><ele>513.0</ele><time>2026-04-01T12:16:47.218Z</time></trkpt><trkpt lat="42.800785" lon="11.710715"><ele>516.0</ele><time>2026-04-01T12:16:48.217Z</time></trkpt><trkpt lat="42.8008617" lon="11.7105367"><ele>519.0</ele><time>2026-04-01T12:16:49.217Z</time></trkpt><trkpt lat="42.8009517" lon="11.7103667"><ele>522.0</ele><time>2026-04-01T12:16:50.218Z</time></trkpt><trkpt lat="42.801055" lon="11.7102033"><ele>523.0</ele><time>2026-04-01T12:16:51.218Z</time></trkpt><trkpt lat="42.801165" lon="11.7100533"><ele>524.0</ele><time>2026-04-01T12:16:52.217Z</time></trkpt><trkpt lat="42.8012717" lon="11.7099233"><ele>525.0</ele><time>2026-04-01T12:16:53.218Z</time></trkpt><trkpt lat="42.8013683" lon="11.7098183"><ele>526.0</ele><time>2026-04-01T12:16:54.217Z</time></trkpt><trkpt lat="42.8014567" lon="11.7097117"><ele>526.0</ele><time>2026-04-01T12:16:55.218Z</time></trkpt><trkpt lat="42.80154" lon="11.7095933"><ele>526.0</ele><time>2026-04-01T12:16:56.217Z</time></trkpt><trkpt lat="42.8015983" lon="11.7094667"><ele>526.0</ele><time>2026-04-01T12:16:57.218Z</time></trkpt><trkpt lat="42.8016367" lon="11.7093283"><ele>526.0</ele><time>2026-04-01T12:16:58.218Z</time></trkpt><trkpt lat="42.8016533" lon="11.7091767"><ele>527.5</ele><time>2026-04-01T12:16:59.218Z</time></trkpt><trkpt lat="42.8016467" lon="11.70902"><ele>529.0</ele><time>2026-04-01T12:17:00.217Z</time></trkpt><trkpt lat="42.801635" lon="11.7088533"><ele>530.5</ele><time>2026-04-01T12:17:01.217Z</time></trkpt><trkpt lat="42.80162" lon="11.7086917"><ele>532.0</ele><time>2026-04-01T12:17:02.217Z</time></trkpt><trkpt lat="42.80162" lon="11.708535"><ele>532.75</ele><time>2026-04-01T12:17:03.218Z</time></trkpt><trkpt lat="42.8016367" lon="11.70838"><ele>533.5</ele><time>2026-04-01T12:17:04.217Z</time></trkpt><trkpt lat="42.8016683" lon="11.7082317"><ele>534.25</ele><time>2026-04-01T12:17:05.218Z</time></trkpt><trkpt lat="42.801705" lon="11.70808"><ele>535.0</ele><time>2026-04-01T12:17:06.218Z</time></trkpt><trkpt lat="42.801755" lon="11.7079217"><ele>535.0</ele><time>2026-04-01T12:17:07.217Z</time></trkpt><trkpt lat="42.8018183" lon="11.7077783"><ele>535.0</ele><time>2026-04-01T12:17:08.218Z</time></trkpt><trkpt lat="42.8018783" lon="11.7076267"><ele>535.0</ele><time>2026-04-01T12:17:09.217Z</time></trkpt><trkpt lat="42.8019317" lon="11.7074833"><ele>535.0</ele><time>2026-04-01T12:17:10.218Z</time></trkpt><trkpt lat="42.8019983" lon="11.7073367"><ele>536.75</ele><time>2026-04-01T12:17:11.218Z</time></trkpt><trkpt lat="42.8020683" lon="11.7071933"><ele>538.5</ele><time>2026-04-01T12:17:12.218Z</time></trkpt><trkpt lat="42.8021533" lon="11.7070517"><ele>540.25</ele><time>2026-04-01T12:17:13.218Z</time></trkpt><trkpt lat="42.8022367" lon="11.7069117"><ele>542.0</ele><time>2026-04-01T12:17:14.218Z</time></trkpt><trkpt lat="42.8023183" lon="11.7067933"><ele>544.25</ele><time>2026-04-01T12:17:15.218Z</time></trkpt><trkpt lat="42.8024067" lon="11.7066817"><ele>546.5</ele><time>2026-04-01T12:17:16.218Z</time></trkpt><trkpt lat="42.8024983" lon="11.7066067"><ele>548.75</ele><time>2026-04-01T12:17:17.217Z</time></trkpt><trkpt lat="42.8026017" lon="11.70656"><ele>551.0</ele><time>2026-04-01T12:17:18.218Z</time></trkpt><trkpt lat="42.8027167" lon="11.7065517"><ele>551.75</ele><time>2026-04-01T12:17:19.217Z</time></trkpt><trkpt lat="42.80285" lon="11.7065633"><ele>552.5</ele><time>2026-04-01T12:17:20.217Z</time></trkpt><trkpt lat="42.8029883" lon="11.7065767"><ele>553.25</ele><time>2026-04-01T12:17:21.217Z</time></trkpt><trkpt lat="42.8031183" lon="11.706575"><ele>554.0</ele><time>2026-04-01T12:17:22.218Z</time></trkpt><trkpt lat="42.8032467" lon="11.706545"><ele>554.0</ele><time>2026-04-01T12:17:23.218Z</time></trkpt><trkpt lat="42.8033717" lon="11.7065083"><ele>554.0</ele><time>2026-04-01T12:17:24.218Z</time></trkpt><trkpt lat="42.80349" lon="11.7064633"><ele>554.0</ele><time>2026-04-01T12:17:25.218Z</time></trkpt><trkpt lat="42.80361" lon="11.7064233"><ele>554.0</ele><time>2026-04-01T12:17:26.217Z</time></trkpt><trkpt lat="42.8037167" lon="11.70639"><ele>555.4</ele><time>2026-04-01T12:17:27.217Z</time></trkpt><trkpt lat="42.80382" lon="11.7063617"><ele>556.8</ele><time>2026-04-01T12:17:28.218Z</time></trkpt><trkpt lat="42.8039183" lon="11.70634"><ele>558.2</ele><time>2026-04-01T12:17:29.217Z</time></trkpt><trkpt lat="42.80401" lon="11.70632"><ele>559.6</ele><time>2026-04-01T12:17:30.218Z</time></trkpt><trkpt lat="42.8040867" lon="11.706295"><ele>561.0</ele><time>2026-04-01T12:17:31.218Z</time></trkpt><trkpt lat="42.8041883" lon="11.7062417"><ele>561.0</ele><time>2026-04-01T12:17:33.218Z</time></trkpt><trkpt lat="42.804275" lon="11.70622"><ele>561.0</ele><time>2026-04-01T12:17:35.218Z</time></trkpt><trkpt lat="42.8043417" lon="11.706205"><ele>561.0</ele><time>2026-04-01T12:17:37.218Z</time></trkpt><trkpt lat="42.8044183" lon="11.706155"><ele>561.0</ele><time>2026-04-01T12:18:03.218Z</time></trkpt><trkpt lat="42.8045017" lon="11.7060883"><ele>561.0</ele><time>2026-04-01T12:18:07.217Z</time></trkpt><trkpt lat="42.80462" lon="11.706"><ele>562.4</ele><time>2026-04-01T12:18:09.217Z</time></trkpt><trkpt lat="42.8046867" lon="11.7059283"><ele>563.8</ele><time>2026-04-01T12:18:10.218Z</time></trkpt><trkpt lat="42.8047517" lon="11.70584"><ele>565.1999999999999</ele><time>2026-04-01T12:18:11.218Z</time></trkpt><trkpt lat="42.8048183" lon="11.7057417"><ele>566.6</ele><time>2026-04-01T12:18:12.217Z</time></trkpt><trkpt lat="42.8048817" lon="11.7056283"><ele>568.0</ele><time>2026-04-01T12:18:13.218Z</time></trkpt><trkpt lat="42.8049267" lon="11.7055083"><ele>568.0</ele><time>2026-04-01T12:18:14.218Z</time></trkpt><trkpt lat="42.8049483" lon="11.7053783"><ele>568.0</ele><time>2026-04-01T12:18:15.218Z</time></trkpt><trkpt lat="42.8049383" lon="11.7052283"><ele>568.0</ele><time>2026-04-01T12:18:16.218Z</time></trkpt><trkpt lat="42.80491" lon="11.7050833"><ele>568.0</ele><time>2026-04-01T12:18:17.217Z</time></trkpt><trkpt lat="42.8048817" lon="11.70494"><ele>568.0</ele><time>2026-04-01T12:18:18.217Z</time></trkpt><trkpt lat="42.8048383" lon="11.704805"><ele>568.0</ele><time>2026-04-01T12:18:19.218Z</time></trkpt><trkpt lat="42.804775" lon="11.7046717"><ele>568.0</ele><time>2026-04-01T12:18:20.217Z</time></trkpt><trkpt lat="42.8047033" lon="11.704535"><ele>568.0</ele><time>2026-04-01T12:18:21.218Z</time></trkpt><trkpt lat="42.804615" lon="11.7043767"><ele>568.0</ele><time>2026-04-01T12:18:22.218Z</time></trkpt><trkpt lat="42.8045083" lon="11.7041867"><ele>568.0</ele><time>2026-04-01T12:18:23.217Z</time></trkpt><trkpt lat="42.804395" lon="11.7039717"><ele>568.0</ele><time>2026-04-01T12:18:24.217Z</time></trkpt><trkpt lat="42.8042917" lon="11.7037833"><ele>568.0</ele><time>2026-04-01T12:18:25.217Z</time></trkpt><trkpt lat="42.804205" lon="11.7036183"><ele>571.5</ele><time>2026-04-01T12:18:26.218Z</time></trkpt><trkpt lat="42.8041317" lon="11.7034633"><ele>575.0</ele><time>2026-04-01T12:18:27.218Z</time></trkpt><trkpt lat="42.804075" lon="11.7033183"><ele>578.5</ele><time>2026-04-01T12:18:28.217Z</time></trkpt><trkpt lat="42.8040133" lon="11.70316"><ele>582.0</ele><time>2026-04-01T12:18:29.218Z</time></trkpt><trkpt lat="42.80395" lon="11.7029967"><ele>582.0</ele><time>2026-04-01T12:18:30.218Z</time></trkpt><trkpt lat="42.8039083" lon="11.7028517"><ele>582.0</ele><time>2026-04-01T12:18:31.218Z</time></trkpt><trkpt lat="42.8038667" lon="11.702705"><ele>582.0</ele><time>2026-04-01T12:18:32.217Z</time></trkpt><trkpt lat="42.8038283" lon="11.7025683"><ele>582.0</ele><time>2026-04-01T12:18:33.218Z</time></trkpt><trkpt lat="42.80379" lon="11.7024533"><ele>582.0</ele><time>2026-04-01T12:18:34.218Z</time></trkpt><trkpt lat="42.8037617" lon="11.7023267"><ele>581.6666666666666</ele><time>2026-04-01T12:18:35.218Z</time></trkpt><trkpt lat="42.80373" lon="11.702205"><ele>581.3333333333334</ele><time>2026-04-01T12:18:36.218Z</time></trkpt><trkpt lat="42.80371" lon="11.7020867"><ele>581.0</ele><time>2026-04-01T12:18:37.218Z</time></trkpt><trkpt lat="42.8036883" lon="11.701985"><ele>580.6666666666667</ele><time>2026-04-01T12:18:38.217Z</time></trkpt><trkpt lat="42.8036667" lon="11.70189"><ele>580.3333333333334</ele><time>2026-04-01T12:18:39.217Z</time></trkpt><trkpt lat="42.803645" lon="11.7017883"><ele>580.0</ele><time>2026-04-01T12:18:40.218Z</time></trkpt><trkpt lat="42.8036367" lon="11.701685"><ele>579.6666666666667</ele><time>2026-04-01T12:18:41.217Z</time></trkpt><trkpt lat="42.8036333" lon="11.70158"><ele>579.3333333333334</ele><time>2026-04-01T12:18:42.217Z</time></trkpt><trkpt lat="42.80363" lon="11.70147"><ele>579.0</ele><time>2026-04-01T12:18:43.217Z</time></trkpt><trkpt lat="42.8036283" lon="11.7013583"><ele>578.6666666666666</ele><time>2026-04-01T12:18:44.218Z</time></trkpt><trkpt lat="42.8036283" lon="11.7012333"><ele>578.3333333333333</ele><time>2026-04-01T12:18:45.218Z</time></trkpt><trkpt lat="42.8036367" lon="11.701095"><ele>578.0</ele><time>2026-04-01T12:18:46.218Z</time></trkpt><trkpt lat="42.803645" lon="11.7009533"><ele>577.6</ele><time>2026-04-01T12:18:47.218Z</time></trkpt><trkpt lat="42.8036567" lon="11.7008067"><ele>577.1999999999999</ele><time>2026-04-01T12:18:48.218Z</time></trkpt><trkpt lat="42.803665" lon="11.7006483"><ele>576.8</ele><time>2026-04-01T12:18:49.218Z</time></trkpt><trkpt lat="42.8036667" lon="11.700495"><ele>576.4</ele><time>2026-04-01T12:18:50.218Z</time></trkpt><trkpt lat="42.8036667" lon="11.700345"><ele>576.0</ele><time>2026-04-01T12:18:51.218Z</time></trkpt><trkpt lat="42.8036617" lon="11.700205"><ele>575.5</ele><time>2026-04-01T12:18:52.218Z</time></trkpt><trkpt lat="42.803655" lon="11.7000667"><ele>575.0</ele><time>2026-04-01T12:18:53.218Z</time></trkpt><trkpt lat="42.8036517" lon="11.69991"><ele>574.5</ele><time>2026-04-01T12:18:54.218Z</time></trkpt><trkpt lat="42.8036517" lon="11.69974"><ele>574.0</ele><time>2026-04-01T12:18:55.217Z</time></trkpt><trkpt lat="42.8036683" lon="11.6995567"><ele>576.3333333333334</ele><time>2026-04-01T12:18:56.217Z</time></trkpt><trkpt lat="42.803675" lon="11.6993267"><ele>578.6666666666666</ele><time>2026-04-01T12:18:57.218Z</time></trkpt><trkpt lat="42.8036983" lon="11.69911"><ele>581.0</ele><time>2026-04-01T12:18:58.217Z</time></trkpt><trkpt lat="42.803725" lon="11.69889"><ele>581.0</ele><time>2026-04-01T12:18:59.217Z</time></trkpt><trkpt lat="42.80375" lon="11.6986767"><ele>581.0</ele><time>2026-04-01T12:19:00.218Z</time></trkpt><trkpt lat="42.8037667" lon="11.6984667"><ele>581.0</ele><time>2026-04-01T12:19:01.217Z</time></trkpt><trkpt lat="42.8037683" lon="11.6982683"><ele>583.0</ele><time>2026-04-01T12:19:02.218Z</time></trkpt><trkpt lat="42.8037683" lon="11.6980817"><ele>585.0</ele><time>2026-04-01T12:19:03.218Z</time></trkpt><trkpt lat="42.803775" lon="11.6978917"><ele>587.0</ele><time>2026-04-01T12:19:04.218Z</time></trkpt><trkpt lat="42.8037867" lon="11.6977017"><ele>589.0</ele><time>2026-04-01T12:19:05.218Z</time></trkpt><trkpt lat="42.8037883" lon="11.697505"><ele>591.25</ele><time>2026-04-01T12:19:06.218Z</time></trkpt><trkpt lat="42.8037883" lon="11.697305"><ele>593.5</ele><time>2026-04-01T12:19:07.217Z</time></trkpt><trkpt lat="42.8037833" lon="11.6971033"><ele>595.75</ele><time>2026-04-01T12:19:08.217Z</time></trkpt><trkpt lat="42.80378" lon="11.6968933"><ele>598.0</ele><time>2026-04-01T12:19:09.218Z</time></trkpt><trkpt lat="42.8037733" lon="11.696685"><ele>598.0</ele><time>2026-04-01T12:19:10.218Z</time></trkpt><trkpt lat="42.8037717" lon="11.6964833"><ele>598.0</ele><time>2026-04-01T12:19:11.218Z</time></trkpt><trkpt lat="42.80377" lon="11.6962933"><ele>598.0</ele><time>2026-04-01T12:19:12.218Z</time></trkpt><trkpt lat="42.803765" lon="11.6961133"><ele>598.0</ele><time>2026-04-01T12:19:13.217Z</time></trkpt><trkpt lat="42.80377" lon="11.695935"><ele>599.25</ele><time>2026-04-01T12:19:14.217Z</time></trkpt><trkpt lat="42.80379" lon="11.6957567"><ele>600.5</ele><time>2026-04-01T12:19:15.218Z</time></trkpt><trkpt lat="42.8038383" lon="11.6955983"><ele>601.75</ele><time>2026-04-01T12:19:16.217Z</time></trkpt><trkpt lat="42.8039133" lon="11.6954617"><ele>603.0</ele><time>2026-04-01T12:19:17.217Z</time></trkpt><trkpt lat="42.804025" lon="11.6953383"><ele>605.25</ele><time>2026-04-01T12:19:18.218Z</time></trkpt><trkpt lat="42.80413" lon="11.6952317"><ele>607.5</ele><time>2026-04-01T12:19:19.218Z</time></trkpt><trkpt lat="42.8042383" lon="11.69512"><ele>609.75</ele><time>2026-04-01T12:19:20.218Z</time></trkpt><trkpt lat="42.8043483" lon="11.6950083"><ele>612.0</ele><time>2026-04-01T12:19:21.218Z</time></trkpt><trkpt lat="42.8044617" lon="11.694895"><ele>612.0</ele><time>2026-04-01T12:19:22.218Z</time></trkpt><trkpt lat="42.804575" lon="11.6947833"><ele>612.0</ele><time>2026-04-01T12:19:23.218Z</time></trkpt><trkpt lat="42.80468" lon="11.69467"><ele>612.0</ele><time>2026-04-01T12:19:24.218Z</time></trkpt><trkpt lat="42.804785" lon="11.6945617"><ele>612.0</ele><time>2026-04-01T12:19:25.218Z</time></trkpt><trkpt lat="42.8048783" lon="11.69446"><ele>612.6</ele><time>2026-04-01T12:19:26.218Z</time></trkpt><trkpt lat="42.80496" lon="11.6943683"><ele>613.2</ele><time>2026-04-01T12:19:27.217Z</time></trkpt><trkpt lat="42.8050367" lon="11.69427"><ele>613.8</ele><time>2026-04-01T12:19:28.217Z</time></trkpt><trkpt lat="42.8050967" lon="11.6941517"><ele>614.4</ele><time>2026-04-01T12:19:29.218Z</time></trkpt><trkpt lat="42.8051283" lon="11.6940367"><ele>615.0</ele><time>2026-04-01T12:19:30.217Z</time></trkpt><trkpt lat="42.8051883" lon="11.6939117"><ele>615.0</ele><time>2026-04-01T12:19:31.218Z</time></trkpt><trkpt lat="42.80525" lon="11.6937967"><ele>615.0</ele><time>2026-04-01T12:19:32.218Z</time></trkpt><trkpt lat="42.8053017" lon="11.6936583"><ele>615.0</ele><time>2026-04-01T12:19:33.218Z</time></trkpt><trkpt lat="42.805345" lon="11.6935167"><ele>615.0</ele><time>2026-04-01T12:19:34.218Z</time></trkpt><trkpt lat="42.8053867" lon="11.6933617"><ele>617.5</ele><time>2026-04-01T12:19:35.218Z</time></trkpt><trkpt lat="42.8054217" lon="11.69321"><ele>620.0</ele><time>2026-04-01T12:19:36.218Z</time></trkpt><trkpt lat="42.80546" lon="11.6930583"><ele>622.5</ele><time>2026-04-01T12:19:37.217Z</time></trkpt><trkpt lat="42.805495" lon="11.692905"><ele>625.0</ele><time>2026-04-01T12:19:38.218Z</time></trkpt><trkpt lat="42.805525" lon="11.6927433"><ele>626.4</ele><time>2026-04-01T12:19:39.218Z</time></trkpt><trkpt lat="42.8055367" lon="11.6925817"><ele>627.8</ele><time>2026-04-01T12:19:40.218Z</time></trkpt><trkpt lat="42.8055333" lon="11.6924383"><ele>629.2</ele><time>2026-04-01T12:19:41.218Z</time></trkpt><trkpt lat="42.8055083" lon="11.6922967"><ele>630.6</ele><time>2026-04-01T12:19:42.218Z</time></trkpt><trkpt lat="42.8054533" lon="11.6921683"><ele>632.0</ele><time>2026-04-01T12:19:43.218Z</time></trkpt><trkpt lat="42.805375" lon="11.6920417"><ele>632.0</ele><time>2026-04-01T12:19:44.217Z</time></trkpt><trkpt lat="42.80527" lon="11.6919333"><ele>632.0</ele><time>2026-04-01T12:19:45.217Z</time></trkpt><trkpt lat="42.8051567" lon="11.691825"><ele>632.0</ele><time>2026-04-01T12:19:46.218Z</time></trkpt><trkpt lat="42.805045" lon="11.6917267"><ele>632.0</ele><time>2026-04-01T12:19:47.218Z</time></trkpt><trkpt lat="42.8049383" lon="11.6916167"><ele>637.5</ele><time>2026-04-01T12:19:48.218Z</time></trkpt><trkpt lat="42.8048317" lon="11.6915"><ele>643.0</ele><time>2026-04-01T12:19:49.217Z</time></trkpt><trkpt lat="42.804715" lon="11.6913733"><ele>648.5</ele><time>2026-04-01T12:19:50.217Z</time></trkpt><trkpt lat="42.8046117" lon="11.6912367"><ele>654.0</ele><time>2026-04-01T12:19:51.218Z</time></trkpt><trkpt lat="42.8045117" lon="11.6910733"><ele>654.0</ele><time>2026-04-01T12:19:52.218Z</time></trkpt><trkpt lat="42.8044233" lon="11.690885"><ele>654.0</ele><time>2026-04-01T12:19:53.217Z</time></trkpt><trkpt lat="42.8043333" lon="11.6906767"><ele>654.0</ele><time>2026-04-01T12:19:54.217Z</time></trkpt><trkpt lat="42.8042433" lon="11.6904817"><ele>657.6666666666666</ele><time>2026-04-01T12:19:55.217Z</time></trkpt><trkpt lat="42.804155" lon="11.690275"><ele>661.3333333333333</ele><time>2026-04-01T12:19:56.217Z</time></trkpt><trkpt lat="42.8040633" lon="11.6900683"><ele>665.0</ele><time>2026-04-01T12:19:57.218Z</time></trkpt><trkpt lat="42.8039683" lon="11.68986"><ele>665.0</ele><time>2026-04-01T12:19:58.217Z</time></trkpt><trkpt lat="42.8038733" lon="11.6896433"><ele>665.0</ele><time>2026-04-01T12:19:59.218Z</time></trkpt><trkpt lat="42.8037733" lon="11.6894283"><ele>665.0</ele><time>2026-04-01T12:20:00.218Z</time></trkpt><trkpt lat="42.8036733" lon="11.689225"><ele>667.0</ele><time>2026-04-01T12:20:01.218Z</time></trkpt><trkpt lat="42.803575" lon="11.6890383"><ele>669.0</ele><time>2026-04-01T12:20:02.218Z</time></trkpt><trkpt lat="42.8035" lon="11.68887"><ele>671.0</ele><time>2026-04-01T12:20:03.217Z</time></trkpt><trkpt lat="42.8034317" lon="11.6887233"><ele>673.0</ele><time>2026-04-01T12:20:04.218Z</time></trkpt><trkpt lat="42.803375" lon="11.6885833"><ele>675.8</ele><time>2026-04-01T12:20:05.218Z</time></trkpt><trkpt lat="42.8033333" lon="11.6884517"><ele>678.5999999999999</ele><time>2026-04-01T12:20:06.218Z</time></trkpt><trkpt lat="42.8032967" lon="11.6883167"><ele>681.4000000000001</ele><time>2026-04-01T12:20:07.218Z</time></trkpt><trkpt lat="42.803275" lon="11.688175"><ele>684.2</ele><time>2026-04-01T12:20:08.218Z</time></trkpt><trkpt lat="42.8032667" lon="11.6880267"><ele>687.0</ele><time>2026-04-01T12:20:09.218Z</time></trkpt><trkpt lat="42.803265" lon="11.687875"><ele>687.5</ele><time>2026-04-01T12:20:10.218Z</time></trkpt><trkpt lat="42.8032633" lon="11.68771"><ele>688.0</ele><time>2026-04-01T12:20:11.217Z</time></trkpt><trkpt lat="42.8032567" lon="11.6875233"><ele>688.5</ele><time>2026-04-01T12:20:12.217Z</time></trkpt><trkpt lat="42.8032333" lon="11.6873383"><ele>689.0</ele><time>2026-04-01T12:20:13.217Z</time></trkpt><trkpt lat="42.80321" lon="11.6871417"><ele>689.0</ele><time>2026-04-01T12:20:14.217Z</time></trkpt><trkpt lat="42.8031967" lon="11.6869383"><ele>689.0</ele><time>2026-04-01T12:20:15.217Z</time></trkpt><trkpt lat="42.8031833" lon="11.6867567"><ele>689.0</ele><time>2026-04-01T12:20:16.218Z</time></trkpt><trkpt lat="42.8031633" lon="11.6865683"><ele>689.0</ele><time>2026-04-01T12:20:17.218Z</time></trkpt><trkpt lat="42.8031367" lon="11.6863883"><ele>690.0</ele><time>2026-04-01T12:20:18.217Z</time></trkpt><trkpt lat="42.803105" lon="11.68621"><ele>691.0</ele><time>2026-04-01T12:20:19.218Z</time></trkpt><trkpt lat="42.8030717" lon="11.68603"><ele>692.0</ele><time>2026-04-01T12:20:20.218Z</time></trkpt><trkpt lat="42.8030267" lon="11.6858733"><ele>693.0</ele><time>2026-04-01T12:20:21.218Z</time></trkpt><trkpt lat="42.8029917" lon="11.6857167"><ele>695.25</ele><time>2026-04-01T12:20:22.217Z</time></trkpt><trkpt lat="42.80298" lon="11.68555"><ele>697.5</ele><time>2026-04-01T12:20:23.217Z</time></trkpt><trkpt lat="42.8029867" lon="11.6853817"><ele>699.75</ele><time>2026-04-01T12:20:24.217Z</time></trkpt><trkpt lat="42.8030067" lon="11.68521"><ele>702.0</ele><time>2026-04-01T12:20:25.217Z</time></trkpt><trkpt lat="42.8030467" lon="11.6850433"><ele>704.0</ele><time>2026-04-01T12:20:26.218Z</time></trkpt><trkpt lat="42.8031067" lon="11.6848867"><ele>706.0</ele><time>2026-04-01T12:20:27.218Z</time></trkpt><trkpt lat="42.80317" lon="11.6847433"><ele>708.0</ele><time>2026-04-01T12:20:28.218Z</time></trkpt><trkpt lat="42.8032317" lon="11.6846067"><ele>710.0</ele><time>2026-04-01T12:20:29.217Z</time></trkpt><trkpt lat="42.8032767" lon="11.6844617"><ele>712.0</ele><time>2026-04-01T12:20:30.218Z</time></trkpt><trkpt lat="42.8033117" lon="11.684325"><ele>714.0</ele><time>2026-04-01T12:20:31.218Z</time></trkpt><trkpt lat="42.8033367" lon="11.6841717"><ele>716.0</ele><time>2026-04-01T12:20:32.218Z</time></trkpt><trkpt lat="42.8033683" lon="11.68402"><ele>718.0</ele><time>2026-04-01T12:20:33.217Z</time></trkpt><trkpt lat="42.8034067" lon="11.6838833"><ele>720.0</ele><time>2026-04-01T12:20:34.217Z</time></trkpt><trkpt lat="42.8034583" lon="11.683745"><ele>718.5</ele><time>2026-04-01T12:20:35.219Z</time></trkpt><trkpt lat="42.803515" lon="11.6835983"><ele>717.0</ele><time>2026-04-01T12:20:36.218Z</time></trkpt><trkpt lat="42.8035933" lon="11.683445"><ele>715.5</ele><time>2026-04-01T12:20:37.219Z</time></trkpt><trkpt lat="42.8036683" lon="11.6832983"><ele>714.0</ele><time>2026-04-01T12:20:38.218Z</time></trkpt><trkpt lat="42.8037467" lon="11.6831683"><ele>714.0</ele><time>2026-04-01T12:20:39.219Z</time></trkpt><trkpt lat="42.8038217" lon="11.683055"><ele>714.0</ele><time>2026-04-01T12:20:40.218Z</time></trkpt><trkpt lat="42.8038983" lon="11.68295"><ele>714.0</ele><time>2026-04-01T12:20:41.219Z</time></trkpt><trkpt lat="42.8039683" lon="11.682845"><ele>714.0</ele><time>2026-04-01T12:20:42.219Z</time></trkpt><trkpt lat="42.8040367" lon="11.68274"><ele>714.0</ele><time>2026-04-01T12:20:43.219Z</time></trkpt><trkpt lat="42.8041017" lon="11.6826433"><ele>714.6</ele><time>2026-04-01T12:20:44.219Z</time></trkpt><trkpt lat="42.80416" lon="11.6825433"><ele>715.2</ele><time>2026-04-01T12:20:45.219Z</time></trkpt><trkpt lat="42.804215" lon="11.68243"><ele>715.8000000000001</ele><time>2026-04-01T12:20:46.219Z</time></trkpt><trkpt lat="42.8042567" lon="11.6823167"><ele>716.4000000000001</ele><time>2026-04-01T12:20:47.219Z</time></trkpt><trkpt lat="42.8042967" lon="11.682195"><ele>717.0</ele><time>2026-04-01T12:20:48.219Z</time></trkpt><trkpt lat="42.80434" lon="11.6820683"><ele>717.0</ele><time>2026-04-01T12:20:49.219Z</time></trkpt><trkpt lat="42.8043767" lon="11.6819483"><ele>717.0</ele><time>2026-04-01T12:20:50.219Z</time></trkpt><trkpt lat="42.8044167" lon="11.681835"><ele>717.0</ele><time>2026-04-01T12:20:51.218Z</time></trkpt><trkpt lat="42.8044667" lon="11.6817283"><ele>717.0</ele><time>2026-04-01T12:20:52.219Z</time></trkpt><trkpt lat="42.8045233" lon="11.6816317"><ele>717.0</ele><time>2026-04-01T12:20:53.218Z</time></trkpt><trkpt lat="42.8045833" lon="11.68155"><ele>718.8</ele><time>2026-04-01T12:20:54.219Z</time></trkpt><trkpt lat="42.80464" lon="11.6814533"><ele>720.6</ele><time>2026-04-01T12:20:55.219Z</time></trkpt><trkpt lat="42.8046967" lon="11.6813433"><ele>722.4</ele><time>2026-04-01T12:20:56.218Z</time></trkpt><trkpt lat="42.8047517" lon="11.6812283"><ele>724.1999999999999</ele><time>2026-04-01T12:20:57.219Z</time></trkpt><trkpt lat="42.804805" lon="11.6811017"><ele>726.0</ele><time>2026-04-01T12:20:58.218Z</time></trkpt><trkpt lat="42.8048567" lon="11.6809783"><ele>726.1666666666666</ele><time>2026-04-01T12:20:59.218Z</time></trkpt><trkpt lat="42.8049017" lon="11.680875"><ele>726.3333333333334</ele><time>2026-04-01T12:21:00.219Z</time></trkpt><trkpt lat="42.8049567" lon="11.6807683"><ele>726.5</ele><time>2026-04-01T12:21:01.219Z</time></trkpt><trkpt lat="42.80502" lon="11.6806667"><ele>726.6666666666667</ele><time>2026-04-01T12:21:02.218Z</time></trkpt><trkpt lat="42.805075" lon="11.6805867"><ele>726.8333333333334</ele><time>2026-04-01T12:21:03.219Z</time></trkpt><trkpt lat="42.80513" lon="11.6805033"><ele>727.0</ele><time>2026-04-01T12:21:04.218Z</time></trkpt><trkpt lat="42.8051917" lon="11.6804017"><ele>727.0</ele><time>2026-04-01T12:21:05.219Z</time></trkpt><trkpt lat="42.8052517" lon="11.680315"><ele>727.0</ele><time>2026-04-01T12:21:06.219Z</time></trkpt><trkpt lat="42.8053167" lon="11.6802367"><ele>727.0</ele><time>2026-04-01T12:21:07.218Z</time></trkpt><trkpt lat="42.8053933" lon="11.6801617"><ele>727.0</ele><time>2026-04-01T12:21:08.219Z</time></trkpt><trkpt lat="42.80546" lon="11.6800917"><ele>727.0</ele><time>2026-04-01T12:21:09.218Z</time></trkpt><trkpt lat="42.8055317" lon="11.6800133"><ele>727.0</ele><time>2026-04-01T12:21:10.218Z</time></trkpt><trkpt lat="42.8055967" lon="11.6799317"><ele>729.1666666666667</ele><time>2026-04-01T12:21:11.219Z</time></trkpt><trkpt lat="42.8056533" lon="11.6798567"><ele>731.3333333333334</ele><time>2026-04-01T12:21:12.219Z</time></trkpt><trkpt lat="42.8057083" lon="11.6797667"><ele>733.5</ele><time>2026-04-01T12:21:13.219Z</time></trkpt><trkpt lat="42.8057733" lon="11.6796667"><ele>735.6666666666666</ele><time>2026-04-01T12:21:14.218Z</time></trkpt><trkpt lat="42.8058233" lon="11.6795733"><ele>737.8333333333333</ele><time>2026-04-01T12:21:15.219Z</time></trkpt><trkpt lat="42.805885" lon="11.6794733"><ele>740.0</ele><time>2026-04-01T12:21:16.219Z</time></trkpt><trkpt lat="42.805945" lon="11.6793683"><ele>740.4</ele><time>2026-04-01T12:21:17.218Z</time></trkpt><trkpt lat="42.8060083" lon="11.6792617"><ele>740.8</ele><time>2026-04-01T12:21:18.219Z</time></trkpt><trkpt lat="42.8060667" lon="11.67916"><ele>741.2</ele><time>2026-04-01T12:21:19.219Z</time></trkpt><trkpt lat="42.8061383" lon="11.6790517"><ele>741.6</ele><time>2026-04-01T12:21:20.219Z</time></trkpt><trkpt lat="42.806215" lon="11.6789567"><ele>742.0</ele><time>2026-04-01T12:21:21.219Z</time></trkpt><trkpt lat="42.8062983" lon="11.6788733"><ele>742.0</ele><time>2026-04-01T12:21:22.219Z</time></trkpt><trkpt lat="42.8063833" lon="11.6788033"><ele>742.0</ele><time>2026-04-01T12:21:23.219Z</time></trkpt><trkpt lat="42.8064583" lon="11.6787383"><ele>742.0</ele><time>2026-04-01T12:21:24.218Z</time></trkpt><trkpt lat="42.8065517" lon="11.6786767"><ele>742.0</ele><time>2026-04-01T12:21:25.219Z</time></trkpt><trkpt lat="42.8066467" lon="11.6786117"><ele>742.0</ele><time>2026-04-01T12:21:26.218Z</time></trkpt><trkpt lat="42.8067583" lon="11.6785517"><ele>743.0</ele><time>2026-04-01T12:21:27.218Z</time></trkpt><trkpt lat="42.8068767" lon="11.67849"><ele>744.0</ele><time>2026-04-01T12:21:28.219Z</time></trkpt><trkpt lat="42.8069783" lon="11.6784367"><ele>745.0</ele><time>2026-04-01T12:21:29.218Z</time></trkpt><trkpt lat="42.8070783" lon="11.6783833"><ele>746.0</ele><time>2026-04-01T12:21:30.219Z</time></trkpt><trkpt lat="42.8071767" lon="11.6783283"><ele>747.0</ele><time>2026-04-01T12:21:31.219Z</time></trkpt><trkpt lat="42.8072533" lon="11.6782833"><ele>747.0</ele><time>2026-04-01T12:21:32.219Z</time></trkpt><trkpt lat="42.8073317" lon="11.6782383"><ele>747.0</ele><time>2026-04-01T12:21:33.218Z</time></trkpt><trkpt lat="42.8073967" lon="11.6781933"><ele>747.0</ele><time>2026-04-01T12:21:34.219Z</time></trkpt><trkpt lat="42.80746" lon="11.6781583"><ele>747.0</ele><time>2026-04-01T12:21:35.218Z</time></trkpt><trkpt lat="42.8075483" lon="11.678095"><ele>747.0</ele><time>2026-04-01T12:21:37.218Z</time></trkpt><trkpt lat="42.80761" lon="11.678035"><ele>747.0</ele><time>2026-04-01T12:21:39.219Z</time></trkpt><trkpt lat="42.8076017" lon="11.677945"><ele>747.0</ele><time>2026-04-01T12:21:42.219Z</time></trkpt><trkpt lat="42.8075267" lon="11.67791"><ele>747.0</ele><time>2026-04-01T12:21:44.218Z</time></trkpt><trkpt lat="42.8074133" lon="11.677865"><ele>747.0</ele><time>2026-04-01T12:21:46.218Z</time></trkpt><trkpt lat="42.8073533" lon="11.6778317"><ele>747.0</ele><time>2026-04-01T12:21:47.219Z</time></trkpt><trkpt lat="42.80729" lon="11.6777833"><ele>747.0</ele><time>2026-04-01T12:21:48.218Z</time></trkpt><trkpt lat="42.8072133" lon="11.6777367"><ele>747.0</ele><time>2026-04-01T12:21:49.218Z</time></trkpt><trkpt lat="42.8071383" lon="11.6776867"><ele>748.4285714285713</ele><time>2026-04-01T12:21:50.219Z</time></trkpt><trkpt lat="42.8070717" lon="11.6776433"><ele>749.8571428571429</ele><time>2026-04-01T12:21:51.219Z</time></trkpt><trkpt lat="42.8070133" lon="11.6775817"><ele>751.2857142857142</ele><time>2026-04-01T12:21:52.219Z</time></trkpt><trkpt lat="42.8069683" lon="11.6775183"><ele>752.7142857142857</ele><time>2026-04-01T12:21:53.219Z</time></trkpt><trkpt lat="42.80692" lon="11.6774467"><ele>754.1428571428571</ele><time>2026-04-01T12:21:54.218Z</time></trkpt><trkpt lat="42.8068883" lon="11.67737"><ele>755.5714285714286</ele><time>2026-04-01T12:21:55.218Z</time></trkpt><trkpt lat="42.8068617" lon="11.677275"><ele>757.0</ele><time>2026-04-01T12:21:56.218Z</time></trkpt><trkpt lat="42.8068467" lon="11.6771833"><ele>758.0</ele><time>2026-04-01T12:21:57.218Z</time></trkpt><trkpt lat="42.806815" lon="11.6770067"><ele>759.0</ele><time>2026-04-01T12:21:59.219Z</time></trkpt><trkpt lat="42.8067783" lon="11.6769183"><ele>760.0</ele><time>2026-04-01T12:22:00.218Z</time></trkpt><trkpt lat="42.8067217" lon="11.6768567"><ele>761.0</ele><time>2026-04-01T12:22:01.219Z</time></trkpt><trkpt lat="42.8066633" lon="11.6768183"><ele>762.0</ele><time>2026-04-01T12:22:02.219Z</time></trkpt><trkpt lat="42.8065917" lon="11.67679"><ele>763.0</ele><time>2026-04-01T12:22:03.219Z</time></trkpt><trkpt lat="42.8064583" lon="11.6767517"><ele>764.2</ele><time>2026-04-01T12:22:05.218Z</time></trkpt><trkpt lat="42.8063767" lon="11.6767317"><ele>765.4</ele><time>2026-04-01T12:22:06.218Z</time></trkpt><trkpt lat="42.8062967" lon="11.676715"><ele>766.6</ele><time>2026-04-01T12:22:07.219Z</time></trkpt><trkpt lat="42.8062167" lon="11.6767033"><ele>767.8000000000001</ele><time>2026-04-01T12:22:08.218Z</time></trkpt><trkpt lat="42.8061233" lon="11.6766917"><ele>769.0</ele><time>2026-04-01T12:22:09.218Z</time></trkpt><trkpt lat="42.8060067" lon="11.67668"><ele>771.5</ele><time>2026-04-01T12:22:10.218Z</time></trkpt><trkpt lat="42.8058683" lon="11.6766667"><ele>774.0</ele><time>2026-04-01T12:22:11.219Z</time></trkpt><trkpt lat="42.80573" lon="11.6766567"><ele>776.5</ele><time>2026-04-01T12:22:12.219Z</time></trkpt><trkpt lat="42.8055783" lon="11.67664"><ele>779.0</ele><time>2026-04-01T12:22:13.219Z</time></trkpt><trkpt lat="42.8054383" lon="11.67664"><ele>779.0</ele><time>2026-04-01T12:22:14.219Z</time></trkpt><trkpt lat="42.8053083" lon="11.6766583"><ele>779.0</ele><time>2026-04-01T12:22:15.219Z</time></trkpt><trkpt lat="42.8052" lon="11.67668"><ele>779.0</ele><time>2026-04-01T12:22:16.219Z</time></trkpt><trkpt lat="42.8050983" lon="11.6767117"><ele>779.0</ele><time>2026-04-01T12:22:17.218Z</time></trkpt><trkpt lat="42.8050083" lon="11.67675"><ele>779.0</ele><time>2026-04-01T12:22:18.218Z</time></trkpt><trkpt lat="42.8049283" lon="11.6767917"><ele>778.5000000000001</ele><time>2026-04-01T12:22:19.218Z</time></trkpt><trkpt lat="42.8048667" lon="11.6768383"><ele>778.0</ele><time>2026-04-01T12:22:20.219Z</time></trkpt><trkpt lat="42.8048017" lon="11.6769"><ele>777.5</ele><time>2026-04-01T12:22:21.218Z</time></trkpt><trkpt lat="42.8047267" lon="11.6769617"><ele>777.0</ele><time>2026-04-01T12:22:22.219Z</time></trkpt><trkpt lat="42.804645" lon="11.6770183"><ele>776.5000000000001</ele><time>2026-04-01T12:22:23.219Z</time></trkpt><trkpt lat="42.80456" lon="11.6770683"><ele>776.0</ele><time>2026-04-01T12:22:24.219Z</time></trkpt><trkpt lat="42.8044667" lon="11.6771217"><ele>776.0000000000001</ele><time>2026-04-01T12:22:25.219Z</time></trkpt><trkpt lat="42.8043783" lon="11.6771683"><ele>776.0</ele><time>2026-04-01T12:22:26.219Z</time></trkpt><trkpt lat="42.804295" lon="11.67723"><ele>776.0</ele><time>2026-04-01T12:22:27.219Z</time></trkpt><trkpt lat="42.8042367" lon="11.6772917"><ele>776.0</ele><time>2026-04-01T12:22:28.219Z</time></trkpt><trkpt lat="42.804185" lon="11.6773583"><ele>776.0000000000001</ele><time>2026-04-01T12:22:29.219Z</time></trkpt><trkpt lat="42.80413" lon="11.6774333"><ele>776.0</ele><time>2026-04-01T12:22:30.218Z</time></trkpt><trkpt lat="42.8040817" lon="11.6775167"><ele>777.5000000000001</ele><time>2026-04-01T12:22:31.219Z</time></trkpt><trkpt lat="42.8040267" lon="11.6776017"><ele>779.0</ele><time>2026-04-01T12:22:32.219Z</time></trkpt><trkpt lat="42.8039567" lon="11.677675"><ele>780.5</ele><time>2026-04-01T12:22:33.219Z</time></trkpt><trkpt lat="42.803875" lon="11.6777483"><ele>782.0</ele><time>2026-04-01T12:22:34.219Z</time></trkpt><trkpt lat="42.8037883" lon="11.6778"><ele>783.5000000000001</ele><time>2026-04-01T12:22:35.219Z</time></trkpt><trkpt lat="42.80371" lon="11.67783"><ele>785.0</ele><time>2026-04-01T12:22:36.219Z</time></trkpt><trkpt lat="42.8036383" lon="11.6778317"><ele>785.0000000000001</ele><time>2026-04-01T12:22:37.219Z</time></trkpt><trkpt lat="42.8035733" lon="11.6778"><ele>785.0</ele><time>2026-04-01T12:22:38.219Z</time></trkpt><trkpt lat="42.8035183" lon="11.6777517"><ele>785.0</ele><time>2026-04-01T12:22:39.219Z</time></trkpt><trkpt lat="42.8034067" lon="11.6776867"><ele>785.0</ele><time>2026-04-01T12:22:41.218Z</time></trkpt><trkpt lat="42.8033367" lon="11.677655"><ele>785.0000000000001</ele><time>2026-04-01T12:22:42.219Z</time></trkpt><trkpt lat="42.803255" lon="11.677635"><ele>785.0</ele><time>2026-04-01T12:22:43.219Z</time></trkpt><trkpt lat="42.8031717" lon="11.677625"><ele>788.8333333333334</ele><time>2026-04-01T12:22:44.218Z</time></trkpt><trkpt lat="42.8030883" lon="11.67762"><ele>792.6666666666667</ele><time>2026-04-01T12:22:45.218Z</time></trkpt><trkpt lat="42.8029983" lon="11.6776283"><ele>796.5</ele><time>2026-04-01T12:22:46.219Z</time></trkpt><trkpt lat="42.80291" lon="11.6776517"><ele>800.3333333333333</ele><time>2026-04-01T12:22:47.219Z</time></trkpt><trkpt lat="42.80282" lon="11.677685"><ele>804.1666666666666</ele><time>2026-04-01T12:22:48.219Z</time></trkpt><trkpt lat="42.802735" lon="11.6777267"><ele>808.0</ele><time>2026-04-01T12:22:49.219Z</time></trkpt><trkpt lat="42.802665" lon="11.677765"><ele>808.1666666666666</ele><time>2026-04-01T12:22:50.219Z</time></trkpt><trkpt lat="42.802605" lon="11.6777983"><ele>808.3333333333333</ele><time>2026-04-01T12:22:51.218Z</time></trkpt><trkpt lat="42.802505" lon="11.6778483"><ele>808.5</ele><time>2026-04-01T12:22:53.219Z</time></trkpt><trkpt lat="42.8023817" lon="11.677855"><ele>808.6666666666667</ele><time>2026-04-01T12:22:55.218Z</time></trkpt><trkpt lat="42.8023117" lon="11.6778067"><ele>808.8333333333334</ele><time>2026-04-01T12:22:56.219Z</time></trkpt><trkpt lat="42.8022533" lon="11.67774"><ele>809.0</ele><time>2026-04-01T12:22:57.218Z</time></trkpt><trkpt lat="42.8021917" lon="11.6776533"><ele>809.3333333333334</ele><time>2026-04-01T12:22:58.218Z</time></trkpt><trkpt lat="42.8021217" lon="11.6775633"><ele>809.6666666666667</ele><time>2026-04-01T12:22:59.219Z</time></trkpt><trkpt lat="42.802055" lon="11.6774883"><ele>810.0</ele><time>2026-04-01T12:23:00.218Z</time></trkpt><trkpt lat="42.8019917" lon="11.6774267"><ele>810.3333333333333</ele><time>2026-04-01T12:23:01.218Z</time></trkpt><trkpt lat="42.8019283" lon="11.6773717"><ele>810.6666666666666</ele><time>2026-04-01T12:23:02.219Z</time></trkpt><trkpt lat="42.8018633" lon="11.6773183"><ele>811.0</ele><time>2026-04-01T12:23:03.218Z</time></trkpt><trkpt lat="42.8017967" lon="11.6772733"><ele>809.3333333333333</ele><time>2026-04-01T12:23:04.219Z</time></trkpt><trkpt lat="42.80168" lon="11.6772183"><ele>807.6666666666666</ele><time>2026-04-01T12:23:06.219Z</time></trkpt><trkpt lat="42.80162" lon="11.6771917"><ele>806.0</ele><time>2026-04-01T12:23:07.219Z</time></trkpt><trkpt lat="42.8015483" lon="11.6771583"><ele>804.3333333333333</ele><time>2026-04-01T12:23:08.219Z</time></trkpt><trkpt lat="42.80147" lon="11.67711"><ele>802.6666666666666</ele><time>2026-04-01T12:23:09.219Z</time></trkpt><trkpt lat="42.8014" lon="11.6770583"><ele>801.0</ele><time>2026-04-01T12:23:10.219Z</time></trkpt><trkpt lat="42.801335" lon="11.6770033"><ele>801.0</ele><time>2026-04-01T12:23:11.218Z</time></trkpt><trkpt lat="42.8012717" lon="11.67696"><ele>801.0</ele><time>2026-04-01T12:23:12.219Z</time></trkpt><trkpt lat="42.8011967" lon="11.6769233"><ele>801.0</ele><time>2026-04-01T12:23:13.218Z</time></trkpt><trkpt lat="42.80112" lon="11.6768983"><ele>801.0</ele><time>2026-04-01T12:23:14.219Z</time></trkpt><trkpt lat="42.8010317" lon="11.6768617"><ele>801.0</ele><time>2026-04-01T12:23:15.218Z</time></trkpt><trkpt lat="42.8009133" lon="11.6768167"><ele>801.0</ele><time>2026-04-01T12:23:16.219Z</time></trkpt><trkpt lat="42.8008033" lon="11.676765"><ele>801.8333333333334</ele><time>2026-04-01T12:23:17.219Z</time></trkpt><trkpt lat="42.8007183" lon="11.6767167"><ele>802.6666666666667</ele><time>2026-04-01T12:23:18.219Z</time></trkpt><trkpt lat="42.8006367" lon="11.676675"><ele>803.5</ele><time>2026-04-01T12:23:19.219Z</time></trkpt><trkpt lat="42.8005583" lon="11.67664"><ele>804.3333333333334</ele><time>2026-04-01T12:23:20.218Z</time></trkpt><trkpt lat="42.8004717" lon="11.6766283"><ele>805.1666666666667</ele><time>2026-04-01T12:23:21.218Z</time></trkpt><trkpt lat="42.8003733" lon="11.676635"><ele>806.0</ele><time>2026-04-01T12:23:22.218Z</time></trkpt><trkpt lat="42.8002683" lon="11.6766383"><ele>805.1999999999999</ele><time>2026-04-01T12:23:23.218Z</time></trkpt><trkpt lat="42.8001433" lon="11.6766367"><ele>804.4</ele><time>2026-04-01T12:23:24.219Z</time></trkpt><trkpt lat="42.8000367" lon="11.6766367"><ele>803.6</ele><time>2026-04-01T12:23:25.219Z</time></trkpt><trkpt lat="42.7999517" lon="11.67664"><ele>802.8</ele><time>2026-04-01T12:23:26.218Z</time></trkpt><trkpt lat="42.7998833" lon="11.676625"><ele>802.0</ele><time>2026-04-01T12:23:27.218Z</time></trkpt><trkpt lat="42.7998217" lon="11.6765867"><ele>801.9999999999999</ele><time>2026-04-01T12:23:28.219Z</time></trkpt><trkpt lat="42.7997583" lon="11.6765333"><ele>802.0</ele><time>2026-04-01T12:23:29.219Z</time></trkpt><trkpt lat="42.799695" lon="11.6764567"><ele>802.0</ele><time>2026-04-01T12:23:30.218Z</time></trkpt><trkpt lat="42.7996283" lon="11.6763733"><ele>802.0</ele><time>2026-04-01T12:23:31.218Z</time></trkpt><trkpt lat="42.7995567" lon="11.67628"><ele>801.9999999999999</ele><time>2026-04-01T12:23:32.218Z</time></trkpt><trkpt lat="42.7994867" lon="11.6761867"><ele>802.0</ele><time>2026-04-01T12:23:33.218Z</time></trkpt><trkpt lat="42.7994117" lon="11.6760917"><ele>803.2</ele><time>2026-04-01T12:23:34.219Z</time></trkpt><trkpt lat="42.7993367" lon="11.6760017"><ele>804.4000000000001</ele><time>2026-04-01T12:23:35.218Z</time></trkpt><trkpt lat="42.7992633" lon="11.6759167"><ele>805.5999999999999</ele><time>2026-04-01T12:23:36.219Z</time></trkpt><trkpt lat="42.79919" lon="11.6758217"><ele>806.8</ele><time>2026-04-01T12:23:37.218Z</time></trkpt><trkpt lat="42.79912" lon="11.675735"><ele>808.0</ele><time>2026-04-01T12:23:38.219Z</time></trkpt><trkpt lat="42.79903" lon="11.6756467"><ele>805.6666666666666</ele><time>2026-04-01T12:23:39.219Z</time></trkpt><trkpt lat="42.7989383" lon="11.6755767"><ele>803.3333333333333</ele><time>2026-04-01T12:23:40.218Z</time></trkpt><trkpt lat="42.7988633" lon="11.6755367"><ele>801.0</ele><time>2026-04-01T12:23:41.219Z</time></trkpt><trkpt lat="42.7987883" lon="11.67551"><ele>798.6666666666667</ele><time>2026-04-01T12:23:42.218Z</time></trkpt><trkpt lat="42.7987217" lon="11.675485"><ele>796.3333333333334</ele><time>2026-04-01T12:23:43.219Z</time></trkpt><trkpt lat="42.7986433" lon="11.6754567"><ele>794.0</ele><time>2026-04-01T12:23:44.219Z</time></trkpt><trkpt lat="42.7985533" lon="11.6754167"><ele>794.1666666666667</ele><time>2026-04-01T12:23:45.219Z</time></trkpt><trkpt lat="42.7984733" lon="11.67539"><ele>794.3333333333334</ele><time>2026-04-01T12:23:46.219Z</time></trkpt><trkpt lat="42.798395" lon="11.6753517"><ele>794.5</ele><time>2026-04-01T12:23:47.218Z</time></trkpt><trkpt lat="42.7983283" lon="11.6753083"><ele>794.6666666666667</ele><time>2026-04-01T12:23:48.218Z</time></trkpt><trkpt lat="42.7982733" lon="11.6752483"><ele>794.8333333333334</ele><time>2026-04-01T12:23:49.218Z</time></trkpt><trkpt lat="42.7982433" lon="11.6751683"><ele>795.0</ele><time>2026-04-01T12:23:50.218Z</time></trkpt><trkpt lat="42.798225" lon="11.67506"><ele>795.0</ele><time>2026-04-01T12:23:51.219Z</time></trkpt><trkpt lat="42.7982283" lon="11.6749417"><ele>795.0</ele><time>2026-04-01T12:23:52.219Z</time></trkpt><trkpt lat="42.798245" lon="11.67482"><ele>795.0</ele><time>2026-04-01T12:23:53.219Z</time></trkpt><trkpt lat="42.7982633" lon="11.6746817"><ele>795.0</ele><time>2026-04-01T12:23:54.218Z</time></trkpt><trkpt lat="42.7982667" lon="11.6745517"><ele>795.0</ele><time>2026-04-01T12:23:55.218Z</time></trkpt><trkpt lat="42.79825" lon="11.6744483"><ele>795.8</ele><time>2026-04-01T12:23:56.218Z</time></trkpt><trkpt lat="42.7982133" lon="11.67434"><ele>796.6</ele><time>2026-04-01T12:23:57.218Z</time></trkpt><trkpt lat="42.798175" lon="11.67422"><ele>797.4000000000001</ele><time>2026-04-01T12:23:58.218Z</time></trkpt><trkpt lat="42.7981317" lon="11.6740817"><ele>798.2</ele><time>2026-04-01T12:23:59.219Z</time></trkpt><trkpt lat="42.7980933" lon="11.6739367"><ele>799.0</ele><time>2026-04-01T12:24:00.219Z</time></trkpt><trkpt lat="42.7980633" lon="11.673765"><ele>799.0</ele><time>2026-04-01T12:24:01.219Z</time></trkpt><trkpt lat="42.7980333" lon="11.6736117"><ele>799.0</ele><time>2026-04-01T12:24:02.218Z</time></trkpt><trkpt lat="42.798" lon="11.6734817"><ele>799.0</ele><time>2026-04-01T12:24:03.218Z</time></trkpt><trkpt lat="42.79797" lon="11.673375"><ele>799.0</ele><time>2026-04-01T12:24:04.219Z</time></trkpt><trkpt lat="42.7979433" lon="11.6732767"><ele>799.0</ele><time>2026-04-01T12:24:05.218Z</time></trkpt><trkpt lat="42.7979183" lon="11.6731283"><ele>799.4999999999999</ele><time>2026-04-01T12:24:07.218Z</time></trkpt><trkpt lat="42.7979167" lon="11.672975"><ele>800.0</ele><time>2026-04-01T12:24:09.218Z</time></trkpt><trkpt lat="42.797925" lon="11.672885"><ele>800.5</ele><time>2026-04-01T12:24:10.219Z</time></trkpt><trkpt lat="42.797935" lon="11.6727867"><ele>801.0</ele><time>2026-04-01T12:24:11.219Z</time></trkpt><trkpt lat="42.7979467" lon="11.67269"><ele>801.4999999999999</ele><time>2026-04-01T12:24:12.219Z</time></trkpt><trkpt lat="42.7979583" lon="11.6725333"><ele>802.0</ele><time>2026-04-01T12:24:14.219Z</time></trkpt><trkpt lat="42.797925" lon="11.6724017"><ele>801.2</ele><time>2026-04-01T12:24:16.219Z</time></trkpt><trkpt lat="42.7978833" lon="11.6723233"><ele>800.4000000000001</ele><time>2026-04-01T12:24:17.219Z</time></trkpt><trkpt lat="42.797805" lon="11.6722283"><ele>799.5999999999999</ele><time>2026-04-01T12:24:18.219Z</time></trkpt><trkpt lat="42.797725" lon="11.672125"><ele>798.8</ele><time>2026-04-01T12:24:19.219Z</time></trkpt><trkpt lat="42.7976483" lon="11.671995"><ele>798.0</ele><time>2026-04-01T12:24:20.219Z</time></trkpt><trkpt lat="42.7975817" lon="11.6718583"><ele>800.4</ele><time>2026-04-01T12:24:21.218Z</time></trkpt><trkpt lat="42.797515" lon="11.67174"><ele>802.8</ele><time>2026-04-01T12:24:22.218Z</time></trkpt><trkpt lat="42.797455" lon="11.6716433"><ele>805.2</ele><time>2026-04-01T12:24:23.219Z</time></trkpt><trkpt lat="42.79739" lon="11.671565"><ele>807.6</ele><time>2026-04-01T12:24:24.218Z</time></trkpt><trkpt lat="42.7973233" lon="11.6715067"><ele>810.0</ele><time>2026-04-01T12:24:25.219Z</time></trkpt><trkpt lat="42.7972517" lon="11.6714517"><ele>810.0</ele><time>2026-04-01T12:24:26.218Z</time></trkpt><trkpt lat="42.7971867" lon="11.6714083"><ele>810.0</ele><time>2026-04-01T12:24:27.219Z</time></trkpt><trkpt lat="42.79713" lon="11.6713683"><ele>810.0</ele><time>2026-04-01T12:24:28.219Z</time></trkpt><trkpt lat="42.7970683" lon="11.6712583"><ele>810.0</ele><time>2026-04-01T12:24:30.219Z</time></trkpt><trkpt lat="42.797065" lon="11.6710883"><ele>810.0</ele><time>2026-04-01T12:24:32.218Z</time></trkpt><trkpt lat="42.7970583" lon="11.67098"><ele>810.0</ele><time>2026-04-01T12:24:33.219Z</time></trkpt><trkpt lat="42.79706" lon="11.67088"><ele>812.0</ele><time>2026-04-01T12:24:34.219Z</time></trkpt><trkpt lat="42.7970467" lon="11.670785"><ele>814.0</ele><time>2026-04-01T12:24:35.218Z</time></trkpt><trkpt lat="42.7970283" lon="11.6707"><ele>816.0</ele><time>2026-04-01T12:24:36.219Z</time></trkpt><trkpt lat="42.7970267" lon="11.6706083"><ele>818.0</ele><time>2026-04-01T12:24:37.219Z</time></trkpt><trkpt lat="42.7970433" lon="11.670515"><ele>820.0</ele><time>2026-04-01T12:24:38.218Z</time></trkpt><trkpt lat="42.7970833" lon="11.6704217"><ele>822.0</ele><time>2026-04-01T12:24:39.219Z</time></trkpt><trkpt lat="42.7971267" lon="11.6703"><ele>822.5</ele><time>2026-04-01T12:24:40.219Z</time></trkpt><trkpt lat="42.79718" lon="11.6701583"><ele>823.0</ele><time>2026-04-01T12:24:41.218Z</time></trkpt><trkpt lat="42.7972317" lon="11.6699933"><ele>823.5</ele><time>2026-04-01T12:24:42.219Z</time></trkpt><trkpt lat="42.7972683" lon="11.6698133"><ele>824.0</ele><time>2026-04-01T12:24:43.219Z</time></trkpt><trkpt lat="42.7973" lon="11.66964"><ele>824.0</ele><time>2026-04-01T12:24:44.218Z</time></trkpt><trkpt lat="42.797325" lon="11.6694817"><ele>824.0</ele><time>2026-04-01T12:24:45.219Z</time></trkpt><trkpt lat="42.797335" lon="11.6693433"><ele>824.0</ele><time>2026-04-01T12:24:46.218Z</time></trkpt><trkpt lat="42.79733" lon="11.6692183"><ele>824.0</ele><time>2026-04-01T12:24:47.219Z</time></trkpt><trkpt lat="42.79732" lon="11.6690883"><ele>824.0</ele><time>2026-04-01T12:24:48.219Z</time></trkpt><trkpt lat="42.797285" lon="11.6689617"><ele>823.8000000000001</ele><time>2026-04-01T12:24:49.219Z</time></trkpt><trkpt lat="42.79725" lon="11.6688483"><ele>823.6</ele><time>2026-04-01T12:24:50.219Z</time></trkpt><trkpt lat="42.7972333" lon="11.668745"><ele>823.4</ele><time>2026-04-01T12:24:51.219Z</time></trkpt><trkpt lat="42.79722" lon="11.668615"><ele>823.2</ele><time>2026-04-01T12:24:52.219Z</time></trkpt><trkpt lat="42.7972083" lon="11.66847"><ele>823.0</ele><time>2026-04-01T12:24:53.219Z</time></trkpt><trkpt lat="42.7971883" lon="11.6683117"><ele>823.0</ele><time>2026-04-01T12:24:54.219Z</time></trkpt><trkpt lat="42.7971717" lon="11.6681567"><ele>823.0</ele><time>2026-04-01T12:24:55.218Z</time></trkpt><trkpt lat="42.7971633" lon="11.6680117"><ele>823.0</ele><time>2026-04-01T12:24:56.218Z</time></trkpt><trkpt lat="42.7971683" lon="11.6678867"><ele>823.0</ele><time>2026-04-01T12:24:57.219Z</time></trkpt><trkpt lat="42.7971783" lon="11.6677517"><ele>823.0</ele><time>2026-04-01T12:24:58.219Z</time></trkpt><trkpt lat="42.7972" lon="11.6676233"><ele>822.5999999999999</ele><time>2026-04-01T12:24:59.218Z</time></trkpt><trkpt lat="42.7972283" lon="11.6675117"><ele>822.1999999999999</ele><time>2026-04-01T12:25:00.219Z</time></trkpt><trkpt lat="42.7972633" lon="11.667385"><ele>821.8</ele><time>2026-04-01T12:25:01.218Z</time></trkpt><trkpt lat="42.7973067" lon="11.6672617"><ele>821.4</ele><time>2026-04-01T12:25:02.219Z</time></trkpt><trkpt lat="42.79736" lon="11.667125"><ele>821.0</ele><time>2026-04-01T12:25:03.219Z</time></trkpt><trkpt lat="42.7974067" lon="11.667005"><ele>819.4</ele><time>2026-04-01T12:25:04.218Z</time></trkpt><trkpt lat="42.7974433" lon="11.6669067"><ele>817.8</ele><time>2026-04-01T12:25:05.219Z</time></trkpt><trkpt lat="42.79748" lon="11.6667767"><ele>816.1999999999999</ele><time>2026-04-01T12:25:06.219Z</time></trkpt><trkpt lat="42.7975017" lon="11.66665"><ele>814.5999999999999</ele><time>2026-04-01T12:25:07.219Z</time></trkpt><trkpt lat="42.797505" lon="11.6665167"><ele>813.0</ele><time>2026-04-01T12:25:08.219Z</time></trkpt><trkpt lat="42.797485" lon="11.6663817"><ele>813.0</ele><time>2026-04-01T12:25:09.219Z</time></trkpt><trkpt lat="42.79745" lon="11.6662233"><ele>813.0</ele><time>2026-04-01T12:25:10.218Z</time></trkpt><trkpt lat="42.7974167" lon="11.666075"><ele>813.0</ele><time>2026-04-01T12:25:11.218Z</time></trkpt><trkpt lat="42.79739" lon="11.665945"><ele>813.0</ele><time>2026-04-01T12:25:12.219Z</time></trkpt><trkpt lat="42.797365" lon="11.6658167"><ele>813.0</ele><time>2026-04-01T12:25:13.218Z</time></trkpt><trkpt lat="42.79733" lon="11.66568"><ele>812.8</ele><time>2026-04-01T12:25:14.218Z</time></trkpt><trkpt lat="42.797295" lon="11.66556"><ele>812.5999999999999</ele><time>2026-04-01T12:25:15.219Z</time></trkpt><trkpt lat="42.79726" lon="11.665445"><ele>812.4000000000001</ele><time>2026-04-01T12:25:16.218Z</time></trkpt><trkpt lat="42.7972217" lon="11.6653433"><ele>812.2</ele><time>2026-04-01T12:25:17.219Z</time></trkpt><trkpt lat="42.7971717" lon="11.6652317"><ele>812.0</ele><time>2026-04-01T12:25:18.218Z</time></trkpt><trkpt lat="42.797105" lon="11.6650917"><ele>813.25</ele><time>2026-04-01T12:25:19.219Z</time></trkpt><trkpt lat="42.79701" lon="11.6649483"><ele>814.5</ele><time>2026-04-01T12:25:20.219Z</time></trkpt><trkpt lat="42.7969117" lon="11.6648033"><ele>815.75</ele><time>2026-04-01T12:25:21.219Z</time></trkpt><trkpt lat="42.7968133" lon="11.664705"><ele>817.0</ele><time>2026-04-01T12:25:22.219Z</time></trkpt><trkpt lat="42.79673" lon="11.6645883"><ele>813.75</ele><time>2026-04-01T12:25:23.219Z</time></trkpt><trkpt lat="42.796655" lon="11.6644533"><ele>810.5</ele><time>2026-04-01T12:25:24.218Z</time></trkpt><trkpt lat="42.7965917" lon="11.664315"><ele>807.25</ele><time>2026-04-01T12:25:25.219Z</time></trkpt><trkpt lat="42.7965367" lon="11.6641717"><ele>804.0</ele><time>2026-04-01T12:25:26.219Z</time></trkpt><trkpt lat="42.7964833" lon="11.6640167"><ele>804.0</ele><time>2026-04-01T12:25:27.219Z</time></trkpt><trkpt lat="42.7964283" lon="11.6638483"><ele>804.0</ele><time>2026-04-01T12:25:28.219Z</time></trkpt><trkpt lat="42.7963933" lon="11.6636783"><ele>804.0</ele><time>2026-04-01T12:25:29.218Z</time></trkpt><trkpt lat="42.7963667" lon="11.6635067"><ele>804.0</ele><time>2026-04-01T12:25:30.218Z</time></trkpt><trkpt lat="42.796335" lon="11.66334"><ele>806.6666666666667</ele><time>2026-04-01T12:25:31.219Z</time></trkpt><trkpt lat="42.7963" lon="11.6631233"><ele>809.3333333333334</ele><time>2026-04-01T12:25:32.219Z</time></trkpt><trkpt lat="42.7962883" lon="11.6629017"><ele>812.0</ele><time>2026-04-01T12:25:33.218Z</time></trkpt><trkpt lat="42.7962833" lon="11.6626733"><ele>813.3333333333334</ele><time>2026-04-01T12:25:34.219Z</time></trkpt><trkpt lat="42.79628" lon="11.6624317"><ele>814.6666666666667</ele><time>2026-04-01T12:25:35.218Z</time></trkpt><trkpt lat="42.79628" lon="11.662215"><ele>816.0</ele><time>2026-04-01T12:25:36.219Z</time></trkpt><trkpt lat="42.7962717" lon="11.66202"><ele>817.1999999999999</ele><time>2026-04-01T12:25:37.219Z</time></trkpt><trkpt lat="42.796265" lon="11.6618567"><ele>818.4</ele><time>2026-04-01T12:25:38.218Z</time></trkpt><trkpt lat="42.79626" lon="11.661725"><ele>819.6</ele><time>2026-04-01T12:25:39.218Z</time></trkpt><trkpt lat="42.7962517" lon="11.6615933"><ele>820.8</ele><time>2026-04-01T12:25:40.218Z</time></trkpt><trkpt lat="42.7962267" lon="11.66144"><ele>822.0</ele><time>2026-04-01T12:25:41.218Z</time></trkpt><trkpt lat="42.7962033" lon="11.66125"><ele>821.8</ele><time>2026-04-01T12:25:42.219Z</time></trkpt><trkpt lat="42.796185" lon="11.661075"><ele>821.6</ele><time>2026-04-01T12:25:43.219Z</time></trkpt><trkpt lat="42.7961867" lon="11.660925"><ele>821.4</ele><time>2026-04-01T12:25:44.218Z</time></trkpt><trkpt lat="42.796205" lon="11.6607917"><ele>821.1999999999999</ele><time>2026-04-01T12:25:45.219Z</time></trkpt><trkpt lat="42.796225" lon="11.6606567"><ele>821.0</ele><time>2026-04-01T12:25:46.218Z</time></trkpt><trkpt lat="42.7962583" lon="11.6605333"><ele>821.0</ele><time>2026-04-01T12:25:47.218Z</time></trkpt><trkpt lat="42.7962917" lon="11.6604117"><ele>821.0</ele><time>2026-04-01T12:25:48.219Z</time></trkpt><trkpt lat="42.7963283" lon="11.6602833"><ele>821.0</ele><time>2026-04-01T12:25:49.219Z</time></trkpt><trkpt lat="42.7963633" lon="11.66015"><ele>821.0</ele><time>2026-04-01T12:25:50.218Z</time></trkpt><trkpt lat="42.7963983" lon="11.66001"><ele>821.0</ele><time>2026-04-01T12:25:51.218Z</time></trkpt><trkpt lat="42.7964333" lon="11.6598617"><ele>821.0</ele><time>2026-04-01T12:25:52.219Z</time></trkpt><trkpt lat="42.7964667" lon="11.6597133"><ele>821.0</ele><time>2026-04-01T12:25:53.219Z</time></trkpt><trkpt lat="42.7964933" lon="11.6595767"><ele>821.0</ele><time>2026-04-01T12:25:54.219Z</time></trkpt><trkpt lat="42.7965233" lon="11.6594567"><ele>821.0</ele><time>2026-04-01T12:25:55.219Z</time></trkpt><trkpt lat="42.796555" lon="11.659355"><ele>821.0</ele><time>2026-04-01T12:25:56.219Z</time></trkpt><trkpt lat="42.7965833" lon="11.65926"><ele>821.0</ele><time>2026-04-01T12:25:57.218Z</time></trkpt><trkpt lat="42.7966117" lon="11.6591717"><ele>821.0</ele><time>2026-04-01T12:25:58.219Z</time></trkpt><trkpt lat="42.7966317" lon="11.6590167"><ele>821.0</ele><time>2026-04-01T12:26:00.219Z</time></trkpt><trkpt lat="42.7966233" lon="11.658915"><ele>821.0</ele><time>2026-04-01T12:26:02.219Z</time></trkpt><trkpt lat="42.7965633" lon="11.6588617"><ele>821.0</ele><time>2026-04-01T12:26:05.219Z</time></trkpt><trkpt lat="42.7964733" lon="11.658755"><ele>821.0</ele><time>2026-04-01T12:26:19.219Z</time></trkpt><trkpt lat="42.7963933" lon="11.6587767"><ele>821.0</ele><time>2026-04-01T12:26:21.218Z</time></trkpt><trkpt lat="42.7962583" lon="11.6588317"><ele>821.0</ele><time>2026-04-01T12:26:23.218Z</time></trkpt><trkpt lat="42.796165" lon="11.65887"><ele>821.0</ele><time>2026-04-01T12:26:24.219Z</time></trkpt><trkpt lat="42.796055" lon="11.6589133"><ele>821.0</ele><time>2026-04-01T12:26:25.218Z</time></trkpt><trkpt lat="42.7959517" lon="11.658965"><ele>818.5000000000001</ele><time>2026-04-01T12:26:26.218Z</time></trkpt><trkpt lat="42.7958583" lon="11.6590133"><ele>816.0</ele><time>2026-04-01T12:26:27.219Z</time></trkpt><trkpt lat="42.7957717" lon="11.6590517"><ele>813.5</ele><time>2026-04-01T12:26:28.219Z</time></trkpt><trkpt lat="42.7956917" lon="11.6590883"><ele>811.0</ele><time>2026-04-01T12:26:29.219Z</time></trkpt><trkpt lat="42.7956167" lon="11.6591267"><ele>808.5000000000001</ele><time>2026-04-01T12:26:30.218Z</time></trkpt><trkpt lat="42.7955317" lon="11.6591633"><ele>806.0</ele><time>2026-04-01T12:26:31.218Z</time></trkpt><trkpt lat="42.7954383" lon="11.65921"><ele>806.0</ele><time>2026-04-01T12:26:32.218Z</time></trkpt><trkpt lat="42.7953483" lon="11.6592567"><ele>806.0</ele><time>2026-04-01T12:26:33.219Z</time></trkpt><trkpt lat="42.7952667" lon="11.6593033"><ele>806.0</ele><time>2026-04-01T12:26:34.219Z</time></trkpt><trkpt lat="42.7951833" lon="11.65935"><ele>806.0</ele><time>2026-04-01T12:26:35.218Z</time></trkpt><trkpt lat="42.7950967" lon="11.6593933"><ele>806.0</ele><time>2026-04-01T12:26:36.219Z</time></trkpt><trkpt lat="42.7950067" lon="11.6594417"><ele>804.1999999999999</ele><time>2026-04-01T12:26:37.219Z</time></trkpt><trkpt lat="42.794915" lon="11.6594967"><ele>802.4</ele><time>2026-04-01T12:26:38.219Z</time></trkpt><trkpt lat="42.7948267" lon="11.6595483"><ele>800.6</ele><time>2026-04-01T12:26:39.219Z</time></trkpt><trkpt lat="42.7947383" lon="11.6596017"><ele>798.8</ele><time>2026-04-01T12:26:40.219Z</time></trkpt><trkpt lat="42.7946467" lon="11.6596467"><ele>797.0</ele><time>2026-04-01T12:26:41.219Z</time></trkpt><trkpt lat="42.794555" lon="11.6596917"><ele>797.0</ele><time>2026-04-01T12:26:42.218Z</time></trkpt><trkpt lat="42.79446" lon="11.6597283"><ele>797.0</ele><time>2026-04-01T12:26:43.219Z</time></trkpt><trkpt lat="42.7943667" lon="11.6597567"><ele>797.0</ele><time>2026-04-01T12:26:44.219Z</time></trkpt><trkpt lat="42.7942733" lon="11.6597767"><ele>797.0</ele><time>2026-04-01T12:26:45.219Z</time></trkpt><trkpt lat="42.7941833" lon="11.6597867"><ele>797.0</ele><time>2026-04-01T12:26:46.219Z</time></trkpt><trkpt lat="42.7940933" lon="11.6597917"><ele>794.6</ele><time>2026-04-01T12:26:47.219Z</time></trkpt><trkpt lat="42.794005" lon="11.6597917"><ele>792.2</ele><time>2026-04-01T12:26:48.218Z</time></trkpt><trkpt lat="42.79391" lon="11.659785"><ele>789.8</ele><time>2026-04-01T12:26:49.219Z</time></trkpt><trkpt lat="42.7938017" lon="11.6597683"><ele>787.4</ele><time>2026-04-01T12:26:50.219Z</time></trkpt><trkpt lat="42.7937067" lon="11.6597567"><ele>785.0</ele><time>2026-04-01T12:26:51.219Z</time></trkpt><trkpt lat="42.7936183" lon="11.6597517"><ele>785.0000000000001</ele><time>2026-04-01T12:26:52.218Z</time></trkpt><trkpt lat="42.7935233" lon="11.6597383"><ele>785.0</ele><time>2026-04-01T12:26:53.218Z</time></trkpt><trkpt lat="42.7934383" lon="11.6597283"><ele>785.0</ele><time>2026-04-01T12:26:54.219Z</time></trkpt><trkpt lat="42.79335" lon="11.659715"><ele>785.0</ele><time>2026-04-01T12:26:55.218Z</time></trkpt><trkpt lat="42.7932683" lon="11.6597017"><ele>785.0000000000001</ele><time>2026-04-01T12:26:56.219Z</time></trkpt><trkpt lat="42.793195" lon="11.659685"><ele>785.0</ele><time>2026-04-01T12:26:57.219Z</time></trkpt><trkpt lat="42.7931317" lon="11.6596667"><ele>783.6666666666667</ele><time>2026-04-01T12:26:58.219Z</time></trkpt><trkpt lat="42.79306" lon="11.659635"><ele>782.3333333333334</ele><time>2026-04-01T12:26:59.219Z</time></trkpt><trkpt lat="42.7929867" lon="11.6595917"><ele>781.0</ele><time>2026-04-01T12:27:00.218Z</time></trkpt><trkpt lat="42.7929133" lon="11.65953"><ele>779.6666666666667</ele><time>2026-04-01T12:27:01.219Z</time></trkpt><trkpt lat="42.7928467" lon="11.6594567"><ele>778.3333333333334</ele><time>2026-04-01T12:27:02.219Z</time></trkpt><trkpt lat="42.79278" lon="11.6593717"><ele>777.0</ele><time>2026-04-01T12:27:03.219Z</time></trkpt><trkpt lat="42.7927267" lon="11.6592833"><ele>777.0</ele><time>2026-04-01T12:27:04.218Z</time></trkpt><trkpt lat="42.7926983" lon="11.6591717"><ele>777.0</ele><time>2026-04-01T12:27:05.218Z</time></trkpt><trkpt lat="42.7926983" lon="11.6590533"><ele>777.0</ele><time>2026-04-01T12:27:06.219Z</time></trkpt><trkpt lat="42.7927267" lon="11.65892"><ele>777.0</ele><time>2026-04-01T12:27:07.219Z</time></trkpt><trkpt lat="42.792775" lon="11.6587733"><ele>777.0</ele><time>2026-04-01T12:27:08.219Z</time></trkpt><trkpt lat="42.7928217" lon="11.6586483"><ele>775.8</ele><time>2026-04-01T12:27:09.219Z</time></trkpt><trkpt lat="42.7928517" lon="11.6585283"><ele>774.6</ele><time>2026-04-01T12:27:10.218Z</time></trkpt><trkpt lat="42.79287" lon="11.6584167"><ele>773.4</ele><time>2026-04-01T12:27:11.218Z</time></trkpt><trkpt lat="42.7928617" lon="11.65828"><ele>772.1999999999999</ele><time>2026-04-01T12:27:12.219Z</time></trkpt><trkpt lat="42.79283" lon="11.65815"><ele>771.0</ele><time>2026-04-01T12:27:13.219Z</time></trkpt><trkpt lat="42.792775" lon="11.6580333"><ele>771.0</ele><time>2026-04-01T12:27:14.219Z</time></trkpt><trkpt lat="42.792685" lon="11.6579317"><ele>771.0</ele><time>2026-04-01T12:27:15.219Z</time></trkpt><trkpt lat="42.792595" lon="11.6578383"><ele>771.0</ele><time>2026-04-01T12:27:16.219Z</time></trkpt><trkpt lat="42.79248" lon="11.6577567"><ele>771.0</ele><time>2026-04-01T12:27:17.219Z</time></trkpt><trkpt lat="42.7923583" lon="11.6576883"><ele>771.75</ele><time>2026-04-01T12:27:18.219Z</time></trkpt><trkpt lat="42.7922417" lon="11.6576367"><ele>772.5</ele><time>2026-04-01T12:27:19.219Z</time></trkpt><trkpt lat="42.7921317" lon="11.6576067"><ele>773.25</ele><time>2026-04-01T12:27:20.219Z</time></trkpt><trkpt lat="42.7920183" lon="11.6575983"><ele>774.0</ele><time>2026-04-01T12:27:21.219Z</time></trkpt><trkpt lat="42.7918983" lon="11.6575883"><ele>772.25</ele><time>2026-04-01T12:27:22.22Z</time></trkpt><trkpt lat="42.79177" lon="11.6575933"><ele>770.5</ele><time>2026-04-01T12:27:23.219Z</time></trkpt><trkpt lat="42.7916483" lon="11.6576083"><ele>768.75</ele><time>2026-04-01T12:27:24.22Z</time></trkpt><trkpt lat="42.7915417" lon="11.65764"><ele>767.0</ele><time>2026-04-01T12:27:25.22Z</time></trkpt><trkpt lat="42.7914217" lon="11.6576633"><ele>767.0</ele><time>2026-04-01T12:27:26.22Z</time></trkpt><trkpt lat="42.7913167" lon="11.657685"><ele>767.0</ele><time>2026-04-01T12:27:27.22Z</time></trkpt><trkpt lat="42.791215" lon="11.65769"><ele>767.0</ele><time>2026-04-01T12:27:28.219Z</time></trkpt><trkpt lat="42.7911283" lon="11.6576733"><ele>767.0</ele><time>2026-04-01T12:27:29.22Z</time></trkpt><trkpt lat="42.7910333" lon="11.65764"><ele>767.0</ele><time>2026-04-01T12:27:30.22Z</time></trkpt><trkpt lat="42.7909433" lon="11.657615"><ele>765.4000000000001</ele><time>2026-04-01T12:27:31.219Z</time></trkpt><trkpt lat="42.79086" lon="11.657605"><ele>763.8000000000001</ele><time>2026-04-01T12:27:32.22Z</time></trkpt><trkpt lat="42.7907667" lon="11.6576117"><ele>762.2</ele><time>2026-04-01T12:27:33.22Z</time></trkpt><trkpt lat="42.7906733" lon="11.65761"><ele>760.6</ele><time>2026-04-01T12:27:34.22Z</time></trkpt><trkpt lat="42.7905717" lon="11.657605"><ele>759.0</ele><time>2026-04-01T12:27:35.219Z</time></trkpt><trkpt lat="42.7904783" lon="11.6575883"><ele>759.0</ele><time>2026-04-01T12:27:36.22Z</time></trkpt><trkpt lat="42.7903867" lon="11.6575533"><ele>759.0</ele><time>2026-04-01T12:27:37.22Z</time></trkpt><trkpt lat="42.7903017" lon="11.6575"><ele>759.0</ele><time>2026-04-01T12:27:38.22Z</time></trkpt><trkpt lat="42.790215" lon="11.657425"><ele>759.0</ele><time>2026-04-01T12:27:39.22Z</time></trkpt><trkpt lat="42.79012" lon="11.6573333"><ele>759.0</ele><time>2026-04-01T12:27:40.219Z</time></trkpt><trkpt lat="42.7900217" lon="11.6572383"><ele>756.2</ele><time>2026-04-01T12:27:41.22Z</time></trkpt><trkpt lat="42.7899317" lon="11.657145"><ele>753.4000000000001</ele><time>2026-04-01T12:27:42.219Z</time></trkpt><trkpt lat="42.7898317" lon="11.6570517"><ele>750.6</ele><time>2026-04-01T12:27:43.22Z</time></trkpt><trkpt lat="42.789735" lon="11.6570017"><ele>747.8</ele><time>2026-04-01T12:27:44.22Z</time></trkpt><trkpt lat="42.78964" lon="11.6569733"><ele>745.0</ele><time>2026-04-01T12:27:45.22Z</time></trkpt><trkpt lat="42.78956" lon="11.656975"><ele>745.0</ele><time>2026-04-01T12:27:46.219Z</time></trkpt><trkpt lat="42.789465" lon="11.6569983"><ele>745.0</ele><time>2026-04-01T12:27:47.22Z</time></trkpt><trkpt lat="42.789385" lon="11.65704"><ele>745.0</ele><time>2026-04-01T12:27:48.22Z</time></trkpt><trkpt lat="42.78932" lon="11.657115"><ele>745.0</ele><time>2026-04-01T12:27:49.219Z</time></trkpt><trkpt lat="42.789275" lon="11.657225"><ele>745.0</ele><time>2026-04-01T12:27:50.219Z</time></trkpt><trkpt lat="42.7892633" lon="11.6573383"><ele>745.0</ele><time>2026-04-01T12:27:51.22Z</time></trkpt><trkpt lat="42.7892617" lon="11.6574483"><ele>743.2</ele><time>2026-04-01T12:27:52.22Z</time></trkpt><trkpt lat="42.7893033" lon="11.6575733"><ele>741.4</ele><time>2026-04-01T12:27:53.22Z</time></trkpt><trkpt lat="42.789335" lon="11.6576917"><ele>739.5999999999999</ele><time>2026-04-01T12:27:54.22Z</time></trkpt><trkpt lat="42.7893517" lon="11.6578083"><ele>737.8</ele><time>2026-04-01T12:27:55.22Z</time></trkpt><trkpt lat="42.7893683" lon="11.6579333"><ele>736.0</ele><time>2026-04-01T12:27:56.22Z</time></trkpt><trkpt lat="42.78939" lon="11.65806"><ele>735.1666666666667</ele><time>2026-04-01T12:27:57.22Z</time></trkpt><trkpt lat="42.7894033" lon="11.6581783"><ele>734.3333333333334</ele><time>2026-04-01T12:27:58.219Z</time></trkpt><trkpt lat="42.7894133" lon="11.6582817"><ele>733.5</ele><time>2026-04-01T12:27:59.219Z</time></trkpt><trkpt lat="42.7893967" lon="11.6583833"><ele>732.6666666666666</ele><time>2026-04-01T12:28:00.22Z</time></trkpt><trkpt lat="42.789355" lon="11.6584833"><ele>731.8333333333333</ele><time>2026-04-01T12:28:01.22Z</time></trkpt><trkpt lat="42.7892933" lon="11.6585733"><ele>731.0</ele><time>2026-04-01T12:28:02.22Z</time></trkpt><trkpt lat="42.7892217" lon="11.6586483"><ele>728.0</ele><time>2026-04-01T12:28:03.22Z</time></trkpt><trkpt lat="42.7891367" lon="11.6586967"><ele>725.0</ele><time>2026-04-01T12:28:04.22Z</time></trkpt><trkpt lat="42.7890433" lon="11.658735"><ele>722.0</ele><time>2026-04-01T12:28:05.22Z</time></trkpt><trkpt lat="42.788935" lon="11.6587483"><ele>719.0</ele><time>2026-04-01T12:28:06.219Z</time></trkpt><trkpt lat="42.78883" lon="11.6587533"><ele>716.0</ele><time>2026-04-01T12:28:07.22Z</time></trkpt><trkpt lat="42.7887383" lon="11.6587583"><ele>716.0</ele><time>2026-04-01T12:28:08.22Z</time></trkpt><trkpt lat="42.7886617" lon="11.65876"><ele>716.0</ele><time>2026-04-01T12:28:09.22Z</time></trkpt><trkpt lat="42.7885883" lon="11.6587633"><ele>716.0</ele><time>2026-04-01T12:28:10.219Z</time></trkpt><trkpt lat="42.7885233" lon="11.6587667"><ele>716.0</ele><time>2026-04-01T12:28:11.22Z</time></trkpt><trkpt lat="42.7884333" lon="11.658765"><ele>716.0</ele><time>2026-04-01T12:28:13.219Z</time></trkpt><trkpt lat="42.7883667" lon="11.6586717"><ele>716.0</ele><time>2026-04-01T12:28:16.22Z</time></trkpt><trkpt lat="42.7883467" lon="11.6585617"><ele>716.8333333333333</ele><time>2026-04-01T12:28:18.219Z</time></trkpt><trkpt lat="42.7883583" lon="11.6584767"><ele>717.6666666666666</ele><time>2026-04-01T12:28:20.219Z</time></trkpt><trkpt lat="42.78837" lon="11.6583367"><ele>718.5</ele><time>2026-04-01T12:28:34.22Z</time></trkpt><trkpt lat="42.7883683" lon="11.6582433"><ele>719.3333333333334</ele><time>2026-04-01T12:28:35.22Z</time></trkpt><trkpt lat="42.788355" lon="11.658125"><ele>720.1666666666667</ele><time>2026-04-01T12:28:36.22Z</time></trkpt><trkpt lat="42.78835" lon="11.6579867"><ele>721.0</ele><time>2026-04-01T12:28:37.219Z</time></trkpt><trkpt lat="42.78835" lon="11.657835"><ele>723.0</ele><time>2026-04-01T12:28:38.219Z</time></trkpt><trkpt lat="42.788345" lon="11.657665"><ele>725.0</ele><time>2026-04-01T12:28:39.219Z</time></trkpt><trkpt lat="42.7883433" lon="11.6574683"><ele>727.0</ele><time>2026-04-01T12:28:40.22Z</time></trkpt><trkpt lat="42.788345" lon="11.6572883"><ele>729.0</ele><time>2026-04-01T12:28:41.22Z</time></trkpt><trkpt lat="42.7883533" lon="11.6571117"><ele>729.0</ele><time>2026-04-01T12:28:42.219Z</time></trkpt><trkpt lat="42.788365" lon="11.6569583"><ele>729.0</ele><time>2026-04-01T12:28:43.22Z</time></trkpt><trkpt lat="42.7884083" lon="11.6568067"><ele>729.0</ele><time>2026-04-01T12:28:44.22Z</time></trkpt><trkpt lat="42.7884567" lon="11.65666"><ele>729.0</ele><time>2026-04-01T12:28:45.219Z</time></trkpt><trkpt lat="42.7884933" lon="11.656525"><ele>730.5</ele><time>2026-04-01T12:28:46.22Z</time></trkpt><trkpt lat="42.7885133" lon="11.656395"><ele>732.0</ele><time>2026-04-01T12:28:47.22Z</time></trkpt><trkpt lat="42.7885167" lon="11.6562583"><ele>733.5</ele><time>2026-04-01T12:28:48.22Z</time></trkpt><trkpt lat="42.788505" lon="11.6561433"><ele>735.0</ele><time>2026-04-01T12:28:49.22Z</time></trkpt><trkpt lat="42.7884867" lon="11.6560267"><ele>736.5</ele><time>2026-04-01T12:28:50.22Z</time></trkpt><trkpt lat="42.7884433" lon="11.6559433"><ele>738.0</ele><time>2026-04-01T12:28:51.219Z</time></trkpt><trkpt lat="42.78838" lon="11.6558533"><ele>739.8</ele><time>2026-04-01T12:28:52.22Z</time></trkpt><trkpt lat="42.7883117" lon="11.6558117"><ele>741.5999999999999</ele><time>2026-04-01T12:28:53.22Z</time></trkpt><trkpt lat="42.7882317" lon="11.65573"><ele>743.4000000000001</ele><time>2026-04-01T12:28:54.219Z</time></trkpt><trkpt lat="42.788165" lon="11.6556517"><ele>745.2</ele><time>2026-04-01T12:28:55.22Z</time></trkpt><trkpt lat="42.7881033" lon="11.65556"><ele>747.0</ele><time>2026-04-01T12:28:56.219Z</time></trkpt><trkpt lat="42.7880433" lon="11.655445"><ele>747.0</ele><time>2026-04-01T12:28:57.219Z</time></trkpt><trkpt lat="42.7879817" lon="11.6553083"><ele>747.0</ele><time>2026-04-01T12:28:58.22Z</time></trkpt><trkpt lat="42.78792" lon="11.655155"><ele>747.0</ele><time>2026-04-01T12:28:59.219Z</time></trkpt><trkpt lat="42.7878733" lon="11.65501"><ele>747.0</ele><time>2026-04-01T12:29:00.219Z</time></trkpt><trkpt lat="42.7878233" lon="11.6548517"><ele>749.5</ele><time>2026-04-01T12:29:01.219Z</time></trkpt><trkpt lat="42.7877733" lon="11.6546633"><ele>752.0</ele><time>2026-04-01T12:29:02.22Z</time></trkpt><trkpt lat="42.78773" lon="11.6544683"><ele>754.5</ele><time>2026-04-01T12:29:03.219Z</time></trkpt><trkpt lat="42.7876933" lon="11.6542817"><ele>757.0</ele><time>2026-04-01T12:29:04.22Z</time></trkpt><trkpt lat="42.78766" lon="11.6540933"><ele>757.0</ele><time>2026-04-01T12:29:05.22Z</time></trkpt><trkpt lat="42.78763" lon="11.65391"><ele>757.0</ele><time>2026-04-01T12:29:06.219Z</time></trkpt><trkpt lat="42.787605" lon="11.6537283"><ele>757.0</ele><time>2026-04-01T12:29:07.22Z</time></trkpt><trkpt lat="42.7875833" lon="11.6535483"><ele>757.0</ele><time>2026-04-01T12:29:08.22Z</time></trkpt><trkpt lat="42.7875667" lon="11.6533783"><ele>758.0</ele><time>2026-04-01T12:29:09.22Z</time></trkpt><trkpt lat="42.7875567" lon="11.6532183"><ele>759.0</ele><time>2026-04-01T12:29:10.219Z</time></trkpt><trkpt lat="42.787565" lon="11.6530733"><ele>760.0</ele><time>2026-04-01T12:29:11.219Z</time></trkpt><trkpt lat="42.7875867" lon="11.6529367"><ele>761.0</ele><time>2026-04-01T12:29:12.219Z</time></trkpt><trkpt lat="42.787615" lon="11.6527983"><ele>762.0</ele><time>2026-04-01T12:29:13.22Z</time></trkpt><trkpt lat="42.7876433" lon="11.6526617"><ele>762.4000000000001</ele><time>2026-04-01T12:29:14.22Z</time></trkpt><trkpt lat="42.7876583" lon="11.6525117"><ele>762.8000000000001</ele><time>2026-04-01T12:29:15.22Z</time></trkpt><trkpt lat="42.7876633" lon="11.65236"><ele>763.2</ele><time>2026-04-01T12:29:16.22Z</time></trkpt><trkpt lat="42.7876717" lon="11.652205"><ele>763.6</ele><time>2026-04-01T12:29:17.219Z</time></trkpt><trkpt lat="42.787685" lon="11.6520583"><ele>764.0</ele><time>2026-04-01T12:29:18.219Z</time></trkpt><trkpt lat="42.787695" lon="11.6518967"><ele>767.25</ele><time>2026-04-01T12:29:19.219Z</time></trkpt><trkpt lat="42.7877067" lon="11.6517233"><ele>770.5</ele><time>2026-04-01T12:29:20.22Z</time></trkpt><trkpt lat="42.7877167" lon="11.6515533"><ele>773.75</ele><time>2026-04-01T12:29:21.22Z</time></trkpt><trkpt lat="42.78772" lon="11.6514"><ele>777.0</ele><time>2026-04-01T12:29:22.22Z</time></trkpt><trkpt lat="42.7877117" lon="11.6512467"><ele>776.2</ele><time>2026-04-01T12:29:23.22Z</time></trkpt><trkpt lat="42.787675" lon="11.6511183"><ele>775.4000000000001</ele><time>2026-04-01T12:29:24.22Z</time></trkpt><trkpt lat="42.787615" lon="11.6509983"><ele>774.5999999999999</ele><time>2026-04-01T12:29:25.219Z</time></trkpt><trkpt lat="42.7875333" lon="11.6509"><ele>773.8</ele><time>2026-04-01T12:29:26.22Z</time></trkpt><trkpt lat="42.787435" lon="11.6508267"><ele>773.0</ele><time>2026-04-01T12:29:27.22Z</time></trkpt><trkpt lat="42.787335" lon="11.6507567"><ele>773.0</ele><time>2026-04-01T12:29:28.22Z</time></trkpt><trkpt lat="42.7872383" lon="11.6506917"><ele>773.0</ele><time>2026-04-01T12:29:29.22Z</time></trkpt><trkpt lat="42.7871483" lon="11.6506217"><ele>773.0</ele><time>2026-04-01T12:29:30.219Z</time></trkpt><trkpt lat="42.78706" lon="11.6505267"><ele>773.0</ele><time>2026-04-01T12:29:31.22Z</time></trkpt><trkpt lat="42.78697" lon="11.6504117"><ele>773.0</ele><time>2026-04-01T12:29:32.22Z</time></trkpt><trkpt lat="42.7868883" lon="11.6502817"><ele>774.75</ele><time>2026-04-01T12:29:33.22Z</time></trkpt><trkpt lat="42.7868017" lon="11.6501367"><ele>776.5</ele><time>2026-04-01T12:29:34.22Z</time></trkpt><trkpt lat="42.7867067" lon="11.649985"><ele>778.25</ele><time>2026-04-01T12:29:35.22Z</time></trkpt><trkpt lat="42.78661" lon="11.64983"><ele>780.0</ele><time>2026-04-01T12:29:36.219Z</time></trkpt><trkpt lat="42.7865033" lon="11.6496817"><ele>780.0</ele><time>2026-04-01T12:29:37.22Z</time></trkpt><trkpt lat="42.7863833" lon="11.6495317"><ele>780.0</ele><time>2026-04-01T12:29:38.22Z</time></trkpt><trkpt lat="42.7862683" lon="11.6493933"><ele>780.0</ele><time>2026-04-01T12:29:39.22Z</time></trkpt><trkpt lat="42.7861517" lon="11.6492367"><ele>781.0</ele><time>2026-04-01T12:29:40.219Z</time></trkpt><trkpt lat="42.7860533" lon="11.649105"><ele>782.0</ele><time>2026-04-01T12:29:41.219Z</time></trkpt><trkpt lat="42.7859417" lon="11.6489833"><ele>783.0</ele><time>2026-04-01T12:29:42.22Z</time></trkpt><trkpt lat="42.7858433" lon="11.64888"><ele>784.0</ele><time>2026-04-01T12:29:43.22Z</time></trkpt><trkpt lat="42.7857333" lon="11.64878"><ele>784.0</ele><time>2026-04-01T12:29:44.22Z</time></trkpt><trkpt lat="42.7856267" lon="11.6487083"><ele>784.0</ele><time>2026-04-01T12:29:45.219Z</time></trkpt><trkpt lat="42.7855117" lon="11.6486417"><ele>784.0</ele><time>2026-04-01T12:29:46.22Z</time></trkpt><trkpt lat="42.7853933" lon="11.64857"><ele>784.0</ele><time>2026-04-01T12:29:47.22Z</time></trkpt><trkpt lat="42.7852833" lon="11.648495"><ele>786.0</ele><time>2026-04-01T12:29:48.22Z</time></trkpt><trkpt lat="42.7851733" lon="11.64841"><ele>788.0</ele><time>2026-04-01T12:29:49.22Z</time></trkpt><trkpt lat="42.7850667" lon="11.64831"><ele>790.0</ele><time>2026-04-01T12:29:50.22Z</time></trkpt><trkpt lat="42.784965" lon="11.6482017"><ele>792.0</ele><time>2026-04-01T12:29:51.22Z</time></trkpt><trkpt lat="42.7848633" lon="11.6480833"><ele>792.0</ele><time>2026-04-01T12:29:52.219Z</time></trkpt><trkpt lat="42.7847883" lon="11.64796"><ele>792.0</ele><time>2026-04-01T12:29:53.22Z</time></trkpt><trkpt lat="42.784725" lon="11.6478267"><ele>792.0</ele><time>2026-04-01T12:29:54.219Z</time></trkpt><trkpt lat="42.7846767" lon="11.647685"><ele>792.0</ele><time>2026-04-01T12:29:55.22Z</time></trkpt><trkpt lat="42.7846317" lon="11.64756"><ele>794.4000000000001</ele><time>2026-04-01T12:29:56.219Z</time></trkpt><trkpt lat="42.7845633" lon="11.6474333"><ele>796.8000000000001</ele><time>2026-04-01T12:29:57.22Z</time></trkpt><trkpt lat="42.78448" lon="11.6473267"><ele>799.2</ele><time>2026-04-01T12:29:58.22Z</time></trkpt><trkpt lat="42.7843867" lon="11.6472517"><ele>801.6</ele><time>2026-04-01T12:29:59.22Z</time></trkpt><trkpt lat="42.7842917" lon="11.6471983"><ele>804.0</ele><time>2026-04-01T12:30:00.22Z</time></trkpt><trkpt lat="42.7841867" lon="11.6471683"><ele>804.0</ele><time>2026-04-01T12:30:01.22Z</time></trkpt><trkpt lat="42.7840817" lon="11.6471817"><ele>804.0</ele><time>2026-04-01T12:30:02.22Z</time></trkpt><trkpt lat="42.7839867" lon="11.6472217"><ele>804.0</ele><time>2026-04-01T12:30:03.22Z</time></trkpt><trkpt lat="42.783885" lon="11.6472767"><ele>804.0</ele><time>2026-04-01T12:30:04.22Z</time></trkpt><trkpt lat="42.7837967" lon="11.6473333"><ele>804.0</ele><time>2026-04-01T12:30:05.22Z</time></trkpt><trkpt lat="42.783735" lon="11.6473633"><ele>804.0</ele><time>2026-04-01T12:30:06.219Z</time></trkpt><trkpt lat="42.7836517" lon="11.6474"><ele>804.0</ele><time>2026-04-01T12:30:08.219Z</time></trkpt><trkpt lat="42.7836567" lon="11.6473067"><ele>804.0</ele><time>2026-04-01T12:30:40.219Z</time></trkpt><trkpt lat="42.7837267" lon="11.6471617"><ele>804.0</ele><time>2026-04-01T12:30:42.219Z</time></trkpt><trkpt lat="42.7837883" lon="11.64707"><ele>804.0</ele><time>2026-04-01T12:30:44.22Z</time></trkpt><trkpt lat="42.783805" lon="11.6469733"><ele>804.0</ele><time>2026-04-01T12:30:46.219Z</time></trkpt><trkpt lat="42.7837583" lon="11.6468583"><ele>803.8000000000001</ele><time>2026-04-01T12:30:48.219Z</time></trkpt><trkpt lat="42.7836433" lon="11.64676"><ele>803.6</ele><time>2026-04-01T12:30:50.22Z</time></trkpt><trkpt lat="42.783565" lon="11.64671"><ele>803.4</ele><time>2026-04-01T12:30:51.219Z</time></trkpt><trkpt lat="42.7834783" lon="11.6466717"><ele>803.2</ele><time>2026-04-01T12:30:52.219Z</time></trkpt><trkpt lat="42.783375" lon="11.646645"><ele>803.0</ele><time>2026-04-01T12:30:53.22Z</time></trkpt><trkpt lat="42.7832783" lon="11.646635"><ele>802.5000000000001</ele><time>2026-04-01T12:30:54.22Z</time></trkpt><trkpt lat="42.7831933" lon="11.64664"><ele>802.0</ele><time>2026-04-01T12:30:55.22Z</time></trkpt><trkpt lat="42.783115" lon="11.6466417"><ele>801.5</ele><time>2026-04-01T12:30:56.219Z</time></trkpt><trkpt lat="42.7830383" lon="11.646645"><ele>801.0</ele><time>2026-04-01T12:30:57.22Z</time></trkpt><trkpt lat="42.7829083" lon="11.6466567"><ele>800.5000000000001</ele><time>2026-04-01T12:30:59.219Z</time></trkpt><trkpt lat="42.782835" lon="11.6466567"><ele>800.0</ele><time>2026-04-01T12:31:00.22Z</time></trkpt><trkpt lat="42.78276" lon="11.6466583"><ele>800.0000000000001</ele><time>2026-04-01T12:31:01.22Z</time></trkpt><trkpt lat="42.7826833" lon="11.64666"><ele>800.0</ele><time>2026-04-01T12:31:03.22Z</time></trkpt><trkpt lat="42.7827317" lon="11.6467233"><ele>800.0</ele><time>2026-04-01T12:31:08.22Z</time></trkpt><trkpt lat="42.782795" lon="11.6467233"><ele>800.0</ele><time>2026-04-01T12:31:09.22Z</time></trkpt><trkpt lat="42.782875" lon="11.6467067"><ele>800.0000000000001</ele><time>2026-04-01T12:31:10.22Z</time></trkpt><trkpt lat="42.7829583" lon="11.6467"><ele>800.0</ele><time>2026-04-01T12:31:11.219Z</time></trkpt><trkpt lat="42.783045" lon="11.6466883"><ele>800.0</ele><time>2026-04-01T12:31:12.22Z</time></trkpt><trkpt lat="42.78314" lon="11.6466767"><ele>800.0</ele><time>2026-04-01T12:31:13.219Z</time></trkpt><trkpt lat="42.7832333" lon="11.6466667"><ele>800.0</ele><time>2026-04-01T12:31:14.22Z</time></trkpt><trkpt lat="42.7833233" lon="11.6466733"><ele>800.0</ele><time>2026-04-01T12:31:15.219Z</time></trkpt><trkpt lat="42.783415" lon="11.646705"><ele>800.0</ele><time>2026-04-01T12:31:16.22Z</time></trkpt><trkpt lat="42.7834967" lon="11.64676"><ele>800.4285714285714</ele><time>2026-04-01T12:31:17.22Z</time></trkpt><trkpt lat="42.7835483" lon="11.6468367"><ele>800.8571428571429</ele><time>2026-04-01T12:31:18.22Z</time></trkpt><trkpt lat="42.7836017" lon="11.64692"><ele>801.2857142857142</ele><time>2026-04-01T12:31:19.219Z</time></trkpt><trkpt lat="42.783635" lon="11.64701"><ele>801.7142857142858</ele><time>2026-04-01T12:31:20.22Z</time></trkpt><trkpt lat="42.7836417" lon="11.6471083"><ele>802.1428571428571</ele><time>2026-04-01T12:31:21.22Z</time></trkpt><trkpt lat="42.7836317" lon="11.6472"><ele>802.5714285714286</ele><time>2026-04-01T12:31:22.219Z</time></trkpt><trkpt lat="42.78359" lon="11.6472833"><ele>803.0</ele><time>2026-04-01T12:31:23.22Z</time></trkpt><trkpt lat="42.7835317" lon="11.64737"><ele>803.8333333333334</ele><time>2026-04-01T12:31:24.22Z</time></trkpt><trkpt lat="42.783465" lon="11.6474483"><ele>804.6666666666667</ele><time>2026-04-01T12:31:25.22Z</time></trkpt><trkpt lat="42.7833917" lon="11.6475133"><ele>805.5</ele><time>2026-04-01T12:31:26.22Z</time></trkpt><trkpt lat="42.7833267" lon="11.6475483"><ele>806.3333333333333</ele><time>2026-04-01T12:31:27.219Z</time></trkpt><trkpt lat="42.78327" lon="11.64751"><ele>807.1666666666666</ele><time>2026-04-01T12:31:41.219Z</time></trkpt><trkpt lat="42.7831783" lon="11.64748"><ele>808.0</ele><time>2026-04-01T12:31:43.219Z</time></trkpt><trkpt lat="42.78311" lon="11.64746"><ele>807.9999999999999</ele><time>2026-04-01T12:31:44.22Z</time></trkpt><trkpt lat="42.7830417" lon="11.6474467"><ele>808.0</ele><time>2026-04-01T12:31:45.22Z</time></trkpt><trkpt lat="42.7829783" lon="11.647425"><ele>808.0</ele><time>2026-04-01T12:31:46.22Z</time></trkpt><trkpt lat="42.782885" lon="11.647385"><ele>808.0</ele><time>2026-04-01T12:31:48.219Z</time></trkpt><trkpt lat="42.7828117" lon="11.6473767"><ele>807.9999999999999</ele><time>2026-04-01T12:31:50.22Z</time></trkpt><trkpt lat="42.7827367" lon="11.6474017"><ele>808.0</ele><time>2026-04-01T12:31:52.22Z</time></trkpt><trkpt lat="42.78264" lon="11.6474267"><ele>808.8</ele><time>2026-04-01T12:31:54.219Z</time></trkpt><trkpt lat="42.782545" lon="11.6474833"><ele>809.5999999999999</ele><time>2026-04-01T12:31:56.22Z</time></trkpt><trkpt lat="42.7824667" lon="11.64758"><ele>810.4000000000001</ele><time>2026-04-01T12:31:58.22Z</time></trkpt><trkpt lat="42.7823883" lon="11.6476867"><ele>811.2</ele><time>2026-04-01T12:32:00.22Z</time></trkpt><trkpt lat="42.7822967" lon="11.6477783"><ele>812.0</ele><time>2026-04-01T12:32:02.22Z</time></trkpt><trkpt lat="42.7822417" lon="11.6478217"><ele>812.3333333333334</ele><time>2026-04-01T12:32:03.219Z</time></trkpt><trkpt lat="42.78218" lon="11.6478533"><ele>812.6666666666667</ele><time>2026-04-01T12:32:04.219Z</time></trkpt><trkpt lat="42.7821133" lon="11.6479"><ele>813.0</ele><time>2026-04-01T12:32:05.22Z</time></trkpt><trkpt lat="42.782055" lon="11.64794"><ele>813.3333333333333</ele><time>2026-04-01T12:32:06.22Z</time></trkpt><trkpt lat="42.7819983" lon="11.6479783"><ele>813.6666666666666</ele><time>2026-04-01T12:32:07.22Z</time></trkpt><trkpt lat="42.781865" lon="11.6480133"><ele>814.0</ele><time>2026-04-01T12:32:09.22Z</time></trkpt><trkpt lat="42.7817967" lon="11.6480333"><ele>815.8000000000001</ele><time>2026-04-01T12:32:10.219Z</time></trkpt><trkpt lat="42.7816867" lon="11.6481"><ele>817.6</ele><time>2026-04-01T12:32:12.219Z</time></trkpt><trkpt lat="42.7815733" lon="11.6481833"><ele>819.4</ele><time>2026-04-01T12:32:14.22Z</time></trkpt><trkpt lat="42.781515" lon="11.6482383"><ele>821.2</ele><time>2026-04-01T12:32:15.219Z</time></trkpt><trkpt lat="42.78146" lon="11.6483"><ele>823.0</ele><time>2026-04-01T12:32:16.22Z</time></trkpt><trkpt lat="42.781405" lon="11.6483683"><ele>823.0</ele><time>2026-04-01T12:32:17.22Z</time></trkpt><trkpt lat="42.7813533" lon="11.6484417"><ele>823.0</ele><time>2026-04-01T12:32:18.22Z</time></trkpt><trkpt lat="42.781275" lon="11.64855"><ele>823.0</ele><time>2026-04-01T12:32:20.219Z</time></trkpt><trkpt lat="42.7811833" lon="11.6486633"><ele>823.0</ele><time>2026-04-01T12:32:22.219Z</time></trkpt><trkpt lat="42.7811217" lon="11.6487333"><ele>823.0</ele><time>2026-04-01T12:32:23.22Z</time></trkpt><trkpt lat="42.781055" lon="11.6488117"><ele>823.1666666666666</ele><time>2026-04-01T12:32:24.22Z</time></trkpt><trkpt lat="42.7809883" lon="11.6488867"><ele>823.3333333333333</ele><time>2026-04-01T12:32:25.22Z</time></trkpt><trkpt lat="42.7809267" lon="11.64897"><ele>823.5</ele><time>2026-04-01T12:32:26.22Z</time></trkpt><trkpt lat="42.78087" lon="11.649035"><ele>823.6666666666667</ele><time>2026-04-01T12:32:27.22Z</time></trkpt><trkpt lat="42.7808033" lon="11.6491233"><ele>823.8333333333334</ele><time>2026-04-01T12:32:28.22Z</time></trkpt><trkpt lat="42.7807517" lon="11.649195"><ele>824.0</ele><time>2026-04-01T12:32:29.22Z</time></trkpt><trkpt lat="42.7806567" lon="11.64933"><ele>824.0000000000001</ele><time>2026-04-01T12:32:31.22Z</time></trkpt><trkpt lat="42.7806067" lon="11.649405"><ele>824.0</ele><time>2026-04-01T12:32:32.219Z</time></trkpt><trkpt lat="42.7805367" lon="11.64951"><ele>824.0</ele><time>2026-04-01T12:32:34.22Z</time></trkpt><trkpt lat="42.780505" lon="11.64961"><ele>824.0</ele><time>2026-04-01T12:32:36.219Z</time></trkpt><trkpt lat="42.7805383" lon="11.6497283"><ele>824.0000000000001</ele><time>2026-04-01T12:32:39.22Z</time></trkpt><trkpt lat="42.78057" lon="11.6498183"><ele>824.0</ele><time>2026-04-01T12:32:41.219Z</time></trkpt><trkpt lat="42.7805867" lon="11.6499233"><ele>824.8333333333334</ele><time>2026-04-01T12:32:43.219Z</time></trkpt><trkpt lat="42.7805817" lon="11.6500167"><ele>825.6666666666667</ele><time>2026-04-01T12:32:45.22Z</time></trkpt><trkpt lat="42.78054" lon="11.6501033"><ele>826.5</ele><time>2026-04-01T12:32:47.22Z</time></trkpt><trkpt lat="42.780485" lon="11.6502433"><ele>827.3333333333333</ele><time>2026-04-01T12:32:49.219Z</time></trkpt><trkpt lat="42.7804533" lon="11.6503483"><ele>828.1666666666666</ele><time>2026-04-01T12:32:50.219Z</time></trkpt><trkpt lat="42.7804483" lon="11.6504633"><ele>829.0</ele><time>2026-04-01T12:32:51.22Z</time></trkpt><trkpt lat="42.7804417" lon="11.6505717"><ele>830.6666666666666</ele><time>2026-04-01T12:32:52.22Z</time></trkpt><trkpt lat="42.780435" lon="11.6506583"><ele>832.3333333333333</ele><time>2026-04-01T12:32:53.22Z</time></trkpt><trkpt lat="42.7804433" lon="11.6507783"><ele>834.0</ele><time>2026-04-01T12:32:55.219Z</time></trkpt><trkpt lat="42.7804883" lon="11.6508817"><ele>835.6666666666667</ele><time>2026-04-01T12:32:57.219Z</time></trkpt><trkpt lat="42.780555" lon="11.65099"><ele>837.3333333333334</ele><time>2026-04-01T12:32:59.22Z</time></trkpt><trkpt lat="42.780605" lon="11.6510833"><ele>839.0</ele><time>2026-04-01T12:33:01.219Z</time></trkpt><trkpt lat="42.78066" lon="11.6511783"><ele>840.6</ele><time>2026-04-01T12:33:03.219Z</time></trkpt><trkpt lat="42.7807233" lon="11.65128"><ele>842.2</ele><time>2026-04-01T12:33:05.219Z</time></trkpt><trkpt lat="42.78078" lon="11.6513817"><ele>843.8000000000001</ele><time>2026-04-01T12:33:07.22Z</time></trkpt><trkpt lat="42.780845" lon="11.6514667"><ele>845.4000000000001</ele><time>2026-04-01T12:33:09.22Z</time></trkpt><trkpt lat="42.7809033" lon="11.6515717"><ele>847.0</ele><time>2026-04-01T12:33:11.22Z</time></trkpt><trkpt lat="42.780935" lon="11.6516683"><ele>846.9999999999999</ele><time>2026-04-01T12:33:13.22Z</time></trkpt><trkpt lat="42.7809067" lon="11.65177"><ele>847.0</ele><time>2026-04-01T12:33:16.22Z</time></trkpt><trkpt lat="42.78084" lon="11.6518283"><ele>847.0</ele><time>2026-04-01T12:33:18.219Z</time></trkpt><trkpt lat="42.7807517" lon="11.651865"><ele>847.0</ele><time>2026-04-01T12:33:20.22Z</time></trkpt><trkpt lat="42.7806733" lon="11.6519067"><ele>846.9999999999999</ele><time>2026-04-01T12:33:22.22Z</time></trkpt><trkpt lat="42.7805817" lon="11.65197"><ele>847.0</ele><time>2026-04-01T12:33:24.22Z</time></trkpt><trkpt lat="42.780515" lon="11.6520417"><ele>846.6666666666666</ele><time>2026-04-01T12:33:26.22Z</time></trkpt><trkpt lat="42.7804467" lon="11.6520983"><ele>846.3333333333333</ele><time>2026-04-01T12:33:28.22Z</time></trkpt><trkpt lat="42.7803783" lon="11.6521467"><ele>846.0</ele><time>2026-04-01T12:33:30.22Z</time></trkpt><trkpt lat="42.7803117" lon="11.6521883"><ele>845.6666666666667</ele><time>2026-04-01T12:33:32.219Z</time></trkpt><trkpt lat="42.78023" lon="11.65224"><ele>845.3333333333334</ele><time>2026-04-01T12:33:34.22Z</time></trkpt><trkpt lat="42.7801433" lon="11.6523117"><ele>845.0</ele><time>2026-04-01T12:33:36.22Z</time></trkpt><trkpt lat="42.7800767" lon="11.6523867"><ele>845.0</ele><time>2026-04-01T12:33:38.22Z</time></trkpt><trkpt lat="42.780015" lon="11.652455"><ele>845.0</ele><time>2026-04-01T12:33:40.219Z</time></trkpt><trkpt lat="42.77994" lon="11.652505"><ele>845.0</ele><time>2026-04-01T12:33:42.22Z</time></trkpt><trkpt lat="42.7798533" lon="11.6525483"><ele>845.0</ele><time>2026-04-01T12:33:44.22Z</time></trkpt><trkpt lat="42.7797817" lon="11.65262"><ele>845.0</ele><time>2026-04-01T12:33:46.219Z</time></trkpt><trkpt lat="42.77968" lon="11.6527033"><ele>844.9999999999999</ele><time>2026-04-01T12:33:48.219Z</time></trkpt><trkpt lat="42.7796183" lon="11.652735"><ele>845.0</ele><time>2026-04-01T12:33:49.22Z</time></trkpt><trkpt lat="42.7795417" lon="11.65274"><ele>845.0</ele><time>2026-04-01T12:33:51.22Z</time></trkpt><trkpt lat="42.77947" lon="11.6527417"><ele>845.0</ele><time>2026-04-01T12:33:56.22Z</time></trkpt><trkpt lat="42.7794017" lon="11.6527733"><ele>845.0</ele><time>2026-04-01T12:34:17.219Z</time></trkpt><trkpt lat="42.77933" lon="11.652805"><ele>844.9999999999999</ele><time>2026-04-01T12:34:20.219Z</time></trkpt><trkpt lat="42.7792483" lon="11.6528367"><ele>845.0</ele><time>2026-04-01T12:34:22.219Z</time></trkpt><trkpt lat="42.7791583" lon="11.65287"><ele>847.0</ele><time>2026-04-01T12:34:24.219Z</time></trkpt><trkpt lat="42.77906" lon="11.6529133"><ele>849.0</ele><time>2026-04-01T12:34:26.22Z</time></trkpt><trkpt lat="42.7789367" lon="11.6529733"><ele>851.0</ele><time>2026-04-01T12:34:28.219Z</time></trkpt><trkpt lat="42.7788667" lon="11.6530117"><ele>853.0</ele><time>2026-04-01T12:34:29.22Z</time></trkpt><trkpt lat="42.7787983" lon="11.6530433"><ele>855.0</ele><time>2026-04-01T12:34:30.22Z</time></trkpt><trkpt lat="42.7787367" lon="11.6530817"><ele>855.0</ele><time>2026-04-01T12:34:31.22Z</time></trkpt><trkpt lat="42.77867" lon="11.6531083"><ele>855.0</ele><time>2026-04-01T12:34:32.219Z</time></trkpt><trkpt lat="42.7785917" lon="11.653145"><ele>855.0</ele><time>2026-04-01T12:34:33.219Z</time></trkpt><trkpt lat="42.7785183" lon="11.6531817"><ele>855.0</ele><time>2026-04-01T12:34:34.22Z</time></trkpt><trkpt lat="42.7784117" lon="11.6532183"><ele>855.0</ele><time>2026-04-01T12:34:36.22Z</time></trkpt><trkpt lat="42.7783067" lon="11.6532017"><ele>855.0</ele><time>2026-04-01T12:34:38.219Z</time></trkpt><trkpt lat="42.7781983" lon="11.6531683"><ele>858.4</ele><time>2026-04-01T12:34:40.22Z</time></trkpt><trkpt lat="42.7781283" lon="11.653145"><ele>861.8</ele><time>2026-04-01T12:34:41.22Z</time></trkpt><trkpt lat="42.7780567" lon="11.653115"><ele>865.2</ele><time>2026-04-01T12:34:42.22Z</time></trkpt><trkpt lat="42.7779533" lon="11.6530467"><ele>868.6</ele><time>2026-04-01T12:34:44.219Z</time></trkpt><trkpt lat="42.7778333" lon="11.6530233"><ele>872.0</ele><time>2026-04-01T12:34:46.219Z</time></trkpt><trkpt lat="42.7777217" lon="11.6529717"><ele>874.3333333333334</ele><time>2026-04-01T12:34:48.22Z</time></trkpt><trkpt lat="42.7776083" lon="11.6529283"><ele>876.6666666666667</ele><time>2026-04-01T12:34:50.22Z</time></trkpt><trkpt lat="42.7775467" lon="11.65291"><ele>879.0</ele><time>2026-04-01T12:34:51.219Z</time></trkpt><trkpt lat="42.777485" lon="11.6528867"><ele>881.3333333333333</ele><time>2026-04-01T12:34:52.22Z</time></trkpt><trkpt lat="42.7773933" lon="11.652825"><ele>883.6666666666666</ele><time>2026-04-01T12:34:54.219Z</time></trkpt><trkpt lat="42.7773217" lon="11.6527967"><ele>886.0</ele><time>2026-04-01T12:34:57.22Z</time></trkpt><trkpt lat="42.7772467" lon="11.652785"><ele>885.9999999999999</ele><time>2026-04-01T12:35:00.219Z</time></trkpt><trkpt lat="42.7771683" lon="11.652745"><ele>886.0</ele><time>2026-04-01T12:35:02.219Z</time></trkpt><trkpt lat="42.7770733" lon="11.65269"><ele>886.0</ele><time>2026-04-01T12:35:04.22Z</time></trkpt><trkpt lat="42.7769983" lon="11.6526667"><ele>886.0</ele><time>2026-04-01T12:35:06.219Z</time></trkpt><trkpt lat="42.77691" lon="11.652635"><ele>885.9999999999999</ele><time>2026-04-01T12:35:22.22Z</time></trkpt><trkpt lat="42.7768783" lon="11.65255"><ele>886.0</ele><time>2026-04-01T12:35:24.22Z</time></trkpt><trkpt lat="42.77686" lon="11.652465"><ele>891.4</ele><time>2026-04-01T12:35:26.22Z</time></trkpt><trkpt lat="42.7767883" lon="11.6523283"><ele>896.8</ele><time>2026-04-01T12:42:06.22Z</time></trkpt><trkpt lat="42.776745" lon="11.652255"><ele>902.1999999999999</ele><time>2026-04-01T12:45:07.222Z</time></trkpt><trkpt lat="42.7766417" lon="11.65217"><ele>907.5999999999999</ele><time>2026-04-01T12:45:09.222Z</time></trkpt><trkpt lat="42.77658" lon="11.6521383"><ele>913.0</ele><time>2026-04-01T12:45:10.222Z</time></trkpt><trkpt lat="42.7764783" lon="11.6521017"><ele>912.9999999999999</ele><time>2026-04-01T12:45:12.222Z</time></trkpt><trkpt lat="42.77641" lon="11.6520983"><ele>913.0</ele><time>2026-04-01T12:45:14.222Z</time></trkpt><trkpt lat="42.7763417" lon="11.6520733"><ele>913.0</ele><time>2026-04-01T12:45:16.221Z</time></trkpt><trkpt lat="42.77627" lon="11.6520083"><ele>913.0</ele><time>2026-04-01T12:45:18.221Z</time></trkpt><trkpt lat="42.7761917" lon="11.651945"><ele>912.9999999999999</ele><time>2026-04-01T12:45:20.222Z</time></trkpt><trkpt lat="42.776075" lon="11.65196"><ele>913.0</ele><time>2026-04-01T12:45:33.222Z</time></trkpt><trkpt lat="42.7760083" lon="11.6519817"><ele>914.3333333333333</ele><time>2026-04-01T12:45:36.221Z</time></trkpt><trkpt lat="42.7759383" lon="11.6519767"><ele>915.6666666666666</ele><time>2026-04-01T12:45:38.222Z</time></trkpt><trkpt lat="42.775845" lon="11.6519467"><ele>917.0</ele><time>2026-04-01T12:45:40.221Z</time></trkpt><trkpt lat="42.775735" lon="11.6518967"><ele>918.3333333333333</ele><time>2026-04-01T12:45:42.221Z</time></trkpt><trkpt lat="42.775675" lon="11.651865"><ele>919.6666666666666</ele><time>2026-04-01T12:45:43.221Z</time></trkpt><trkpt lat="42.7755867" lon="11.6518217"><ele>921.0</ele><time>2026-04-01T12:45:45.222Z</time></trkpt><trkpt lat="42.7754917" lon="11.6517483"><ele>921.0</ele><time>2026-04-01T12:45:47.222Z</time></trkpt><trkpt lat="42.7753867" lon="11.6516967"><ele>920.9999999999999</ele><time>2026-04-01T12:45:49.222Z</time></trkpt><trkpt lat="42.775305" lon="11.6516767"><ele>920.9999999999999</ele><time>2026-04-01T12:45:51.222Z</time></trkpt><trkpt lat="42.7752233" lon="11.6516583"><ele>921.0</ele><time>2026-04-01T12:47:07.221Z</time></trkpt><trkpt lat="42.775165" lon="11.6517133"><ele>921.0</ele><time>2026-04-01T12:47:09.222Z</time></trkpt><trkpt lat="42.7750883" lon="11.651815"><ele>920.3333333333334</ele><time>2026-04-01T12:47:11.222Z</time></trkpt><trkpt lat="42.7750283" lon="11.6519117"><ele>919.6666666666667</ele><time>2026-04-01T12:47:13.222Z</time></trkpt><trkpt lat="42.7750233" lon="11.6520183"><ele>919.0</ele><time>2026-04-01T12:47:16.222Z</time></trkpt><trkpt lat="42.7750583" lon="11.6520933"><ele>918.3333333333334</ele><time>2026-04-01T12:47:19.221Z</time></trkpt><trkpt lat="42.7751033" lon="11.6522017"><ele>917.6666666666667</ele><time>2026-04-01T12:47:22.222Z</time></trkpt><trkpt lat="42.7751183" lon="11.6522883"><ele>917.0</ele><time>2026-04-01T12:47:24.222Z</time></trkpt><trkpt lat="42.7751117" lon="11.652385"><ele>923.25</ele><time>2026-04-01T12:47:26.222Z</time></trkpt><trkpt lat="42.7751183" lon="11.6525167"><ele>929.5</ele><time>2026-04-01T12:47:28.221Z</time></trkpt><trkpt lat="42.7751067" lon="11.65266"><ele>935.75</ele><time>2026-04-01T12:47:30.222Z</time></trkpt><trkpt lat="42.775095" lon="11.652825"><ele>942.0</ele><time>2026-04-01T12:47:32.222Z</time></trkpt><trkpt lat="42.77507" lon="11.6529967"><ele>946.0</ele><time>2026-04-01T12:47:34.222Z</time></trkpt><trkpt lat="42.775035" lon="11.6531517"><ele>950.0</ele><time>2026-04-01T12:47:36.222Z</time></trkpt><trkpt lat="42.7750383" lon="11.6532933"><ele>954.0</ele><time>2026-04-01T12:47:38.222Z</time></trkpt><trkpt lat="42.77506" lon="11.6534117"><ele>958.0</ele><time>2026-04-01T12:47:40.221Z</time></trkpt><trkpt lat="42.7750633" lon="11.6535433"><ele>962.0</ele><time>2026-04-01T12:47:42.222Z</time></trkpt><trkpt lat="42.7750233" lon="11.653655"><ele>963.1666666666667</ele><time>2026-04-01T12:47:44.222Z</time></trkpt><trkpt lat="42.7749933" lon="11.65374"><ele>964.3333333333334</ele><time>2026-04-01T12:47:46.222Z</time></trkpt><trkpt lat="42.7749933" lon="11.653855"><ele>965.5</ele><time>2026-04-01T12:47:50.222Z</time></trkpt><trkpt lat="42.7749933" lon="11.65399"><ele>966.6666666666667</ele><time>2026-04-01T12:47:56.221Z</time></trkpt><trkpt lat="42.774975" lon="11.6540733"><ele>967.8333333333334</ele><time>2026-04-01T12:47:58.222Z</time></trkpt><trkpt lat="42.7749583" lon="11.654165"><ele>969.0</ele><time>2026-04-01T12:48:00.222Z</time></trkpt><trkpt lat="42.7749083" lon="11.6542567"><ele>969.0</ele><time>2026-04-01T12:48:03.222Z</time></trkpt><trkpt lat="42.774855" lon="11.654335"><ele>969.0</ele><time>2026-04-01T12:48:05.222Z</time></trkpt><trkpt lat="42.7748" lon="11.65441"><ele>969.0</ele><time>2026-04-01T12:48:07.222Z</time></trkpt><trkpt lat="42.7747433" lon="11.6544817"><ele>969.0</ele><time>2026-04-01T12:48:09.222Z</time></trkpt><trkpt lat="42.7746683" lon="11.6545717"><ele>969.0</ele><time>2026-04-01T12:48:11.221Z</time></trkpt><trkpt lat="42.7745783" lon="11.654655"><ele>969.0</ele><time>2026-04-01T12:48:13.222Z</time></trkpt><trkpt lat="42.7744733" lon="11.654755"><ele>969.5</ele><time>2026-04-01T12:48:15.222Z</time></trkpt><trkpt lat="42.7744167" lon="11.6548"><ele>970.0</ele><time>2026-04-01T12:48:16.221Z</time></trkpt><trkpt lat="42.77436" lon="11.6548417"><ele>970.5</ele><time>2026-04-01T12:48:17.221Z</time></trkpt><trkpt lat="42.7742717" lon="11.6549083"><ele>971.0</ele><time>2026-04-01T12:48:19.221Z</time></trkpt><trkpt lat="42.7741883" lon="11.65495"><ele>971.5</ele><time>2026-04-01T12:48:21.222Z</time></trkpt><trkpt lat="42.7740883" lon="11.6549733"><ele>972.0</ele><time>2026-04-01T12:48:23.222Z</time></trkpt><trkpt lat="42.7739883" lon="11.6550167"><ele>970.8333333333334</ele><time>2026-04-01T12:48:25.222Z</time></trkpt><trkpt lat="42.773905" lon="11.655065"><ele>969.6666666666667</ele><time>2026-04-01T12:48:27.221Z</time></trkpt><trkpt lat="42.7738483" lon="11.6551133"><ele>968.5</ele><time>2026-04-01T12:48:29.221Z</time></trkpt><trkpt lat="42.7737733" lon="11.6551633"><ele>967.3333333333334</ele><time>2026-04-01T12:48:31.222Z</time></trkpt><trkpt lat="42.773685" lon="11.6552033"><ele>966.1666666666667</ele><time>2026-04-01T12:48:33.222Z</time></trkpt><trkpt lat="42.7735967" lon="11.6552433"><ele>965.0</ele><time>2026-04-01T12:48:35.222Z</time></trkpt><trkpt lat="42.77351" lon="11.6552733"><ele>965.3333333333334</ele><time>2026-04-01T12:48:37.222Z</time></trkpt><trkpt lat="42.773445" lon="11.6553"><ele>965.6666666666667</ele><time>2026-04-01T12:48:39.222Z</time></trkpt><trkpt lat="42.77337" lon="11.6553483"><ele>966.0</ele><time>2026-04-01T12:48:41.222Z</time></trkpt><trkpt lat="42.7733" lon="11.6554033"><ele>966.3333333333333</ele><time>2026-04-01T12:48:43.222Z</time></trkpt><trkpt lat="42.7732283" lon="11.6554733"><ele>966.6666666666666</ele><time>2026-04-01T12:48:45.222Z</time></trkpt><trkpt lat="42.7731533" lon="11.655555"><ele>967.0</ele><time>2026-04-01T12:48:47.222Z</time></trkpt><trkpt lat="42.7730633" lon="11.655635"><ele>966.9999999999999</ele><time>2026-04-01T12:48:49.221Z</time></trkpt><trkpt lat="42.7729567" lon="11.6557"><ele>967.0</ele><time>2026-04-01T12:48:51.221Z</time></trkpt><trkpt lat="42.77288" lon="11.655765"><ele>967.0</ele><time>2026-04-01T12:48:53.221Z</time></trkpt><trkpt lat="42.7728267" lon="11.6558333"><ele>967.0</ele><time>2026-04-01T12:48:55.222Z</time></trkpt><trkpt lat="42.7727783" lon="11.6559"><ele>966.9999999999999</ele><time>2026-04-01T12:48:57.222Z</time></trkpt><trkpt lat="42.772715" lon="11.65596"><ele>967.0</ele><time>2026-04-01T12:48:59.221Z</time></trkpt><trkpt lat="42.77262" lon="11.6560483"><ele>965.2</ele><time>2026-04-01T12:49:01.222Z</time></trkpt><trkpt lat="42.7725333" lon="11.6561683"><ele>963.4000000000001</ele><time>2026-04-01T12:49:03.221Z</time></trkpt><trkpt lat="42.7724767" lon="11.6562283"><ele>961.5999999999999</ele><time>2026-04-01T12:49:04.221Z</time></trkpt><trkpt lat="42.7723817" lon="11.6563167"><ele>959.8</ele><time>2026-04-01T12:49:06.221Z</time></trkpt><trkpt lat="42.772285" lon="11.656375"><ele>958.0</ele><time>2026-04-01T12:49:08.223Z</time></trkpt><trkpt lat="42.7722067" lon="11.656425"><ele>958.0</ele><time>2026-04-01T12:49:10.223Z</time></trkpt><trkpt lat="42.7720917" lon="11.656485"><ele>958.0</ele><time>2026-04-01T12:49:12.223Z</time></trkpt><trkpt lat="42.7720267" lon="11.6565217"><ele>958.0</ele><time>2026-04-01T12:49:13.223Z</time></trkpt><trkpt lat="42.7719383" lon="11.6565683"><ele>958.0</ele><time>2026-04-01T12:49:14.222Z</time></trkpt><trkpt lat="42.771845" lon="11.6566117"><ele>958.0</ele><time>2026-04-01T12:49:15.223Z</time></trkpt><trkpt lat="42.7717533" lon="11.6566683"><ele>955.3333333333333</ele><time>2026-04-01T12:49:16.222Z</time></trkpt><trkpt lat="42.7716667" lon="11.6567233"><ele>952.6666666666666</ele><time>2026-04-01T12:49:17.223Z</time></trkpt><trkpt lat="42.7715867" lon="11.6567667"><ele>950.0</ele><time>2026-04-01T12:49:18.223Z</time></trkpt><trkpt lat="42.7715133" lon="11.6568067"><ele>947.3333333333333</ele><time>2026-04-01T12:49:19.223Z</time></trkpt><trkpt lat="42.771445" lon="11.65684"><ele>944.6666666666666</ele><time>2026-04-01T12:49:20.223Z</time></trkpt><trkpt lat="42.7713383" lon="11.65688"><ele>942.0</ele><time>2026-04-01T12:49:22.223Z</time></trkpt><trkpt lat="42.77125" lon="11.6569133"><ele>942.0</ele><time>2026-04-01T12:49:24.222Z</time></trkpt><trkpt lat="42.7711767" lon="11.65694"><ele>942.0</ele><time>2026-04-01T12:49:26.222Z</time></trkpt><trkpt lat="42.77109" lon="11.6569717"><ele>942.0</ele><time>2026-04-01T12:49:28.223Z</time></trkpt><trkpt lat="42.7709917" lon="11.6570183"><ele>942.0</ele><time>2026-04-01T12:49:30.222Z</time></trkpt><trkpt lat="42.770935" lon="11.6570617"><ele>942.0</ele><time>2026-04-01T12:49:31.223Z</time></trkpt><trkpt lat="42.77088" lon="11.657105"><ele>942.0</ele><time>2026-04-01T12:49:32.223Z</time></trkpt><trkpt lat="42.7707667" lon="11.6571833"><ele>945.4000000000001</ele><time>2026-04-01T12:49:34.222Z</time></trkpt><trkpt lat="42.7706683" lon="11.6572767"><ele>948.8000000000001</ele><time>2026-04-01T12:49:36.222Z</time></trkpt><trkpt lat="42.7705717" lon="11.657375"><ele>952.2</ele><time>2026-04-01T12:49:38.223Z</time></trkpt><trkpt lat="42.7705" lon="11.6574483"><ele>955.6</ele><time>2026-04-01T12:49:40.223Z</time></trkpt><trkpt lat="42.77043" lon="11.6575083"><ele>959.0</ele><time>2026-04-01T12:49:43.222Z</time></trkpt><trkpt lat="42.7703783" lon="11.6575767"><ele>959.0000000000001</ele><time>2026-04-01T12:49:46.222Z</time></trkpt><trkpt lat="42.7703117" lon="11.657635"><ele>959.0</ele><time>2026-04-01T12:49:49.223Z</time></trkpt><trkpt lat="42.7702433" lon="11.6576983"><ele>959.0</ele><time>2026-04-01T12:49:52.223Z</time></trkpt><trkpt lat="42.7701633" lon="11.6577283"><ele>959.0</ele><time>2026-04-01T12:49:54.223Z</time></trkpt><trkpt lat="42.7700717" lon="11.657755"><ele>959.0000000000001</ele><time>2026-04-01T12:49:56.222Z</time></trkpt><trkpt lat="42.76997" lon="11.65778"><ele>959.0</ele><time>2026-04-01T12:49:58.222Z</time></trkpt><trkpt lat="42.769885" lon="11.6578033"><ele>958.6</ele><time>2026-04-01T12:50:00.222Z</time></trkpt><trkpt lat="42.76974" lon="11.6578767"><ele>958.2</ele><time>2026-04-01T12:50:39.222Z</time></trkpt><trkpt lat="42.7696867" lon="11.6579417"><ele>957.8000000000001</ele><time>2026-04-01T12:50:42.223Z</time></trkpt><trkpt lat="42.769625" lon="11.658005"><ele>957.4000000000001</ele><time>2026-04-01T12:50:44.223Z</time></trkpt><trkpt lat="42.7695467" lon="11.6580983"><ele>957.0</ele><time>2026-04-01T12:50:46.222Z</time></trkpt><trkpt lat="42.7694467" lon="11.6581833"><ele>953.2</ele><time>2026-04-01T12:50:48.223Z</time></trkpt><trkpt lat="42.7693567" lon="11.6582733"><ele>949.4000000000001</ele><time>2026-04-01T12:50:50.223Z</time></trkpt><trkpt lat="42.76928" lon="11.6583517"><ele>945.5999999999999</ele><time>2026-04-01T12:50:52.223Z</time></trkpt><trkpt lat="42.76919" lon="11.6584433"><ele>941.8</ele><time>2026-04-01T12:50:54.223Z</time></trkpt><trkpt lat="42.76909" lon="11.658545"><ele>938.0</ele><time>2026-04-01T12:50:56.223Z</time></trkpt><trkpt lat="42.7690333" lon="11.6585933"><ele>940.8333333333334</ele><time>2026-04-01T12:50:57.222Z</time></trkpt><trkpt lat="42.76897" lon="11.6586467"><ele>943.6666666666667</ele><time>2026-04-01T12:50:58.222Z</time></trkpt><trkpt lat="42.7689017" lon="11.6587083"><ele>946.5</ele><time>2026-04-01T12:50:59.223Z</time></trkpt><trkpt lat="42.7688317" lon="11.6587783"><ele>949.3333333333333</ele><time>2026-04-01T12:51:00.223Z</time></trkpt><trkpt lat="42.7687667" lon="11.65885"><ele>952.1666666666666</ele><time>2026-04-01T12:51:01.222Z</time></trkpt><trkpt lat="42.7686983" lon="11.6589233"><ele>955.0</ele><time>2026-04-01T12:51:02.223Z</time></trkpt><trkpt lat="42.7686433" lon="11.6589767"><ele>955.0</ele><time>2026-04-01T12:51:03.223Z</time></trkpt><trkpt lat="42.7685467" lon="11.6590633"><ele>955.0</ele><time>2026-04-01T12:51:05.223Z</time></trkpt><trkpt lat="42.7684667" lon="11.6591183"><ele>955.0</ele><time>2026-04-01T12:51:07.223Z</time></trkpt><trkpt lat="42.7683883" lon="11.6591567"><ele>955.0</ele><time>2026-04-01T12:51:09.223Z</time></trkpt><trkpt lat="42.7683033" lon="11.6592033"><ele>955.0</ele><time>2026-04-01T12:51:11.222Z</time></trkpt><trkpt lat="42.76819" lon="11.6592483"><ele>951.9999999999999</ele><time>2026-04-01T12:51:13.222Z</time></trkpt><trkpt lat="42.7681217" lon="11.6592733"><ele>949.0</ele><time>2026-04-01T12:51:14.222Z</time></trkpt><trkpt lat="42.7680117" lon="11.6592983"><ele>946.0</ele><time>2026-04-01T12:51:16.223Z</time></trkpt><trkpt lat="42.7679383" lon="11.6593033"><ele>943.0</ele><time>2026-04-01T12:51:18.223Z</time></trkpt><trkpt lat="42.767875" lon="11.6592983"><ele>939.9999999999999</ele><time>2026-04-01T12:51:20.222Z</time></trkpt><trkpt lat="42.7678033" lon="11.6592683"><ele>937.0</ele><time>2026-04-01T12:51:23.223Z</time></trkpt><trkpt lat="42.7676333" lon="11.6593017"><ele>935.4999999999999</ele><time>2026-04-01T12:51:46.223Z</time></trkpt><trkpt lat="42.76757" lon="11.6592767"><ele>934.0</ele><time>2026-04-01T12:51:48.222Z</time></trkpt><trkpt lat="42.76746" lon="11.6592417"><ele>932.5</ele><time>2026-04-01T12:51:50.223Z</time></trkpt><trkpt lat="42.767385" lon="11.6592183"><ele>931.0</ele><time>2026-04-01T12:51:51.223Z</time></trkpt><trkpt lat="42.7673067" lon="11.6592017"><ele>929.4999999999999</ele><time>2026-04-01T12:51:52.222Z</time></trkpt><trkpt lat="42.7672233" lon="11.659185"><ele>928.0</ele><time>2026-04-01T12:51:53.223Z</time></trkpt><trkpt lat="42.7671133" lon="11.6591533"><ele>928.0</ele><time>2026-04-01T12:51:54.223Z</time></trkpt><trkpt lat="42.767015" lon="11.6591333"><ele>928.0</ele><time>2026-04-01T12:51:55.223Z</time></trkpt><trkpt lat="42.7669117" lon="11.6591167"><ele>928.0</ele><time>2026-04-01T12:51:56.223Z</time></trkpt><trkpt lat="42.76674" lon="11.6590983"><ele>928.0</ele><time>2026-04-01T12:51:57.222Z</time></trkpt><trkpt lat="42.7666483" lon="11.6590967"><ele>927.3333333333333</ele><time>2026-04-01T12:51:58.223Z</time></trkpt><trkpt lat="42.7665533" lon="11.6591033"><ele>926.6666666666666</ele><time>2026-04-01T12:51:59.222Z</time></trkpt><trkpt lat="42.7664767" lon="11.6590917"><ele>926.0</ele><time>2026-04-01T12:52:00.223Z</time></trkpt><trkpt lat="42.7663883" lon="11.6590583"><ele>925.3333333333333</ele><time>2026-04-01T12:52:02.222Z</time></trkpt><trkpt lat="42.7663067" lon="11.65902"><ele>924.6666666666666</ele><time>2026-04-01T12:52:04.223Z</time></trkpt><trkpt lat="42.7662133" lon="11.6589983"><ele>924.0</ele><time>2026-04-01T12:52:06.222Z</time></trkpt><trkpt lat="42.7661033" lon="11.6590017"><ele>922.4000000000001</ele><time>2026-04-01T12:52:08.222Z</time></trkpt><trkpt lat="42.7659867" lon="11.659015"><ele>920.8000000000001</ele><time>2026-04-01T12:52:10.223Z</time></trkpt><trkpt lat="42.7658883" lon="11.65903"><ele>919.1999999999999</ele><time>2026-04-01T12:52:12.222Z</time></trkpt><trkpt lat="42.7658067" lon="11.6590833"><ele>917.5999999999999</ele><time>2026-04-01T12:52:14.222Z</time></trkpt><trkpt lat="42.7657367" lon="11.6591317"><ele>916.0</ele><time>2026-04-01T12:52:16.223Z</time></trkpt><trkpt lat="42.7656667" lon="11.659185"><ele>915.9999999999999</ele><time>2026-04-01T12:52:18.223Z</time></trkpt><trkpt lat="42.76562" lon="11.6592783"><ele>916.0</ele><time>2026-04-01T12:52:20.222Z</time></trkpt><trkpt lat="42.7656" lon="11.659405"><ele>916.0</ele><time>2026-04-01T12:52:22.222Z</time></trkpt><trkpt lat="42.7655533" lon="11.65952"><ele>916.0</ele><time>2026-04-01T12:52:24.222Z</time></trkpt><trkpt lat="42.7655033" lon="11.6595883"><ele>915.9999999999999</ele><time>2026-04-01T12:52:25.222Z</time></trkpt><trkpt lat="42.7654567" lon="11.6596617"><ele>916.0</ele><time>2026-04-01T12:52:26.222Z</time></trkpt><trkpt lat="42.765385" lon="11.6597383"><ele>915.8333333333333</ele><time>2026-04-01T12:52:27.222Z</time></trkpt><trkpt lat="42.7653167" lon="11.6598133"><ele>915.6666666666666</ele><time>2026-04-01T12:52:28.222Z</time></trkpt><trkpt lat="42.76526" lon="11.6598983"><ele>915.5</ele><time>2026-04-01T12:52:29.223Z</time></trkpt><trkpt lat="42.7652117" lon="11.65997"><ele>915.3333333333333</ele><time>2026-04-01T12:52:30.222Z</time></trkpt><trkpt lat="42.7651867" lon="11.6600517"><ele>915.1666666666666</ele><time>2026-04-01T12:52:31.223Z</time></trkpt><trkpt lat="42.7651567" lon="11.6601983"><ele>915.0</ele><time>2026-04-01T12:52:33.222Z</time></trkpt><trkpt lat="42.76508" lon="11.660305"><ele>915.0</ele><time>2026-04-01T12:52:35.223Z</time></trkpt><trkpt lat="42.7650117" lon="11.6603417"><ele>915.0</ele><time>2026-04-01T12:52:36.223Z</time></trkpt><trkpt lat="42.7649317" lon="11.6603567"><ele>915.0</ele><time>2026-04-01T12:52:37.223Z</time></trkpt><trkpt lat="42.764835" lon="11.660335"><ele>915.0</ele><time>2026-04-01T12:52:38.223Z</time></trkpt><trkpt lat="42.7647483" lon="11.66031"><ele>915.0</ele><time>2026-04-01T12:52:39.222Z</time></trkpt><trkpt lat="42.764665" lon="11.6602767"><ele>915.0</ele><time>2026-04-01T12:52:40.222Z</time></trkpt><trkpt lat="42.764575" lon="11.6602717"><ele>915.0</ele><time>2026-04-01T12:52:41.223Z</time></trkpt><trkpt lat="42.7644783" lon="11.6602833"><ele>915.0</ele><time>2026-04-01T12:52:42.223Z</time></trkpt><trkpt lat="42.7643917" lon="11.6603217"><ele>915.0</ele><time>2026-04-01T12:52:43.223Z</time></trkpt><trkpt lat="42.7643183" lon="11.6603467"><ele>915.0</ele><time>2026-04-01T12:52:44.222Z</time></trkpt><trkpt lat="42.764255" lon="11.6603883"><ele>915.0</ele><time>2026-04-01T12:52:45.222Z</time></trkpt><trkpt lat="42.764195" lon="11.6604283"><ele>915.0</ele><time>2026-04-01T12:52:46.223Z</time></trkpt><trkpt lat="42.764135" lon="11.6604717"><ele>912.8333333333334</ele><time>2026-04-01T12:52:47.223Z</time></trkpt><trkpt lat="42.7640667" lon="11.6605083"><ele>910.6666666666667</ele><time>2026-04-01T12:52:48.223Z</time></trkpt><trkpt lat="42.764005" lon="11.6605433"><ele>908.5</ele><time>2026-04-01T12:52:49.222Z</time></trkpt><trkpt lat="42.7639417" lon="11.66057"><ele>906.3333333333334</ele><time>2026-04-01T12:52:50.223Z</time></trkpt><trkpt lat="42.763825" lon="11.66061"><ele>904.1666666666667</ele><time>2026-04-01T12:52:52.223Z</time></trkpt><trkpt lat="42.763765" lon="11.6606367"><ele>902.0</ele><time>2026-04-01T12:52:53.223Z</time></trkpt><trkpt lat="42.763645" lon="11.660665"><ele>902.0000000000001</ele><time>2026-04-01T12:52:55.222Z</time></trkpt><trkpt lat="42.7635817" lon="11.660685"><ele>902.0</ele><time>2026-04-01T12:52:56.222Z</time></trkpt><trkpt lat="42.7635133" lon="11.660695"><ele>902.0</ele><time>2026-04-01T12:52:57.223Z</time></trkpt><trkpt lat="42.7633983" lon="11.6607133"><ele>902.0</ele><time>2026-04-01T12:52:59.222Z</time></trkpt><trkpt lat="42.7633267" lon="11.6607133"><ele>902.0000000000001</ele><time>2026-04-01T12:53:00.223Z</time></trkpt><trkpt lat="42.7632583" lon="11.6606983"><ele>902.0</ele><time>2026-04-01T12:53:01.223Z</time></trkpt><trkpt lat="42.7631917" lon="11.6606867"><ele>899.6666666666667</ele><time>2026-04-01T12:53:02.223Z</time></trkpt><trkpt lat="42.7631283" lon="11.66068"><ele>897.3333333333334</ele><time>2026-04-01T12:53:03.222Z</time></trkpt><trkpt lat="42.7630583" lon="11.660675"><ele>895.0</ele><time>2026-04-01T12:53:04.223Z</time></trkpt><trkpt lat="42.762935" lon="11.6606933"><ele>892.6666666666667</ele><time>2026-04-01T12:53:06.222Z</time></trkpt><trkpt lat="42.7628733" lon="11.66072"><ele>890.3333333333334</ele><time>2026-04-01T12:53:07.222Z</time></trkpt><trkpt lat="42.7628067" lon="11.6607533"><ele>888.0</ele><time>2026-04-01T12:53:08.223Z</time></trkpt><trkpt lat="42.7627483" lon="11.6607883"><ele>888.0</ele><time>2026-04-01T12:53:09.223Z</time></trkpt><trkpt lat="42.7626833" lon="11.66083"><ele>888.0</ele><time>2026-04-01T12:53:10.223Z</time></trkpt><trkpt lat="42.76263" lon="11.6608833"><ele>888.0</ele><time>2026-04-01T12:53:11.222Z</time></trkpt><trkpt lat="42.7625833" lon="11.6609517"><ele>888.0</ele><time>2026-04-01T12:53:12.222Z</time></trkpt><trkpt lat="42.7625483" lon="11.661025"><ele>888.0</ele><time>2026-04-01T12:53:13.223Z</time></trkpt><trkpt lat="42.7625317" lon="11.6611767"><ele>888.0</ele><time>2026-04-01T12:53:15.222Z</time></trkpt><trkpt lat="42.7625417" lon="11.6612617"><ele>888.0</ele><time>2026-04-01T12:53:16.222Z</time></trkpt><trkpt lat="42.7625617" lon="11.6613467"><ele>888.0</ele><time>2026-04-01T12:53:17.223Z</time></trkpt><trkpt lat="42.762585" lon="11.6614333"><ele>888.0</ele><time>2026-04-01T12:53:18.222Z</time></trkpt><trkpt lat="42.7626233" lon="11.6615867"><ele>888.0</ele><time>2026-04-01T12:53:20.223Z</time></trkpt><trkpt lat="42.7626533" lon="11.6617433"><ele>888.0</ele><time>2026-04-01T12:53:22.223Z</time></trkpt><trkpt lat="42.7626667" lon="11.6618367"><ele>888.0</ele><time>2026-04-01T12:53:23.223Z</time></trkpt><trkpt lat="42.7626733" lon="11.661935"><ele>888.0</ele><time>2026-04-01T12:53:24.223Z</time></trkpt><trkpt lat="42.7626767" lon="11.6620417"><ele>888.1666666666666</ele><time>2026-04-01T12:53:25.222Z</time></trkpt><trkpt lat="42.7626717" lon="11.6621583"><ele>888.3333333333333</ele><time>2026-04-01T12:53:26.223Z</time></trkpt><trkpt lat="42.76267" lon="11.662275"><ele>888.5</ele><time>2026-04-01T12:53:27.222Z</time></trkpt><trkpt lat="42.7626633" lon="11.66239"><ele>888.6666666666666</ele><time>2026-04-01T12:53:28.223Z</time></trkpt><trkpt lat="42.7626533" lon="11.6625167"><ele>888.8333333333333</ele><time>2026-04-01T12:53:29.222Z</time></trkpt><trkpt lat="42.7626417" lon="11.66263"><ele>889.0</ele><time>2026-04-01T12:53:30.223Z</time></trkpt><trkpt lat="42.76265" lon="11.6627233"><ele>888.3333333333333</ele><time>2026-04-01T12:53:31.223Z</time></trkpt><trkpt lat="42.7626733" lon="11.6628167"><ele>887.6666666666666</ele><time>2026-04-01T12:53:32.223Z</time></trkpt><trkpt lat="42.762705" lon="11.662895"><ele>887.0</ele><time>2026-04-01T12:53:33.222Z</time></trkpt><trkpt lat="42.76281" lon="11.663005"><ele>886.3333333333333</ele><time>2026-04-01T12:53:35.222Z</time></trkpt><trkpt lat="42.762885" lon="11.6630533"><ele>885.6666666666666</ele><time>2026-04-01T12:53:36.222Z</time></trkpt><trkpt lat="42.7629533" lon="11.6631083"><ele>885.0</ele><time>2026-04-01T12:53:37.223Z</time></trkpt><trkpt lat="42.7630117" lon="11.663165"><ele>887.2857142857142</ele><time>2026-04-01T12:53:38.222Z</time></trkpt><trkpt lat="42.7630667" lon="11.6632167"><ele>889.5714285714286</ele><time>2026-04-01T12:53:39.223Z</time></trkpt><trkpt lat="42.7631133" lon="11.6632767"><ele>891.8571428571429</ele><time>2026-04-01T12:53:40.222Z</time></trkpt><trkpt lat="42.7631467" lon="11.6633533"><ele>894.1428571428571</ele><time>2026-04-01T12:53:41.222Z</time></trkpt><trkpt lat="42.7631583" lon="11.66344"><ele>896.4285714285716</ele><time>2026-04-01T12:53:42.222Z</time></trkpt><trkpt lat="42.76312" lon="11.6635717"><ele>898.7142857142858</ele><time>2026-04-01T12:53:44.222Z</time></trkpt><trkpt lat="42.7630583" lon="11.6636167"><ele>901.0</ele><time>2026-04-01T12:53:45.223Z</time></trkpt><trkpt lat="42.7630017" lon="11.66366"><ele>899.6666666666666</ele><time>2026-04-01T12:53:46.222Z</time></trkpt><trkpt lat="42.7629333" lon="11.6637067"><ele>898.3333333333333</ele><time>2026-04-01T12:53:47.223Z</time></trkpt><trkpt lat="42.762865" lon="11.6637667"><ele>897.0</ele><time>2026-04-01T12:53:48.222Z</time></trkpt><trkpt lat="42.7628017" lon="11.6638367"><ele>895.6666666666667</ele><time>2026-04-01T12:53:49.223Z</time></trkpt><trkpt lat="42.7627367" lon="11.66392"><ele>894.3333333333334</ele><time>2026-04-01T12:53:50.223Z</time></trkpt><trkpt lat="42.7626783" lon="11.6639983"><ele>893.0</ele><time>2026-04-01T12:53:51.223Z</time></trkpt><trkpt lat="42.762635" lon="11.664085"><ele>893.0000000000001</ele><time>2026-04-01T12:53:52.223Z</time></trkpt><trkpt lat="42.7625967" lon="11.6641667"><ele>893.0</ele><time>2026-04-01T12:53:53.223Z</time></trkpt><trkpt lat="42.76256" lon="11.664255"><ele>893.0</ele><time>2026-04-01T12:53:54.223Z</time></trkpt><trkpt lat="42.7625183" lon="11.6643533"><ele>893.0</ele><time>2026-04-01T12:53:55.222Z</time></trkpt><trkpt lat="42.7624767" lon="11.6644633"><ele>893.0000000000001</ele><time>2026-04-01T12:53:56.223Z</time></trkpt><trkpt lat="42.7624567" lon="11.6645817"><ele>893.0</ele><time>2026-04-01T12:53:57.223Z</time></trkpt><trkpt lat="42.762435" lon="11.6647033"><ele>894.3333333333334</ele><time>2026-04-01T12:53:58.223Z</time></trkpt><trkpt lat="42.7624067" lon="11.66483"><ele>895.6666666666667</ele><time>2026-04-01T12:53:59.222Z</time></trkpt><trkpt lat="42.76238" lon="11.6649333"><ele>897.0</ele><time>2026-04-01T12:54:00.223Z</time></trkpt><trkpt lat="42.7623533" lon="11.665025"><ele>898.3333333333333</ele><time>2026-04-01T12:54:01.223Z</time></trkpt><trkpt lat="42.7623183" lon="11.66515"><ele>899.6666666666666</ele><time>2026-04-01T12:54:02.222Z</time></trkpt><trkpt lat="42.7622783" lon="11.6652567"><ele>901.0</ele><time>2026-04-01T12:54:03.223Z</time></trkpt><trkpt lat="42.7622383" lon="11.6653567"><ele>901.8333333333333</ele><time>2026-04-01T12:54:04.223Z</time></trkpt><trkpt lat="42.7622" lon="11.6654567"><ele>902.6666666666666</ele><time>2026-04-01T12:54:05.223Z</time></trkpt><trkpt lat="42.7621633" lon="11.665555"><ele>903.5</ele><time>2026-04-01T12:54:06.222Z</time></trkpt><trkpt lat="42.7621333" lon="11.6656667"><ele>904.3333333333333</ele><time>2026-04-01T12:54:07.223Z</time></trkpt><trkpt lat="42.762115" lon="11.6657583"><ele>905.1666666666666</ele><time>2026-04-01T12:54:08.223Z</time></trkpt><trkpt lat="42.7621133" lon="11.66587"><ele>906.0</ele><time>2026-04-01T12:54:09.223Z</time></trkpt><trkpt lat="42.7621417" lon="11.665985"><ele>906.0</ele><time>2026-04-01T12:54:10.222Z</time></trkpt><trkpt lat="42.762205" lon="11.6661017"><ele>905.9999999999999</ele><time>2026-04-01T12:54:11.223Z</time></trkpt><trkpt lat="42.762265" lon="11.6662"><ele>905.9999999999999</ele><time>2026-04-01T12:54:12.223Z</time></trkpt><trkpt lat="42.7623483" lon="11.6662683"><ele>906.0</ele><time>2026-04-01T12:54:13.222Z</time></trkpt><trkpt lat="42.7624283" lon="11.6663267"><ele>906.0</ele><time>2026-04-01T12:54:14.222Z</time></trkpt><trkpt lat="42.7625133" lon="11.6663933"><ele>904.4</ele><time>2026-04-01T12:54:15.223Z</time></trkpt><trkpt lat="42.7625933" lon="11.6664667"><ele>902.8</ele><time>2026-04-01T12:54:16.222Z</time></trkpt><trkpt lat="42.7626667" lon="11.666555"><ele>901.1999999999999</ele><time>2026-04-01T12:54:17.223Z</time></trkpt><trkpt lat="42.7627417" lon="11.6666433"><ele>899.5999999999999</ele><time>2026-04-01T12:54:18.222Z</time></trkpt><trkpt lat="42.7628017" lon="11.6667267"><ele>898.0</ele><time>2026-04-01T12:54:19.222Z</time></trkpt><trkpt lat="42.7628517" lon="11.6668167"><ele>899.4999999999999</ele><time>2026-04-01T12:54:20.222Z</time></trkpt><trkpt lat="42.7629033" lon="11.6669217"><ele>901.0</ele><time>2026-04-01T12:54:21.223Z</time></trkpt><trkpt lat="42.7629517" lon="11.667015"><ele>902.5</ele><time>2026-04-01T12:54:22.222Z</time></trkpt><trkpt lat="42.7630017" lon="11.6671083"><ele>904.0</ele><time>2026-04-01T12:54:23.222Z</time></trkpt><trkpt lat="42.7630483" lon="11.667205"><ele>905.4999999999999</ele><time>2026-04-01T12:54:24.222Z</time></trkpt><trkpt lat="42.7630983" lon="11.6672767"><ele>907.0</ele><time>2026-04-01T12:54:25.222Z</time></trkpt><trkpt lat="42.7631533" lon="11.667345"><ele>906.9999999999999</ele><time>2026-04-01T12:54:26.223Z</time></trkpt><trkpt lat="42.763205" lon="11.66742"><ele>907.0</ele><time>2026-04-01T12:54:27.223Z</time></trkpt><trkpt lat="42.763255" lon="11.6674917"><ele>907.0</ele><time>2026-04-01T12:54:28.223Z</time></trkpt><trkpt lat="42.7632983" lon="11.6675783"><ele>907.0</ele><time>2026-04-01T12:54:29.223Z</time></trkpt><trkpt lat="42.7633317" lon="11.6676633"><ele>906.9999999999999</ele><time>2026-04-01T12:54:30.222Z</time></trkpt><trkpt lat="42.76336" lon="11.66776"><ele>907.0</ele><time>2026-04-01T12:54:31.223Z</time></trkpt><trkpt lat="42.7633783" lon="11.6678633"><ele>904.4000000000001</ele><time>2026-04-01T12:54:32.223Z</time></trkpt><trkpt lat="42.7633683" lon="11.6679833"><ele>901.8000000000001</ele><time>2026-04-01T12:54:33.223Z</time></trkpt><trkpt lat="42.7633617" lon="11.668105"><ele>899.2</ele><time>2026-04-01T12:54:34.223Z</time></trkpt><trkpt lat="42.7633733" lon="11.6682183"><ele>896.6</ele><time>2026-04-01T12:54:35.223Z</time></trkpt><trkpt lat="42.76339" lon="11.6683417"><ele>894.0</ele><time>2026-04-01T12:54:36.222Z</time></trkpt><trkpt lat="42.7634317" lon="11.6684583"><ele>894.0</ele><time>2026-04-01T12:54:37.223Z</time></trkpt><trkpt lat="42.76348" lon="11.66857"><ele>894.0</ele><time>2026-04-01T12:54:38.222Z</time></trkpt><trkpt lat="42.76353" lon="11.6686767"><ele>894.0</ele><time>2026-04-01T12:54:39.222Z</time></trkpt><trkpt lat="42.7635667" lon="11.668765"><ele>894.0</ele><time>2026-04-01T12:54:40.222Z</time></trkpt><trkpt lat="42.7635967" lon="11.6688467"><ele>894.0</ele><time>2026-04-01T12:54:41.223Z</time></trkpt><trkpt lat="42.7635983" lon="11.668975"><ele>894.0</ele><time>2026-04-01T12:54:43.222Z</time></trkpt><trkpt lat="42.7635317" lon="11.6690833"><ele>893.6</ele><time>2026-04-01T12:54:45.223Z</time></trkpt><trkpt lat="42.7634767" lon="11.669155"><ele>893.2</ele><time>2026-04-01T12:54:46.223Z</time></trkpt><trkpt lat="42.763415" lon="11.6692333"><ele>892.8000000000001</ele><time>2026-04-01T12:54:47.222Z</time></trkpt><trkpt lat="42.76336" lon="11.6692933"><ele>892.4000000000001</ele><time>2026-04-01T12:54:48.223Z</time></trkpt><trkpt lat="42.7632583" lon="11.6693733"><ele>892.0</ele><time>2026-04-01T12:54:50.223Z</time></trkpt><trkpt lat="42.763155" lon="11.66942"><ele>891.9999999999999</ele><time>2026-04-01T12:54:52.223Z</time></trkpt><trkpt lat="42.7630733" lon="11.6694283"><ele>892.0</ele><time>2026-04-01T12:54:54.222Z</time></trkpt><trkpt lat="42.76295" lon="11.6694383"><ele>892.0</ele><time>2026-04-01T12:54:56.223Z</time></trkpt><trkpt lat="42.7628783" lon="11.6694467"><ele>892.0</ele><time>2026-04-01T12:54:57.223Z</time></trkpt><trkpt lat="42.762815" lon="11.669465"><ele>891.9999999999999</ele><time>2026-04-01T12:54:58.222Z</time></trkpt><trkpt lat="42.7627533" lon="11.6694933"><ele>892.0</ele><time>2026-04-01T12:54:59.223Z</time></trkpt><trkpt lat="42.7626983" lon="11.6695367"><ele>890.2</ele><time>2026-04-01T12:55:00.222Z</time></trkpt><trkpt lat="42.7626183" lon="11.6696283"><ele>888.4000000000001</ele><time>2026-04-01T12:55:02.223Z</time></trkpt><trkpt lat="42.7625433" lon="11.6697233"><ele>886.5999999999999</ele><time>2026-04-01T12:55:04.222Z</time></trkpt><trkpt lat="42.7624683" lon="11.6698183"><ele>884.8</ele><time>2026-04-01T12:55:06.222Z</time></trkpt><trkpt lat="42.762375" lon="11.669915"><ele>883.0</ele><time>2026-04-01T12:55:08.222Z</time></trkpt><trkpt lat="42.7622783" lon="11.669995"><ele>883.0</ele><time>2026-04-01T12:55:10.222Z</time></trkpt><trkpt lat="42.7621617" lon="11.6700183"><ele>883.0</ele><time>2026-04-01T12:55:12.223Z</time></trkpt><trkpt lat="42.7621" lon="11.6699867"><ele>883.0</ele><time>2026-04-01T12:55:13.222Z</time></trkpt><trkpt lat="42.7620533" lon="11.6699267"><ele>883.0</ele><time>2026-04-01T12:55:14.223Z</time></trkpt><trkpt lat="42.76202" lon="11.66985"><ele>883.0</ele><time>2026-04-01T12:55:15.222Z</time></trkpt><trkpt lat="42.7619917" lon="11.6697717"><ele>883.0</ele><time>2026-04-01T12:55:16.223Z</time></trkpt><trkpt lat="42.7619717" lon="11.6696833"><ele>883.0</ele><time>2026-04-01T12:55:17.223Z</time></trkpt><trkpt lat="42.76195" lon="11.6695933"><ele>883.0</ele><time>2026-04-01T12:55:18.222Z</time></trkpt><trkpt lat="42.7619217" lon="11.6694967"><ele>883.0</ele><time>2026-04-01T12:55:19.222Z</time></trkpt><trkpt lat="42.7618967" lon="11.6694167"><ele>883.0</ele><time>2026-04-01T12:55:20.222Z</time></trkpt><trkpt lat="42.761855" lon="11.6692717"><ele>883.0</ele><time>2026-04-01T12:55:22.223Z</time></trkpt><trkpt lat="42.7618117" lon="11.6691183"><ele>883.0</ele><time>2026-04-01T12:55:24.223Z</time></trkpt><trkpt lat="42.761765" lon="11.6689917"><ele>879.5714285714286</ele><time>2026-04-01T12:55:26.223Z</time></trkpt><trkpt lat="42.7616917" lon="11.66893"><ele>876.1428571428571</ele><time>2026-04-01T12:55:28.223Z</time></trkpt><trkpt lat="42.7616017" lon="11.668945"><ele>872.7142857142857</ele><time>2026-04-01T12:55:30.222Z</time></trkpt><trkpt lat="42.7615433" lon="11.6689983"><ele>869.2857142857142</ele><time>2026-04-01T12:55:31.223Z</time></trkpt><trkpt lat="42.7615033" lon="11.6690717"><ele>865.8571428571429</ele><time>2026-04-01T12:55:32.223Z</time></trkpt><trkpt lat="42.76147" lon="11.66915"><ele>862.4285714285713</ele><time>2026-04-01T12:55:33.223Z</time></trkpt><trkpt lat="42.76144" lon="11.6692267"><ele>859.0</ele><time>2026-04-01T12:55:34.223Z</time></trkpt><trkpt lat="42.7613767" lon="11.6693433"><ele>858.9999999999999</ele><time>2026-04-01T12:55:36.223Z</time></trkpt><trkpt lat="42.7612983" lon="11.6693983"><ele>859.0</ele><time>2026-04-01T12:55:38.223Z</time></trkpt><trkpt lat="42.7612083" lon="11.66936"><ele>859.0</ele><time>2026-04-01T12:55:40.222Z</time></trkpt><trkpt lat="42.7611433" lon="11.6692333"><ele>859.0</ele><time>2026-04-01T12:55:42.222Z</time></trkpt><trkpt lat="42.761135" lon="11.6691483"><ele>858.9999999999999</ele><time>2026-04-01T12:55:43.223Z</time></trkpt><trkpt lat="42.7611483" lon="11.6690517"><ele>859.0</ele><time>2026-04-01T12:55:44.223Z</time></trkpt><trkpt lat="42.761165" lon="11.6689567"><ele>859.0</ele><time>2026-04-01T12:55:45.223Z</time></trkpt><trkpt lat="42.7611917" lon="11.6688017"><ele>859.0000000000001</ele><time>2026-04-01T12:55:47.222Z</time></trkpt><trkpt lat="42.7612233" lon="11.6686833"><ele>859.0000000000001</ele><time>2026-04-01T12:55:49.223Z</time></trkpt><trkpt lat="42.7612" lon="11.66859"><ele>859.0</ele><time>2026-04-01T12:55:51.223Z</time></trkpt><trkpt lat="42.7611283" lon="11.6685083"><ele>859.0</ele><time>2026-04-01T12:55:53.222Z</time></trkpt><trkpt lat="42.7610383" lon="11.6684767"><ele>855.6666666666666</ele><time>2026-04-01T12:55:55.222Z</time></trkpt><trkpt lat="42.76095" lon="11.66847"><ele>852.3333333333333</ele><time>2026-04-01T12:55:57.222Z</time></trkpt><trkpt lat="42.7608583" lon="11.6684583"><ele>849.0</ele><time>2026-04-01T12:55:59.223Z</time></trkpt><trkpt lat="42.7607917" lon="11.6684633"><ele>845.6666666666667</ele><time>2026-04-01T12:56:01.223Z</time></trkpt><trkpt lat="42.7607233" lon="11.6684533"><ele>842.3333333333334</ele><time>2026-04-01T12:56:05.224Z</time></trkpt><trkpt lat="42.7607983" lon="11.6684667"><ele>839.0</ele><time>2026-04-01T12:56:30.223Z</time></trkpt><trkpt lat="42.76087" lon="11.668395"><ele>839.0</ele><time>2026-04-01T12:56:38.224Z</time></trkpt><trkpt lat="42.7608483" lon="11.668295"><ele>839.0</ele><time>2026-04-01T12:56:48.223Z</time></trkpt><trkpt lat="42.760815" lon="11.6682183"><ele>839.0</ele><time>2026-04-01T12:56:50.224Z</time></trkpt><trkpt lat="42.76085" lon="11.6681467"><ele>839.0</ele><time>2026-04-01T12:57:09.224Z</time></trkpt><trkpt lat="42.760925" lon="11.6681433"><ele>839.0</ele><time>2026-04-01T12:57:11.224Z</time></trkpt><trkpt lat="42.7610033" lon="11.66811"><ele>839.0</ele><time>2026-04-01T12:57:13.224Z</time></trkpt><trkpt lat="42.761065" lon="11.6680317"><ele>839.0</ele><time>2026-04-01T12:57:15.224Z</time></trkpt><trkpt lat="42.7611083" lon="11.6679583"><ele>839.0000000000001</ele><time>2026-04-01T12:57:17.223Z</time></trkpt><trkpt lat="42.7611783" lon="11.6678867"><ele>839.0</ele><time>2026-04-01T12:57:20.224Z</time></trkpt><trkpt lat="42.7612517" lon="11.667865"><ele>839.0</ele><time>2026-04-01T12:57:35.224Z</time></trkpt><trkpt lat="42.761175" lon="11.6678983"><ele>839.0</ele><time>2026-04-01T12:58:05.223Z</time></trkpt><trkpt lat="42.7611217" lon="11.6679533"><ele>839.0000000000001</ele><time>2026-04-01T12:58:07.224Z</time></trkpt><trkpt lat="42.7610683" lon="11.66806"><ele>839.0</ele><time>2026-04-01T12:58:09.224Z</time></trkpt><trkpt lat="42.7610017" lon="11.6681067"><ele>839.0000000000001</ele><time>2026-04-01T12:58:11.223Z</time></trkpt><trkpt lat="42.7608917" lon="11.66812"><ele>839.0</ele><time>2026-04-01T12:58:13.224Z</time></trkpt><trkpt lat="42.7608217" lon="11.6681333"><ele>839.0</ele><time>2026-04-01T12:58:15.224Z</time></trkpt><trkpt lat="42.7608133" lon="11.66824"><ele>839.0</ele><time>2026-04-01T12:58:18.224Z</time></trkpt><trkpt lat="42.76085" lon="11.6683533"><ele>839.0000000000001</ele><time>2026-04-01T12:58:20.224Z</time></trkpt><trkpt lat="42.7608683" lon="11.66844"><ele>839.0</ele><time>2026-04-01T12:58:23.223Z</time></trkpt><trkpt lat="42.7607917" lon="11.66844"><ele>839.0</ele><time>2026-04-01T12:58:28.224Z</time></trkpt><trkpt lat="42.7607267" lon="11.6684417"><ele>839.0</ele><time>2026-04-01T12:58:33.224Z</time></trkpt><trkpt lat="42.7606483" lon="11.6684517"><ele>839.0</ele><time>2026-04-01T12:59:24.224Z</time></trkpt><trkpt lat="42.7605817" lon="11.6685017"><ele>839.0</ele><time>2026-04-01T12:59:27.224Z</time></trkpt><trkpt lat="42.7605317" lon="11.6685583"><ele>839.0</ele><time>2026-04-01T12:59:29.223Z</time></trkpt><trkpt lat="42.7604683" lon="11.6686167"><ele>839.0</ele><time>2026-04-01T12:59:31.223Z</time></trkpt><trkpt lat="42.7603967" lon="11.66864"><ele>839.0</ele><time>2026-04-01T12:59:33.224Z</time></trkpt><trkpt lat="42.7603267" lon="11.66864"><ele>839.0000000000001</ele><time>2026-04-01T12:59:35.224Z</time></trkpt><trkpt lat="42.7602633" lon="11.66859"><ele>839.0</ele><time>2026-04-01T12:59:37.224Z</time></trkpt><trkpt lat="42.7602083" lon="11.6684717"><ele>839.0</ele><time>2026-04-01T12:59:39.224Z</time></trkpt><trkpt lat="42.7601833" lon="11.6683433"><ele>839.0</ele><time>2026-04-01T12:59:41.224Z</time></trkpt><trkpt lat="42.7602" lon="11.6682383"><ele>839.0000000000001</ele><time>2026-04-01T12:59:43.224Z</time></trkpt><trkpt lat="42.760245" lon="11.6681483"><ele>839.0</ele><time>2026-04-01T12:59:45.224Z</time></trkpt><trkpt lat="42.7602617" lon="11.6680417"><ele>839.0</ele><time>2026-04-01T12:59:47.223Z</time></trkpt><trkpt lat="42.760225" lon="11.667945"><ele>839.0</ele><time>2026-04-01T12:59:49.224Z</time></trkpt><trkpt lat="42.7601633" lon="11.6679267"><ele>839.0</ele><time>2026-04-01T12:59:51.224Z</time></trkpt><trkpt lat="42.760105" lon="11.6680267"><ele>839.0</ele><time>2026-04-01T12:59:54.224Z</time></trkpt><trkpt lat="42.7600617" lon="11.6680933"><ele>839.0</ele><time>2026-04-01T12:59:56.223Z</time></trkpt><trkpt lat="42.7600167" lon="11.6681667"><ele>839.0</ele><time>2026-04-01T12:59:58.223Z</time></trkpt><trkpt lat="42.7599667" lon="11.66824"><ele>839.0</ele><time>2026-04-01T13:00:01.224Z</time></trkpt><trkpt lat="42.7599017" lon="11.6682933"><ele>837.5000000000001</ele><time>2026-04-01T13:00:04.224Z</time></trkpt><trkpt lat="42.7598617" lon="11.6683667"><ele>836.0</ele><time>2026-04-01T13:00:06.223Z</time></trkpt><trkpt lat="42.7598033" lon="11.66846"><ele>834.5</ele><time>2026-04-01T13:00:08.224Z</time></trkpt><trkpt lat="42.75978" lon="11.6685983"><ele>833.0</ele><time>2026-04-01T13:00:10.224Z</time></trkpt><trkpt lat="42.7597817" lon="11.6686867"><ele>831.5000000000001</ele><time>2026-04-01T13:00:11.224Z</time></trkpt><trkpt lat="42.75978" lon="11.6687783"><ele>830.0</ele><time>2026-04-01T13:00:12.224Z</time></trkpt><trkpt lat="42.7597467" lon="11.66894"><ele>830.0</ele><time>2026-04-01T13:00:14.223Z</time></trkpt><trkpt lat="42.7596833" lon="11.6690517"><ele>830.0</ele><time>2026-04-01T13:00:16.224Z</time></trkpt><trkpt lat="42.75959" lon="11.6691067"><ele>830.0</ele><time>2026-04-01T13:00:18.224Z</time></trkpt><trkpt lat="42.7594733" lon="11.6691383"><ele>830.0</ele><time>2026-04-01T13:00:20.224Z</time></trkpt><trkpt lat="42.7594083" lon="11.6691617"><ele>830.0</ele><time>2026-04-01T13:00:21.223Z</time></trkpt><trkpt lat="42.759345" lon="11.6692133"><ele>828.6666666666667</ele><time>2026-04-01T13:00:22.224Z</time></trkpt><trkpt lat="42.759275" lon="11.669275"><ele>827.3333333333334</ele><time>2026-04-01T13:00:23.224Z</time></trkpt><trkpt lat="42.7592117" lon="11.66935"><ele>826.0</ele><time>2026-04-01T13:00:24.224Z</time></trkpt><trkpt lat="42.7591517" lon="11.6694367"><ele>824.6666666666667</ele><time>2026-04-01T13:00:25.224Z</time></trkpt><trkpt lat="42.7591" lon="11.6695233"><ele>823.3333333333334</ele><time>2026-04-01T13:00:26.223Z</time></trkpt><trkpt lat="42.7590633" lon="11.6696067"><ele>822.0</ele><time>2026-04-01T13:00:27.223Z</time></trkpt><trkpt lat="42.7590217" lon="11.669685"><ele>822.0</ele><time>2026-04-01T13:00:28.224Z</time></trkpt><trkpt lat="42.7589783" lon="11.6697567"><ele>822.0</ele><time>2026-04-01T13:00:29.223Z</time></trkpt><trkpt lat="42.75893" lon="11.669825"><ele>822.0</ele><time>2026-04-01T13:00:30.224Z</time></trkpt><trkpt lat="42.7588633" lon="11.66989"><ele>822.0</ele><time>2026-04-01T13:00:31.224Z</time></trkpt><trkpt lat="42.758795" lon="11.66996"><ele>822.0</ele><time>2026-04-01T13:00:32.224Z</time></trkpt><trkpt lat="42.758725" lon="11.6700233"><ele>822.0</ele><time>2026-04-01T13:00:33.224Z</time></trkpt><trkpt lat="42.7586617" lon="11.6700783"><ele>822.0</ele><time>2026-04-01T13:00:34.223Z</time></trkpt><trkpt lat="42.7586033" lon="11.6701383"><ele>822.0</ele><time>2026-04-01T13:00:35.223Z</time></trkpt><trkpt lat="42.7585467" lon="11.670195"><ele>822.0</ele><time>2026-04-01T13:00:36.224Z</time></trkpt><trkpt lat="42.7584883" lon="11.6702533"><ele>822.0</ele><time>2026-04-01T13:00:37.224Z</time></trkpt><trkpt lat="42.7584283" lon="11.6703217"><ele>822.0</ele><time>2026-04-01T13:00:38.223Z</time></trkpt><trkpt lat="42.75837" lon="11.670385"><ele>822.0</ele><time>2026-04-01T13:00:39.224Z</time></trkpt><trkpt lat="42.7583067" lon="11.6704383"><ele>822.0</ele><time>2026-04-01T13:00:40.223Z</time></trkpt><trkpt lat="42.7582467" lon="11.6704783"><ele>821.3333333333334</ele><time>2026-04-01T13:00:41.224Z</time></trkpt><trkpt lat="42.7581783" lon="11.670515"><ele>820.6666666666667</ele><time>2026-04-01T13:00:42.224Z</time></trkpt><trkpt lat="42.7580783" lon="11.67061"><ele>820.0</ele><time>2026-04-01T13:00:44.223Z</time></trkpt><trkpt lat="42.75803" lon="11.6706933"><ele>819.3333333333334</ele><time>2026-04-01T13:00:45.223Z</time></trkpt><trkpt lat="42.757995" lon="11.6707783"><ele>818.6666666666667</ele><time>2026-04-01T13:00:46.223Z</time></trkpt><trkpt lat="42.7579683" lon="11.6708583"><ele>818.0</ele><time>2026-04-01T13:00:47.224Z</time></trkpt><trkpt lat="42.757925" lon="11.670985"><ele>818.0</ele><time>2026-04-01T13:00:49.223Z</time></trkpt><trkpt lat="42.7578467" lon="11.6710633"><ele>818.0</ele><time>2026-04-01T13:00:51.223Z</time></trkpt><trkpt lat="42.7577333" lon="11.6711067"><ele>818.0</ele><time>2026-04-01T13:00:53.224Z</time></trkpt><trkpt lat="42.7576117" lon="11.6710783"><ele>818.0</ele><time>2026-04-01T13:00:55.224Z</time></trkpt><trkpt lat="42.75751" lon="11.6710067"><ele>815.5000000000001</ele><time>2026-04-01T13:00:57.224Z</time></trkpt><trkpt lat="42.7574183" lon="11.6708833"><ele>813.0</ele><time>2026-04-01T13:00:59.223Z</time></trkpt><trkpt lat="42.7573733" lon="11.6708"><ele>810.5</ele><time>2026-04-01T13:01:00.223Z</time></trkpt><trkpt lat="42.757335" lon="11.67073"><ele>808.0</ele><time>2026-04-01T13:01:01.224Z</time></trkpt><trkpt lat="42.757295" lon="11.670655"><ele>805.5000000000001</ele><time>2026-04-01T13:01:02.224Z</time></trkpt><trkpt lat="42.75725" lon="11.670585"><ele>803.0</ele><time>2026-04-01T13:01:03.224Z</time></trkpt><trkpt lat="42.7572083" lon="11.670515"><ele>803.0000000000001</ele><time>2026-04-01T13:01:04.224Z</time></trkpt><trkpt lat="42.7571533" lon="11.670445"><ele>803.0</ele><time>2026-04-01T13:01:05.223Z</time></trkpt><trkpt lat="42.7571067" lon="11.6703617"><ele>803.0</ele><time>2026-04-01T13:01:06.223Z</time></trkpt><trkpt lat="42.75706" lon="11.6702883"><ele>803.0</ele><time>2026-04-01T13:01:07.223Z</time></trkpt><trkpt lat="42.7570167" lon="11.6702183"><ele>803.0000000000001</ele><time>2026-04-01T13:01:08.224Z</time></trkpt><trkpt lat="42.7569317" lon="11.670115"><ele>803.0</ele><time>2026-04-01T13:01:10.224Z</time></trkpt><trkpt lat="42.756825" lon="11.6700733"><ele>801.2857142857142</ele><time>2026-04-01T13:01:12.224Z</time></trkpt><trkpt lat="42.75676" lon="11.6700867"><ele>799.5714285714286</ele><time>2026-04-01T13:01:13.223Z</time></trkpt><trkpt lat="42.75669" lon="11.670115"><ele>797.8571428571429</ele><time>2026-04-01T13:01:14.224Z</time></trkpt><trkpt lat="42.7566217" lon="11.67016"><ele>796.1428571428571</ele><time>2026-04-01T13:01:15.224Z</time></trkpt><trkpt lat="42.7565517" lon="11.6701983"><ele>794.4285714285714</ele><time>2026-04-01T13:01:16.223Z</time></trkpt><trkpt lat="42.75648" lon="11.670225"><ele>792.7142857142857</ele><time>2026-04-01T13:01:17.224Z</time></trkpt><trkpt lat="42.75642" lon="11.6702517"><ele>791.0</ele><time>2026-04-01T13:01:18.224Z</time></trkpt><trkpt lat="42.7563133" lon="11.670295"><ele>790.4</ele><time>2026-04-01T13:01:20.224Z</time></trkpt><trkpt lat="42.75624" lon="11.6702217"><ele>789.8</ele><time>2026-04-01T13:01:22.224Z</time></trkpt><trkpt lat="42.7562167" lon="11.6700633"><ele>789.1999999999999</ele><time>2026-04-01T13:01:24.224Z</time></trkpt><trkpt lat="42.7561833" lon="11.6699"><ele>788.5999999999999</ele><time>2026-04-01T13:01:26.224Z</time></trkpt><trkpt lat="42.75616" lon="11.66982"><ele>788.0</ele><time>2026-04-01T13:01:27.224Z</time></trkpt><trkpt lat="42.75611" lon="11.6697033"><ele>786.0000000000001</ele><time>2026-04-01T13:01:29.223Z</time></trkpt><trkpt lat="42.7560117" lon="11.6696567"><ele>784.0</ele><time>2026-04-01T13:01:31.224Z</time></trkpt><trkpt lat="42.7559217" lon="11.6697333"><ele>782.0</ele><time>2026-04-01T13:01:33.224Z</time></trkpt><trkpt lat="42.7558667" lon="11.66979"><ele>780.0</ele><time>2026-04-01T13:01:34.223Z</time></trkpt><trkpt lat="42.7558083" lon="11.6698267"><ele>778.0000000000001</ele><time>2026-04-01T13:01:35.224Z</time></trkpt><trkpt lat="42.7557133" lon="11.6698417"><ele>776.0</ele><time>2026-04-01T13:01:37.223Z</time></trkpt><trkpt lat="42.7556083" lon="11.6697567"><ele>776.0</ele><time>2026-04-01T13:01:39.224Z</time></trkpt><trkpt lat="42.75554" lon="11.66968"><ele>776.0</ele><time>2026-04-01T13:01:40.224Z</time></trkpt><trkpt lat="42.755465" lon="11.669585"><ele>776.0</ele><time>2026-04-01T13:01:41.224Z</time></trkpt><trkpt lat="42.755375" lon="11.6694967"><ele>776.0</ele><time>2026-04-01T13:01:42.224Z</time></trkpt><trkpt lat="42.7552883" lon="11.66943"><ele>776.0</ele><time>2026-04-01T13:01:43.224Z</time></trkpt><trkpt lat="42.7552167" lon="11.6693817"><ele>774.5000000000001</ele><time>2026-04-01T13:01:44.224Z</time></trkpt><trkpt lat="42.7551433" lon="11.669345"><ele>773.0</ele><time>2026-04-01T13:01:45.223Z</time></trkpt><trkpt lat="42.7550667" lon="11.669315"><ele>771.5</ele><time>2026-04-01T13:01:46.223Z</time></trkpt><trkpt lat="42.7549867" lon="11.6692817"><ele>770.0</ele><time>2026-04-01T13:01:47.224Z</time></trkpt><trkpt lat="42.7549033" lon="11.669255"><ele>768.5</ele><time>2026-04-01T13:01:48.223Z</time></trkpt><trkpt lat="42.7548267" lon="11.66924"><ele>767.0</ele><time>2026-04-01T13:01:49.223Z</time></trkpt><trkpt lat="42.75475" lon="11.6692233"><ele>767.0</ele><time>2026-04-01T13:01:50.224Z</time></trkpt><trkpt lat="42.7546667" lon="11.6692067"><ele>767.0</ele><time>2026-04-01T13:01:51.223Z</time></trkpt><trkpt lat="42.7545767" lon="11.6691867"><ele>767.0</ele><time>2026-04-01T13:01:52.223Z</time></trkpt><trkpt lat="42.7544867" lon="11.6691683"><ele>767.0</ele><time>2026-04-01T13:01:53.224Z</time></trkpt><trkpt lat="42.7544017" lon="11.6691583"><ele>767.0</ele><time>2026-04-01T13:01:54.224Z</time></trkpt><trkpt lat="42.754315" lon="11.6691433"><ele>767.0</ele><time>2026-04-01T13:01:55.224Z</time></trkpt><trkpt lat="42.75422" lon="11.66913"><ele>766.1666666666666</ele><time>2026-04-01T13:01:56.224Z</time></trkpt><trkpt lat="42.7541317" lon="11.669135"><ele>765.3333333333333</ele><time>2026-04-01T13:01:57.224Z</time></trkpt><trkpt lat="42.75405" lon="11.6691383"><ele>764.5</ele><time>2026-04-01T13:01:58.224Z</time></trkpt><trkpt lat="42.7539783" lon="11.6691367"><ele>763.6666666666666</ele><time>2026-04-01T13:01:59.223Z</time></trkpt><trkpt lat="42.753915" lon="11.6691367"><ele>762.8333333333334</ele><time>2026-04-01T13:02:00.224Z</time></trkpt><trkpt lat="42.7538117" lon="11.6691583"><ele>762.0</ele><time>2026-04-01T13:02:02.223Z</time></trkpt><trkpt lat="42.7537083" lon="11.669235"><ele>762.0</ele><time>2026-04-01T13:02:04.224Z</time></trkpt><trkpt lat="42.7536383" lon="11.669295"><ele>762.0</ele><time>2026-04-01T13:02:05.224Z</time></trkpt><trkpt lat="42.7535717" lon="11.6694017"><ele>762.0</ele><time>2026-04-01T13:02:06.224Z</time></trkpt><trkpt lat="42.753505" lon="11.6695483"><ele>762.0</ele><time>2026-04-01T13:02:07.224Z</time></trkpt><trkpt lat="42.7534467" lon="11.6697283"><ele>761.0</ele><time>2026-04-01T13:02:08.223Z</time></trkpt><trkpt lat="42.7533917" lon="11.6698783"><ele>760.0</ele><time>2026-04-01T13:02:09.224Z</time></trkpt><trkpt lat="42.7533483" lon="11.6700233"><ele>759.0</ele><time>2026-04-01T13:02:10.224Z</time></trkpt><trkpt lat="42.75332" lon="11.6701667"><ele>758.0</ele><time>2026-04-01T13:02:11.223Z</time></trkpt><trkpt lat="42.7532917" lon="11.670315"><ele>758.0</ele><time>2026-04-01T13:02:12.224Z</time></trkpt><trkpt lat="42.7532667" lon="11.67044"><ele>758.0</ele><time>2026-04-01T13:02:13.224Z</time></trkpt><trkpt lat="42.7532483" lon="11.67059"><ele>758.0</ele><time>2026-04-01T13:02:14.224Z</time></trkpt><trkpt lat="42.7532317" lon="11.6707383"><ele>758.0</ele><time>2026-04-01T13:02:15.224Z</time></trkpt><trkpt lat="42.7532067" lon="11.6708933"><ele>758.0</ele><time>2026-04-01T13:02:16.224Z</time></trkpt><trkpt lat="42.753175" lon="11.671045"><ele>757.0</ele><time>2026-04-01T13:02:17.223Z</time></trkpt><trkpt lat="42.7531433" lon="11.6712033"><ele>756.0</ele><time>2026-04-01T13:02:18.223Z</time></trkpt><trkpt lat="42.7531117" lon="11.6713683"><ele>755.0</ele><time>2026-04-01T13:02:19.224Z</time></trkpt><trkpt lat="42.7530867" lon="11.67152"><ele>754.0</ele><time>2026-04-01T13:02:20.224Z</time></trkpt><trkpt lat="42.75307" lon="11.6716683"><ele>754.0</ele><time>2026-04-01T13:02:21.223Z</time></trkpt><trkpt lat="42.7530633" lon="11.6718367"><ele>754.0</ele><time>2026-04-01T13:02:22.224Z</time></trkpt><trkpt lat="42.7530767" lon="11.6720167"><ele>754.0</ele><time>2026-04-01T13:02:23.224Z</time></trkpt><trkpt lat="42.753095" lon="11.67219"><ele>754.0</ele><time>2026-04-01T13:02:24.223Z</time></trkpt><trkpt lat="42.7531183" lon="11.6723633"><ele>753.75</ele><time>2026-04-01T13:02:25.223Z</time></trkpt><trkpt lat="42.75315" lon="11.6725283"><ele>753.5</ele><time>2026-04-01T13:02:26.223Z</time></trkpt><trkpt lat="42.753195" lon="11.6726933"><ele>753.25</ele><time>2026-04-01T13:02:27.224Z</time></trkpt><trkpt lat="42.7532367" lon="11.672855"><ele>753.0</ele><time>2026-04-01T13:02:28.223Z</time></trkpt><trkpt lat="42.7532717" lon="11.6730133"><ele>753.0</ele><time>2026-04-01T13:02:29.224Z</time></trkpt><trkpt lat="42.7532967" lon="11.6731817"><ele>753.0</ele><time>2026-04-01T13:02:30.224Z</time></trkpt><trkpt lat="42.7533067" lon="11.67335"><ele>753.0</ele><time>2026-04-01T13:02:31.223Z</time></trkpt><trkpt lat="42.7533" lon="11.6735217"><ele>753.0</ele><time>2026-04-01T13:02:32.223Z</time></trkpt><trkpt lat="42.7532867" lon="11.673675"><ele>753.0</ele><time>2026-04-01T13:02:33.224Z</time></trkpt><trkpt lat="42.7532367" lon="11.6738417"><ele>753.0</ele><time>2026-04-01T13:02:34.224Z</time></trkpt><trkpt lat="42.7531733" lon="11.6740033"><ele>753.0</ele><time>2026-04-01T13:02:35.224Z</time></trkpt><trkpt lat="42.7531267" lon="11.6741217"><ele>753.0</ele><time>2026-04-01T13:02:36.224Z</time></trkpt><trkpt lat="42.7530517" lon="11.6742617"><ele>753.0</ele><time>2026-04-01T13:02:37.224Z</time></trkpt><trkpt lat="42.752975" lon="11.6743933"><ele>753.0</ele><time>2026-04-01T13:02:38.223Z</time></trkpt><trkpt lat="42.7528833" lon="11.6745167"><ele>753.0</ele><time>2026-04-01T13:02:39.224Z</time></trkpt><trkpt lat="42.752785" lon="11.6746617"><ele>753.0</ele><time>2026-04-01T13:02:40.224Z</time></trkpt><trkpt lat="42.7527033" lon="11.6747817"><ele>749.6666666666666</ele><time>2026-04-01T13:02:41.224Z</time></trkpt><trkpt lat="42.7526017" lon="11.674925"><ele>746.3333333333333</ele><time>2026-04-01T13:02:42.223Z</time></trkpt><trkpt lat="42.7524967" lon="11.6750933"><ele>743.0</ele><time>2026-04-01T13:02:43.224Z</time></trkpt><trkpt lat="42.7523983" lon="11.6752783"><ele>743.0</ele><time>2026-04-01T13:02:44.224Z</time></trkpt><trkpt lat="42.752295" lon="11.6754667"><ele>743.0</ele><time>2026-04-01T13:02:45.224Z</time></trkpt><trkpt lat="42.75221" lon="11.6756417"><ele>743.0</ele><time>2026-04-01T13:02:46.224Z</time></trkpt><trkpt lat="42.7521383" lon="11.6757983"><ele>743.0</ele><time>2026-04-01T13:02:47.224Z</time></trkpt><trkpt lat="42.7520817" lon="11.6759433"><ele>743.0</ele><time>2026-04-01T13:02:48.224Z</time></trkpt><trkpt lat="42.7520367" lon="11.67607"><ele>743.0</ele><time>2026-04-01T13:02:49.224Z</time></trkpt><trkpt lat="42.7520017" lon="11.6761817"><ele>743.0</ele><time>2026-04-01T13:02:50.224Z</time></trkpt><trkpt lat="42.751975" lon="11.6762717"><ele>743.0</ele><time>2026-04-01T13:02:51.223Z</time></trkpt><trkpt lat="42.75196" lon="11.6763967"><ele>742.7142857142858</ele><time>2026-04-01T13:02:53.223Z</time></trkpt><trkpt lat="42.7519683" lon="11.676495"><ele>742.4285714285713</ele><time>2026-04-01T13:02:55.224Z</time></trkpt><trkpt lat="42.7519683" lon="11.6765833"><ele>742.1428571428571</ele><time>2026-04-01T13:02:57.225Z</time></trkpt><trkpt lat="42.7519517" lon="11.6766783"><ele>741.8571428571429</ele><time>2026-04-01T13:03:01.225Z</time></trkpt><trkpt lat="42.751885" lon="11.67672"><ele>741.5714285714287</ele><time>2026-04-01T13:03:04.224Z</time></trkpt><trkpt lat="42.7518117" lon="11.6767383"><ele>741.2857142857142</ele><time>2026-04-01T13:03:06.225Z</time></trkpt><trkpt lat="42.751735" lon="11.676765"><ele>741.0</ele><time>2026-04-01T13:03:08.225Z</time></trkpt><trkpt lat="42.7516617" lon="11.6767733"><ele>741.0</ele><time>2026-04-01T13:03:11.224Z</time></trkpt><trkpt lat="42.7515833" lon="11.6767833"><ele>741.0</ele><time>2026-04-01T13:03:14.225Z</time></trkpt><trkpt lat="42.7515033" lon="11.67678"><ele>741.0</ele><time>2026-04-01T13:03:17.225Z</time></trkpt><trkpt lat="42.7514217" lon="11.676775"><ele>741.0</ele><time>2026-04-01T13:03:20.225Z</time></trkpt><trkpt lat="42.7513417" lon="11.67681"><ele>741.0</ele><time>2026-04-01T13:03:30.225Z</time></trkpt><trkpt lat="42.751255" lon="11.67685"><ele>741.0</ele><time>2026-04-01T13:03:38.225Z</time></trkpt><trkpt lat="42.7511933" lon="11.6768167"><ele>741.0</ele><time>2026-04-01T13:03:40.224Z</time></trkpt><trkpt lat="42.7511283" lon="11.6767667"><ele>741.0</ele><time>2026-04-01T13:03:42.225Z</time></trkpt><trkpt lat="42.7510817" lon="11.67668"><ele>741.0</ele><time>2026-04-01T13:03:44.225Z</time></trkpt><trkpt lat="42.7510383" lon="11.676575"><ele>741.0</ele><time>2026-04-01T13:03:46.225Z</time></trkpt><trkpt lat="42.7510017" lon="11.6764617"><ele>741.0</ele><time>2026-04-01T13:03:48.225Z</time></trkpt><trkpt lat="42.7509567" lon="11.6763233"><ele>741.0</ele><time>2026-04-01T13:03:50.224Z</time></trkpt><trkpt lat="42.7509283" lon="11.67621"><ele>741.6666666666666</ele><time>2026-04-01T13:03:51.224Z</time></trkpt><trkpt lat="42.7509117" lon="11.6761183"><ele>742.3333333333334</ele><time>2026-04-01T13:03:52.225Z</time></trkpt><trkpt lat="42.7508733" lon="11.67599"><ele>743.0</ele><time>2026-04-01T13:03:53.225Z</time></trkpt><trkpt lat="42.750855" lon="11.6758933"><ele>743.6666666666667</ele><time>2026-04-01T13:03:54.225Z</time></trkpt><trkpt lat="42.7508333" lon="11.6758083"><ele>744.3333333333334</ele><time>2026-04-01T13:03:55.224Z</time></trkpt><trkpt lat="42.7507867" lon="11.6756833"><ele>745.0</ele><time>2026-04-01T13:03:57.225Z</time></trkpt><trkpt lat="42.750745" lon="11.6755733"><ele>745.0</ele><time>2026-04-01T13:03:59.225Z</time></trkpt><trkpt lat="42.750695" lon="11.675485"><ele>745.0</ele><time>2026-04-01T13:04:01.225Z</time></trkpt><trkpt lat="42.75065" lon="11.6753667"><ele>745.0</ele><time>2026-04-01T13:04:03.225Z</time></trkpt><trkpt lat="42.7505917" lon="11.67525"><ele>745.0</ele><time>2026-04-01T13:04:05.225Z</time></trkpt><trkpt lat="42.75051" lon="11.6751567"><ele>745.0</ele><time>2026-04-01T13:04:07.225Z</time></trkpt><trkpt lat="42.75042" lon="11.6750867"><ele>745.0</ele><time>2026-04-01T13:04:09.224Z</time></trkpt><trkpt lat="42.7503467" lon="11.6750933"><ele>745.0</ele><time>2026-04-01T13:04:12.225Z</time></trkpt><trkpt lat="42.7502567" lon="11.67501"><ele>745.0</ele><time>2026-04-01T13:04:14.224Z</time></trkpt><trkpt lat="42.75017" lon="11.6749483"><ele>745.0</ele><time>2026-04-01T13:04:18.225Z</time></trkpt><trkpt lat="42.750105" lon="11.674985"><ele>745.0</ele><time>2026-04-01T13:04:28.224Z</time></trkpt><trkpt lat="42.750035" lon="11.6750883"><ele>746.4</ele><time>2026-04-01T13:04:31.224Z</time></trkpt><trkpt lat="42.7499667" lon="11.6752317"><ele>747.8</ele><time>2026-04-01T13:04:33.225Z</time></trkpt><trkpt lat="42.7499167" lon="11.675325"><ele>749.2</ele><time>2026-04-01T13:04:34.224Z</time></trkpt><trkpt lat="42.74986" lon="11.675425"><ele>750.6</ele><time>2026-04-01T13:04:35.225Z</time></trkpt><trkpt lat="42.7497933" lon="11.6755333"><ele>752.0</ele><time>2026-04-01T13:04:36.224Z</time></trkpt><trkpt lat="42.7497367" lon="11.6756267"><ele>752.3333333333333</ele><time>2026-04-01T13:04:37.225Z</time></trkpt><trkpt lat="42.74969" lon="11.6757117"><ele>752.6666666666666</ele><time>2026-04-01T13:04:38.224Z</time></trkpt><trkpt lat="42.74962" lon="11.6757867"><ele>753.0</ele><time>2026-04-01T13:04:39.224Z</time></trkpt><trkpt lat="42.7495683" lon="11.6758567"><ele>753.3333333333334</ele><time>2026-04-01T13:04:40.225Z</time></trkpt><trkpt lat="42.749525" lon="11.6759283"><ele>753.6666666666667</ele><time>2026-04-01T13:04:41.225Z</time></trkpt><trkpt lat="42.749445" lon="11.67605"><ele>754.0</ele><time>2026-04-01T13:04:43.225Z</time></trkpt><trkpt lat="42.7493933" lon="11.6761733"><ele>755.3333333333334</ele><time>2026-04-01T13:04:45.225Z</time></trkpt><trkpt lat="42.7493333" lon="11.6763133"><ele>756.6666666666667</ele><time>2026-04-01T13:04:47.225Z</time></trkpt><trkpt lat="42.7492867" lon="11.6763983"><ele>758.0</ele><time>2026-04-01T13:04:48.225Z</time></trkpt><trkpt lat="42.74925" lon="11.6764917"><ele>759.3333333333334</ele><time>2026-04-01T13:04:49.225Z</time></trkpt><trkpt lat="42.749225" lon="11.6765867"><ele>760.6666666666666</ele><time>2026-04-01T13:04:50.225Z</time></trkpt><trkpt lat="42.74921" lon="11.6767017"><ele>762.0</ele><time>2026-04-01T13:04:51.225Z</time></trkpt><trkpt lat="42.749205" lon="11.6768133"><ele>761.6</ele><time>2026-04-01T13:04:52.224Z</time></trkpt><trkpt lat="42.7491883" lon="11.6769367"><ele>761.2</ele><time>2026-04-01T13:04:53.224Z</time></trkpt><trkpt lat="42.7491717" lon="11.6770533"><ele>760.8</ele><time>2026-04-01T13:04:54.225Z</time></trkpt><trkpt lat="42.7491517" lon="11.6771667"><ele>760.4</ele><time>2026-04-01T13:04:55.225Z</time></trkpt><trkpt lat="42.7491233" lon="11.6772783"><ele>760.0</ele><time>2026-04-01T13:04:56.225Z</time></trkpt><trkpt lat="42.74907" lon="11.67739"><ele>760.0</ele><time>2026-04-01T13:04:57.225Z</time></trkpt><trkpt lat="42.7490133" lon="11.6774783"><ele>760.0</ele><time>2026-04-01T13:04:58.225Z</time></trkpt><trkpt lat="42.748925" lon="11.6775633"><ele>760.0</ele><time>2026-04-01T13:04:59.224Z</time></trkpt><trkpt lat="42.7488317" lon="11.6776417"><ele>760.0</ele><time>2026-04-01T13:05:00.225Z</time></trkpt><trkpt lat="42.7487333" lon="11.6777217"><ele>760.0</ele><time>2026-04-01T13:05:01.224Z</time></trkpt><trkpt lat="42.7486333" lon="11.6777967"><ele>760.4</ele><time>2026-04-01T13:05:02.225Z</time></trkpt><trkpt lat="42.748545" lon="11.67788"><ele>760.8</ele><time>2026-04-01T13:05:03.224Z</time></trkpt><trkpt lat="42.7484767" lon="11.6779633"><ele>761.2</ele><time>2026-04-01T13:05:04.225Z</time></trkpt><trkpt lat="42.7484083" lon="11.6780383"><ele>761.6</ele><time>2026-04-01T13:05:05.224Z</time></trkpt><trkpt lat="42.7483417" lon="11.6781267"><ele>762.0</ele><time>2026-04-01T13:05:06.224Z</time></trkpt><trkpt lat="42.7482917" lon="11.678215"><ele>762.0</ele><time>2026-04-01T13:05:07.224Z</time></trkpt><trkpt lat="42.7482417" lon="11.6783067"><ele>762.0</ele><time>2026-04-01T13:05:08.224Z</time></trkpt><trkpt lat="42.7482017" lon="11.6784067"><ele>762.0</ele><time>2026-04-01T13:05:09.225Z</time></trkpt><trkpt lat="42.7481717" lon="11.678505"><ele>762.0</ele><time>2026-04-01T13:05:10.224Z</time></trkpt><trkpt lat="42.7481533" lon="11.6786083"><ele>762.0</ele><time>2026-04-01T13:05:11.224Z</time></trkpt><trkpt lat="42.748145" lon="11.6787217"><ele>762.0</ele><time>2026-04-01T13:05:12.225Z</time></trkpt><trkpt lat="42.7481567" lon="11.6788383"><ele>761.0</ele><time>2026-04-01T13:05:13.224Z</time></trkpt><trkpt lat="42.74816" lon="11.6789567"><ele>760.0</ele><time>2026-04-01T13:05:14.224Z</time></trkpt><trkpt lat="42.74816" lon="11.6790633"><ele>759.0</ele><time>2026-04-01T13:05:15.225Z</time></trkpt><trkpt lat="42.74815" lon="11.6791567"><ele>758.0</ele><time>2026-04-01T13:05:16.224Z</time></trkpt><trkpt lat="42.7481283" lon="11.6792517"><ele>757.0</ele><time>2026-04-01T13:05:17.224Z</time></trkpt><trkpt lat="42.7480867" lon="11.679325"><ele>756.0</ele><time>2026-04-01T13:05:18.224Z</time></trkpt><trkpt lat="42.7480067" lon="11.67941"><ele>755.3333333333334</ele><time>2026-04-01T13:05:20.225Z</time></trkpt><trkpt lat="42.7479433" lon="11.6794933"><ele>754.6666666666666</ele><time>2026-04-01T13:05:22.225Z</time></trkpt><trkpt lat="42.7478783" lon="11.6795833"><ele>754.0</ele><time>2026-04-01T13:05:24.225Z</time></trkpt><trkpt lat="42.7478167" lon="11.6796433"><ele>753.3333333333333</ele><time>2026-04-01T13:05:26.225Z</time></trkpt><trkpt lat="42.7477517" lon="11.67966"><ele>752.6666666666666</ele><time>2026-04-01T13:05:28.224Z</time></trkpt><trkpt lat="42.7476817" lon="11.6796933"><ele>752.0</ele><time>2026-04-01T13:05:31.224Z</time></trkpt><trkpt lat="42.7476067" lon="11.679735"><ele>754.4000000000001</ele><time>2026-04-01T13:05:35.225Z</time></trkpt><trkpt lat="42.7475267" lon="11.6797567"><ele>756.8000000000001</ele><time>2026-04-01T13:05:37.224Z</time></trkpt><trkpt lat="42.74743" lon="11.6797983"><ele>759.2</ele><time>2026-04-01T13:05:39.224Z</time></trkpt><trkpt lat="42.7473367" lon="11.6798233"><ele>761.6</ele><time>2026-04-01T13:05:41.225Z</time></trkpt><trkpt lat="42.7472083" lon="11.6798083"><ele>764.0</ele><time>2026-04-01T13:05:43.225Z</time></trkpt><trkpt lat="42.74714" lon="11.6797783"><ele>764.0</ele><time>2026-04-01T13:05:44.225Z</time></trkpt><trkpt lat="42.74707" lon="11.6797317"><ele>764.0</ele><time>2026-04-01T13:05:45.224Z</time></trkpt><trkpt lat="42.7470083" lon="11.6796867"><ele>764.0</ele><time>2026-04-01T13:05:46.224Z</time></trkpt><trkpt lat="42.7469533" lon="11.6796383"><ele>764.0</ele><time>2026-04-01T13:05:47.225Z</time></trkpt><trkpt lat="42.7468817" lon="11.6795767"><ele>764.0</ele><time>2026-04-01T13:05:49.225Z</time></trkpt><trkpt lat="42.74679" lon="11.679545"><ele>764.0</ele><time>2026-04-01T13:05:51.225Z</time></trkpt><trkpt lat="42.7466817" lon="11.6794983"><ele>765.1666666666666</ele><time>2026-04-01T13:05:53.224Z</time></trkpt><trkpt lat="42.74659" lon="11.6794817"><ele>766.3333333333333</ele><time>2026-04-01T13:05:55.224Z</time></trkpt><trkpt lat="42.746505" lon="11.6794883"><ele>767.5</ele><time>2026-04-01T13:05:57.224Z</time></trkpt><trkpt lat="42.7464417" lon="11.6795217"><ele>768.6666666666666</ele><time>2026-04-01T13:05:59.224Z</time></trkpt><trkpt lat="42.746355" lon="11.67951"><ele>769.8333333333334</ele><time>2026-04-01T13:06:02.225Z</time></trkpt><trkpt lat="42.7462833" lon="11.6794617"><ele>771.0</ele><time>2026-04-01T13:06:05.225Z</time></trkpt><trkpt lat="42.746205" lon="11.6794233"><ele>771.3333333333334</ele><time>2026-04-01T13:06:08.224Z</time></trkpt><trkpt lat="42.7461167" lon="11.6793933"><ele>771.6666666666667</ele><time>2026-04-01T13:06:11.225Z</time></trkpt><trkpt lat="42.7460533" lon="11.679385"><ele>772.0</ele><time>2026-04-01T13:06:13.225Z</time></trkpt><trkpt lat="42.7459883" lon="11.6793833"><ele>772.3333333333334</ele><time>2026-04-01T13:06:15.224Z</time></trkpt><trkpt lat="42.7459133" lon="11.679375"><ele>772.6666666666667</ele><time>2026-04-01T13:06:17.225Z</time></trkpt><trkpt lat="42.7458283" lon="11.679365"><ele>773.0</ele><time>2026-04-01T13:06:19.225Z</time></trkpt><trkpt lat="42.7457233" lon="11.67935"><ele>773.1666666666667</ele><time>2026-04-01T13:06:21.224Z</time></trkpt><trkpt lat="42.745635" lon="11.6793533"><ele>773.3333333333334</ele><time>2026-04-01T13:06:23.225Z</time></trkpt><trkpt lat="42.7455567" lon="11.679365"><ele>773.5</ele><time>2026-04-01T13:06:25.225Z</time></trkpt><trkpt lat="42.7454683" lon="11.679375"><ele>773.6666666666667</ele><time>2026-04-01T13:06:27.224Z</time></trkpt><trkpt lat="42.7453783" lon="11.6793917"><ele>773.8333333333334</ele><time>2026-04-01T13:06:29.225Z</time></trkpt><trkpt lat="42.745315" lon="11.6794"><ele>774.0</ele><time>2026-04-01T13:06:31.225Z</time></trkpt><trkpt lat="42.7452517" lon="11.6794267"><ele>774.8333333333334</ele><time>2026-04-01T13:06:33.224Z</time></trkpt><trkpt lat="42.7451717" lon="11.6794617"><ele>775.6666666666667</ele><time>2026-04-01T13:06:35.225Z</time></trkpt><trkpt lat="42.7451117" lon="11.6795167"><ele>776.5</ele><time>2026-04-01T13:06:37.225Z</time></trkpt><trkpt lat="42.7450483" lon="11.6795533"><ele>777.3333333333334</ele><time>2026-04-01T13:06:39.225Z</time></trkpt><trkpt lat="42.7449817" lon="11.6795733"><ele>778.1666666666667</ele><time>2026-04-01T13:06:41.225Z</time></trkpt><trkpt lat="42.7448867" lon="11.6796033"><ele>779.0</ele><time>2026-04-01T13:06:44.225Z</time></trkpt><trkpt lat="42.74481" lon="11.6796517"><ele>779.0</ele><time>2026-04-01T13:06:47.224Z</time></trkpt><trkpt lat="42.744745" lon="11.6798"><ele>779.0</ele><time>2026-04-01T13:07:04.225Z</time></trkpt><trkpt lat="42.74474" lon="11.6798917"><ele>779.0</ele><time>2026-04-01T13:07:07.224Z</time></trkpt><trkpt lat="42.744705" lon="11.6800133"><ele>779.0</ele><time>2026-04-01T13:07:10.224Z</time></trkpt><trkpt lat="42.744525" lon="11.6801567"><ele>779.0</ele><time>2026-04-01T13:07:18.224Z</time></trkpt><trkpt lat="42.7444567" lon="11.6802583"><ele>779.0</ele><time>2026-04-01T13:07:21.224Z</time></trkpt><trkpt lat="42.7444117" lon="11.6803867"><ele>779.0</ele><time>2026-04-01T13:07:23.224Z</time></trkpt><trkpt lat="42.744355" lon="11.680505"><ele>779.0</ele><time>2026-04-01T13:07:25.225Z</time></trkpt><trkpt lat="42.7442983" lon="11.680595"><ele>779.0</ele><time>2026-04-01T13:07:27.224Z</time></trkpt><trkpt lat="42.7442217" lon="11.6806483"><ele>778.8333333333334</ele><time>2026-04-01T13:07:29.225Z</time></trkpt><trkpt lat="42.74413" lon="11.6806933"><ele>778.6666666666667</ele><time>2026-04-01T13:07:31.225Z</time></trkpt><trkpt lat="42.7440417" lon="11.6807467"><ele>778.5</ele><time>2026-04-01T13:07:33.225Z</time></trkpt><trkpt lat="42.7439767" lon="11.68078"><ele>778.3333333333333</ele><time>2026-04-01T13:07:35.225Z</time></trkpt><trkpt lat="42.7438967" lon="11.680805"><ele>778.1666666666666</ele><time>2026-04-01T13:07:38.225Z</time></trkpt><trkpt lat="42.7438267" lon="11.68081"><ele>778.0</ele><time>2026-04-01T13:07:41.224Z</time></trkpt><trkpt lat="42.74376" lon="11.68083"><ele>778.0</ele><time>2026-04-01T13:07:44.224Z</time></trkpt><trkpt lat="42.7436733" lon="11.6808567"><ele>778.0</ele><time>2026-04-01T13:07:47.225Z</time></trkpt><trkpt lat="42.7436083" lon="11.6808683"><ele>778.0</ele><time>2026-04-01T13:07:49.225Z</time></trkpt><trkpt lat="42.7435367" lon="11.6808883"><ele>778.0</ele><time>2026-04-01T13:07:51.224Z</time></trkpt><trkpt lat="42.74347" lon="11.6808917"><ele>778.0</ele><time>2026-04-01T13:07:53.224Z</time></trkpt><trkpt lat="42.7433883" lon="11.680865"><ele>778.0</ele><time>2026-04-01T13:07:55.224Z</time></trkpt><trkpt lat="42.7433267" lon="11.6808217"><ele>778.0</ele><time>2026-04-01T13:07:57.224Z</time></trkpt><trkpt lat="42.74316" lon="11.680795"><ele>779.8</ele><time>2026-04-01T13:08:32.224Z</time></trkpt><trkpt lat="42.7430533" lon="11.6807967"><ele>781.5999999999999</ele><time>2026-04-01T13:08:34.225Z</time></trkpt><trkpt lat="42.74294" lon="11.680785"><ele>783.4000000000001</ele><time>2026-04-01T13:08:36.225Z</time></trkpt><trkpt lat="42.7428383" lon="11.680755"><ele>785.2</ele><time>2026-04-01T13:08:38.224Z</time></trkpt><trkpt lat="42.7427233" lon="11.6806967"><ele>787.0</ele><time>2026-04-01T13:08:40.225Z</time></trkpt><trkpt lat="42.7426633" lon="11.6806633"><ele>787.0</ele><time>2026-04-01T13:08:41.225Z</time></trkpt><trkpt lat="42.7425633" lon="11.680635"><ele>787.0</ele><time>2026-04-01T13:08:43.224Z</time></trkpt><trkpt lat="42.742485" lon="11.6805833"><ele>787.0</ele><time>2026-04-01T13:08:45.225Z</time></trkpt><trkpt lat="42.742415" lon="11.6804467"><ele>787.0</ele><time>2026-04-01T13:08:47.225Z</time></trkpt><trkpt lat="42.74236" lon="11.6802967"><ele>787.0</ele><time>2026-04-01T13:08:49.225Z</time></trkpt><trkpt lat="42.7423033" lon="11.6801533"><ele>789.2</ele><time>2026-04-01T13:08:51.224Z</time></trkpt><trkpt lat="42.74229" lon="11.6800167"><ele>791.4000000000001</ele><time>2026-04-01T13:08:53.225Z</time></trkpt><trkpt lat="42.7422667" lon="11.67989"><ele>793.5999999999999</ele><time>2026-04-01T13:08:55.225Z</time></trkpt><trkpt lat="42.74224" lon="11.67975"><ele>795.8</ele><time>2026-04-01T13:08:57.225Z</time></trkpt><trkpt lat="42.7422033" lon="11.6796617"><ele>798.0</ele><time>2026-04-01T13:08:59.224Z</time></trkpt><trkpt lat="42.74212" lon="11.6795667"><ele>798.0</ele><time>2026-04-01T13:09:05.225Z</time></trkpt><trkpt lat="42.74207" lon="11.6795117"><ele>798.0</ele><time>2026-04-01T13:09:07.224Z</time></trkpt><trkpt lat="42.7420167" lon="11.6794433"><ele>798.0</ele><time>2026-04-01T13:09:09.225Z</time></trkpt><trkpt lat="42.741935" lon="11.6793783"><ele>798.0</ele><time>2026-04-01T13:09:11.225Z</time></trkpt><trkpt lat="42.7418333" lon="11.6793117"><ele>798.0</ele><time>2026-04-01T13:09:13.225Z</time></trkpt><trkpt lat="42.7417533" lon="11.6792483"><ele>798.0</ele><time>2026-04-01T13:09:15.225Z</time></trkpt><trkpt lat="42.7416733" lon="11.6791767"><ele>801.1666666666666</ele><time>2026-04-01T13:09:17.225Z</time></trkpt><trkpt lat="42.7416283" lon="11.6790917"><ele>804.3333333333333</ele><time>2026-04-01T13:09:19.225Z</time></trkpt><trkpt lat="42.741625" lon="11.6789933"><ele>807.5</ele><time>2026-04-01T13:09:21.225Z</time></trkpt><trkpt lat="42.741605" lon="11.6788883"><ele>810.6666666666666</ele><time>2026-04-01T13:09:23.224Z</time></trkpt><trkpt lat="42.7415867" lon="11.6787683"><ele>813.8333333333333</ele><time>2026-04-01T13:09:25.225Z</time></trkpt><trkpt lat="42.7415817" lon="11.6786567"><ele>817.0</ele><time>2026-04-01T13:09:27.225Z</time></trkpt><trkpt lat="42.7415767" lon="11.67857"><ele>819.6666666666666</ele><time>2026-04-01T13:09:29.225Z</time></trkpt><trkpt lat="42.7415983" lon="11.67847"><ele>822.3333333333333</ele><time>2026-04-01T13:09:31.224Z</time></trkpt><trkpt lat="42.7415867" lon="11.6783583"><ele>825.0</ele><time>2026-04-01T13:09:47.225Z</time></trkpt><trkpt lat="42.741575" lon="11.6782383"><ele>827.6666666666667</ele><time>2026-04-01T13:09:50.225Z</time></trkpt><trkpt lat="42.7415517" lon="11.67811"><ele>830.3333333333334</ele><time>2026-04-01T13:09:53.226Z</time></trkpt><trkpt lat="42.7415333" lon="11.67801"><ele>833.0</ele><time>2026-04-01T13:09:55.226Z</time></trkpt><trkpt lat="42.741525" lon="11.67792"><ele>833.0000000000001</ele><time>2026-04-01T13:09:57.225Z</time></trkpt><trkpt lat="42.7414867" lon="11.6778383"><ele>833.0</ele><time>2026-04-01T13:09:59.225Z</time></trkpt><trkpt lat="42.741445" lon="11.6777367"><ele>833.0</ele><time>2026-04-01T13:10:02.225Z</time></trkpt><trkpt lat="42.7414483" lon="11.67764"><ele>833.0</ele><time>2026-04-01T13:10:04.225Z</time></trkpt><trkpt lat="42.7414417" lon="11.6775367"><ele>833.0000000000001</ele><time>2026-04-01T13:10:06.226Z</time></trkpt><trkpt lat="42.7414033" lon="11.6774133"><ele>833.0</ele><time>2026-04-01T13:10:08.225Z</time></trkpt><trkpt lat="42.7413533" lon="11.6773233"><ele>835.3333333333334</ele><time>2026-04-01T13:10:10.226Z</time></trkpt><trkpt lat="42.7413167" lon="11.6772133"><ele>837.6666666666667</ele><time>2026-04-01T13:10:12.225Z</time></trkpt><trkpt lat="42.7412617" lon="11.67711"><ele>840.0</ele><time>2026-04-01T13:10:14.226Z</time></trkpt><trkpt lat="42.7412083" lon="11.6770183"><ele>842.3333333333333</ele><time>2026-04-01T13:10:16.225Z</time></trkpt><trkpt lat="42.7411483" lon="11.6769367"><ele>844.6666666666666</ele><time>2026-04-01T13:10:18.226Z</time></trkpt><trkpt lat="42.7410867" lon="11.6768733"><ele>847.0</ele><time>2026-04-01T13:10:20.225Z</time></trkpt><trkpt lat="42.7409667" lon="11.676765"><ele>847.3333333333333</ele><time>2026-04-01T13:10:22.226Z</time></trkpt><trkpt lat="42.7409" lon="11.6767117"><ele>847.6666666666666</ele><time>2026-04-01T13:10:23.225Z</time></trkpt><trkpt lat="42.7408333" lon="11.676675"><ele>848.0</ele><time>2026-04-01T13:10:25.225Z</time></trkpt><trkpt lat="42.7407517" lon="11.6766133"><ele>848.3333333333333</ele><time>2026-04-01T13:10:26.226Z</time></trkpt><trkpt lat="42.7406767" lon="11.6765433"><ele>848.6666666666666</ele><time>2026-04-01T13:10:28.226Z</time></trkpt><trkpt lat="42.7406083" lon="11.6764783"><ele>849.0</ele><time>2026-04-01T13:10:30.226Z</time></trkpt><trkpt lat="42.7405533" lon="11.67642"><ele>849.0</ele><time>2026-04-01T13:10:31.226Z</time></trkpt><trkpt lat="42.7404867" lon="11.6763433"><ele>849.0</ele><time>2026-04-01T13:10:33.226Z</time></trkpt><trkpt lat="42.740405" lon="11.6762733"><ele>849.0</ele><time>2026-04-01T13:10:34.225Z</time></trkpt><trkpt lat="42.740315" lon="11.676235"><ele>849.0</ele><time>2026-04-01T13:10:36.225Z</time></trkpt><trkpt lat="42.7402267" lon="11.6762217"><ele>849.0</ele><time>2026-04-01T13:10:38.225Z</time></trkpt><trkpt lat="42.7401483" lon="11.6762133"><ele>849.0</ele><time>2026-04-01T13:10:40.226Z</time></trkpt><trkpt lat="42.74008" lon="11.6762117"><ele>849.3333333333334</ele><time>2026-04-01T13:10:42.226Z</time></trkpt><trkpt lat="42.7400133" lon="11.676195"><ele>849.6666666666667</ele><time>2026-04-01T13:10:44.225Z</time></trkpt><trkpt lat="42.7399483" lon="11.6761683"><ele>850.0</ele><time>2026-04-01T13:10:46.226Z</time></trkpt><trkpt lat="42.7398683" lon="11.6761133"><ele>850.3333333333334</ele><time>2026-04-01T13:10:48.226Z</time></trkpt><trkpt lat="42.739795" lon="11.6760667"><ele>850.6666666666667</ele><time>2026-04-01T13:10:49.226Z</time></trkpt><trkpt lat="42.7397233" lon="11.6759717"><ele>851.0</ele><time>2026-04-01T13:10:51.225Z</time></trkpt><trkpt lat="42.7396717" lon="11.675845"><ele>851.0</ele><time>2026-04-01T13:10:53.226Z</time></trkpt><trkpt lat="42.7396283" lon="11.67578"><ele>851.0</ele><time>2026-04-01T13:10:54.226Z</time></trkpt><trkpt lat="42.73958" lon="11.6756533"><ele>851.0</ele><time>2026-04-01T13:10:56.226Z</time></trkpt><trkpt lat="42.739565" lon="11.675495"><ele>851.0</ele><time>2026-04-01T13:10:58.225Z</time></trkpt><trkpt lat="42.7395333" lon="11.6753583"><ele>851.0</ele><time>2026-04-01T13:11:00.226Z</time></trkpt><trkpt lat="42.7395" lon="11.67528"><ele>852.3333333333334</ele><time>2026-04-01T13:11:01.226Z</time></trkpt><trkpt lat="42.73946" lon="11.6751433"><ele>853.6666666666667</ele><time>2026-04-01T13:11:03.225Z</time></trkpt><trkpt lat="42.7394283" lon="11.6750017"><ele>855.0</ele><time>2026-04-01T13:11:05.226Z</time></trkpt><trkpt lat="42.7394017" lon="11.6749217"><ele>856.3333333333333</ele><time>2026-04-01T13:11:06.225Z</time></trkpt><trkpt lat="42.739375" lon="11.6748317"><ele>857.6666666666666</ele><time>2026-04-01T13:11:07.226Z</time></trkpt><trkpt lat="42.7393467" lon="11.67474"><ele>859.0</ele><time>2026-04-01T13:11:08.225Z</time></trkpt><trkpt lat="42.7392617" lon="11.6745267"><ele>858.9999999999999</ele><time>2026-04-01T13:11:10.226Z</time></trkpt><trkpt lat="42.7392067" lon="11.6744433"><ele>859.0</ele><time>2026-04-01T13:11:11.225Z</time></trkpt><trkpt lat="42.7391633" lon="11.67438"><ele>859.0</ele><time>2026-04-01T13:11:12.225Z</time></trkpt><trkpt lat="42.7391117" lon="11.6743133"><ele>859.0</ele><time>2026-04-01T13:11:13.226Z</time></trkpt><trkpt lat="42.739075" lon="11.674205"><ele>858.9999999999999</ele><time>2026-04-01T13:11:15.226Z</time></trkpt><trkpt lat="42.7390283" lon="11.6740783"><ele>859.0</ele><time>2026-04-01T13:11:17.226Z</time></trkpt><trkpt lat="42.7389633" lon="11.673985"><ele>861.2</ele><time>2026-04-01T13:11:18.226Z</time></trkpt><trkpt lat="42.7389133" lon="11.6738467"><ele>863.4000000000001</ele><time>2026-04-01T13:11:20.226Z</time></trkpt><trkpt lat="42.7388667" lon="11.6737117"><ele>865.6</ele><time>2026-04-01T13:11:22.225Z</time></trkpt><trkpt lat="42.7388183" lon="11.673585"><ele>867.8</ele><time>2026-04-01T13:11:24.226Z</time></trkpt><trkpt lat="42.7388" lon="11.6734433"><ele>870.0</ele><time>2026-04-01T13:11:26.226Z</time></trkpt><trkpt lat="42.738765" lon="11.673285"><ele>870.8</ele><time>2026-04-01T13:11:28.226Z</time></trkpt><trkpt lat="42.7387433" lon="11.6731783"><ele>871.6</ele><time>2026-04-01T13:11:29.226Z</time></trkpt><trkpt lat="42.7387183" lon="11.673065"><ele>872.4000000000001</ele><time>2026-04-01T13:11:30.226Z</time></trkpt><trkpt lat="42.7386833" lon="11.6729367"><ele>873.2</ele><time>2026-04-01T13:11:31.226Z</time></trkpt><trkpt lat="42.738655" lon="11.6728067"><ele>874.0</ele><time>2026-04-01T13:11:32.226Z</time></trkpt><trkpt lat="42.7386383" lon="11.6726667"><ele>874.2</ele><time>2026-04-01T13:11:33.225Z</time></trkpt><trkpt lat="42.7386167" lon="11.6725217"><ele>874.4000000000001</ele><time>2026-04-01T13:11:34.226Z</time></trkpt><trkpt lat="42.7385967" lon="11.6724083"><ele>874.6</ele><time>2026-04-01T13:11:35.226Z</time></trkpt><trkpt lat="42.73856" lon="11.6723067"><ele>874.8</ele><time>2026-04-01T13:11:36.226Z</time></trkpt><trkpt lat="42.7385233" lon="11.672215"><ele>875.0</ele><time>2026-04-01T13:11:37.226Z</time></trkpt><trkpt lat="42.73845" lon="11.6721033"><ele>875.0000000000001</ele><time>2026-04-01T13:11:39.225Z</time></trkpt><trkpt lat="42.7383467" lon="11.67206"><ele>875.0</ele><time>2026-04-01T13:11:41.226Z</time></trkpt><trkpt lat="42.7382567" lon="11.6720817"><ele>875.0</ele><time>2026-04-01T13:11:43.225Z</time></trkpt><trkpt lat="42.7381867" lon="11.6721517"><ele>875.0</ele><time>2026-04-01T13:11:45.225Z</time></trkpt><trkpt lat="42.7381383" lon="11.672235"><ele>875.0000000000001</ele><time>2026-04-01T13:11:47.225Z</time></trkpt><trkpt lat="42.73809" lon="11.6723183"><ele>875.0</ele><time>2026-04-01T13:11:49.226Z</time></trkpt><trkpt lat="42.7380183" lon="11.6723733"><ele>875.0</ele><time>2026-04-01T13:11:51.226Z</time></trkpt><trkpt lat="42.737945" lon="11.6723667"><ele>875.0</ele><time>2026-04-01T13:11:53.225Z</time></trkpt><trkpt lat="42.7378617" lon="11.6723433"><ele>875.0</ele><time>2026-04-01T13:11:55.226Z</time></trkpt><trkpt lat="42.73776" lon="11.6722833"><ele>875.0</ele><time>2026-04-01T13:11:57.226Z</time></trkpt><trkpt lat="42.737705" lon="11.6722383"><ele>875.0</ele><time>2026-04-01T13:11:58.226Z</time></trkpt><trkpt lat="42.737605" lon="11.6721383"><ele>876.6</ele><time>2026-04-01T13:12:00.225Z</time></trkpt><trkpt lat="42.7374833" lon="11.6720417"><ele>878.2</ele><time>2026-04-01T13:12:02.225Z</time></trkpt><trkpt lat="42.737415" lon="11.6719983"><ele>879.8</ele><time>2026-04-01T13:12:03.226Z</time></trkpt><trkpt lat="42.7373483" lon="11.6719567"><ele>881.4</ele><time>2026-04-01T13:12:04.226Z</time></trkpt><trkpt lat="42.7372633" lon="11.6719033"><ele>883.0</ele><time>2026-04-01T13:12:05.226Z</time></trkpt><trkpt lat="42.7371667" lon="11.671855"><ele>883.25</ele><time>2026-04-01T13:12:06.225Z</time></trkpt><trkpt lat="42.73707" lon="11.6717967"><ele>883.5</ele><time>2026-04-01T13:12:07.225Z</time></trkpt><trkpt lat="42.7369683" lon="11.67175"><ele>883.75</ele><time>2026-04-01T13:12:08.226Z</time></trkpt><trkpt lat="42.73685" lon="11.6717083"><ele>884.0</ele><time>2026-04-01T13:12:09.226Z</time></trkpt><trkpt lat="42.7367167" lon="11.67166"><ele>884.0</ele><time>2026-04-01T13:12:10.226Z</time></trkpt><trkpt lat="42.736565" lon="11.6716"><ele>884.0</ele><time>2026-04-01T13:12:11.226Z</time></trkpt><trkpt lat="42.7364" lon="11.671535"><ele>884.0</ele><time>2026-04-01T13:12:12.226Z</time></trkpt><trkpt lat="42.7362617" lon="11.6715067"><ele>884.0</ele><time>2026-04-01T13:12:13.226Z</time></trkpt><trkpt lat="42.7361283" lon="11.671475"><ele>884.0</ele><time>2026-04-01T13:12:14.226Z</time></trkpt><trkpt lat="42.7360133" lon="11.6714433"><ele>884.0</ele><time>2026-04-01T13:12:15.226Z</time></trkpt><trkpt lat="42.735885" lon="11.6714"><ele>884.0</ele><time>2026-04-01T13:12:16.225Z</time></trkpt><trkpt lat="42.7357817" lon="11.6713583"><ele>883.6666666666667</ele><time>2026-04-01T13:12:17.225Z</time></trkpt><trkpt lat="42.7357067" lon="11.6713283"><ele>883.3333333333334</ele><time>2026-04-01T13:12:18.226Z</time></trkpt><trkpt lat="42.73561" lon="11.6712533"><ele>883.0</ele><time>2026-04-01T13:12:26.226Z</time></trkpt><trkpt lat="42.73555" lon="11.6711867"><ele>882.6666666666667</ele><time>2026-04-01T13:12:28.226Z</time></trkpt><trkpt lat="42.7354867" lon="11.6710967"><ele>882.3333333333334</ele><time>2026-04-01T13:12:30.226Z</time></trkpt><trkpt lat="42.7354383" lon="11.6710017"><ele>882.0</ele><time>2026-04-01T13:12:32.225Z</time></trkpt><trkpt lat="42.7353817" lon="11.6709567"><ele>882.1666666666666</ele><time>2026-04-01T13:12:35.226Z</time></trkpt><trkpt lat="42.7353017" lon="11.6709717"><ele>882.3333333333333</ele><time>2026-04-01T13:12:37.226Z</time></trkpt><trkpt lat="42.735175" lon="11.6710233"><ele>882.5</ele><time>2026-04-01T13:12:39.225Z</time></trkpt><trkpt lat="42.7351133" lon="11.6710717"><ele>882.6666666666666</ele><time>2026-04-01T13:12:40.226Z</time></trkpt><trkpt lat="42.735065" lon="11.6711267"><ele>882.8333333333333</ele><time>2026-04-01T13:12:41.226Z</time></trkpt><trkpt lat="42.735025" lon="11.6712017"><ele>883.0</ele><time>2026-04-01T13:12:42.225Z</time></trkpt><trkpt lat="42.7350017" lon="11.6713317"><ele>882.9999999999999</ele><time>2026-04-01T13:12:44.225Z</time></trkpt><trkpt lat="42.7350133" lon="11.6714317"><ele>883.0</ele><time>2026-04-01T13:12:46.225Z</time></trkpt><trkpt lat="42.735055" lon="11.6715183"><ele>883.0</ele><time>2026-04-01T13:12:49.226Z</time></trkpt><trkpt lat="42.73503" lon="11.6714117"><ele>883.0</ele><time>2026-04-01T13:12:54.226Z</time></trkpt><trkpt lat="42.7349917" lon="11.671325"><ele>882.9999999999999</ele><time>2026-04-01T13:12:56.226Z</time></trkpt><trkpt lat="42.735" lon="11.6712"><ele>883.0</ele><time>2026-04-01T13:12:58.226Z</time></trkpt><trkpt lat="42.73507" lon="11.6710833"><ele>882.9999999999999</ele><time>2026-04-01T13:13:00.226Z</time></trkpt><trkpt lat="42.7351783" lon="11.6709967"><ele>883.0</ele><time>2026-04-01T13:13:02.225Z</time></trkpt><trkpt lat="42.7352383" lon="11.6709667"><ele>883.0</ele><time>2026-04-01T13:13:03.225Z</time></trkpt><trkpt lat="42.7353017" lon="11.6709417"><ele>883.0</ele><time>2026-04-01T13:13:04.226Z</time></trkpt><trkpt lat="42.735365" lon="11.6709167"><ele>882.9999999999999</ele><time>2026-04-01T13:13:05.226Z</time></trkpt><trkpt lat="42.7354283" lon="11.6708967"><ele>883.0</ele><time>2026-04-01T13:13:06.226Z</time></trkpt><trkpt lat="42.7354983" lon="11.6708783"><ele>883.8333333333333</ele><time>2026-04-01T13:13:07.226Z</time></trkpt><trkpt lat="42.7355717" lon="11.670865"><ele>884.6666666666666</ele><time>2026-04-01T13:13:08.226Z</time></trkpt><trkpt lat="42.73564" lon="11.6708617"><ele>885.5</ele><time>2026-04-01T13:13:09.226Z</time></trkpt><trkpt lat="42.7357033" lon="11.670855"><ele>886.3333333333333</ele><time>2026-04-01T13:13:10.226Z</time></trkpt><trkpt lat="42.735805" lon="11.6708533"><ele>887.1666666666666</ele><time>2026-04-01T13:13:12.225Z</time></trkpt><trkpt lat="42.7358917" lon="11.67085"><ele>888.0</ele><time>2026-04-01T13:13:14.225Z</time></trkpt><trkpt lat="42.7358267" lon="11.67086"><ele>888.0</ele><time>2026-04-01T13:13:25.226Z</time></trkpt><trkpt lat="42.7357383" lon="11.6708583"><ele>888.0</ele><time>2026-04-01T13:13:27.226Z</time></trkpt><trkpt lat="42.735645" lon="11.6708583"><ele>888.0</ele><time>2026-04-01T13:13:29.225Z</time></trkpt><trkpt lat="42.7355383" lon="11.6708817"><ele>888.0</ele><time>2026-04-01T13:13:31.226Z</time></trkpt><trkpt lat="42.7354167" lon="11.6709183"><ele>888.0</ele><time>2026-04-01T13:13:33.225Z</time></trkpt><trkpt lat="42.7353483" lon="11.6709417"><ele>888.0</ele><time>2026-04-01T13:13:34.225Z</time></trkpt><trkpt lat="42.7352783" lon="11.6709633"><ele>888.0</ele><time>2026-04-01T13:13:35.226Z</time></trkpt><trkpt lat="42.7352" lon="11.6709917"><ele>888.0</ele><time>2026-04-01T13:13:36.226Z</time></trkpt><trkpt lat="42.7351233" lon="11.67103"><ele>888.0</ele><time>2026-04-01T13:13:37.225Z</time></trkpt><trkpt lat="42.7350567" lon="11.67106"><ele>888.0</ele><time>2026-04-01T13:13:38.225Z</time></trkpt><trkpt lat="42.73495" lon="11.6710883"><ele>888.0</ele><time>2026-04-01T13:13:40.226Z</time></trkpt><trkpt lat="42.7348767" lon="11.6710233"><ele>887.1666666666666</ele><time>2026-04-01T13:13:43.225Z</time></trkpt><trkpt lat="42.734915" lon="11.67092"><ele>886.3333333333333</ele><time>2026-04-01T13:13:46.226Z</time></trkpt><trkpt lat="42.7349333" lon="11.6708167"><ele>885.5</ele><time>2026-04-01T13:13:48.226Z</time></trkpt><trkpt lat="42.7349583" lon="11.6706733"><ele>884.6666666666666</ele><time>2026-04-01T13:13:50.225Z</time></trkpt><trkpt lat="42.7349783" lon="11.6705867"><ele>883.8333333333333</ele><time>2026-04-01T13:13:51.226Z</time></trkpt><trkpt lat="42.7349967" lon="11.6705"><ele>883.0</ele><time>2026-04-01T13:13:52.226Z</time></trkpt><trkpt lat="42.7350217" lon="11.67042"><ele>883.0</ele><time>2026-04-01T13:13:53.226Z</time></trkpt><trkpt lat="42.73507" lon="11.670285"><ele>883.0</ele><time>2026-04-01T13:13:55.226Z</time></trkpt><trkpt lat="42.7351083" lon="11.670165"><ele>883.0</ele><time>2026-04-01T13:13:57.225Z</time></trkpt><trkpt lat="42.7350933" lon="11.6700117"><ele>883.0</ele><time>2026-04-01T13:13:59.225Z</time></trkpt><trkpt lat="42.7350833" lon="11.669925"><ele>883.0</ele><time>2026-04-01T13:14:01.226Z</time></trkpt><trkpt lat="42.7350683" lon="11.669805"><ele>882.9999999999999</ele><time>2026-04-01T13:14:13.226Z</time></trkpt><trkpt lat="42.73505" lon="11.6699"><ele>883.0</ele><time>2026-04-01T13:14:17.226Z</time></trkpt><trkpt lat="42.735065" lon="11.6699833"><ele>883.0</ele><time>2026-04-01T13:14:19.225Z</time></trkpt><trkpt lat="42.7350833" lon="11.6701017"><ele>883.0</ele><time>2026-04-01T13:14:22.226Z</time></trkpt><trkpt lat="42.7350783" lon="11.6702183"><ele>882.9999999999999</ele><time>2026-04-01T13:14:25.226Z</time></trkpt><trkpt lat="42.73506" lon="11.67032"><ele>883.0</ele><time>2026-04-01T13:14:27.226Z</time></trkpt><trkpt lat="42.735025" lon="11.6704167"><ele>882.9999999999999</ele><time>2026-04-01T13:14:29.226Z</time></trkpt><trkpt lat="42.7349983" lon="11.6705133"><ele>883.0</ele><time>2026-04-01T13:14:31.226Z</time></trkpt><trkpt lat="42.7349717" lon="11.67062"><ele>883.0</ele><time>2026-04-01T13:14:33.225Z</time></trkpt><trkpt lat="42.7349417" lon="11.6707167"><ele>883.0</ele><time>2026-04-01T13:14:35.225Z</time></trkpt><trkpt lat="42.734925" lon="11.6708183"><ele>882.9999999999999</ele><time>2026-04-01T13:14:37.226Z</time></trkpt><trkpt lat="42.73488" lon="11.6709233"><ele>883.0</ele><time>2026-04-01T13:14:40.225Z</time></trkpt><trkpt lat="42.7348" lon="11.670975"><ele>882.9999999999999</ele><time>2026-04-01T13:14:42.226Z</time></trkpt><trkpt lat="42.7347133" lon="11.6709983"><ele>883.0</ele><time>2026-04-01T13:14:44.226Z</time></trkpt><trkpt lat="42.7346383" lon="11.6709733"><ele>883.0</ele><time>2026-04-01T13:14:46.226Z</time></trkpt><trkpt lat="42.7345717" lon="11.6709217"><ele>883.0</ele><time>2026-04-01T13:14:48.225Z</time></trkpt><trkpt lat="42.7345283" lon="11.670855"><ele>882.9999999999999</ele><time>2026-04-01T13:14:50.225Z</time></trkpt><trkpt lat="42.7344633" lon="11.6708083"><ele>883.0</ele><time>2026-04-01T13:15:12.225Z</time></trkpt><trkpt lat="42.7343583" lon="11.670735"><ele>880.6666666666666</ele><time>2026-04-01T13:15:14.226Z</time></trkpt><trkpt lat="42.7342967" lon="11.6706883"><ele>878.3333333333333</ele><time>2026-04-01T13:15:15.226Z</time></trkpt><trkpt lat="42.7342383" lon="11.670635"><ele>876.0</ele><time>2026-04-01T13:15:16.226Z</time></trkpt><trkpt lat="42.73418" lon="11.6705867"><ele>873.6666666666667</ele><time>2026-04-01T13:15:17.225Z</time></trkpt><trkpt lat="42.734125" lon="11.670535"><ele>871.3333333333334</ele><time>2026-04-01T13:15:18.226Z</time></trkpt><trkpt lat="42.73403" lon="11.670435"><ele>869.0</ele><time>2026-04-01T13:15:20.225Z</time></trkpt><trkpt lat="42.73397" lon="11.6703533"><ele>869.0000000000001</ele><time>2026-04-01T13:15:22.226Z</time></trkpt><trkpt lat="42.7339167" lon="11.67028"><ele>869.0</ele><time>2026-04-01T13:15:24.226Z</time></trkpt><trkpt lat="42.73387" lon="11.6702033"><ele>869.0</ele><time>2026-04-01T13:15:27.226Z</time></trkpt><trkpt lat="42.7338033" lon="11.6701483"><ele>869.0</ele><time>2026-04-01T13:15:31.225Z</time></trkpt><trkpt lat="42.7337267" lon="11.67007"><ele>869.0000000000001</ele><time>2026-04-01T13:15:34.226Z</time></trkpt><trkpt lat="42.7336667" lon="11.6700167"><ele>869.0</ele><time>2026-04-01T13:15:36.225Z</time></trkpt><trkpt lat="42.73358" lon="11.66997"><ele>865.8333333333334</ele><time>2026-04-01T13:15:39.225Z</time></trkpt><trkpt lat="42.733515" lon="11.6699433"><ele>862.6666666666667</ele><time>2026-04-01T13:15:41.226Z</time></trkpt><trkpt lat="42.7334417" lon="11.6698917"><ele>859.5</ele><time>2026-04-01T13:15:44.226Z</time></trkpt><trkpt lat="42.73336" lon="11.6698417"><ele>856.3333333333333</ele><time>2026-04-01T13:15:47.226Z</time></trkpt><trkpt lat="42.73327" lon="11.66978"><ele>853.1666666666666</ele><time>2026-04-01T13:15:50.225Z</time></trkpt><trkpt lat="42.7332033" lon="11.6697317"><ele>850.0</ele><time>2026-04-01T13:15:52.226Z</time></trkpt><trkpt lat="42.7331233" lon="11.66968"><ele>850.0</ele><time>2026-04-01T13:15:55.226Z</time></trkpt><trkpt lat="42.7330917" lon="11.6696"><ele>850.0</ele><time>2026-04-01T13:15:58.225Z</time></trkpt><trkpt lat="42.7331133" lon="11.6695183"><ele>850.0</ele><time>2026-04-01T13:16:00.226Z</time></trkpt><trkpt lat="42.7331517" lon="11.66945"><ele>850.0</ele><time>2026-04-01T13:16:02.225Z</time></trkpt><trkpt lat="42.7332217" lon="11.6693983"><ele>850.0</ele><time>2026-04-01T13:16:05.225Z</time></trkpt><trkpt lat="42.733285" lon="11.6693583"><ele>850.0</ele><time>2026-04-01T13:16:08.226Z</time></trkpt><trkpt lat="42.7333433" lon="11.6693217"><ele>850.0</ele><time>2026-04-01T13:16:27.226Z</time></trkpt><trkpt lat="42.7334283" lon="11.6692667"><ele>851.1666666666666</ele><time>2026-04-01T13:16:28.226Z</time></trkpt><trkpt lat="42.7334733" lon="11.669205"><ele>852.3333333333333</ele><time>2026-04-01T13:16:30.226Z</time></trkpt><trkpt lat="42.7335283" lon="11.6691317"><ele>853.5</ele><time>2026-04-01T13:16:32.226Z</time></trkpt><trkpt lat="42.733565" lon="11.6690617"><ele>854.6666666666667</ele><time>2026-04-01T13:16:34.225Z</time></trkpt><trkpt lat="42.7336117" lon="11.6689667"><ele>855.8333333333334</ele><time>2026-04-01T13:16:37.226Z</time></trkpt><trkpt lat="42.7336383" lon="11.6688567"><ele>857.0</ele><time>2026-04-01T13:16:43.226Z</time></trkpt><trkpt lat="42.7335917" lon="11.66874"><ele>852.4000000000001</ele><time>2026-04-01T13:17:20.225Z</time></trkpt><trkpt lat="42.7335233" lon="11.668695"><ele>847.8000000000001</ele><time>2026-04-01T13:17:24.227Z</time></trkpt><trkpt lat="42.7334233" lon="11.6686583"><ele>843.2</ele><time>2026-04-01T13:17:30.226Z</time></trkpt><trkpt lat="42.7333117" lon="11.6686033"><ele>838.6</ele><time>2026-04-01T13:19:39.227Z</time></trkpt><trkpt lat="42.73324" lon="11.6685933"><ele>834.0</ele><time>2026-04-01T13:19:42.227Z</time></trkpt><trkpt lat="42.73314" lon="11.6685217"><ele>833.1666666666666</ele><time>2026-04-01T13:23:51.226Z</time></trkpt><trkpt lat="42.733065" lon="11.6684933"><ele>832.3333333333333</ele><time>2026-04-01T13:23:56.227Z</time></trkpt><trkpt lat="42.7330017" lon="11.66848"><ele>831.5</ele><time>2026-04-01T13:24:01.228Z</time></trkpt><trkpt lat="42.7329383" lon="11.6684517"><ele>830.6666666666666</ele><time>2026-04-01T13:24:06.227Z</time></trkpt><trkpt lat="42.7327867" lon="11.6683883"><ele>829.8333333333333</ele><time>2026-04-01T13:24:28.228Z</time></trkpt><trkpt lat="42.7327217" lon="11.6683817"><ele>829.0</ele><time>2026-04-01T13:24:33.228Z</time></trkpt><trkpt lat="42.73263" lon="11.668355"><ele>824.8333333333333</ele><time>2026-04-01T13:24:41.228Z</time></trkpt><trkpt lat="42.7325567" lon="11.668335"><ele>820.6666666666666</ele><time>2026-04-01T13:24:46.228Z</time></trkpt><trkpt lat="42.73249" lon="11.6683067"><ele>816.5</ele><time>2026-04-01T13:24:50.228Z</time></trkpt><trkpt lat="42.7323933" lon="11.668265"><ele>812.3333333333333</ele><time>2026-04-01T13:25:02.228Z</time></trkpt><trkpt lat="42.7323217" lon="11.6682267"><ele>808.1666666666666</ele><time>2026-04-01T13:25:07.228Z</time></trkpt><trkpt lat="42.73225" lon="11.668235"><ele>804.0</ele><time>2026-04-01T13:25:10.228Z</time></trkpt><trkpt lat="42.7321767" lon="11.6682517"><ele>804.0</ele><time>2026-04-01T13:25:13.228Z</time></trkpt><trkpt lat="42.7320333" lon="11.6682683"><ele>804.0</ele><time>2026-04-01T13:25:31.228Z</time></trkpt><trkpt lat="42.7319317" lon="11.6683117"><ele>804.0</ele><time>2026-04-01T13:25:52.227Z</time></trkpt><trkpt lat="42.7318567" lon="11.6683333"><ele>804.0</ele><time>2026-04-01T13:25:55.228Z</time></trkpt><trkpt lat="42.7317933" lon="11.668345"><ele>804.0</ele><time>2026-04-01T13:25:58.228Z</time></trkpt><trkpt lat="42.731635" lon="11.6683617"><ele>800.2857142857142</ele><time>2026-04-01T13:26:10.227Z</time></trkpt><trkpt lat="42.7315617" lon="11.6683767"><ele>796.5714285714287</ele><time>2026-04-01T13:26:14.228Z</time></trkpt><trkpt lat="42.731495" lon="11.66838"><ele>792.8571428571429</ele><time>2026-04-01T13:26:18.228Z</time></trkpt><trkpt lat="42.7314183" lon="11.6683617"><ele>789.1428571428571</ele><time>2026-04-01T13:26:23.228Z</time></trkpt><trkpt lat="42.731355" lon="11.6683317"><ele>785.4285714285713</ele><time>2026-04-01T13:26:27.227Z</time></trkpt><trkpt lat="42.731295" lon="11.66829"><ele>781.7142857142858</ele><time>2026-04-01T13:26:31.227Z</time></trkpt><trkpt lat="42.7312317" lon="11.668235"><ele>778.0</ele><time>2026-04-01T13:26:35.227Z</time></trkpt><trkpt lat="42.7311767" lon="11.6681817"><ele>777.9999999999999</ele><time>2026-04-01T13:26:38.228Z</time></trkpt><trkpt lat="42.7311233" lon="11.6681333"><ele>778.0</ele><time>2026-04-01T13:26:41.227Z</time></trkpt><trkpt lat="42.7310617" lon="11.6680667"><ele>778.0</ele><time>2026-04-01T13:26:45.227Z</time></trkpt><trkpt lat="42.7310183" lon="11.66799"><ele>778.0</ele><time>2026-04-01T13:26:48.228Z</time></trkpt><trkpt lat="42.7309567" lon="11.6679317"><ele>777.9999999999999</ele><time>2026-04-01T13:26:51.228Z</time></trkpt><trkpt lat="42.7308767" lon="11.667865"><ele>778.0</ele><time>2026-04-01T13:26:54.227Z</time></trkpt><trkpt lat="42.7308083" lon="11.6678067"><ele>773.0</ele><time>2026-04-01T13:26:57.227Z</time></trkpt><trkpt lat="42.730725" lon="11.66773"><ele>768.0</ele><time>2026-04-01T13:27:00.228Z</time></trkpt><trkpt lat="42.7306283" lon="11.6674933"><ele>763.0</ele><time>2026-04-01T13:30:13.228Z</time></trkpt><trkpt lat="42.730575" lon="11.6673967"><ele>758.0</ele><time>2026-04-01T13:30:17.228Z</time></trkpt><trkpt lat="42.7305183" lon="11.6673283"><ele>758.0000000000001</ele><time>2026-04-01T13:30:20.228Z</time></trkpt><trkpt lat="42.730475" lon="11.66726"><ele>758.0</ele><time>2026-04-01T13:30:23.227Z</time></trkpt><trkpt lat="42.7304217" lon="11.6671933"><ele>758.0</ele><time>2026-04-01T13:30:27.228Z</time></trkpt><trkpt lat="42.7303817" lon="11.667115"><ele>758.0</ele><time>2026-04-01T13:30:30.227Z</time></trkpt><trkpt lat="42.7303583" lon="11.667015"><ele>758.0</ele><time>2026-04-01T13:30:33.228Z</time></trkpt><trkpt lat="42.730325" lon="11.6669367"><ele>758.0000000000001</ele><time>2026-04-01T13:30:35.228Z</time></trkpt><trkpt lat="42.7302883" lon="11.6668367"><ele>758.0</ele><time>2026-04-01T13:30:37.228Z</time></trkpt><trkpt lat="42.7302433" lon="11.6667217"><ele>754.1666666666666</ele><time>2026-04-01T13:30:39.227Z</time></trkpt><trkpt lat="42.7301967" lon="11.6666233"><ele>750.3333333333333</ele><time>2026-04-01T13:30:41.228Z</time></trkpt><trkpt lat="42.730155" lon="11.6665483"><ele>746.5</ele><time>2026-04-01T13:30:43.228Z</time></trkpt><trkpt lat="42.7301" lon="11.6664733"><ele>742.6666666666666</ele><time>2026-04-01T13:30:45.227Z</time></trkpt><trkpt lat="42.7300483" lon="11.6663817"><ele>738.8333333333334</ele><time>2026-04-01T13:30:47.228Z</time></trkpt><trkpt lat="42.7299867" lon="11.6662917"><ele>735.0</ele><time>2026-04-01T13:30:49.227Z</time></trkpt><trkpt lat="42.7299183" lon="11.6662167"><ele>735.0</ele><time>2026-04-01T13:30:51.228Z</time></trkpt><trkpt lat="42.729855" lon="11.6661767"><ele>735.0</ele><time>2026-04-01T13:30:53.228Z</time></trkpt><trkpt lat="42.7297867" lon="11.66613"><ele>735.0</ele><time>2026-04-01T13:30:56.227Z</time></trkpt><trkpt lat="42.72973" lon="11.6660683"><ele>735.0</ele><time>2026-04-01T13:30:58.228Z</time></trkpt><trkpt lat="42.729655" lon="11.6659717"><ele>735.0</ele><time>2026-04-01T13:31:00.228Z</time></trkpt><trkpt lat="42.72957" lon="11.6658667"><ele>735.0</ele><time>2026-04-01T13:31:02.229Z</time></trkpt><trkpt lat="42.7294917" lon="11.6657667"><ele>735.6</ele><time>2026-04-01T13:31:04.228Z</time></trkpt><trkpt lat="42.7294167" lon="11.6656783"><ele>736.2</ele><time>2026-04-01T13:31:06.229Z</time></trkpt><trkpt lat="42.7293433" lon="11.6655867"><ele>736.8</ele><time>2026-04-01T13:31:08.229Z</time></trkpt><trkpt lat="42.7292633" lon="11.6654917"><ele>737.4</ele><time>2026-04-01T13:31:10.228Z</time></trkpt><trkpt lat="42.7291417" lon="11.6654383"><ele>738.0</ele><time>2026-04-01T13:31:12.229Z</time></trkpt><trkpt lat="42.7290717" lon="11.6654033"><ele>735.8571428571429</ele><time>2026-04-01T13:31:13.228Z</time></trkpt><trkpt lat="42.729005" lon="11.66536"><ele>733.7142857142857</ele><time>2026-04-01T13:31:14.229Z</time></trkpt><trkpt lat="42.7289433" lon="11.665315"><ele>731.5714285714287</ele><time>2026-04-01T13:31:15.228Z</time></trkpt><trkpt lat="42.7288883" lon="11.66527"><ele>729.4285714285714</ele><time>2026-04-01T13:31:16.229Z</time></trkpt><trkpt lat="42.7288217" lon="11.6651933"><ele>727.2857142857143</ele><time>2026-04-01T13:31:18.228Z</time></trkpt><trkpt lat="42.7287617" lon="11.6651467"><ele>725.1428571428572</ele><time>2026-04-01T13:31:20.229Z</time></trkpt><trkpt lat="42.7286967" lon="11.665095"><ele>723.0</ele><time>2026-04-01T13:31:23.228Z</time></trkpt><trkpt lat="42.7286283" lon="11.6650267"><ele>723.0</ele><time>2026-04-01T13:31:28.228Z</time></trkpt><trkpt lat="42.7285817" lon="11.6649533"><ele>723.0</ele><time>2026-04-01T13:31:31.228Z</time></trkpt><trkpt lat="42.728525" lon="11.66487"><ele>723.0</ele><time>2026-04-01T13:31:34.228Z</time></trkpt><trkpt lat="42.7284617" lon="11.6647883"><ele>723.0</ele><time>2026-04-01T13:31:37.229Z</time></trkpt><trkpt lat="42.7284183" lon="11.66472"><ele>723.0</ele><time>2026-04-01T13:31:39.228Z</time></trkpt><trkpt lat="42.7283783" lon="11.66465"><ele>723.0</ele><time>2026-04-01T13:31:41.229Z</time></trkpt><trkpt lat="42.7283267" lon="11.6645717"><ele>719.8571428571429</ele><time>2026-04-01T13:31:43.229Z</time></trkpt><trkpt lat="42.7282817" lon="11.664505"><ele>716.7142857142858</ele><time>2026-04-01T13:31:45.228Z</time></trkpt><trkpt lat="42.7282133" lon="11.664415"><ele>713.5714285714287</ele><time>2026-04-01T13:31:48.229Z</time></trkpt><trkpt lat="42.728175" lon="11.664345"><ele>710.4285714285714</ele><time>2026-04-01T13:31:51.229Z</time></trkpt><trkpt lat="42.7281283" lon="11.664265"><ele>707.2857142857142</ele><time>2026-04-01T13:31:54.228Z</time></trkpt><trkpt lat="42.7280717" lon="11.664195"><ele>704.1428571428572</ele><time>2026-04-01T13:31:57.229Z</time></trkpt><trkpt lat="42.7280233" lon="11.6641283"><ele>701.0</ele><time>2026-04-01T13:31:59.228Z</time></trkpt><trkpt lat="42.7279867" lon="11.6640417"><ele>701.0</ele><time>2026-04-01T13:32:01.229Z</time></trkpt><trkpt lat="42.72794" lon="11.6639117"><ele>701.0</ele><time>2026-04-01T13:32:03.228Z</time></trkpt><trkpt lat="42.72788" lon="11.66377"><ele>701.0</ele><time>2026-04-01T13:32:05.229Z</time></trkpt><trkpt lat="42.7278267" lon="11.663665"><ele>701.0</ele><time>2026-04-01T13:32:07.228Z</time></trkpt><trkpt lat="42.727775" lon="11.66361"><ele>701.0</ele><time>2026-04-01T13:32:09.229Z</time></trkpt><trkpt lat="42.7277067" lon="11.663545"><ele>696.0</ele><time>2026-04-01T13:32:11.228Z</time></trkpt><trkpt lat="42.7276217" lon="11.6634383"><ele>691.0</ele><time>2026-04-01T13:32:13.229Z</time></trkpt><trkpt lat="42.7275283" lon="11.6633367"><ele>686.0</ele><time>2026-04-01T13:32:15.229Z</time></trkpt><trkpt lat="42.727455" lon="11.6632117"><ele>681.0</ele><time>2026-04-01T13:32:17.228Z</time></trkpt><trkpt lat="42.727395" lon="11.6630733"><ele>681.0</ele><time>2026-04-01T13:32:19.229Z</time></trkpt><trkpt lat="42.7273267" lon="11.66293"><ele>681.0</ele><time>2026-04-01T13:32:21.229Z</time></trkpt><trkpt lat="42.7272867" lon="11.6628633"><ele>681.0</ele><time>2026-04-01T13:32:22.229Z</time></trkpt><trkpt lat="42.7272417" lon="11.6627933"><ele>681.0</ele><time>2026-04-01T13:32:23.229Z</time></trkpt><trkpt lat="42.7271967" lon="11.6627217"><ele>681.0</ele><time>2026-04-01T13:32:24.229Z</time></trkpt><trkpt lat="42.727155" lon="11.66265"><ele>681.0</ele><time>2026-04-01T13:32:25.229Z</time></trkpt><trkpt lat="42.72708" lon="11.66253"><ele>682.0</ele><time>2026-04-01T13:32:27.228Z</time></trkpt><trkpt lat="42.7270183" lon="11.66241"><ele>683.0</ele><time>2026-04-01T13:32:29.229Z</time></trkpt><trkpt lat="42.7269583" lon="11.6623283"><ele>684.0</ele><time>2026-04-01T13:32:31.229Z</time></trkpt><trkpt lat="42.726905" lon="11.6622517"><ele>685.0</ele><time>2026-04-01T13:32:33.228Z</time></trkpt><trkpt lat="42.72687" lon="11.662165"><ele>686.0</ele><time>2026-04-01T13:32:35.228Z</time></trkpt><trkpt lat="42.72682" lon="11.6619567"><ele>681.3333333333333</ele><time>2026-04-01T13:34:43.229Z</time></trkpt><trkpt lat="42.72682" lon="11.66187"><ele>676.6666666666666</ele><time>2026-04-01T13:34:45.228Z</time></trkpt><trkpt lat="42.7268083" lon="11.6617817"><ele>672.0</ele><time>2026-04-01T13:34:47.229Z</time></trkpt><trkpt lat="42.726785" lon="11.6616833"><ele>667.3333333333334</ele><time>2026-04-01T13:34:49.229Z</time></trkpt><trkpt lat="42.726745" lon="11.661575"><ele>662.6666666666667</ele><time>2026-04-01T13:34:51.228Z</time></trkpt><trkpt lat="42.7267017" lon="11.6614633"><ele>658.0</ele><time>2026-04-01T13:34:53.228Z</time></trkpt><trkpt lat="42.7266433" lon="11.6613383"><ele>658.0</ele><time>2026-04-01T13:34:55.229Z</time></trkpt><trkpt lat="42.7265833" lon="11.66123"><ele>658.0</ele><time>2026-04-01T13:34:57.229Z</time></trkpt><trkpt lat="42.7264983" lon="11.66114"><ele>658.0</ele><time>2026-04-01T13:34:59.228Z</time></trkpt><trkpt lat="42.726415" lon="11.66108"><ele>658.0</ele><time>2026-04-01T13:35:01.228Z</time></trkpt><trkpt lat="42.72632" lon="11.6610367"><ele>658.0</ele><time>2026-04-01T13:35:03.229Z</time></trkpt><trkpt lat="42.7262267" lon="11.6609833"><ele>656.3333333333334</ele><time>2026-04-01T13:35:05.228Z</time></trkpt><trkpt lat="42.7260983" lon="11.66092"><ele>654.6666666666667</ele><time>2026-04-01T13:35:07.229Z</time></trkpt><trkpt lat="42.72603" lon="11.6608917"><ele>653.0</ele><time>2026-04-01T13:35:08.229Z</time></trkpt><trkpt lat="42.7259567" lon="11.6608617"><ele>651.3333333333334</ele><time>2026-04-01T13:35:09.228Z</time></trkpt><trkpt lat="42.7258917" lon="11.66084"><ele>649.6666666666666</ele><time>2026-04-01T13:35:10.229Z</time></trkpt><trkpt lat="42.7258233" lon="11.66081"><ele>648.0</ele><time>2026-04-01T13:35:11.229Z</time></trkpt><trkpt lat="42.725755" lon="11.6607767"><ele>645.6666666666666</ele><time>2026-04-01T13:35:12.229Z</time></trkpt><trkpt lat="42.7256883" lon="11.6607417"><ele>643.3333333333334</ele><time>2026-04-01T13:35:13.229Z</time></trkpt><trkpt lat="42.7256217" lon="11.66071"><ele>641.0</ele><time>2026-04-01T13:35:14.229Z</time></trkpt><trkpt lat="42.7255033" lon="11.6606667"><ele>638.6666666666667</ele><time>2026-04-01T13:35:16.229Z</time></trkpt><trkpt lat="42.7254333" lon="11.66065"><ele>636.3333333333334</ele><time>2026-04-01T13:35:17.229Z</time></trkpt><trkpt lat="42.72537" lon="11.6606433"><ele>634.0</ele><time>2026-04-01T13:35:18.229Z</time></trkpt><trkpt lat="42.7253067" lon="11.6606383"><ele>630.8</ele><time>2026-04-01T13:35:19.229Z</time></trkpt><trkpt lat="42.725195" lon="11.6606033"><ele>627.5999999999999</ele><time>2026-04-01T13:35:21.229Z</time></trkpt><trkpt lat="42.7251283" lon="11.6605033"><ele>624.4</ele><time>2026-04-01T13:35:23.229Z</time></trkpt><trkpt lat="42.7250733" lon="11.66036"><ele>621.1999999999999</ele><time>2026-04-01T13:35:25.229Z</time></trkpt><trkpt lat="42.72506" lon="11.6602283"><ele>618.0</ele><time>2026-04-01T13:35:27.228Z</time></trkpt><trkpt lat="42.7251017" lon="11.660095"><ele>617.5</ele><time>2026-04-01T13:35:29.228Z</time></trkpt><trkpt lat="42.7251467" lon="11.6600283"><ele>617.0</ele><time>2026-04-01T13:35:30.229Z</time></trkpt><trkpt lat="42.7252017" lon="11.6599667"><ele>616.5</ele><time>2026-04-01T13:35:31.229Z</time></trkpt><trkpt lat="42.7252517" lon="11.6598967"><ele>616.0</ele><time>2026-04-01T13:35:32.229Z</time></trkpt><trkpt lat="42.7252983" lon="11.6598117"><ele>615.5</ele><time>2026-04-01T13:35:33.229Z</time></trkpt><trkpt lat="42.7253383" lon="11.6597067"><ele>615.0</ele><time>2026-04-01T13:35:34.228Z</time></trkpt><trkpt lat="42.7253733" lon="11.6595967"><ele>615.0</ele><time>2026-04-01T13:35:35.229Z</time></trkpt><trkpt lat="42.725405" lon="11.6594867"><ele>615.0</ele><time>2026-04-01T13:35:36.228Z</time></trkpt><trkpt lat="42.7254333" lon="11.65937"><ele>615.0</ele><time>2026-04-01T13:35:37.229Z</time></trkpt><trkpt lat="42.7254533" lon="11.6592617"><ele>615.0</ele><time>2026-04-01T13:35:38.228Z</time></trkpt><trkpt lat="42.725475" lon="11.6591633"><ele>615.0</ele><time>2026-04-01T13:35:39.229Z</time></trkpt><trkpt lat="42.725505" lon="11.6590717"><ele>615.0</ele><time>2026-04-01T13:35:40.228Z</time></trkpt><trkpt lat="42.72555" lon="11.658995"><ele>615.0</ele><time>2026-04-01T13:35:41.229Z</time></trkpt><trkpt lat="42.725655" lon="11.6588867"><ele>615.0</ele><time>2026-04-01T13:35:43.229Z</time></trkpt><trkpt lat="42.7257267" lon="11.6588567"><ele>615.0</ele><time>2026-04-01T13:35:44.229Z</time></trkpt><trkpt lat="42.725815" lon="11.6588183"><ele>615.0</ele><time>2026-04-01T13:35:45.229Z</time></trkpt><trkpt lat="42.7259133" lon="11.6587733"><ele>615.0</ele><time>2026-04-01T13:35:46.229Z</time></trkpt><trkpt lat="42.726015" lon="11.6587417"><ele>615.6666666666666</ele><time>2026-04-01T13:35:47.228Z</time></trkpt><trkpt lat="42.7261117" lon="11.658705"><ele>616.3333333333334</ele><time>2026-04-01T13:35:48.229Z</time></trkpt><trkpt lat="42.7261917" lon="11.6586617"><ele>617.0</ele><time>2026-04-01T13:35:49.229Z</time></trkpt><trkpt lat="42.72627" lon="11.6586117"><ele>617.6666666666667</ele><time>2026-04-01T13:35:50.229Z</time></trkpt><trkpt lat="42.7263433" lon="11.6585633"><ele>618.3333333333334</ele><time>2026-04-01T13:35:51.228Z</time></trkpt><trkpt lat="42.7264067" lon="11.6585"><ele>619.0</ele><time>2026-04-01T13:35:52.228Z</time></trkpt><trkpt lat="42.7264683" lon="11.6584317"><ele>615.8</ele><time>2026-04-01T13:35:53.228Z</time></trkpt><trkpt lat="42.7265283" lon="11.65835"><ele>612.5999999999999</ele><time>2026-04-01T13:35:54.229Z</time></trkpt><trkpt lat="42.7265783" lon="11.6582517"><ele>609.4</ele><time>2026-04-01T13:35:55.228Z</time></trkpt><trkpt lat="42.7266333" lon="11.65815"><ele>606.1999999999999</ele><time>2026-04-01T13:35:56.228Z</time></trkpt><trkpt lat="42.7266817" lon="11.6580467"><ele>603.0</ele><time>2026-04-01T13:35:57.229Z</time></trkpt><trkpt lat="42.7267267" lon="11.6579333"><ele>603.0</ele><time>2026-04-01T13:35:58.228Z</time></trkpt><trkpt lat="42.7267683" lon="11.65783"><ele>603.0</ele><time>2026-04-01T13:35:59.229Z</time></trkpt><trkpt lat="42.7268083" lon="11.6577233"><ele>603.0</ele><time>2026-04-01T13:36:00.228Z</time></trkpt><trkpt lat="42.7268433" lon="11.65762"><ele>603.0</ele><time>2026-04-01T13:36:01.228Z</time></trkpt><trkpt lat="42.7268817" lon="11.6575183"><ele>603.0</ele><time>2026-04-01T13:36:02.228Z</time></trkpt><trkpt lat="42.726925" lon="11.6574233"><ele>603.0</ele><time>2026-04-01T13:36:03.229Z</time></trkpt><trkpt lat="42.7269567" lon="11.657325"><ele>602.1428571428572</ele><time>2026-04-01T13:36:04.229Z</time></trkpt><trkpt lat="42.7269917" lon="11.6572317"><ele>601.2857142857142</ele><time>2026-04-01T13:36:05.229Z</time></trkpt><trkpt lat="42.7270283" lon="11.65714"><ele>600.4285714285714</ele><time>2026-04-01T13:36:06.229Z</time></trkpt><trkpt lat="42.727065" lon="11.65706"><ele>599.5714285714287</ele><time>2026-04-01T13:36:07.228Z</time></trkpt><trkpt lat="42.727105" lon="11.6569767"><ele>598.7142857142858</ele><time>2026-04-01T13:36:08.228Z</time></trkpt><trkpt lat="42.7271367" lon="11.656895"><ele>597.8571428571429</ele><time>2026-04-01T13:36:09.228Z</time></trkpt><trkpt lat="42.72716" lon="11.6568117"><ele>597.0</ele><time>2026-04-01T13:36:10.229Z</time></trkpt><trkpt lat="42.7271717" lon="11.656725"><ele>595.4285714285714</ele><time>2026-04-01T13:36:11.228Z</time></trkpt><trkpt lat="42.7271783" lon="11.6566333"><ele>593.8571428571429</ele><time>2026-04-01T13:36:12.228Z</time></trkpt><trkpt lat="42.7271783" lon="11.65654"><ele>592.2857142857142</ele><time>2026-04-01T13:36:13.229Z</time></trkpt><trkpt lat="42.727175" lon="11.6564417"><ele>590.7142857142858</ele><time>2026-04-01T13:36:14.229Z</time></trkpt><trkpt lat="42.7271667" lon="11.6563433"><ele>589.1428571428571</ele><time>2026-04-01T13:36:15.229Z</time></trkpt><trkpt lat="42.7271683" lon="11.65624"><ele>587.5714285714286</ele><time>2026-04-01T13:36:16.229Z</time></trkpt><trkpt lat="42.72718" lon="11.65613"><ele>586.0</ele><time>2026-04-01T13:36:17.229Z</time></trkpt><trkpt lat="42.7271983" lon="11.6560167"><ele>584.8</ele><time>2026-04-01T13:36:18.229Z</time></trkpt><trkpt lat="42.7272317" lon="11.6559033"><ele>583.6</ele><time>2026-04-01T13:36:19.229Z</time></trkpt><trkpt lat="42.7272717" lon="11.65579"><ele>582.4</ele><time>2026-04-01T13:36:20.229Z</time></trkpt><trkpt lat="42.7273167" lon="11.65566"><ele>581.2</ele><time>2026-04-01T13:36:21.229Z</time></trkpt><trkpt lat="42.7273733" lon="11.6555233"><ele>580.0</ele><time>2026-04-01T13:36:22.229Z</time></trkpt><trkpt lat="42.72743" lon="11.65539"><ele>579.3333333333334</ele><time>2026-04-01T13:36:23.229Z</time></trkpt><trkpt lat="42.72747" lon="11.65527"><ele>578.6666666666667</ele><time>2026-04-01T13:36:24.229Z</time></trkpt><trkpt lat="42.7275117" lon="11.6551617"><ele>578.0</ele><time>2026-04-01T13:36:25.228Z</time></trkpt><trkpt lat="42.7275483" lon="11.6550617"><ele>577.3333333333334</ele><time>2026-04-01T13:36:26.229Z</time></trkpt><trkpt lat="42.7275817" lon="11.65497"><ele>576.6666666666666</ele><time>2026-04-01T13:36:27.228Z</time></trkpt><trkpt lat="42.7276133" lon="11.654875"><ele>576.0</ele><time>2026-04-01T13:36:28.229Z</time></trkpt><trkpt lat="42.7276433" lon="11.65477"><ele>576.0</ele><time>2026-04-01T13:36:29.228Z</time></trkpt><trkpt lat="42.7276617" lon="11.65467"><ele>576.0</ele><time>2026-04-01T13:36:30.228Z</time></trkpt><trkpt lat="42.7276817" lon="11.6545633"><ele>576.0</ele><time>2026-04-01T13:36:31.229Z</time></trkpt><trkpt lat="42.7277" lon="11.6544483"><ele>576.0</ele><time>2026-04-01T13:36:32.229Z</time></trkpt><trkpt lat="42.7277217" lon="11.654335"><ele>576.0</ele><time>2026-04-01T13:36:33.228Z</time></trkpt><trkpt lat="42.7277433" lon="11.6542317"><ele>576.0</ele><time>2026-04-01T13:36:34.228Z</time></trkpt><trkpt lat="42.7277683" lon="11.6541367"><ele>577.0</ele><time>2026-04-01T13:36:35.228Z</time></trkpt><trkpt lat="42.727785" lon="11.6539983"><ele>578.0</ele><time>2026-04-01T13:36:37.228Z</time></trkpt><trkpt lat="42.7277533" lon="11.6539117"><ele>579.0</ele><time>2026-04-01T13:36:39.228Z</time></trkpt><trkpt lat="42.727685" lon="11.653905"><ele>580.0</ele><time>2026-04-01T13:36:41.229Z</time></trkpt><trkpt lat="42.72759" lon="11.6538983"><ele>581.0</ele><time>2026-04-01T13:36:43.228Z</time></trkpt><trkpt lat="42.7274817" lon="11.6538567"><ele>578.2</ele><time>2026-04-01T13:36:45.228Z</time></trkpt><trkpt lat="42.727385" lon="11.6537783"><ele>575.4000000000001</ele><time>2026-04-01T13:36:47.228Z</time></trkpt><trkpt lat="42.7272633" lon="11.6537133"><ele>572.6</ele><time>2026-04-01T13:36:49.229Z</time></trkpt><trkpt lat="42.7271517" lon="11.65363"><ele>569.8000000000001</ele><time>2026-04-01T13:36:51.229Z</time></trkpt><trkpt lat="42.7270983" lon="11.6535833"><ele>567.0</ele><time>2026-04-01T13:36:52.229Z</time></trkpt><trkpt lat="42.7270067" lon="11.6535233"><ele>566.5</ele><time>2026-04-01T13:36:54.228Z</time></trkpt><trkpt lat="42.7269333" lon="11.65349"><ele>566.0</ele><time>2026-04-01T13:36:56.229Z</time></trkpt><trkpt lat="42.72687" lon="11.6534567"><ele>565.5</ele><time>2026-04-01T13:37:08.229Z</time></trkpt><trkpt lat="42.72676" lon="11.6534917"><ele>565.0</ele><time>2026-04-01T13:37:10.229Z</time></trkpt><trkpt lat="42.7266917" lon="11.6535383"><ele>564.5</ele><time>2026-04-01T13:37:11.228Z</time></trkpt><trkpt lat="42.726615" lon="11.6535867"><ele>564.0</ele><time>2026-04-01T13:37:12.229Z</time></trkpt><trkpt lat="42.7265283" lon="11.6536417"><ele>564.0</ele><time>2026-04-01T13:37:13.229Z</time></trkpt><trkpt lat="42.72645" lon="11.6537"><ele>564.0</ele><time>2026-04-01T13:37:14.228Z</time></trkpt><trkpt lat="42.7263667" lon="11.6537617"><ele>564.0</ele><time>2026-04-01T13:37:15.229Z</time></trkpt><trkpt lat="42.7262717" lon="11.6538283"><ele>564.0</ele><time>2026-04-01T13:37:16.228Z</time></trkpt><trkpt lat="42.7261767" lon="11.6538967"><ele>564.0</ele><time>2026-04-01T13:37:17.229Z</time></trkpt><trkpt lat="42.72608" lon="11.65397"><ele>563.0</ele><time>2026-04-01T13:37:18.228Z</time></trkpt><trkpt lat="42.7259967" lon="11.6540383"><ele>562.0</ele><time>2026-04-01T13:37:19.229Z</time></trkpt><trkpt lat="42.7259317" lon="11.6540733"><ele>561.0</ele><time>2026-04-01T13:37:20.228Z</time></trkpt><trkpt lat="42.7258633" lon="11.65409"><ele>560.0</ele><time>2026-04-01T13:37:21.228Z</time></trkpt><trkpt lat="42.7257817" lon="11.6540867"><ele>559.0</ele><time>2026-04-01T13:37:22.228Z</time></trkpt><trkpt lat="42.7256967" lon="11.6540617"><ele>558.0</ele><time>2026-04-01T13:37:23.229Z</time></trkpt><trkpt lat="42.7255983" lon="11.6540183"><ele>558.0</ele><time>2026-04-01T13:37:24.229Z</time></trkpt><trkpt lat="42.7255017" lon="11.6539817"><ele>558.0</ele><time>2026-04-01T13:37:25.228Z</time></trkpt><trkpt lat="42.7254" lon="11.65395"><ele>558.0</ele><time>2026-04-01T13:37:26.228Z</time></trkpt><trkpt lat="42.72529" lon="11.653935"><ele>558.0</ele><time>2026-04-01T13:37:27.229Z</time></trkpt><trkpt lat="42.7251867" lon="11.653945"><ele>558.0</ele><time>2026-04-01T13:37:28.229Z</time></trkpt><trkpt lat="42.7250933" lon="11.6539583"><ele>556.6666666666666</ele><time>2026-04-01T13:37:29.229Z</time></trkpt><trkpt lat="42.725015" lon="11.6539567"><ele>555.3333333333334</ele><time>2026-04-01T13:37:30.229Z</time></trkpt><trkpt lat="42.72495" lon="11.653945"><ele>554.0</ele><time>2026-04-01T13:37:31.229Z</time></trkpt><trkpt lat="42.7248617" lon="11.653835"><ele>552.6666666666667</ele><time>2026-04-01T13:37:33.229Z</time></trkpt><trkpt lat="42.7248233" lon="11.65375"><ele>551.3333333333334</ele><time>2026-04-01T13:37:34.229Z</time></trkpt><trkpt lat="42.72479" lon="11.6536683"><ele>550.0</ele><time>2026-04-01T13:37:35.228Z</time></trkpt><trkpt lat="42.7247517" lon="11.6535883"><ele>548.5</ele><time>2026-04-01T13:37:36.228Z</time></trkpt><trkpt lat="42.7247217" lon="11.6535067"><ele>547.0</ele><time>2026-04-01T13:37:37.228Z</time></trkpt><trkpt lat="42.724645" lon="11.6533883"><ele>545.5</ele><time>2026-04-01T13:37:39.228Z</time></trkpt><trkpt lat="42.7245817" lon="11.6533417"><ele>544.0</ele><time>2026-04-01T13:37:40.228Z</time></trkpt><trkpt lat="42.7245183" lon="11.653315"><ele>542.5</ele><time>2026-04-01T13:37:41.229Z</time></trkpt><trkpt lat="42.7244417" lon="11.6532883"><ele>541.0</ele><time>2026-04-01T13:37:42.229Z</time></trkpt><trkpt lat="42.724365" lon="11.65325"><ele>539.3333333333334</ele><time>2026-04-01T13:37:43.228Z</time></trkpt><trkpt lat="42.72429" lon="11.6532017"><ele>537.6666666666667</ele><time>2026-04-01T13:37:44.228Z</time></trkpt><trkpt lat="42.7242017" lon="11.65314"><ele>536.0</ele><time>2026-04-01T13:37:45.229Z</time></trkpt><trkpt lat="42.72412" lon="11.65307"><ele>534.3333333333334</ele><time>2026-04-01T13:37:46.229Z</time></trkpt><trkpt lat="42.72405" lon="11.6530183"><ele>532.6666666666666</ele><time>2026-04-01T13:37:47.229Z</time></trkpt><trkpt lat="42.7239933" lon="11.652965"><ele>531.0</ele><time>2026-04-01T13:37:48.229Z</time></trkpt><trkpt lat="42.72394" lon="11.65285"><ele>530.0</ele><time>2026-04-01T13:37:50.229Z</time></trkpt><trkpt lat="42.72395" lon="11.6526983"><ele>529.0</ele><time>2026-04-01T13:37:52.229Z</time></trkpt><trkpt lat="42.7239483" lon="11.6526067"><ele>528.0</ele><time>2026-04-01T13:37:53.228Z</time></trkpt><trkpt lat="42.723925" lon="11.6525117"><ele>527.0</ele><time>2026-04-01T13:37:54.228Z</time></trkpt><trkpt lat="42.72389" lon="11.6524167"><ele>526.0</ele><time>2026-04-01T13:37:55.229Z</time></trkpt><trkpt lat="42.7238417" lon="11.6523183"><ele>525.0</ele><time>2026-04-01T13:37:56.228Z</time></trkpt><trkpt lat="42.723775" lon="11.6522233"><ele>525.0</ele><time>2026-04-01T13:37:57.228Z</time></trkpt><trkpt lat="42.7237067" lon="11.65213"><ele>525.0</ele><time>2026-04-01T13:37:58.229Z</time></trkpt><trkpt lat="42.7236283" lon="11.6520417"><ele>525.0</ele><time>2026-04-01T13:37:59.228Z</time></trkpt><trkpt lat="42.7235583" lon="11.6519517"><ele>525.0</ele><time>2026-04-01T13:38:00.229Z</time></trkpt><trkpt lat="42.72349" lon="11.6518633"><ele>525.0</ele><time>2026-04-01T13:38:01.228Z</time></trkpt><trkpt lat="42.7234383" lon="11.651765"><ele>523.0</ele><time>2026-04-01T13:38:02.228Z</time></trkpt><trkpt lat="42.7233867" lon="11.6516833"><ele>521.0</ele><time>2026-04-01T13:38:03.229Z</time></trkpt><trkpt lat="42.7233367" lon="11.6516067"><ele>519.0</ele><time>2026-04-01T13:38:04.229Z</time></trkpt><trkpt lat="42.7232867" lon="11.6515383"><ele>517.0</ele><time>2026-04-01T13:38:05.229Z</time></trkpt><trkpt lat="42.723225" lon="11.6514767"><ele>515.0</ele><time>2026-04-01T13:38:06.229Z</time></trkpt><trkpt lat="42.7231667" lon="11.65141"><ele>513.0</ele><time>2026-04-01T13:38:07.228Z</time></trkpt><trkpt lat="42.7231033" lon="11.6513383"><ele>513.0</ele><time>2026-04-01T13:38:08.229Z</time></trkpt><trkpt lat="42.723035" lon="11.6512717"><ele>513.0</ele><time>2026-04-01T13:38:09.229Z</time></trkpt><trkpt lat="42.722965" lon="11.6511933"><ele>513.0</ele><time>2026-04-01T13:38:10.23Z</time></trkpt><trkpt lat="42.7229017" lon="11.6511083"><ele>513.0</ele><time>2026-04-01T13:38:11.23Z</time></trkpt><trkpt lat="42.722835" lon="11.6510267"><ele>513.0</ele><time>2026-04-01T13:38:12.23Z</time></trkpt><trkpt lat="42.7227667" lon="11.6509533"><ele>513.0</ele><time>2026-04-01T13:38:13.23Z</time></trkpt><trkpt lat="42.7226967" lon="11.6508733"><ele>511.00000000000006</ele><time>2026-04-01T13:38:14.23Z</time></trkpt><trkpt lat="42.72264" lon="11.6507967"><ele>509.0</ele><time>2026-04-01T13:38:15.229Z</time></trkpt><trkpt lat="42.7225833" lon="11.650725"><ele>507.00000000000006</ele><time>2026-04-01T13:38:16.23Z</time></trkpt><trkpt lat="42.7225283" lon="11.6506567"><ele>505.00000000000006</ele><time>2026-04-01T13:38:17.23Z</time></trkpt><trkpt lat="42.722475" lon="11.6505867"><ele>503.0</ele><time>2026-04-01T13:38:18.23Z</time></trkpt><trkpt lat="42.722425" lon="11.65052"><ele>501.00000000000006</ele><time>2026-04-01T13:38:19.23Z</time></trkpt><trkpt lat="42.72237" lon="11.650455"><ele>499.00000000000006</ele><time>2026-04-01T13:38:20.23Z</time></trkpt><trkpt lat="42.7223183" lon="11.65038"><ele>499.00000000000006</ele><time>2026-04-01T13:38:21.23Z</time></trkpt><trkpt lat="42.7222683" lon="11.650305"><ele>499.0</ele><time>2026-04-01T13:38:22.229Z</time></trkpt><trkpt lat="42.7222217" lon="11.6502317"><ele>499.0</ele><time>2026-04-01T13:38:23.23Z</time></trkpt><trkpt lat="42.7221733" lon="11.6501567"><ele>499.0</ele><time>2026-04-01T13:38:24.23Z</time></trkpt><trkpt lat="42.7221267" lon="11.650095"><ele>499.00000000000006</ele><time>2026-04-01T13:38:25.23Z</time></trkpt><trkpt lat="42.72204" lon="11.6499767"><ele>499.0</ele><time>2026-04-01T13:38:27.229Z</time></trkpt><trkpt lat="42.7219933" lon="11.6499167"><ele>497.83333333333337</ele><time>2026-04-01T13:38:28.23Z</time></trkpt><trkpt lat="42.7219383" lon="11.6498667"><ele>496.6666666666667</ele><time>2026-04-01T13:38:29.23Z</time></trkpt><trkpt lat="42.721875" lon="11.6498117"><ele>495.5</ele><time>2026-04-01T13:38:30.23Z</time></trkpt><trkpt lat="42.7218067" lon="11.64976"><ele>494.33333333333337</ele><time>2026-04-01T13:38:31.229Z</time></trkpt><trkpt lat="42.721735" lon="11.6497167"><ele>493.1666666666667</ele><time>2026-04-01T13:38:32.229Z</time></trkpt><trkpt lat="42.7216483" lon="11.6496867"><ele>492.0</ele><time>2026-04-01T13:38:33.23Z</time></trkpt><trkpt lat="42.721565" lon="11.6496567"><ele>490.0</ele><time>2026-04-01T13:38:34.23Z</time></trkpt><trkpt lat="42.7214833" lon="11.6496217"><ele>488.0</ele><time>2026-04-01T13:38:35.23Z</time></trkpt><trkpt lat="42.7214067" lon="11.6495717"><ele>486.0</ele><time>2026-04-01T13:38:36.23Z</time></trkpt><trkpt lat="42.721335" lon="11.6495033"><ele>484.0</ele><time>2026-04-01T13:38:37.229Z</time></trkpt><trkpt lat="42.7212667" lon="11.6494283"><ele>482.0</ele><time>2026-04-01T13:38:38.23Z</time></trkpt><trkpt lat="42.7212033" lon="11.649345"><ele>480.0</ele><time>2026-04-01T13:38:39.23Z</time></trkpt><trkpt lat="42.7211367" lon="11.6492617"><ele>479.0</ele><time>2026-04-01T13:38:40.23Z</time></trkpt><trkpt lat="42.7210667" lon="11.6491817"><ele>478.0</ele><time>2026-04-01T13:38:41.23Z</time></trkpt><trkpt lat="42.721005" lon="11.6491167"><ele>477.0</ele><time>2026-04-01T13:38:42.229Z</time></trkpt><trkpt lat="42.720945" lon="11.6490483"><ele>476.0</ele><time>2026-04-01T13:38:43.229Z</time></trkpt><trkpt lat="42.7208867" lon="11.6489883"><ele>475.0</ele><time>2026-04-01T13:38:44.229Z</time></trkpt><trkpt lat="42.7208333" lon="11.64891"><ele>474.0</ele><time>2026-04-01T13:38:45.23Z</time></trkpt><trkpt lat="42.7207783" lon="11.6488433"><ele>472.5</ele><time>2026-04-01T13:38:46.23Z</time></trkpt><trkpt lat="42.7207233" lon="11.6487783"><ele>471.0</ele><time>2026-04-01T13:38:47.23Z</time></trkpt><trkpt lat="42.7206767" lon="11.6487033"><ele>469.5</ele><time>2026-04-01T13:38:48.23Z</time></trkpt><trkpt lat="42.7206333" lon="11.6486117"><ele>468.0</ele><time>2026-04-01T13:38:49.23Z</time></trkpt><trkpt lat="42.720595" lon="11.64852"><ele>466.5</ele><time>2026-04-01T13:38:50.229Z</time></trkpt><trkpt lat="42.7205733" lon="11.6484267"><ele>465.0</ele><time>2026-04-01T13:38:51.229Z</time></trkpt><trkpt lat="42.7205583" lon="11.64832"><ele>464.0</ele><time>2026-04-01T13:38:52.23Z</time></trkpt><trkpt lat="42.720545" lon="11.6482133"><ele>463.0</ele><time>2026-04-01T13:38:53.23Z</time></trkpt><trkpt lat="42.7205283" lon="11.6481067"><ele>462.0</ele><time>2026-04-01T13:38:54.23Z</time></trkpt><trkpt lat="42.7204967" lon="11.6479917"><ele>461.0</ele><time>2026-04-01T13:38:55.23Z</time></trkpt><trkpt lat="42.7204633" lon="11.6478783"><ele>460.0</ele><time>2026-04-01T13:38:56.23Z</time></trkpt><trkpt lat="42.720435" lon="11.6477683"><ele>459.0</ele><time>2026-04-01T13:38:57.23Z</time></trkpt><trkpt lat="42.7204183" lon="11.6476533"><ele>458.0</ele><time>2026-04-01T13:38:58.229Z</time></trkpt><trkpt lat="42.720395" lon="11.6475317"><ele>457.0</ele><time>2026-04-01T13:38:59.229Z</time></trkpt><trkpt lat="42.720375" lon="11.6474233"><ele>456.0</ele><time>2026-04-01T13:39:00.23Z</time></trkpt><trkpt lat="42.720345" lon="11.6473317"><ele>455.0</ele><time>2026-04-01T13:39:01.229Z</time></trkpt><trkpt lat="42.7203233" lon="11.64724"><ele>454.0</ele><time>2026-04-01T13:39:02.229Z</time></trkpt><trkpt lat="42.7203017" lon="11.6471583"><ele>453.0</ele><time>2026-04-01T13:39:03.23Z</time></trkpt><trkpt lat="42.72028" lon="11.6470033"><ele>451.2</ele><time>2026-04-01T13:39:05.23Z</time></trkpt><trkpt lat="42.7202583" lon="11.6469167"><ele>449.4</ele><time>2026-04-01T13:39:06.23Z</time></trkpt><trkpt lat="42.7202383" lon="11.6468267"><ele>447.59999999999997</ele><time>2026-04-01T13:39:07.23Z</time></trkpt><trkpt lat="42.7202033" lon="11.64667"><ele>445.79999999999995</ele><time>2026-04-01T13:39:09.23Z</time></trkpt><trkpt lat="42.7201833" lon="11.6465167"><ele>444.0</ele><time>2026-04-01T13:39:11.23Z</time></trkpt><trkpt lat="42.7201517" lon="11.64637"><ele>442.2</ele><time>2026-04-01T13:39:13.23Z</time></trkpt><trkpt lat="42.7201117" lon="11.6462217"><ele>440.4</ele><time>2026-04-01T13:39:15.23Z</time></trkpt><trkpt lat="42.720025" lon="11.646115"><ele>438.6</ele><time>2026-04-01T13:39:17.23Z</time></trkpt><trkpt lat="42.7199583" lon="11.646085"><ele>436.8</ele><time>2026-04-01T13:39:18.23Z</time></trkpt><trkpt lat="42.719865" lon="11.64605"><ele>435.0</ele><time>2026-04-01T13:39:19.23Z</time></trkpt><trkpt lat="42.7197667" lon="11.64602"><ele>434.8</ele><time>2026-04-01T13:39:20.229Z</time></trkpt><trkpt lat="42.7196633" lon="11.645985"><ele>434.6</ele><time>2026-04-01T13:39:21.23Z</time></trkpt><trkpt lat="42.7195717" lon="11.6459567"><ele>434.4</ele><time>2026-04-01T13:39:22.23Z</time></trkpt><trkpt lat="42.7194833" lon="11.6459617"><ele>434.2</ele><time>2026-04-01T13:39:23.23Z</time></trkpt><trkpt lat="42.7194017" lon="11.6459817"><ele>434.0</ele><time>2026-04-01T13:39:24.23Z</time></trkpt><trkpt lat="42.7192983" lon="11.6460667"><ele>435.3333333333333</ele><time>2026-04-01T13:39:26.229Z</time></trkpt><trkpt lat="42.71921" lon="11.6461483"><ele>436.66666666666663</ele><time>2026-04-01T13:39:28.23Z</time></trkpt><trkpt lat="42.719155" lon="11.646195"><ele>438.0</ele><time>2026-04-01T13:39:29.23Z</time></trkpt><trkpt lat="42.7190867" lon="11.6462417"><ele>439.33333333333337</ele><time>2026-04-01T13:39:30.23Z</time></trkpt><trkpt lat="42.7190067" lon="11.6462933"><ele>440.6666666666667</ele><time>2026-04-01T13:39:31.23Z</time></trkpt><trkpt lat="42.7189283" lon="11.6463267"><ele>442.0</ele><time>2026-04-01T13:39:32.23Z</time></trkpt><trkpt lat="42.7188483" lon="11.6463467"><ele>442.0</ele><time>2026-04-01T13:39:33.23Z</time></trkpt><trkpt lat="42.71876" lon="11.6463783"><ele>442.00000000000006</ele><time>2026-04-01T13:39:34.23Z</time></trkpt><trkpt lat="42.7186733" lon="11.6464217"><ele>442.00000000000006</ele><time>2026-04-01T13:39:35.23Z</time></trkpt><trkpt lat="42.7185833" lon="11.6464883"><ele>442.0</ele><time>2026-04-01T13:39:36.229Z</time></trkpt><trkpt lat="42.7184867" lon="11.6465683"><ele>442.0</ele><time>2026-04-01T13:39:37.229Z</time></trkpt><trkpt lat="42.7183817" lon="11.64666"><ele>444.25</ele><time>2026-04-01T13:39:38.229Z</time></trkpt><trkpt lat="42.7182817" lon="11.6467517"><ele>446.5</ele><time>2026-04-01T13:39:39.229Z</time></trkpt><trkpt lat="42.7181783" lon="11.6468467"><ele>448.75</ele><time>2026-04-01T13:39:40.229Z</time></trkpt><trkpt lat="42.718075" lon="11.64693"><ele>451.0</ele><time>2026-04-01T13:39:41.229Z</time></trkpt><trkpt lat="42.71798" lon="11.6470067"><ele>454.5</ele><time>2026-04-01T13:39:42.23Z</time></trkpt><trkpt lat="42.7178733" lon="11.6470817"><ele>458.0</ele><time>2026-04-01T13:39:43.23Z</time></trkpt><trkpt lat="42.7177683" lon="11.64716"><ele>461.5</ele><time>2026-04-01T13:39:44.23Z</time></trkpt><trkpt lat="42.71767" lon="11.6472383"><ele>465.0</ele><time>2026-04-01T13:39:45.229Z</time></trkpt><trkpt lat="42.7175633" lon="11.64731"><ele>466.0</ele><time>2026-04-01T13:39:46.229Z</time></trkpt><trkpt lat="42.717455" lon="11.647365"><ele>467.0</ele><time>2026-04-01T13:39:47.23Z</time></trkpt><trkpt lat="42.71735" lon="11.64741"><ele>468.0</ele><time>2026-04-01T13:39:48.229Z</time></trkpt><trkpt lat="42.7172483" lon="11.6474467"><ele>469.0</ele><time>2026-04-01T13:39:49.23Z</time></trkpt><trkpt lat="42.7171467" lon="11.647475"><ele>470.0</ele><time>2026-04-01T13:39:50.23Z</time></trkpt><trkpt lat="42.71705" lon="11.6475017"><ele>470.0</ele><time>2026-04-01T13:39:51.229Z</time></trkpt><trkpt lat="42.71695" lon="11.6475217"><ele>470.0</ele><time>2026-04-01T13:39:52.229Z</time></trkpt><trkpt lat="42.7168533" lon="11.6475433"><ele>470.0</ele><time>2026-04-01T13:39:53.23Z</time></trkpt><trkpt lat="42.7167633" lon="11.6475783"><ele>470.0</ele><time>2026-04-01T13:39:54.23Z</time></trkpt><trkpt lat="42.7166733" lon="11.6476133"><ele>470.0</ele><time>2026-04-01T13:39:55.229Z</time></trkpt><trkpt lat="42.71658" lon="11.647655"><ele>472.8333333333333</ele><time>2026-04-01T13:39:56.229Z</time></trkpt><trkpt lat="42.7165017" lon="11.647685"><ele>475.66666666666663</ele><time>2026-04-01T13:39:57.229Z</time></trkpt><trkpt lat="42.7164383" lon="11.647715"><ele>478.5</ele><time>2026-04-01T13:39:58.229Z</time></trkpt><trkpt lat="42.7163483" lon="11.6477833"><ele>481.33333333333337</ele><time>2026-04-01T13:40:00.229Z</time></trkpt><trkpt lat="42.71627" lon="11.6477933"><ele>484.1666666666667</ele><time>2026-04-01T13:40:03.229Z</time></trkpt><trkpt lat="42.7162333" lon="11.6476817"><ele>487.0</ele><time>2026-04-01T13:40:15.23Z</time></trkpt><trkpt lat="42.7162583" lon="11.6475367"><ele>487.00000000000006</ele><time>2026-04-01T13:40:17.229Z</time></trkpt><trkpt lat="42.7162833" lon="11.6474533"><ele>487.0</ele><time>2026-04-01T13:40:18.23Z</time></trkpt><trkpt lat="42.716325" lon="11.6473817"><ele>487.0</ele><time>2026-04-01T13:40:19.229Z</time></trkpt><trkpt lat="42.7163683" lon="11.6473083"><ele>487.0</ele><time>2026-04-01T13:40:20.23Z</time></trkpt><trkpt lat="42.7164117" lon="11.64723"><ele>487.00000000000006</ele><time>2026-04-01T13:40:21.23Z</time></trkpt><trkpt lat="42.7164483" lon="11.6471517"><ele>487.0</ele><time>2026-04-01T13:40:22.229Z</time></trkpt><trkpt lat="42.7165083" lon="11.647015"><ele>487.1666666666667</ele><time>2026-04-01T13:40:24.229Z</time></trkpt><trkpt lat="42.7165367" lon="11.6469317"><ele>487.33333333333337</ele><time>2026-04-01T13:40:25.23Z</time></trkpt><trkpt lat="42.71656" lon="11.646845"><ele>487.5</ele><time>2026-04-01T13:40:26.229Z</time></trkpt><trkpt lat="42.7165817" lon="11.646755"><ele>487.66666666666663</ele><time>2026-04-01T13:40:27.229Z</time></trkpt><trkpt lat="42.7166067" lon="11.64661"><ele>487.8333333333333</ele><time>2026-04-01T13:40:29.229Z</time></trkpt><trkpt lat="42.7166133" lon="11.64647"><ele>488.0</ele><time>2026-04-01T13:40:31.23Z</time></trkpt><trkpt lat="42.7165967" lon="11.6462917"><ele>488.0</ele><time>2026-04-01T13:40:33.23Z</time></trkpt><trkpt lat="42.7165717" lon="11.6461833"><ele>487.99999999999994</ele><time>2026-04-01T13:40:34.23Z</time></trkpt><trkpt lat="42.7165433" lon="11.6460683"><ele>487.99999999999994</ele><time>2026-04-01T13:40:35.23Z</time></trkpt><trkpt lat="42.7165117" lon="11.6459433"><ele>488.0</ele><time>2026-04-01T13:40:36.23Z</time></trkpt><trkpt lat="42.7164833" lon="11.6458083"><ele>488.0</ele><time>2026-04-01T13:40:37.23Z</time></trkpt><trkpt lat="42.7164633" lon="11.6456917"><ele>487.8333333333333</ele><time>2026-04-01T13:40:38.23Z</time></trkpt><trkpt lat="42.71645" lon="11.6455817"><ele>487.66666666666663</ele><time>2026-04-01T13:40:39.23Z</time></trkpt><trkpt lat="42.7164333" lon="11.6454733"><ele>487.5</ele><time>2026-04-01T13:40:40.229Z</time></trkpt><trkpt lat="42.7164217" lon="11.6453817"><ele>487.33333333333337</ele><time>2026-04-01T13:40:41.23Z</time></trkpt><trkpt lat="42.716395" lon="11.6452667"><ele>487.1666666666667</ele><time>2026-04-01T13:40:43.229Z</time></trkpt><trkpt lat="42.7163217" lon="11.6452"><ele>487.0</ele><time>2026-04-01T13:40:49.23Z</time></trkpt><trkpt lat="42.7162633" lon="11.6451267"><ele>487.0</ele><time>2026-04-01T13:40:52.229Z</time></trkpt><trkpt lat="42.7161967" lon="11.64507"><ele>487.0</ele><time>2026-04-01T13:40:55.229Z</time></trkpt><trkpt lat="42.7161367" lon="11.6450433"><ele>487.0</ele><time>2026-04-01T13:40:57.229Z</time></trkpt><trkpt lat="42.7160717" lon="11.6450067"><ele>487.0</ele><time>2026-04-01T13:40:59.229Z</time></trkpt><trkpt lat="42.7160033" lon="11.64496"><ele>487.0</ele><time>2026-04-01T13:41:02.23Z</time></trkpt><trkpt lat="42.715935" lon="11.6449217"><ele>487.0</ele><time>2026-04-01T13:41:05.229Z</time></trkpt><trkpt lat="42.7158733" lon="11.6448983"><ele>487.0</ele><time>2026-04-01T13:41:07.23Z</time></trkpt><trkpt lat="42.7157883" lon="11.64489"><ele>487.1666666666667</ele><time>2026-04-01T13:41:10.23Z</time></trkpt><trkpt lat="42.715715" lon="11.6448833"><ele>487.33333333333337</ele><time>2026-04-01T13:41:13.23Z</time></trkpt><trkpt lat="42.7156533" lon="11.6448433"><ele>487.5</ele><time>2026-04-01T13:41:18.23Z</time></trkpt><trkpt lat="42.7155767" lon="11.6447983"><ele>487.66666666666663</ele><time>2026-04-01T13:41:21.229Z</time></trkpt><trkpt lat="42.7155167" lon="11.64475"><ele>487.8333333333333</ele><time>2026-04-01T13:41:23.23Z</time></trkpt><trkpt lat="42.7154367" lon="11.6447083"><ele>488.0</ele><time>2026-04-01T13:41:25.23Z</time></trkpt><trkpt lat="42.7153417" lon="11.6446383"><ele>488.0</ele><time>2026-04-01T13:41:27.23Z</time></trkpt><trkpt lat="42.7152633" lon="11.6445317"><ele>487.99999999999994</ele><time>2026-04-01T13:41:29.23Z</time></trkpt><trkpt lat="42.7152067" lon="11.6444233"><ele>487.99999999999994</ele><time>2026-04-01T13:41:31.229Z</time></trkpt><trkpt lat="42.7151633" lon="11.6443267"><ele>488.0</ele><time>2026-04-01T13:41:33.23Z</time></trkpt><trkpt lat="42.71513" lon="11.6442"><ele>488.0</ele><time>2026-04-01T13:41:35.23Z</time></trkpt><trkpt lat="42.71513" lon="11.6440783"><ele>488.49999999999994</ele><time>2026-04-01T13:41:37.23Z</time></trkpt><trkpt lat="42.7151367" lon="11.643965"><ele>489.0</ele><time>2026-04-01T13:41:39.23Z</time></trkpt><trkpt lat="42.7151233" lon="11.6438417"><ele>489.5</ele><time>2026-04-01T13:41:41.23Z</time></trkpt><trkpt lat="42.7151067" lon="11.6437183"><ele>490.0</ele><time>2026-04-01T13:41:43.229Z</time></trkpt><trkpt lat="42.7150867" lon="11.64359"><ele>490.49999999999994</ele><time>2026-04-01T13:41:45.23Z</time></trkpt><trkpt lat="42.7150733" lon="11.6434883"><ele>491.0</ele><time>2026-04-01T13:41:47.23Z</time></trkpt><trkpt lat="42.7150633" lon="11.6434033"><ele>489.4285714285714</ele><time>2026-04-01T13:41:49.229Z</time></trkpt><trkpt lat="42.7150267" lon="11.6432917"><ele>487.8571428571428</ele><time>2026-04-01T13:41:52.23Z</time></trkpt><trkpt lat="42.714985" lon="11.6432133"><ele>486.2857142857143</ele><time>2026-04-01T13:41:55.229Z</time></trkpt><trkpt lat="42.7149333" lon="11.6431317"><ele>484.71428571428567</ele><time>2026-04-01T13:41:58.229Z</time></trkpt><trkpt lat="42.71488" lon="11.6430817"><ele>483.1428571428571</ele><time>2026-04-01T13:42:00.23Z</time></trkpt><trkpt lat="42.71481" lon="11.6430617"><ele>481.57142857142856</ele><time>2026-04-01T13:42:02.23Z</time></trkpt><trkpt lat="42.7147417" lon="11.643075"><ele>480.0</ele><time>2026-04-01T13:42:04.23Z</time></trkpt><trkpt lat="42.714665" lon="11.6430933"><ele>480.0</ele><time>2026-04-01T13:42:06.23Z</time></trkpt><trkpt lat="42.7145933" lon="11.6430967"><ele>480.0</ele><time>2026-04-01T13:42:08.23Z</time></trkpt><trkpt lat="42.714525" lon="11.6431133"><ele>480.0</ele><time>2026-04-01T13:42:10.23Z</time></trkpt><trkpt lat="42.7144533" lon="11.6431283"><ele>480.0</ele><time>2026-04-01T13:42:12.23Z</time></trkpt><trkpt lat="42.7143583" lon="11.6431433"><ele>480.0</ele><time>2026-04-01T13:42:15.229Z</time></trkpt><trkpt lat="42.71428" lon="11.643135"><ele>480.0</ele><time>2026-04-01T13:42:17.229Z</time></trkpt><trkpt lat="42.714185" lon="11.6431"><ele>480.3333333333333</ele><time>2026-04-01T13:42:19.229Z</time></trkpt><trkpt lat="42.7141133" lon="11.6430383"><ele>480.66666666666663</ele><time>2026-04-01T13:42:21.23Z</time></trkpt><trkpt lat="42.7140533" lon="11.6429733"><ele>481.0</ele><time>2026-04-01T13:42:24.229Z</time></trkpt><trkpt lat="42.7139967" lon="11.6429117"><ele>481.3333333333333</ele><time>2026-04-01T13:42:27.229Z</time></trkpt><trkpt lat="42.7139183" lon="11.6428467"><ele>481.66666666666663</ele><time>2026-04-01T13:42:49.229Z</time></trkpt><trkpt lat="42.7138267" lon="11.6427783"><ele>482.0</ele><time>2026-04-01T13:42:51.229Z</time></trkpt><trkpt lat="42.7137167" lon="11.642725"><ele>480.20000000000005</ele><time>2026-04-01T13:42:53.23Z</time></trkpt><trkpt lat="42.7136183" lon="11.6426767"><ele>478.40000000000003</ele><time>2026-04-01T13:42:55.229Z</time></trkpt><trkpt lat="42.7135317" lon="11.64263"><ele>476.59999999999997</ele><time>2026-04-01T13:42:57.23Z</time></trkpt><trkpt lat="42.7134417" lon="11.642565"><ele>474.79999999999995</ele><time>2026-04-01T13:42:59.229Z</time></trkpt><trkpt lat="42.7133483" lon="11.6424733"><ele>473.0</ele><time>2026-04-01T13:43:01.229Z</time></trkpt><trkpt lat="42.7132767" lon="11.6423867"><ele>472.99999999999994</ele><time>2026-04-01T13:43:03.23Z</time></trkpt><trkpt lat="42.7132233" lon="11.6423183"><ele>473.0</ele><time>2026-04-01T13:43:05.23Z</time></trkpt><trkpt lat="42.713165" lon="11.6422333"><ele>473.0</ele><time>2026-04-01T13:43:08.23Z</time></trkpt><trkpt lat="42.713105" lon="11.6421517"><ele>473.0</ele><time>2026-04-01T13:43:11.229Z</time></trkpt><trkpt lat="42.71304" lon="11.6421017"><ele>472.99999999999994</ele><time>2026-04-01T13:43:13.23Z</time></trkpt><trkpt lat="42.712965" lon="11.6420317"><ele>473.0</ele><time>2026-04-01T13:43:15.23Z</time></trkpt><trkpt lat="42.7128867" lon="11.6419583"><ele>471.99999999999994</ele><time>2026-04-01T13:43:17.23Z</time></trkpt><trkpt lat="42.7128083" lon="11.6419"><ele>471.0</ele><time>2026-04-01T13:43:19.23Z</time></trkpt><trkpt lat="42.7127483" lon="11.6418667"><ele>470.0</ele><time>2026-04-01T13:43:20.229Z</time></trkpt><trkpt lat="42.71268" lon="11.6417683"><ele>469.0</ele><time>2026-04-01T13:43:22.229Z</time></trkpt><trkpt lat="42.7126217" lon="11.641715"><ele>467.99999999999994</ele><time>2026-04-01T13:43:24.23Z</time></trkpt><trkpt lat="42.7125017" lon="11.6416983"><ele>467.0</ele><time>2026-04-01T13:43:54.229Z</time></trkpt><trkpt lat="42.712425" lon="11.6417067"><ele>466.99999999999994</ele><time>2026-04-01T13:43:56.23Z</time></trkpt><trkpt lat="42.71233" lon="11.64166"><ele>467.0</ele><time>2026-04-01T13:43:58.229Z</time></trkpt><trkpt lat="42.7122283" lon="11.6415617"><ele>467.0</ele><time>2026-04-01T13:44:00.23Z</time></trkpt><trkpt lat="42.7121667" lon="11.6415167"><ele>467.0</ele><time>2026-04-01T13:44:01.23Z</time></trkpt><trkpt lat="42.7120933" lon="11.64149"><ele>466.99999999999994</ele><time>2026-04-01T13:44:02.23Z</time></trkpt><trkpt lat="42.71202" lon="11.6414817"><ele>467.0</ele><time>2026-04-01T13:44:03.23Z</time></trkpt><trkpt lat="42.7119433" lon="11.641475"><ele>470.16666666666663</ele><time>2026-04-01T13:44:04.23Z</time></trkpt><trkpt lat="42.71186" lon="11.6414567"><ele>473.3333333333333</ele><time>2026-04-01T13:44:05.229Z</time></trkpt><trkpt lat="42.71178" lon="11.6414367"><ele>476.5</ele><time>2026-04-01T13:44:06.229Z</time></trkpt><trkpt lat="42.711705" lon="11.6414117"><ele>479.66666666666663</ele><time>2026-04-01T13:44:07.23Z</time></trkpt><trkpt lat="42.71163" lon="11.6413733"><ele>482.8333333333333</ele><time>2026-04-01T13:44:08.23Z</time></trkpt><trkpt lat="42.71155" lon="11.6413267"><ele>486.0</ele><time>2026-04-01T13:44:09.229Z</time></trkpt><trkpt lat="42.711455" lon="11.6412667"><ele>486.0</ele><time>2026-04-01T13:44:10.23Z</time></trkpt><trkpt lat="42.711365" lon="11.6411933"><ele>486.0</ele><time>2026-04-01T13:44:11.229Z</time></trkpt><trkpt lat="42.711275" lon="11.6411367"><ele>486.0</ele><time>2026-04-01T13:44:12.23Z</time></trkpt><trkpt lat="42.7111817" lon="11.6410933"><ele>486.0</ele><time>2026-04-01T13:44:13.23Z</time></trkpt><trkpt lat="42.7111067" lon="11.6410533"><ele>486.0</ele><time>2026-04-01T13:44:14.23Z</time></trkpt><trkpt lat="42.711" lon="11.6410217"><ele>484.3333333333333</ele><time>2026-04-01T13:44:16.229Z</time></trkpt><trkpt lat="42.710925" lon="11.6410433"><ele>482.66666666666663</ele><time>2026-04-01T13:44:18.23Z</time></trkpt><trkpt lat="42.7108467" lon="11.6411267"><ele>481.0</ele><time>2026-04-01T13:44:32.229Z</time></trkpt><trkpt lat="42.71079" lon="11.6411667"><ele>479.3333333333333</ele><time>2026-04-01T13:44:33.229Z</time></trkpt><trkpt lat="42.7107183" lon="11.641215"><ele>477.66666666666663</ele><time>2026-04-01T13:44:34.23Z</time></trkpt><trkpt lat="42.7106417" lon="11.641265"><ele>476.0</ele><time>2026-04-01T13:44:35.23Z</time></trkpt><trkpt lat="42.71057" lon="11.641325"><ele>477.8</ele><time>2026-04-01T13:44:36.23Z</time></trkpt><trkpt lat="42.7104883" lon="11.6414017"><ele>479.6</ele><time>2026-04-01T13:44:37.229Z</time></trkpt><trkpt lat="42.7104" lon="11.6414733"><ele>481.4</ele><time>2026-04-01T13:44:38.229Z</time></trkpt><trkpt lat="42.7103067" lon="11.6415367"><ele>483.2</ele><time>2026-04-01T13:44:39.229Z</time></trkpt><trkpt lat="42.710215" lon="11.641595"><ele>485.0</ele><time>2026-04-01T13:44:40.23Z</time></trkpt><trkpt lat="42.71012" lon="11.6416517"><ele>485.0</ele><time>2026-04-01T13:44:41.23Z</time></trkpt><trkpt lat="42.7100333" lon="11.6416867"><ele>485.0</ele><time>2026-04-01T13:44:42.23Z</time></trkpt><trkpt lat="42.7099467" lon="11.6417033"><ele>485.0</ele><time>2026-04-01T13:44:43.231Z</time></trkpt><trkpt lat="42.709845" lon="11.64171"><ele>485.0</ele><time>2026-04-01T13:44:44.231Z</time></trkpt><trkpt lat="42.7097483" lon="11.6417083"><ele>485.0</ele><time>2026-04-01T13:44:45.231Z</time></trkpt><trkpt lat="42.7096483" lon="11.6417117"><ele>485.0</ele><time>2026-04-01T13:44:46.23Z</time></trkpt><trkpt lat="42.7095483" lon="11.6417033"><ele>485.0</ele><time>2026-04-01T13:44:47.231Z</time></trkpt><trkpt lat="42.709455" lon="11.6416967"><ele>485.0</ele><time>2026-04-01T13:44:48.23Z</time></trkpt><trkpt lat="42.7093517" lon="11.64169"><ele>485.0</ele><time>2026-04-01T13:44:49.231Z</time></trkpt><trkpt lat="42.7092567" lon="11.6416767"><ele>485.0</ele><time>2026-04-01T13:44:50.231Z</time></trkpt><trkpt lat="42.7091683" lon="11.641655"><ele>482.8333333333333</ele><time>2026-04-01T13:44:51.23Z</time></trkpt><trkpt lat="42.7090883" lon="11.6416217"><ele>480.66666666666663</ele><time>2026-04-01T13:44:52.231Z</time></trkpt><trkpt lat="42.7090167" lon="11.641575"><ele>478.5</ele><time>2026-04-01T13:44:53.23Z</time></trkpt><trkpt lat="42.7089583" lon="11.641525"><ele>476.33333333333337</ele><time>2026-04-01T13:44:54.231Z</time></trkpt><trkpt lat="42.7088517" lon="11.641455"><ele>474.1666666666667</ele><time>2026-04-01T13:44:56.231Z</time></trkpt><trkpt lat="42.7087783" lon="11.6414483"><ele>472.0</ele><time>2026-04-01T13:44:57.23Z</time></trkpt><trkpt lat="42.7087067" lon="11.6414767"><ele>472.00000000000006</ele><time>2026-04-01T13:44:58.23Z</time></trkpt><trkpt lat="42.7086317" lon="11.641535"><ele>472.0</ele><time>2026-04-01T13:44:59.231Z</time></trkpt><trkpt lat="42.70856" lon="11.6416083"><ele>472.0</ele><time>2026-04-01T13:45:00.23Z</time></trkpt><trkpt lat="42.7084933" lon="11.6416917"><ele>472.0</ele><time>2026-04-01T13:45:01.231Z</time></trkpt><trkpt lat="42.7084483" lon="11.641775"><ele>472.00000000000006</ele><time>2026-04-01T13:45:02.231Z</time></trkpt><trkpt lat="42.7084033" lon="11.6418567"><ele>472.0</ele><time>2026-04-01T13:45:03.231Z</time></trkpt><trkpt lat="42.7083583" lon="11.6419417"><ele>471.33333333333337</ele><time>2026-04-01T13:45:04.231Z</time></trkpt><trkpt lat="42.7083233" lon="11.6420167"><ele>470.6666666666667</ele><time>2026-04-01T13:45:05.231Z</time></trkpt><trkpt lat="42.7082983" lon="11.6421"><ele>470.0</ele><time>2026-04-01T13:45:06.231Z</time></trkpt><trkpt lat="42.7082817" lon="11.6422533"><ele>469.33333333333337</ele><time>2026-04-01T13:45:08.23Z</time></trkpt><trkpt lat="42.7083" lon="11.642385"><ele>468.6666666666667</ele><time>2026-04-01T13:45:10.23Z</time></trkpt><trkpt lat="42.7083233" lon="11.6424867"><ele>468.0</ele><time>2026-04-01T13:45:12.23Z</time></trkpt><trkpt lat="42.7083133" lon="11.6423667"><ele>468.0</ele><time>2026-04-01T13:45:39.231Z</time></trkpt><trkpt lat="42.7083017" lon="11.6422267"><ele>467.99999999999994</ele><time>2026-04-01T13:45:41.23Z</time></trkpt><trkpt lat="42.708305" lon="11.642095"><ele>467.99999999999994</ele><time>2026-04-01T13:45:43.231Z</time></trkpt><trkpt lat="42.7083467" lon="11.6419817"><ele>468.0</ele><time>2026-04-01T13:45:45.231Z</time></trkpt><trkpt lat="42.7083933" lon="11.6418833"><ele>468.0</ele><time>2026-04-01T13:45:47.23Z</time></trkpt><trkpt lat="42.70844" lon="11.6418"><ele>466.8333333333333</ele><time>2026-04-01T13:45:49.23Z</time></trkpt><trkpt lat="42.7084917" lon="11.6417317"><ele>465.66666666666663</ele><time>2026-04-01T13:45:51.23Z</time></trkpt><trkpt lat="42.7084833" lon="11.6416467"><ele>464.5</ele><time>2026-04-01T13:45:56.231Z</time></trkpt><trkpt lat="42.7083883" lon="11.6415933"><ele>463.3333333333333</ele><time>2026-04-01T13:45:59.23Z</time></trkpt><trkpt lat="42.7083233" lon="11.6415483"><ele>462.16666666666663</ele><time>2026-04-01T13:46:02.23Z</time></trkpt><trkpt lat="42.7082933" lon="11.64146"><ele>461.0</ele><time>2026-04-01T13:46:05.231Z</time></trkpt><trkpt lat="42.7082283" lon="11.6414017"><ele>460.99999999999994</ele><time>2026-04-01T13:46:08.231Z</time></trkpt><trkpt lat="42.708155" lon="11.6414333"><ele>461.0</ele><time>2026-04-01T13:46:10.23Z</time></trkpt><trkpt lat="42.70808" lon="11.6414717"><ele>461.0</ele><time>2026-04-01T13:46:12.23Z</time></trkpt><trkpt lat="42.7080067" lon="11.641455"><ele>461.0</ele><time>2026-04-01T13:46:15.231Z</time></trkpt><trkpt lat="42.7079083" lon="11.6414417"><ele>460.99999999999994</ele><time>2026-04-01T13:46:18.231Z</time></trkpt><trkpt lat="42.70781" lon="11.6414633"><ele>461.0</ele><time>2026-04-01T13:46:20.231Z</time></trkpt><trkpt lat="42.7076883" lon="11.641495"><ele>457.8571428571429</ele><time>2026-04-01T13:46:22.231Z</time></trkpt><trkpt lat="42.7076233" lon="11.6415283"><ele>454.7142857142858</ele><time>2026-04-01T13:46:23.23Z</time></trkpt><trkpt lat="42.7075567" lon="11.6415483"><ele>451.57142857142856</ele><time>2026-04-01T13:46:24.231Z</time></trkpt><trkpt lat="42.7074783" lon="11.641575"><ele>448.42857142857144</ele><time>2026-04-01T13:46:26.231Z</time></trkpt><trkpt lat="42.7074117" lon="11.6415783"><ele>445.2857142857143</ele><time>2026-04-01T13:46:29.231Z</time></trkpt><trkpt lat="42.7073517" lon="11.6416233"><ele>442.1428571428571</ele><time>2026-04-01T13:46:32.23Z</time></trkpt><trkpt lat="42.7072933" lon="11.6416867"><ele>439.0</ele><time>2026-04-01T13:46:36.231Z</time></trkpt><trkpt lat="42.7072383" lon="11.6417433"><ele>439.00000000000006</ele><time>2026-04-01T13:46:38.231Z</time></trkpt><trkpt lat="42.707155" lon="11.6418233"><ele>439.0</ele><time>2026-04-01T13:46:40.231Z</time></trkpt><trkpt lat="42.7071033" lon="11.6418817"><ele>439.0</ele><time>2026-04-01T13:46:41.231Z</time></trkpt><trkpt lat="42.7070467" lon="11.6419383"><ele>439.0</ele><time>2026-04-01T13:46:42.231Z</time></trkpt><trkpt lat="42.7069867" lon="11.642"><ele>439.00000000000006</ele><time>2026-04-01T13:46:43.231Z</time></trkpt><trkpt lat="42.7069367" lon="11.6420533"><ele>439.0</ele><time>2026-04-01T13:46:44.231Z</time></trkpt><trkpt lat="42.7068733" lon="11.6421033"><ele>437.4</ele><time>2026-04-01T13:46:45.23Z</time></trkpt><trkpt lat="42.7068133" lon="11.642145"><ele>435.79999999999995</ele><time>2026-04-01T13:46:46.231Z</time></trkpt><trkpt lat="42.706745" lon="11.6421833"><ele>434.20000000000005</ele><time>2026-04-01T13:46:47.23Z</time></trkpt><trkpt lat="42.7066617" lon="11.642225"><ele>432.6</ele><time>2026-04-01T13:46:48.231Z</time></trkpt><trkpt lat="42.70655" lon="11.64228"><ele>431.0</ele><time>2026-04-01T13:46:49.231Z</time></trkpt><trkpt lat="42.70643" lon="11.6423367"><ele>431.0</ele><time>2026-04-01T13:46:50.231Z</time></trkpt><trkpt lat="42.7062967" lon="11.6423917"><ele>431.0</ele><time>2026-04-01T13:46:51.23Z</time></trkpt><trkpt lat="42.706175" lon="11.6424467"><ele>431.0</ele><time>2026-04-01T13:46:52.231Z</time></trkpt><trkpt lat="42.7060583" lon="11.642495"><ele>431.0</ele><time>2026-04-01T13:46:53.231Z</time></trkpt><trkpt lat="42.70596" lon="11.6425417"><ele>431.6</ele><time>2026-04-01T13:46:54.231Z</time></trkpt><trkpt lat="42.7058617" lon="11.6426133"><ele>432.20000000000005</ele><time>2026-04-01T13:46:55.23Z</time></trkpt><trkpt lat="42.7057667" lon="11.6426833"><ele>432.79999999999995</ele><time>2026-04-01T13:46:56.231Z</time></trkpt><trkpt lat="42.7056783" lon="11.6427533"><ele>433.4</ele><time>2026-04-01T13:46:57.231Z</time></trkpt><trkpt lat="42.7055883" lon="11.6428117"><ele>434.0</ele><time>2026-04-01T13:46:58.231Z</time></trkpt><trkpt lat="42.7054983" lon="11.6428633"><ele>434.0</ele><time>2026-04-01T13:46:59.23Z</time></trkpt><trkpt lat="42.7054067" lon="11.642915"><ele>434.0</ele><time>2026-04-01T13:47:00.23Z</time></trkpt><trkpt lat="42.7053117" lon="11.6429633"><ele>434.0</ele><time>2026-04-01T13:47:01.23Z</time></trkpt><trkpt lat="42.7052283" lon="11.6430067"><ele>434.0</ele><time>2026-04-01T13:47:02.231Z</time></trkpt><trkpt lat="42.705135" lon="11.6430483"><ele>434.0</ele><time>2026-04-01T13:47:03.231Z</time></trkpt><trkpt lat="42.70504" lon="11.6430867"><ele>433.0</ele><time>2026-04-01T13:47:04.231Z</time></trkpt><trkpt lat="42.7049267" lon="11.6430983"><ele>432.0</ele><time>2026-04-01T13:47:05.231Z</time></trkpt><trkpt lat="42.7048133" lon="11.6430967"><ele>431.0</ele><time>2026-04-01T13:47:06.231Z</time></trkpt><trkpt lat="42.7046933" lon="11.643075"><ele>430.0</ele><time>2026-04-01T13:47:07.23Z</time></trkpt><trkpt lat="42.7045583" lon="11.643055"><ele>430.0</ele><time>2026-04-01T13:47:08.231Z</time></trkpt><trkpt lat="42.70442" lon="11.6430567"><ele>430.0</ele><time>2026-04-01T13:47:09.231Z</time></trkpt><trkpt lat="42.7042717" lon="11.6430583"><ele>430.0</ele><time>2026-04-01T13:47:10.231Z</time></trkpt><trkpt lat="42.7041317" lon="11.64306"><ele>430.0</ele><time>2026-04-01T13:47:11.23Z</time></trkpt><trkpt lat="42.704" lon="11.64306"><ele>430.5</ele><time>2026-04-01T13:47:12.23Z</time></trkpt><trkpt lat="42.7038833" lon="11.64306"><ele>431.0</ele><time>2026-04-01T13:47:13.231Z</time></trkpt><trkpt lat="42.7037633" lon="11.6430617"><ele>431.5</ele><time>2026-04-01T13:47:14.231Z</time></trkpt><trkpt lat="42.7036383" lon="11.643065"><ele>432.0</ele><time>2026-04-01T13:47:15.231Z</time></trkpt><trkpt lat="42.7035183" lon="11.6430617"><ele>432.6</ele><time>2026-04-01T13:47:16.231Z</time></trkpt><trkpt lat="42.703405" lon="11.6430517"><ele>433.20000000000005</ele><time>2026-04-01T13:47:17.23Z</time></trkpt><trkpt lat="42.7033" lon="11.6430117"><ele>433.8</ele><time>2026-04-01T13:47:18.231Z</time></trkpt><trkpt lat="42.7031983" lon="11.642965"><ele>434.4</ele><time>2026-04-01T13:47:19.231Z</time></trkpt><trkpt lat="42.7030933" lon="11.6429233"><ele>435.0</ele><time>2026-04-01T13:47:20.231Z</time></trkpt><trkpt lat="42.7029983" lon="11.6428933"><ele>435.0</ele><time>2026-04-01T13:47:21.231Z</time></trkpt><trkpt lat="42.7029" lon="11.6428917"><ele>435.0</ele><time>2026-04-01T13:47:22.23Z</time></trkpt><trkpt lat="42.7028033" lon="11.6429"><ele>435.0</ele><time>2026-04-01T13:47:23.231Z</time></trkpt><trkpt lat="42.702715" lon="11.6429283"><ele>435.0</ele><time>2026-04-01T13:47:24.23Z</time></trkpt><trkpt lat="42.70264" lon="11.6429517"><ele>435.0</ele><time>2026-04-01T13:47:25.231Z</time></trkpt><trkpt lat="42.7025267" lon="11.6429533"><ele>433.4</ele><time>2026-04-01T13:47:27.23Z</time></trkpt><trkpt lat="42.7024433" lon="11.6429533"><ele>431.8</ele><time>2026-04-01T13:47:29.23Z</time></trkpt><trkpt lat="42.7023533" lon="11.6430183"><ele>430.20000000000005</ele><time>2026-04-01T13:47:31.23Z</time></trkpt><trkpt lat="42.7022917" lon="11.64308"><ele>428.6</ele><time>2026-04-01T13:47:32.231Z</time></trkpt><trkpt lat="42.702225" lon="11.64317"><ele>427.0</ele><time>2026-04-01T13:47:33.23Z</time></trkpt><trkpt lat="42.7021667" lon="11.6432783"><ele>427.0</ele><time>2026-04-01T13:47:34.231Z</time></trkpt><trkpt lat="42.70212" lon="11.6433833"><ele>427.00000000000006</ele><time>2026-04-01T13:47:35.23Z</time></trkpt><trkpt lat="42.702065" lon="11.64349"><ele>427.00000000000006</ele><time>2026-04-01T13:47:36.231Z</time></trkpt><trkpt lat="42.7019967" lon="11.6435667"><ele>427.0</ele><time>2026-04-01T13:47:37.231Z</time></trkpt><trkpt lat="42.701915" lon="11.6436167"><ele>427.0</ele><time>2026-04-01T13:47:38.23Z</time></trkpt><trkpt lat="42.7018217" lon="11.6436417"><ele>426.40000000000003</ele><time>2026-04-01T13:47:39.231Z</time></trkpt><trkpt lat="42.7017233" lon="11.64366"><ele>425.80000000000007</ele><time>2026-04-01T13:47:40.23Z</time></trkpt><trkpt lat="42.70163" lon="11.6436933"><ele>425.2</ele><time>2026-04-01T13:47:41.231Z</time></trkpt><trkpt lat="42.70153" lon="11.643745"><ele>424.6</ele><time>2026-04-01T13:47:42.23Z</time></trkpt><trkpt lat="42.70144" lon="11.643815"><ele>424.0</ele><time>2026-04-01T13:47:43.231Z</time></trkpt><trkpt lat="42.7013567" lon="11.6438967"><ele>424.00000000000006</ele><time>2026-04-01T13:47:44.231Z</time></trkpt><trkpt lat="42.70128" lon="11.6439767"><ele>424.0</ele><time>2026-04-01T13:47:45.231Z</time></trkpt><trkpt lat="42.7012183" lon="11.6440633"><ele>424.0</ele><time>2026-04-01T13:47:46.231Z</time></trkpt><trkpt lat="42.70117" lon="11.6441633"><ele>424.0</ele><time>2026-04-01T13:47:47.231Z</time></trkpt><trkpt lat="42.701125" lon="11.644265"><ele>424.00000000000006</ele><time>2026-04-01T13:47:48.23Z</time></trkpt><trkpt lat="42.7010867" lon="11.64437"><ele>424.0</ele><time>2026-04-01T13:47:49.23Z</time></trkpt><trkpt lat="42.7010533" lon="11.6444783"><ele>420.0</ele><time>2026-04-01T13:47:50.231Z</time></trkpt><trkpt lat="42.7010317" lon="11.6446067"><ele>416.0</ele><time>2026-04-01T13:47:51.23Z</time></trkpt><trkpt lat="42.7010067" lon="11.644745"><ele>412.0</ele><time>2026-04-01T13:47:52.23Z</time></trkpt><trkpt lat="42.700985" lon="11.6448867"><ele>408.0</ele><time>2026-04-01T13:47:53.231Z</time></trkpt><trkpt lat="42.700965" lon="11.64501"><ele>404.0</ele><time>2026-04-01T13:47:54.231Z</time></trkpt><trkpt lat="42.70093" lon="11.6451417"><ele>404.0</ele><time>2026-04-01T13:47:55.231Z</time></trkpt><trkpt lat="42.7008833" lon="11.6452633"><ele>404.0</ele><time>2026-04-01T13:47:56.231Z</time></trkpt><trkpt lat="42.7008267" lon="11.6453883"><ele>404.0</ele><time>2026-04-01T13:47:57.231Z</time></trkpt><trkpt lat="42.700755" lon="11.645495"><ele>404.0</ele><time>2026-04-01T13:47:58.231Z</time></trkpt><trkpt lat="42.70068" lon="11.6455933"><ele>404.0</ele><time>2026-04-01T13:47:59.231Z</time></trkpt><trkpt lat="42.700595" lon="11.6457033"><ele>406.4</ele><time>2026-04-01T13:48:00.231Z</time></trkpt><trkpt lat="42.70051" lon="11.6458117"><ele>408.79999999999995</ele><time>2026-04-01T13:48:01.23Z</time></trkpt><trkpt lat="42.7004283" lon="11.64592"><ele>411.20000000000005</ele><time>2026-04-01T13:48:02.231Z</time></trkpt><trkpt lat="42.7003667" lon="11.6460133"><ele>413.6</ele><time>2026-04-01T13:48:03.231Z</time></trkpt><trkpt lat="42.7003167" lon="11.6460817"><ele>416.0</ele><time>2026-04-01T13:48:04.23Z</time></trkpt><trkpt lat="42.7002533" lon="11.64618"><ele>415.4</ele><time>2026-04-01T13:48:06.231Z</time></trkpt><trkpt lat="42.7001717" lon="11.646175"><ele>414.8</ele><time>2026-04-01T13:48:19.231Z</time></trkpt><trkpt lat="42.7001083" lon="11.6461033"><ele>414.2</ele><time>2026-04-01T13:48:21.231Z</time></trkpt><trkpt lat="42.70002" lon="11.6459933"><ele>413.59999999999997</ele><time>2026-04-01T13:48:23.231Z</time></trkpt><trkpt lat="42.6999517" lon="11.64593"><ele>413.0</ele><time>2026-04-01T13:48:24.231Z</time></trkpt><trkpt lat="42.69988" lon="11.6458583"><ele>411.4</ele><time>2026-04-01T13:48:25.231Z</time></trkpt><trkpt lat="42.699815" lon="11.6457833"><ele>409.79999999999995</ele><time>2026-04-01T13:48:26.231Z</time></trkpt><trkpt lat="42.6997517" lon="11.6456933"><ele>408.2</ele><time>2026-04-01T13:48:27.231Z</time></trkpt><trkpt lat="42.699685" lon="11.6455883"><ele>406.6</ele><time>2026-04-01T13:48:28.23Z</time></trkpt><trkpt lat="42.6996267" lon="11.6454867"><ele>405.0</ele><time>2026-04-01T13:48:29.23Z</time></trkpt><trkpt lat="42.6995667" lon="11.6453867"><ele>405.0</ele><time>2026-04-01T13:48:30.231Z</time></trkpt><trkpt lat="42.6995017" lon="11.6453017"><ele>405.0</ele><time>2026-04-01T13:48:31.23Z</time></trkpt><trkpt lat="42.69944" lon="11.645235"><ele>405.0</ele><time>2026-04-01T13:48:32.231Z</time></trkpt><trkpt lat="42.6993683" lon="11.6452"><ele>405.0</ele><time>2026-04-01T13:48:33.231Z</time></trkpt><trkpt lat="42.6992833" lon="11.6451883"><ele>405.0</ele><time>2026-04-01T13:48:34.231Z</time></trkpt><trkpt lat="42.6992017" lon="11.6451633"><ele>405.0</ele><time>2026-04-01T13:48:35.23Z</time></trkpt><trkpt lat="42.699125" lon="11.64512"><ele>402.3333333333333</ele><time>2026-04-01T13:48:36.231Z</time></trkpt><trkpt lat="42.6990533" lon="11.645065"><ele>399.66666666666663</ele><time>2026-04-01T13:48:37.23Z</time></trkpt><trkpt lat="42.6989833" lon="11.6449933"><ele>397.0</ele><time>2026-04-01T13:48:38.23Z</time></trkpt><trkpt lat="42.698915" lon="11.6449133"><ele>394.3333333333333</ele><time>2026-04-01T13:48:39.231Z</time></trkpt><trkpt lat="42.698855" lon="11.6448233"><ele>391.66666666666663</ele><time>2026-04-01T13:48:40.23Z</time></trkpt><trkpt lat="42.69881" lon="11.6447283"><ele>389.0</ele><time>2026-04-01T13:48:41.23Z</time></trkpt><trkpt lat="42.6987733" lon="11.6446267"><ele>389.0</ele><time>2026-04-01T13:48:42.23Z</time></trkpt><trkpt lat="42.698755" lon="11.6445183"><ele>389.0</ele><time>2026-04-01T13:48:43.23Z</time></trkpt><trkpt lat="42.6987517" lon="11.6443983"><ele>389.0</ele><time>2026-04-01T13:48:44.23Z</time></trkpt><trkpt lat="42.69876" lon="11.6442617"><ele>389.0</ele><time>2026-04-01T13:48:45.23Z</time></trkpt><trkpt lat="42.6987783" lon="11.6441233"><ele>389.0</ele><time>2026-04-01T13:48:46.23Z</time></trkpt><trkpt lat="42.6988033" lon="11.6439867"><ele>387.4</ele><time>2026-04-01T13:48:47.23Z</time></trkpt><trkpt lat="42.6988367" lon="11.6438483"><ele>385.79999999999995</ele><time>2026-04-01T13:48:48.231Z</time></trkpt><trkpt lat="42.6988633" lon="11.64371"><ele>384.20000000000005</ele><time>2026-04-01T13:48:49.231Z</time></trkpt><trkpt lat="42.6988917" lon="11.6435683"><ele>382.6</ele><time>2026-04-01T13:48:50.231Z</time></trkpt><trkpt lat="42.6989117" lon="11.6434333"><ele>381.0</ele><time>2026-04-01T13:48:51.23Z</time></trkpt><trkpt lat="42.69893" lon="11.643315"><ele>379.1666666666667</ele><time>2026-04-01T13:48:52.231Z</time></trkpt><trkpt lat="42.6989467" lon="11.6432"><ele>377.3333333333333</ele><time>2026-04-01T13:48:53.231Z</time></trkpt><trkpt lat="42.69896" lon="11.6430867"><ele>375.5</ele><time>2026-04-01T13:48:54.231Z</time></trkpt><trkpt lat="42.698965" lon="11.6429783"><ele>373.66666666666663</ele><time>2026-04-01T13:48:55.23Z</time></trkpt><trkpt lat="42.6989567" lon="11.6428783"><ele>371.8333333333333</ele><time>2026-04-01T13:48:56.23Z</time></trkpt><trkpt lat="42.6989417" lon="11.6427817"><ele>370.0</ele><time>2026-04-01T13:48:57.231Z</time></trkpt><trkpt lat="42.6989233" lon="11.6426717"><ele>369.1428571428571</ele><time>2026-04-01T13:48:58.231Z</time></trkpt><trkpt lat="42.6989117" lon="11.642565"><ele>368.2857142857143</ele><time>2026-04-01T13:48:59.231Z</time></trkpt><trkpt lat="42.6989117" lon="11.6424717"><ele>367.42857142857144</ele><time>2026-04-01T13:49:00.231Z</time></trkpt><trkpt lat="42.6989117" lon="11.64238"><ele>366.57142857142856</ele><time>2026-04-01T13:49:01.231Z</time></trkpt><trkpt lat="42.6989117" lon="11.6422783"><ele>365.7142857142857</ele><time>2026-04-01T13:49:02.231Z</time></trkpt><trkpt lat="42.698915" lon="11.64218"><ele>364.85714285714283</ele><time>2026-04-01T13:49:03.231Z</time></trkpt><trkpt lat="42.6989183" lon="11.6420767"><ele>364.0</ele><time>2026-04-01T13:49:04.23Z</time></trkpt><trkpt lat="42.6989183" lon="11.6419667"><ele>363.0</ele><time>2026-04-01T13:49:05.231Z</time></trkpt><trkpt lat="42.698915" lon="11.64185"><ele>362.0</ele><time>2026-04-01T13:49:06.231Z</time></trkpt><trkpt lat="42.6989133" lon="11.641735"><ele>361.0</ele><time>2026-04-01T13:49:07.23Z</time></trkpt><trkpt lat="42.6989167" lon="11.64163"><ele>360.0</ele><time>2026-04-01T13:49:08.231Z</time></trkpt><trkpt lat="42.698925" lon="11.6415333"><ele>359.0</ele><time>2026-04-01T13:49:09.23Z</time></trkpt><trkpt lat="42.698935" lon="11.6414383"><ele>358.0</ele><time>2026-04-01T13:49:10.231Z</time></trkpt><trkpt lat="42.6989467" lon="11.641345"><ele>358.0</ele><time>2026-04-01T13:49:11.231Z</time></trkpt><trkpt lat="42.6989267" lon="11.6411783"><ele>358.0</ele><time>2026-04-01T13:49:13.23Z</time></trkpt><trkpt lat="42.6989017" lon="11.641095"><ele>358.0</ele><time>2026-04-01T13:49:14.231Z</time></trkpt><trkpt lat="42.6988617" lon="11.6410267"><ele>358.0</ele><time>2026-04-01T13:49:15.231Z</time></trkpt><trkpt lat="42.698805" lon="11.6409533"><ele>358.0</ele><time>2026-04-01T13:49:16.231Z</time></trkpt><trkpt lat="42.6987417" lon="11.6408817"><ele>358.0</ele><time>2026-04-01T13:49:17.231Z</time></trkpt><trkpt lat="42.69868" lon="11.640815"><ele>357.16666666666663</ele><time>2026-04-01T13:49:18.23Z</time></trkpt><trkpt lat="42.698615" lon="11.64075"><ele>356.3333333333333</ele><time>2026-04-01T13:49:19.23Z</time></trkpt><trkpt lat="42.698545" lon="11.64067"><ele>355.5</ele><time>2026-04-01T13:49:20.23Z</time></trkpt><trkpt lat="42.6984783" lon="11.64059"><ele>354.6666666666667</ele><time>2026-04-01T13:49:21.231Z</time></trkpt><trkpt lat="42.698415" lon="11.64051"><ele>353.83333333333337</ele><time>2026-04-01T13:49:22.23Z</time></trkpt><trkpt lat="42.6983483" lon="11.6404433"><ele>353.0</ele><time>2026-04-01T13:49:23.231Z</time></trkpt><trkpt lat="42.698285" lon="11.64037"><ele>350.33333333333337</ele><time>2026-04-01T13:49:24.231Z</time></trkpt><trkpt lat="42.6982233" lon="11.640295"><ele>347.6666666666667</ele><time>2026-04-01T13:49:25.23Z</time></trkpt><trkpt lat="42.69816" lon="11.6402117"><ele>345.0</ele><time>2026-04-01T13:49:26.231Z</time></trkpt><trkpt lat="42.6980917" lon="11.64013"><ele>342.3333333333333</ele><time>2026-04-01T13:49:27.231Z</time></trkpt><trkpt lat="42.6980233" lon="11.6400583"><ele>339.66666666666663</ele><time>2026-04-01T13:49:28.231Z</time></trkpt><trkpt lat="42.69795" lon="11.63998"><ele>337.0</ele><time>2026-04-01T13:49:29.231Z</time></trkpt><trkpt lat="42.6978783" lon="11.6399033"><ele>337.0</ele><time>2026-04-01T13:49:30.231Z</time></trkpt><trkpt lat="42.6978083" lon="11.6398283"><ele>337.0</ele><time>2026-04-01T13:49:31.23Z</time></trkpt><trkpt lat="42.69774" lon="11.6397533"><ele>337.0</ele><time>2026-04-01T13:49:32.231Z</time></trkpt><trkpt lat="42.69767" lon="11.6396717"><ele>337.0</ele><time>2026-04-01T13:49:33.23Z</time></trkpt><trkpt lat="42.6976017" lon="11.6395883"><ele>337.0</ele><time>2026-04-01T13:49:34.231Z</time></trkpt><trkpt lat="42.6975283" lon="11.6395167"><ele>333.0</ele><time>2026-04-01T13:49:35.23Z</time></trkpt><trkpt lat="42.6974533" lon="11.6394417"><ele>329.0</ele><time>2026-04-01T13:49:36.23Z</time></trkpt><trkpt lat="42.69738" lon="11.6393567"><ele>325.0</ele><time>2026-04-01T13:49:37.231Z</time></trkpt><trkpt lat="42.6973083" lon="11.63928"><ele>321.0</ele><time>2026-04-01T13:49:38.23Z</time></trkpt><trkpt lat="42.697245" lon="11.63919"><ele>317.0</ele><time>2026-04-01T13:49:39.23Z</time></trkpt><trkpt lat="42.697175" lon="11.6391017"><ele>317.0</ele><time>2026-04-01T13:49:40.231Z</time></trkpt><trkpt lat="42.6971083" lon="11.6390067"><ele>317.0</ele><time>2026-04-01T13:49:41.231Z</time></trkpt><trkpt lat="42.69703" lon="11.638905"><ele>317.0</ele><time>2026-04-01T13:49:42.231Z</time></trkpt><trkpt lat="42.6969333" lon="11.6387967"><ele>317.0</ele><time>2026-04-01T13:49:43.23Z</time></trkpt><trkpt lat="42.6968317" lon="11.6386883"><ele>313.5</ele><time>2026-04-01T13:49:44.23Z</time></trkpt><trkpt lat="42.6967283" lon="11.6385817"><ele>310.0</ele><time>2026-04-01T13:49:45.231Z</time></trkpt><trkpt lat="42.69664" lon="11.6384783"><ele>306.5</ele><time>2026-04-01T13:49:46.23Z</time></trkpt><trkpt lat="42.69655" lon="11.638375"><ele>303.0</ele><time>2026-04-01T13:49:47.231Z</time></trkpt><trkpt lat="42.6964633" lon="11.63827"><ele>303.0</ele><time>2026-04-01T13:49:48.231Z</time></trkpt><trkpt lat="42.6963733" lon="11.6381617"><ele>303.0</ele><time>2026-04-01T13:49:49.231Z</time></trkpt><trkpt lat="42.696285" lon="11.6380517"><ele>303.0</ele><time>2026-04-01T13:49:50.23Z</time></trkpt><trkpt lat="42.6961883" lon="11.6379417"><ele>303.0</ele><time>2026-04-01T13:49:51.231Z</time></trkpt><trkpt lat="42.6960817" lon="11.6378317"><ele>302.5</ele><time>2026-04-01T13:49:52.231Z</time></trkpt><trkpt lat="42.6959783" lon="11.63771"><ele>302.0</ele><time>2026-04-01T13:49:53.231Z</time></trkpt><trkpt lat="42.695875" lon="11.6375867"><ele>301.5</ele><time>2026-04-01T13:49:54.231Z</time></trkpt><trkpt lat="42.6957667" lon="11.6374767"><ele>301.0</ele><time>2026-04-01T13:49:55.23Z</time></trkpt><trkpt lat="42.6956683" lon="11.6373583"><ele>301.0</ele><time>2026-04-01T13:49:56.231Z</time></trkpt><trkpt lat="42.695575" lon="11.6372433"><ele>301.0</ele><time>2026-04-01T13:49:57.231Z</time></trkpt><trkpt lat="42.6954817" lon="11.6371367"><ele>301.0</ele><time>2026-04-01T13:49:58.231Z</time></trkpt><trkpt lat="42.695395" lon="11.6370267"><ele>301.0</ele><time>2026-04-01T13:49:59.231Z</time></trkpt><trkpt lat="42.6953133" lon="11.6369267"><ele>299.2</ele><time>2026-04-01T13:50:00.231Z</time></trkpt><trkpt lat="42.6952317" lon="11.63684"><ele>297.40000000000003</ele><time>2026-04-01T13:50:01.23Z</time></trkpt><trkpt lat="42.6951533" lon="11.63675"><ele>295.6</ele><time>2026-04-01T13:50:02.23Z</time></trkpt><trkpt lat="42.69508" lon="11.6366667"><ele>293.8</ele><time>2026-04-01T13:50:03.231Z</time></trkpt><trkpt lat="42.6950117" lon="11.6365867"><ele>292.0</ele><time>2026-04-01T13:50:04.23Z</time></trkpt><trkpt lat="42.6949467" lon="11.6365083"><ele>292.0</ele><time>2026-04-01T13:50:05.231Z</time></trkpt><trkpt lat="42.694885" lon="11.6364333"><ele>292.0</ele><time>2026-04-01T13:50:06.23Z</time></trkpt><trkpt lat="42.6948233" lon="11.6363483"><ele>292.0</ele><time>2026-04-01T13:50:07.23Z</time></trkpt><trkpt lat="42.6947567" lon="11.6362633"><ele>292.0</ele><time>2026-04-01T13:50:08.23Z</time></trkpt><trkpt lat="42.6946783" lon="11.6361717"><ele>292.0</ele><time>2026-04-01T13:50:09.23Z</time></trkpt><trkpt lat="42.6946067" lon="11.6360817"><ele>291.2</ele><time>2026-04-01T13:50:10.23Z</time></trkpt><trkpt lat="42.6945333" lon="11.6359933"><ele>290.4</ele><time>2026-04-01T13:50:11.23Z</time></trkpt><trkpt lat="42.6944533" lon="11.6358967"><ele>289.6</ele><time>2026-04-01T13:50:12.231Z</time></trkpt><trkpt lat="42.6943733" lon="11.63581"><ele>288.8</ele><time>2026-04-01T13:50:13.23Z</time></trkpt><trkpt lat="42.6942967" lon="11.63572"><ele>288.0</ele><time>2026-04-01T13:50:14.231Z</time></trkpt><trkpt lat="42.6942233" lon="11.6356317"><ele>287.6666666666667</ele><time>2026-04-01T13:50:15.231Z</time></trkpt><trkpt lat="42.6941567" lon="11.6355633"><ele>287.3333333333333</ele><time>2026-04-01T13:50:16.231Z</time></trkpt><trkpt lat="42.6940967" lon="11.6354833"><ele>287.0</ele><time>2026-04-01T13:50:17.231Z</time></trkpt><trkpt lat="42.69403" lon="11.63541"><ele>286.66666666666663</ele><time>2026-04-01T13:50:18.231Z</time></trkpt><trkpt lat="42.6939567" lon="11.635335"><ele>286.3333333333333</ele><time>2026-04-01T13:50:19.23Z</time></trkpt><trkpt lat="42.693885" lon="11.63526"><ele>286.0</ele><time>2026-04-01T13:50:20.23Z</time></trkpt><trkpt lat="42.6938217" lon="11.6351867"><ele>285.16666666666663</ele><time>2026-04-01T13:50:21.23Z</time></trkpt><trkpt lat="42.6937617" lon="11.6351167"><ele>284.3333333333333</ele><time>2026-04-01T13:50:22.23Z</time></trkpt><trkpt lat="42.693695" lon="11.6350433"><ele>283.5</ele><time>2026-04-01T13:50:23.231Z</time></trkpt><trkpt lat="42.693625" lon="11.6349733"><ele>282.6666666666667</ele><time>2026-04-01T13:50:24.23Z</time></trkpt><trkpt lat="42.6935667" lon="11.6349033"><ele>281.83333333333337</ele><time>2026-04-01T13:50:25.231Z</time></trkpt><trkpt lat="42.6935167" lon="11.6348333"><ele>281.0</ele><time>2026-04-01T13:50:26.23Z</time></trkpt><trkpt lat="42.6934617" lon="11.6347617"><ele>279.6666666666667</ele><time>2026-04-01T13:50:27.23Z</time></trkpt><trkpt lat="42.6934117" lon="11.6346917"><ele>278.33333333333337</ele><time>2026-04-01T13:50:28.231Z</time></trkpt><trkpt lat="42.6933683" lon="11.6346267"><ele>277.0</ele><time>2026-04-01T13:50:29.231Z</time></trkpt><trkpt lat="42.6933183" lon="11.6345517"><ele>275.6666666666667</ele><time>2026-04-01T13:50:30.23Z</time></trkpt><trkpt lat="42.6932667" lon="11.6344767"><ele>274.3333333333333</ele><time>2026-04-01T13:50:31.231Z</time></trkpt><trkpt lat="42.6932083" lon="11.6343917"><ele>273.0</ele><time>2026-04-01T13:50:32.23Z</time></trkpt><trkpt lat="42.6931467" lon="11.6343133"><ele>272.0</ele><time>2026-04-01T13:50:33.23Z</time></trkpt><trkpt lat="42.6930817" lon="11.6342517"><ele>271.0</ele><time>2026-04-01T13:50:34.23Z</time></trkpt><trkpt lat="42.693015" lon="11.63419"><ele>270.0</ele><time>2026-04-01T13:50:35.231Z</time></trkpt><trkpt lat="42.69295" lon="11.634125"><ele>269.0</ele><time>2026-04-01T13:50:36.231Z</time></trkpt><trkpt lat="42.6928833" lon="11.6340517"><ele>268.0</ele><time>2026-04-01T13:50:37.23Z</time></trkpt><trkpt lat="42.6928283" lon="11.6339767"><ele>267.0</ele><time>2026-04-01T13:50:38.231Z</time></trkpt><trkpt lat="42.69277" lon="11.6339017"><ele>265.2</ele><time>2026-04-01T13:50:39.231Z</time></trkpt><trkpt lat="42.6927033" lon="11.6338267"><ele>263.4</ele><time>2026-04-01T13:50:40.231Z</time></trkpt><trkpt lat="42.6926317" lon="11.633745"><ele>261.6</ele><time>2026-04-01T13:50:41.231Z</time></trkpt><trkpt lat="42.69256" lon="11.6336783"><ele>259.8</ele><time>2026-04-01T13:50:42.231Z</time></trkpt><trkpt lat="42.692495" lon="11.63359"><ele>258.0</ele><time>2026-04-01T13:50:43.23Z</time></trkpt><trkpt lat="42.6924233" lon="11.633505"><ele>257.1666666666667</ele><time>2026-04-01T13:50:44.231Z</time></trkpt><trkpt lat="42.6923383" lon="11.63343"><ele>256.3333333333333</ele><time>2026-04-01T13:50:45.231Z</time></trkpt><trkpt lat="42.6922633" lon="11.6333667"><ele>255.5</ele><time>2026-04-01T13:50:46.231Z</time></trkpt><trkpt lat="42.6921967" lon="11.6333233"><ele>254.66666666666666</ele><time>2026-04-01T13:50:47.23Z</time></trkpt><trkpt lat="42.6921267" lon="11.633265"><ele>253.83333333333331</ele><time>2026-04-01T13:50:48.23Z</time></trkpt><trkpt lat="42.6920617" lon="11.6332067"><ele>253.0</ele><time>2026-04-01T13:50:49.23Z</time></trkpt><trkpt lat="42.6919983" lon="11.6331583"><ele>252.99999999999997</ele><time>2026-04-01T13:50:50.231Z</time></trkpt><trkpt lat="42.6919417" lon="11.6331167"><ele>253.0</ele><time>2026-04-01T13:50:51.231Z</time></trkpt><trkpt lat="42.69184" lon="11.6330233"><ele>253.0</ele><time>2026-04-01T13:50:53.23Z</time></trkpt><trkpt lat="42.6917717" lon="11.6329717"><ele>253.0</ele><time>2026-04-01T13:50:55.23Z</time></trkpt><trkpt lat="42.691705" lon="11.6329183"><ele>252.99999999999997</ele><time>2026-04-01T13:50:59.231Z</time></trkpt><trkpt lat="42.691635" lon="11.6328967"><ele>253.0</ele><time>2026-04-01T13:51:01.23Z</time></trkpt><trkpt lat="42.6915833" lon="11.6328333"><ele>252.0</ele><time>2026-04-01T13:51:03.23Z</time></trkpt><trkpt lat="42.691535" lon="11.63276"><ele>251.0</ele><time>2026-04-01T13:51:05.23Z</time></trkpt><trkpt lat="42.6914833" lon="11.632665"><ele>250.0</ele><time>2026-04-01T13:53:05.232Z</time></trkpt><trkpt lat="42.6914433" lon="11.6325767"><ele>249.0</ele><time>2026-04-01T13:53:07.232Z</time></trkpt><trkpt lat="42.6913867" lon="11.6324583"><ele>248.0</ele><time>2026-04-01T13:53:09.232Z</time></trkpt><trkpt lat="42.69133" lon="11.6323167"><ele>248.0</ele><time>2026-04-01T13:53:11.231Z</time></trkpt><trkpt lat="42.6913067" lon="11.632235"><ele>248.0</ele><time>2026-04-01T13:53:12.232Z</time></trkpt><trkpt lat="42.6912567" lon="11.6320917"><ele>248.0</ele><time>2026-04-01T13:53:14.232Z</time></trkpt><trkpt lat="42.691195" lon="11.6319633"><ele>248.0</ele><time>2026-04-01T13:53:16.232Z</time></trkpt><trkpt lat="42.6911067" lon="11.6318383"><ele>248.0</ele><time>2026-04-01T13:53:18.231Z</time></trkpt><trkpt lat="42.6910533" lon="11.6317833"><ele>248.00000000000003</ele><time>2026-04-01T13:53:19.232Z</time></trkpt><trkpt lat="42.6909917" lon="11.6317367"><ele>248.0</ele><time>2026-04-01T13:53:20.232Z</time></trkpt><trkpt lat="42.6909117" lon="11.6317083"><ele>248.0</ele><time>2026-04-01T13:53:21.232Z</time></trkpt><trkpt lat="42.690825" lon="11.6316817"><ele>248.0</ele><time>2026-04-01T13:53:22.232Z</time></trkpt><trkpt lat="42.6907333" lon="11.6316567"><ele>248.00000000000003</ele><time>2026-04-01T13:53:23.231Z</time></trkpt><trkpt lat="42.6906233" lon="11.63163"><ele>248.0</ele><time>2026-04-01T13:53:24.232Z</time></trkpt><trkpt lat="42.6905133" lon="11.631615"><ele>248.0</ele><time>2026-04-01T13:53:25.231Z</time></trkpt><trkpt lat="42.6904" lon="11.631595"><ele>248.0</ele><time>2026-04-01T13:53:26.231Z</time></trkpt><trkpt lat="42.69029" lon="11.631595"><ele>248.0</ele><time>2026-04-01T13:53:27.231Z</time></trkpt><trkpt lat="42.6901817" lon="11.6316033"><ele>248.0</ele><time>2026-04-01T13:53:28.232Z</time></trkpt><trkpt lat="42.6900783" lon="11.6316217"><ele>248.0</ele><time>2026-04-01T13:53:29.232Z</time></trkpt><trkpt lat="42.6899883" lon="11.6316383"><ele>249.4</ele><time>2026-04-01T13:53:30.232Z</time></trkpt><trkpt lat="42.6898933" lon="11.6316433"><ele>250.8</ele><time>2026-04-01T13:53:31.231Z</time></trkpt><trkpt lat="42.689795" lon="11.6316183"><ele>252.2</ele><time>2026-04-01T13:53:32.232Z</time></trkpt><trkpt lat="42.689705" lon="11.6315733"><ele>253.6</ele><time>2026-04-01T13:53:33.231Z</time></trkpt><trkpt lat="42.6896133" lon="11.6314917"><ele>255.0</ele><time>2026-04-01T13:53:34.232Z</time></trkpt><trkpt lat="42.689525" lon="11.63137"><ele>255.0</ele><time>2026-04-01T13:53:35.232Z</time></trkpt><trkpt lat="42.68943" lon="11.6312067"><ele>255.0</ele><time>2026-04-01T13:53:36.231Z</time></trkpt><trkpt lat="42.689345" lon="11.6310417"><ele>255.0</ele><time>2026-04-01T13:53:37.232Z</time></trkpt><trkpt lat="42.6892717" lon="11.6308983"><ele>255.0</ele><time>2026-04-01T13:53:38.232Z</time></trkpt><trkpt lat="42.6892083" lon="11.630755"><ele>254.8</ele><time>2026-04-01T13:53:39.231Z</time></trkpt><trkpt lat="42.689145" lon="11.6306333"><ele>254.6</ele><time>2026-04-01T13:53:40.232Z</time></trkpt><trkpt lat="42.689085" lon="11.630515"><ele>254.39999999999998</ele><time>2026-04-01T13:53:41.232Z</time></trkpt><trkpt lat="42.68903" lon="11.6303917"><ele>254.2</ele><time>2026-04-01T13:53:42.232Z</time></trkpt><trkpt lat="42.6889717" lon="11.6302683"><ele>254.0</ele><time>2026-04-01T13:53:43.232Z</time></trkpt><trkpt lat="42.6889" lon="11.6301583"><ele>254.0</ele><time>2026-04-01T13:53:44.232Z</time></trkpt><trkpt lat="42.68884" lon="11.6300733"><ele>253.99999999999997</ele><time>2026-04-01T13:53:45.232Z</time></trkpt><trkpt lat="42.688745" lon="11.6299817"><ele>253.99999999999997</ele><time>2026-04-01T13:53:46.231Z</time></trkpt><trkpt lat="42.6886633" lon="11.629895"><ele>254.0</ele><time>2026-04-01T13:53:47.232Z</time></trkpt><trkpt lat="42.6885983" lon="11.6298067"><ele>254.0</ele><time>2026-04-01T13:53:48.232Z</time></trkpt><trkpt lat="42.6885217" lon="11.62975"><ele>256.2</ele><time>2026-04-01T13:53:49.232Z</time></trkpt><trkpt lat="42.68844" lon="11.6296983"><ele>258.4</ele><time>2026-04-01T13:53:50.231Z</time></trkpt><trkpt lat="42.6883617" lon="11.62965"><ele>260.6</ele><time>2026-04-01T13:53:51.232Z</time></trkpt><trkpt lat="42.6882833" lon="11.62961"><ele>262.8</ele><time>2026-04-01T13:53:52.232Z</time></trkpt><trkpt lat="42.6881817" lon="11.62958"><ele>265.0</ele><time>2026-04-01T13:53:53.231Z</time></trkpt><trkpt lat="42.6880917" lon="11.6295583"><ele>265.0</ele><time>2026-04-01T13:53:54.232Z</time></trkpt><trkpt lat="42.6879883" lon="11.629525"><ele>265.0</ele><time>2026-04-01T13:53:55.231Z</time></trkpt><trkpt lat="42.687895" lon="11.629485"><ele>265.0</ele><time>2026-04-01T13:53:56.232Z</time></trkpt><trkpt lat="42.687815" lon="11.6294267"><ele>265.0</ele><time>2026-04-01T13:53:57.231Z</time></trkpt><trkpt lat="42.68774" lon="11.6293567"><ele>265.0</ele><time>2026-04-01T13:53:58.232Z</time></trkpt><trkpt lat="42.6876667" lon="11.629285"><ele>263.8</ele><time>2026-04-01T13:53:59.231Z</time></trkpt><trkpt lat="42.687595" lon="11.6292067"><ele>262.6</ele><time>2026-04-01T13:54:00.232Z</time></trkpt><trkpt lat="42.687525" lon="11.6291383"><ele>261.4</ele><time>2026-04-01T13:54:01.232Z</time></trkpt><trkpt lat="42.6874467" lon="11.6290683"><ele>260.2</ele><time>2026-04-01T13:54:02.232Z</time></trkpt><trkpt lat="42.68737" lon="11.62899"><ele>259.0</ele><time>2026-04-01T13:54:03.232Z</time></trkpt><trkpt lat="42.6872933" lon="11.6289"><ele>259.0</ele><time>2026-04-01T13:54:04.232Z</time></trkpt><trkpt lat="42.6872117" lon="11.62881"><ele>259.0</ele><time>2026-04-01T13:54:05.231Z</time></trkpt><trkpt lat="42.6871267" lon="11.6287117"><ele>259.0</ele><time>2026-04-01T13:54:06.231Z</time></trkpt><trkpt lat="42.6870333" lon="11.6286167"><ele>259.0</ele><time>2026-04-01T13:54:07.231Z</time></trkpt><trkpt lat="42.686945" lon="11.6285317"><ele>259.0</ele><time>2026-04-01T13:54:08.232Z</time></trkpt><trkpt lat="42.686855" lon="11.6284567"><ele>261.16666666666663</ele><time>2026-04-01T13:54:09.232Z</time></trkpt><trkpt lat="42.686765" lon="11.6283967"><ele>263.3333333333333</ele><time>2026-04-01T13:54:10.232Z</time></trkpt><trkpt lat="42.686695" lon="11.6283533"><ele>265.5</ele><time>2026-04-01T13:54:11.231Z</time></trkpt><trkpt lat="42.6866333" lon="11.6283333"><ele>267.6666666666667</ele><time>2026-04-01T13:54:12.232Z</time></trkpt><trkpt lat="42.686535" lon="11.6283317"><ele>269.83333333333337</ele><time>2026-04-01T13:54:14.232Z</time></trkpt><trkpt lat="42.68646" lon="11.628425"><ele>272.0</ele><time>2026-04-01T13:54:16.231Z</time></trkpt><trkpt lat="42.6864667" lon="11.6285567"><ele>274.8</ele><time>2026-04-01T13:54:18.232Z</time></trkpt><trkpt lat="42.68649" lon="11.628695"><ele>277.6</ele><time>2026-04-01T13:54:20.232Z</time></trkpt><trkpt lat="42.6865367" lon="11.62882"><ele>280.40000000000003</ele><time>2026-04-01T13:54:22.231Z</time></trkpt><trkpt lat="42.6865783" lon="11.62898"><ele>283.2</ele><time>2026-04-01T13:54:24.231Z</time></trkpt><trkpt lat="42.6865917" lon="11.629135"><ele>286.0</ele><time>2026-04-01T13:54:26.232Z</time></trkpt><trkpt lat="42.68655" lon="11.6292183"><ele>286.0</ele><time>2026-04-01T13:54:28.232Z</time></trkpt><trkpt lat="42.6864583" lon="11.6292133"><ele>286.0</ele><time>2026-04-01T13:54:30.231Z</time></trkpt><trkpt lat="42.6863933" lon="11.6291717"><ele>286.0</ele><time>2026-04-01T13:54:31.231Z</time></trkpt><trkpt lat="42.6863167" lon="11.6291033"><ele>286.0</ele><time>2026-04-01T13:54:32.232Z</time></trkpt><trkpt lat="42.6862333" lon="11.6289983"><ele>286.0</ele><time>2026-04-01T13:54:33.232Z</time></trkpt><trkpt lat="42.686135" lon="11.6288667"><ele>289.0</ele><time>2026-04-01T13:54:34.231Z</time></trkpt><trkpt lat="42.686025" lon="11.628725"><ele>292.0</ele><time>2026-04-01T13:54:35.231Z</time></trkpt><trkpt lat="42.6859383" lon="11.628605"><ele>295.0</ele><time>2026-04-01T13:54:36.232Z</time></trkpt><trkpt lat="42.685855" lon="11.6285133"><ele>298.0</ele><time>2026-04-01T13:54:37.232Z</time></trkpt><trkpt lat="42.6857783" lon="11.6284433"><ele>298.0</ele><time>2026-04-01T13:54:38.232Z</time></trkpt><trkpt lat="42.6857017" lon="11.62839"><ele>298.0</ele><time>2026-04-01T13:54:39.232Z</time></trkpt><trkpt lat="42.685645" lon="11.628335"><ele>298.0</ele><time>2026-04-01T13:54:40.231Z</time></trkpt><trkpt lat="42.68559" lon="11.6282883"><ele>298.0</ele><time>2026-04-01T13:54:41.232Z</time></trkpt><trkpt lat="42.685525" lon="11.6282617"><ele>298.0</ele><time>2026-04-01T13:54:42.232Z</time></trkpt><trkpt lat="42.685405" lon="11.6282733"><ele>298.0</ele><time>2026-04-01T13:54:44.231Z</time></trkpt><trkpt lat="42.6853267" lon="11.62832"><ele>299.7142857142857</ele><time>2026-04-01T13:54:45.232Z</time></trkpt><trkpt lat="42.6852467" lon="11.6283583"><ele>301.4285714285714</ele><time>2026-04-01T13:54:46.232Z</time></trkpt><trkpt lat="42.6851717" lon="11.6283933"><ele>303.1428571428571</ele><time>2026-04-01T13:54:47.231Z</time></trkpt><trkpt lat="42.6851017" lon="11.6284333"><ele>304.85714285714283</ele><time>2026-04-01T13:54:48.232Z</time></trkpt><trkpt lat="42.6850417" lon="11.6284667"><ele>306.57142857142856</ele><time>2026-04-01T13:54:49.232Z</time></trkpt><trkpt lat="42.68498" lon="11.6285017"><ele>308.2857142857143</ele><time>2026-04-01T13:54:50.232Z</time></trkpt><trkpt lat="42.6849217" lon="11.62856"><ele>310.0</ele><time>2026-04-01T13:54:51.231Z</time></trkpt><trkpt lat="42.6848683" lon="11.628625"><ele>311.0</ele><time>2026-04-01T13:54:52.232Z</time></trkpt><trkpt lat="42.6848283" lon="11.6287033"><ele>312.0</ele><time>2026-04-01T13:54:53.231Z</time></trkpt><trkpt lat="42.6847817" lon="11.62879"><ele>313.0</ele><time>2026-04-01T13:54:54.231Z</time></trkpt><trkpt lat="42.6847417" lon="11.628885"><ele>314.0</ele><time>2026-04-01T13:54:55.232Z</time></trkpt><trkpt lat="42.6847017" lon="11.6289817"><ele>315.0</ele><time>2026-04-01T13:54:56.232Z</time></trkpt><trkpt lat="42.684655" lon="11.6290883"><ele>316.0</ele><time>2026-04-01T13:54:57.231Z</time></trkpt><trkpt lat="42.6846117" lon="11.6291933"><ele>316.0</ele><time>2026-04-01T13:54:58.232Z</time></trkpt><trkpt lat="42.6845633" lon="11.6292983"><ele>316.0</ele><time>2026-04-01T13:54:59.231Z</time></trkpt><trkpt lat="42.6845117" lon="11.6294033"><ele>316.0</ele><time>2026-04-01T13:55:00.232Z</time></trkpt><trkpt lat="42.6844583" lon="11.6295183"><ele>316.0</ele><time>2026-04-01T13:55:01.232Z</time></trkpt><trkpt lat="42.6844033" lon="11.6296367"><ele>316.0</ele><time>2026-04-01T13:55:02.232Z</time></trkpt><trkpt lat="42.684345" lon="11.629765"><ele>317.5</ele><time>2026-04-01T13:55:03.232Z</time></trkpt><trkpt lat="42.6842817" lon="11.6299033"><ele>319.0</ele><time>2026-04-01T13:55:04.231Z</time></trkpt><trkpt lat="42.6842167" lon="11.6300433"><ele>320.5</ele><time>2026-04-01T13:55:05.232Z</time></trkpt><trkpt lat="42.68415" lon="11.6301817"><ele>322.0</ele><time>2026-04-01T13:55:06.231Z</time></trkpt><trkpt lat="42.6840783" lon="11.6303417"><ele>323.66666666666663</ele><time>2026-04-01T13:55:07.232Z</time></trkpt><trkpt lat="42.6839917" lon="11.6305233"><ele>325.3333333333333</ele><time>2026-04-01T13:55:08.232Z</time></trkpt><trkpt lat="42.6839067" lon="11.6307117"><ele>327.0</ele><time>2026-04-01T13:55:09.232Z</time></trkpt><trkpt lat="42.68383" lon="11.6309067"><ele>327.0</ele><time>2026-04-01T13:55:10.231Z</time></trkpt><trkpt lat="42.683765" lon="11.631115"><ele>327.0</ele><time>2026-04-01T13:55:11.232Z</time></trkpt><trkpt lat="42.6837133" lon="11.6313233"><ele>327.0</ele><time>2026-04-01T13:55:12.231Z</time></trkpt><trkpt lat="42.683675" lon="11.631525"><ele>327.3333333333333</ele><time>2026-04-01T13:55:13.232Z</time></trkpt><trkpt lat="42.68364" lon="11.6317367"><ele>327.66666666666663</ele><time>2026-04-01T13:55:14.231Z</time></trkpt><trkpt lat="42.68361" lon="11.6319467"><ele>328.0</ele><time>2026-04-01T13:55:15.232Z</time></trkpt><trkpt lat="42.6835783" lon="11.6321483"><ele>328.5</ele><time>2026-04-01T13:55:16.231Z</time></trkpt><trkpt lat="42.6835517" lon="11.632335"><ele>329.0</ele><time>2026-04-01T13:55:17.231Z</time></trkpt><trkpt lat="42.6835233" lon="11.632505"><ele>329.5</ele><time>2026-04-01T13:55:18.232Z</time></trkpt><trkpt lat="42.6834817" lon="11.63267"><ele>330.0</ele><time>2026-04-01T13:55:19.231Z</time></trkpt><trkpt lat="42.683425" lon="11.6328283"><ele>331.25</ele><time>2026-04-01T13:55:20.232Z</time></trkpt><trkpt lat="42.68335" lon="11.63297"><ele>332.5</ele><time>2026-04-01T13:55:21.232Z</time></trkpt><trkpt lat="42.6832533" lon="11.6331183"><ele>333.75</ele><time>2026-04-01T13:55:22.232Z</time></trkpt><trkpt lat="42.6831533" lon="11.6332567"><ele>335.0</ele><time>2026-04-01T13:55:23.231Z</time></trkpt><trkpt lat="42.6830467" lon="11.6333983"><ele>335.0</ele><time>2026-04-01T13:55:24.231Z</time></trkpt><trkpt lat="42.6829317" lon="11.6335417"><ele>335.0</ele><time>2026-04-01T13:55:25.232Z</time></trkpt><trkpt lat="42.6828167" lon="11.6336867"><ele>335.0</ele><time>2026-04-01T13:55:26.232Z</time></trkpt><trkpt lat="42.6827117" lon="11.633815"><ele>335.5</ele><time>2026-04-01T13:55:27.232Z</time></trkpt><trkpt lat="42.68261" lon="11.6339383"><ele>336.0</ele><time>2026-04-01T13:55:28.231Z</time></trkpt><trkpt lat="42.68252" lon="11.6340467"><ele>336.5</ele><time>2026-04-01T13:55:29.232Z</time></trkpt><trkpt lat="42.682435" lon="11.6341717"><ele>337.0</ele><time>2026-04-01T13:55:30.232Z</time></trkpt><trkpt lat="42.682365" lon="11.6343017"><ele>337.0</ele><time>2026-04-01T13:55:31.231Z</time></trkpt><trkpt lat="42.6823017" lon="11.6343933"><ele>337.0</ele><time>2026-04-01T13:55:32.231Z</time></trkpt><trkpt lat="42.6822417" lon="11.6344633"><ele>337.0</ele><time>2026-04-01T13:55:33.232Z</time></trkpt><trkpt lat="42.6821867" lon="11.63451"><ele>337.0</ele><time>2026-04-01T13:55:34.231Z</time></trkpt><trkpt lat="42.6820967" lon="11.634565"><ele>337.0</ele><time>2026-04-01T13:55:36.231Z</time></trkpt><trkpt lat="42.682005" lon="11.6346433"><ele>337.0</ele><time>2026-04-01T13:55:38.232Z</time></trkpt><trkpt lat="42.68196" lon="11.6347033"><ele>337.16666666666663</ele><time>2026-04-01T13:55:39.231Z</time></trkpt><trkpt lat="42.6819117" lon="11.634775"><ele>337.3333333333333</ele><time>2026-04-01T13:55:40.232Z</time></trkpt><trkpt lat="42.6818683" lon="11.63486"><ele>337.5</ele><time>2026-04-01T13:55:41.231Z</time></trkpt><trkpt lat="42.681845" lon="11.634975"><ele>337.6666666666667</ele><time>2026-04-01T13:55:42.232Z</time></trkpt><trkpt lat="42.6818517" lon="11.63509"><ele>337.83333333333337</ele><time>2026-04-01T13:55:43.232Z</time></trkpt><trkpt lat="42.6818883" lon="11.635225"><ele>338.0</ele><time>2026-04-01T13:55:44.232Z</time></trkpt><trkpt lat="42.681965" lon="11.6353833"><ele>337.25</ele><time>2026-04-01T13:55:45.232Z</time></trkpt><trkpt lat="42.6820367" lon="11.635555"><ele>336.5</ele><time>2026-04-01T13:55:46.232Z</time></trkpt><trkpt lat="42.6821117" lon="11.6357233"><ele>335.75</ele><time>2026-04-01T13:55:47.231Z</time></trkpt><trkpt lat="42.6821817" lon="11.635905"><ele>335.0</ele><time>2026-04-01T13:55:48.232Z</time></trkpt><trkpt lat="42.68225" lon="11.6360967"><ele>336.0</ele><time>2026-04-01T13:55:49.232Z</time></trkpt><trkpt lat="42.6823217" lon="11.636285"><ele>337.0</ele><time>2026-04-01T13:55:50.232Z</time></trkpt><trkpt lat="42.6823917" lon="11.6364583"><ele>338.0</ele><time>2026-04-01T13:55:51.232Z</time></trkpt><trkpt lat="42.6824533" lon="11.6366083"><ele>339.0</ele><time>2026-04-01T13:55:52.232Z</time></trkpt><trkpt lat="42.6825067" lon="11.6367333"><ele>339.0</ele><time>2026-04-01T13:55:53.232Z</time></trkpt><trkpt lat="42.682525" lon="11.6368467"><ele>339.0</ele><time>2026-04-01T13:55:54.232Z</time></trkpt><trkpt lat="42.6825233" lon="11.6369417"><ele>339.0</ele><time>2026-04-01T13:55:55.232Z</time></trkpt><trkpt lat="42.68242" lon="11.6370667"><ele>339.0</ele><time>2026-04-01T13:55:57.231Z</time></trkpt><trkpt lat="42.6823217" lon="11.63713"><ele>339.0</ele><time>2026-04-01T13:55:58.232Z</time></trkpt><trkpt lat="42.6822083" lon="11.6372033"><ele>339.3333333333333</ele><time>2026-04-01T13:55:59.232Z</time></trkpt><trkpt lat="42.6820683" lon="11.6373033"><ele>339.66666666666663</ele><time>2026-04-01T13:56:00.232Z</time></trkpt><trkpt lat="42.6819417" lon="11.6374217"><ele>340.0</ele><time>2026-04-01T13:56:01.232Z</time></trkpt><trkpt lat="42.6818217" lon="11.6375333"><ele>340.0</ele><time>2026-04-01T13:56:02.232Z</time></trkpt><trkpt lat="42.6817033" lon="11.6376483"><ele>340.0</ele><time>2026-04-01T13:56:03.231Z</time></trkpt><trkpt lat="42.68158" lon="11.63777"><ele>340.0</ele><time>2026-04-01T13:56:04.232Z</time></trkpt><trkpt lat="42.6814533" lon="11.637895"><ele>340.3333333333333</ele><time>2026-04-01T13:56:05.232Z</time></trkpt><trkpt lat="42.681315" lon="11.6380317"><ele>340.6666666666667</ele><time>2026-04-01T13:56:06.231Z</time></trkpt><trkpt lat="42.6811733" lon="11.6381683"><ele>341.0</ele><time>2026-04-01T13:56:07.232Z</time></trkpt><trkpt lat="42.6810383" lon="11.6383"><ele>341.0</ele><time>2026-04-01T13:56:08.231Z</time></trkpt><trkpt lat="42.6809067" lon="11.6384233"><ele>341.0</ele><time>2026-04-01T13:56:09.232Z</time></trkpt><trkpt lat="42.68077" lon="11.6385567"><ele>341.0</ele><time>2026-04-01T13:56:10.232Z</time></trkpt><trkpt lat="42.6806283" lon="11.6386917"><ele>340.6666666666667</ele><time>2026-04-01T13:56:11.232Z</time></trkpt><trkpt lat="42.68049" lon="11.6388267"><ele>340.3333333333333</ele><time>2026-04-01T13:56:12.232Z</time></trkpt><trkpt lat="42.6803517" lon="11.6389617"><ele>340.0</ele><time>2026-04-01T13:56:13.232Z</time></trkpt><trkpt lat="42.6802217" lon="11.6390933"><ele>340.0</ele><time>2026-04-01T13:56:14.232Z</time></trkpt><trkpt lat="42.6801017" lon="11.6392217"><ele>340.0</ele><time>2026-04-01T13:56:15.232Z</time></trkpt><trkpt lat="42.6799867" lon="11.6393517"><ele>340.0</ele><time>2026-04-01T13:56:16.232Z</time></trkpt><trkpt lat="42.67988" lon="11.639475"><ele>340.0</ele><time>2026-04-01T13:56:17.232Z</time></trkpt><trkpt lat="42.6797667" lon="11.6396267"><ele>340.0</ele><time>2026-04-01T13:56:18.231Z</time></trkpt><trkpt lat="42.6796517" lon="11.6397783"><ele>340.0</ele><time>2026-04-01T13:56:19.232Z</time></trkpt><trkpt lat="42.679535" lon="11.63992"><ele>340.0</ele><time>2026-04-01T13:56:20.232Z</time></trkpt><trkpt lat="42.6794217" lon="11.64006"><ele>340.0</ele><time>2026-04-01T13:56:21.231Z</time></trkpt><trkpt lat="42.679315" lon="11.640195"><ele>340.0</ele><time>2026-04-01T13:56:22.232Z</time></trkpt><trkpt lat="42.6792117" lon="11.6403167"><ele>340.0</ele><time>2026-04-01T13:56:23.232Z</time></trkpt><trkpt lat="42.6791183" lon="11.64044"><ele>340.0</ele><time>2026-04-01T13:56:24.231Z</time></trkpt><trkpt lat="42.6790433" lon="11.6405467"><ele>340.2</ele><time>2026-04-01T13:56:25.232Z</time></trkpt><trkpt lat="42.6789783" lon="11.6406467"><ele>340.4</ele><time>2026-04-01T13:56:26.232Z</time></trkpt><trkpt lat="42.6789183" lon="11.6407133"><ele>340.6</ele><time>2026-04-01T13:56:27.232Z</time></trkpt><trkpt lat="42.6787983" lon="11.640745"><ele>340.8</ele><time>2026-04-01T13:56:29.231Z</time></trkpt><trkpt lat="42.67871" lon="11.6406783"><ele>341.0</ele><time>2026-04-01T13:56:31.232Z</time></trkpt><trkpt lat="42.6786667" lon="11.6406017"><ele>340.8</ele><time>2026-04-01T13:56:33.232Z</time></trkpt><trkpt lat="42.67859" lon="11.6405367"><ele>340.6</ele><time>2026-04-01T13:56:46.231Z</time></trkpt><trkpt lat="42.6784833" lon="11.6404167"><ele>340.4</ele><time>2026-04-01T13:56:48.232Z</time></trkpt><trkpt lat="42.6784183" lon="11.640335"><ele>340.2</ele><time>2026-04-01T13:56:49.232Z</time></trkpt><trkpt lat="42.6783483" lon="11.6402483"><ele>340.0</ele><time>2026-04-01T13:56:50.232Z</time></trkpt><trkpt lat="42.6782783" lon="11.6401583"><ele>340.0</ele><time>2026-04-01T13:56:51.231Z</time></trkpt><trkpt lat="42.6782217" lon="11.6400867"><ele>340.0</ele><time>2026-04-01T13:56:52.232Z</time></trkpt><trkpt lat="42.6781767" lon="11.64"><ele>340.0</ele><time>2026-04-01T13:56:53.231Z</time></trkpt><trkpt lat="42.67815" lon="11.6398867"><ele>340.0</ele><time>2026-04-01T13:56:54.232Z</time></trkpt><trkpt lat="42.6781317" lon="11.63977"><ele>340.0</ele><time>2026-04-01T13:56:55.232Z</time></trkpt><trkpt lat="42.67812" lon="11.639635"><ele>340.0</ele><time>2026-04-01T13:56:56.231Z</time></trkpt><trkpt lat="42.6780983" lon="11.639505"><ele>339.5</ele><time>2026-04-01T13:56:57.231Z</time></trkpt><trkpt lat="42.67808" lon="11.6393733"><ele>339.0</ele><time>2026-04-01T13:56:58.232Z</time></trkpt><trkpt lat="42.67806" lon="11.6392483"><ele>338.5</ele><time>2026-04-01T13:56:59.232Z</time></trkpt><trkpt lat="42.6780417" lon="11.63914"><ele>338.0</ele><time>2026-04-01T13:57:00.231Z</time></trkpt><trkpt lat="42.6780183" lon="11.63903"><ele>337.5</ele><time>2026-04-01T13:57:01.231Z</time></trkpt><trkpt lat="42.677985" lon="11.63892"><ele>337.0</ele><time>2026-04-01T13:57:02.231Z</time></trkpt><trkpt lat="42.67794" lon="11.63883"><ele>337.0</ele><time>2026-04-01T13:57:03.232Z</time></trkpt><trkpt lat="42.677885" lon="11.6387383"><ele>337.0</ele><time>2026-04-01T13:57:04.231Z</time></trkpt><trkpt lat="42.67783" lon="11.6386583"><ele>337.0</ele><time>2026-04-01T13:57:05.231Z</time></trkpt><trkpt lat="42.677775" lon="11.6385783"><ele>337.0</ele><time>2026-04-01T13:57:06.232Z</time></trkpt><trkpt lat="42.67773" lon="11.6385167"><ele>337.0</ele><time>2026-04-01T13:57:07.231Z</time></trkpt><trkpt lat="42.6776317" lon="11.638435"><ele>337.0</ele><time>2026-04-01T13:57:09.232Z</time></trkpt><trkpt lat="42.6775683" lon="11.638435"><ele>337.16666666666663</ele><time>2026-04-01T13:57:10.232Z</time></trkpt><trkpt lat="42.6775033" lon="11.6384433"><ele>337.3333333333333</ele><time>2026-04-01T13:57:11.232Z</time></trkpt><trkpt lat="42.677375" lon="11.6384717"><ele>337.5</ele><time>2026-04-01T13:57:13.232Z</time></trkpt><trkpt lat="42.6773167" lon="11.638515"><ele>337.6666666666667</ele><time>2026-04-01T13:57:14.231Z</time></trkpt><trkpt lat="42.6772633" lon="11.6385783"><ele>337.83333333333337</ele><time>2026-04-01T13:57:15.232Z</time></trkpt><trkpt lat="42.6772" lon="11.6386567"><ele>338.0</ele><time>2026-04-01T13:57:16.231Z</time></trkpt><trkpt lat="42.6771233" lon="11.6387317"><ele>338.0</ele><time>2026-04-01T13:57:17.231Z</time></trkpt><trkpt lat="42.677045" lon="11.6387867"><ele>338.0</ele><time>2026-04-01T13:57:18.231Z</time></trkpt><trkpt lat="42.6769633" lon="11.6388183"><ele>338.0</ele><time>2026-04-01T13:57:19.232Z</time></trkpt><trkpt lat="42.6768833" lon="11.6388283"><ele>338.0</ele><time>2026-04-01T13:57:20.232Z</time></trkpt><trkpt lat="42.6767983" lon="11.6388183"><ele>338.0</ele><time>2026-04-01T13:57:21.232Z</time></trkpt><trkpt lat="42.6767283" lon="11.6387917"><ele>338.0</ele><time>2026-04-01T13:57:22.232Z</time></trkpt><trkpt lat="42.6766567" lon="11.6387367"><ele>338.2</ele><time>2026-04-01T13:57:23.232Z</time></trkpt><trkpt lat="42.6765867" lon="11.6386617"><ele>338.4</ele><time>2026-04-01T13:57:24.231Z</time></trkpt><trkpt lat="42.6765183" lon="11.6385633"><ele>338.59999999999997</ele><time>2026-04-01T13:57:25.232Z</time></trkpt><trkpt lat="42.6764483" lon="11.6384583"><ele>338.79999999999995</ele><time>2026-04-01T13:57:26.232Z</time></trkpt><trkpt lat="42.6763733" lon="11.6383467"><ele>339.0</ele><time>2026-04-01T13:57:27.232Z</time></trkpt><trkpt lat="42.6762867" lon="11.6382333"><ele>338.5</ele><time>2026-04-01T13:57:28.232Z</time></trkpt><trkpt lat="42.6761967" lon="11.63812"><ele>338.0</ele><time>2026-04-01T13:57:29.232Z</time></trkpt><trkpt lat="42.6760933" lon="11.6380233"><ele>337.5</ele><time>2026-04-01T13:57:30.232Z</time></trkpt><trkpt lat="42.6759867" lon="11.6379267"><ele>337.0</ele><time>2026-04-01T13:57:31.232Z</time></trkpt><trkpt lat="42.6758783" lon="11.637825"><ele>336.40000000000003</ele><time>2026-04-01T13:57:32.231Z</time></trkpt><trkpt lat="42.6757783" lon="11.6377183"><ele>335.8</ele><time>2026-04-01T13:57:33.231Z</time></trkpt><trkpt lat="42.67568" lon="11.6376183"><ele>335.2</ele><time>2026-04-01T13:57:34.232Z</time></trkpt><trkpt lat="42.6755933" lon="11.6375383"><ele>334.6</ele><time>2026-04-01T13:57:35.231Z</time></trkpt><trkpt lat="42.6755267" lon="11.6374783"><ele>334.0</ele><time>2026-04-01T13:57:36.232Z</time></trkpt><trkpt lat="42.6754717" lon="11.6374333"><ele>334.0</ele><time>2026-04-01T13:57:37.232Z</time></trkpt><trkpt lat="42.6754083" lon="11.637385"><ele>334.0</ele><time>2026-04-01T13:57:38.232Z</time></trkpt><trkpt lat="42.67534" lon="11.6373267"><ele>334.0</ele><time>2026-04-01T13:57:39.232Z</time></trkpt><trkpt lat="42.6752633" lon="11.6372583"><ele>334.0</ele><time>2026-04-01T13:57:40.232Z</time></trkpt><trkpt lat="42.67519" lon="11.63718"><ele>334.0</ele><time>2026-04-01T13:57:41.232Z</time></trkpt><trkpt lat="42.6751033" lon="11.63711"><ele>334.0</ele><time>2026-04-01T13:57:42.231Z</time></trkpt><trkpt lat="42.67502" lon="11.6370483"><ele>333.79999999999995</ele><time>2026-04-01T13:57:43.231Z</time></trkpt><trkpt lat="42.6749417" lon="11.6369917"><ele>333.59999999999997</ele><time>2026-04-01T13:57:44.232Z</time></trkpt><trkpt lat="42.6748833" lon="11.6369433"><ele>333.4</ele><time>2026-04-01T13:57:45.232Z</time></trkpt><trkpt lat="42.6747967" lon="11.63689"><ele>333.2</ele><time>2026-04-01T13:57:47.232Z</time></trkpt><trkpt lat="42.6747167" lon="11.636845"><ele>333.0</ele><time>2026-04-01T13:57:49.233Z</time></trkpt><trkpt lat="42.6745917" lon="11.636775"><ele>332.5</ele><time>2026-04-01T13:57:51.233Z</time></trkpt><trkpt lat="42.6745233" lon="11.636735"><ele>332.0</ele><time>2026-04-01T13:57:52.232Z</time></trkpt><trkpt lat="42.67445" lon="11.6366883"><ele>331.5</ele><time>2026-04-01T13:57:53.232Z</time></trkpt><trkpt lat="42.6743733" lon="11.6366483"><ele>331.0</ele><time>2026-04-01T13:57:54.232Z</time></trkpt><trkpt lat="42.6742933" lon="11.6365967"><ele>330.5</ele><time>2026-04-01T13:57:55.232Z</time></trkpt><trkpt lat="42.6742083" lon="11.6365333"><ele>330.0</ele><time>2026-04-01T13:57:56.233Z</time></trkpt><trkpt lat="42.67411" lon="11.6364683"><ele>329.25</ele><time>2026-04-01T13:57:57.233Z</time></trkpt><trkpt lat="42.67401" lon="11.6364"><ele>328.5</ele><time>2026-04-01T13:57:58.233Z</time></trkpt><trkpt lat="42.6739017" lon="11.6363183"><ele>327.75</ele><time>2026-04-01T13:57:59.232Z</time></trkpt><trkpt lat="42.673785" lon="11.6362333"><ele>327.0</ele><time>2026-04-01T13:58:00.233Z</time></trkpt><trkpt lat="42.6736617" lon="11.6361467"><ele>326.0</ele><time>2026-04-01T13:58:01.233Z</time></trkpt><trkpt lat="42.6735417" lon="11.6360617"><ele>325.0</ele><time>2026-04-01T13:58:02.233Z</time></trkpt><trkpt lat="42.6734333" lon="11.6359867"><ele>324.0</ele><time>2026-04-01T13:58:03.233Z</time></trkpt><trkpt lat="42.6733283" lon="11.635915"><ele>323.0</ele><time>2026-04-01T13:58:04.233Z</time></trkpt><trkpt lat="42.6732283" lon="11.635835"><ele>323.0</ele><time>2026-04-01T13:58:05.232Z</time></trkpt><trkpt lat="42.6731267" lon="11.635755"><ele>323.0</ele><time>2026-04-01T13:58:06.232Z</time></trkpt><trkpt lat="42.6730183" lon="11.6356783"><ele>323.0</ele><time>2026-04-01T13:58:07.233Z</time></trkpt><trkpt lat="42.6729133" lon="11.6356033"><ele>323.0</ele><time>2026-04-01T13:58:08.232Z</time></trkpt><trkpt lat="42.6728167" lon="11.6355367"><ele>322.5</ele><time>2026-04-01T13:58:09.232Z</time></trkpt><trkpt lat="42.6727217" lon="11.6354717"><ele>322.0</ele><time>2026-04-01T13:58:10.233Z</time></trkpt><trkpt lat="42.67263" lon="11.6354183"><ele>321.5</ele><time>2026-04-01T13:58:11.233Z</time></trkpt><trkpt lat="42.672555" lon="11.63537"><ele>321.0</ele><time>2026-04-01T13:58:12.233Z</time></trkpt><trkpt lat="42.67249" lon="11.63533"><ele>320.5</ele><time>2026-04-01T13:58:13.233Z</time></trkpt><trkpt lat="42.6724317" lon="11.6352867"><ele>320.0</ele><time>2026-04-01T13:58:14.233Z</time></trkpt><trkpt lat="42.67238" lon="11.6352333"><ele>319.8</ele><time>2026-04-01T13:58:15.233Z</time></trkpt><trkpt lat="42.6723033" lon="11.6351117"><ele>319.6</ele><time>2026-04-01T13:58:17.232Z</time></trkpt><trkpt lat="42.6722783" lon="11.6350167"><ele>319.4</ele><time>2026-04-01T13:58:18.233Z</time></trkpt><trkpt lat="42.6722367" lon="11.6349117"><ele>319.2</ele><time>2026-04-01T13:58:19.232Z</time></trkpt><trkpt lat="42.6721767" lon="11.6348033"><ele>319.0</ele><time>2026-04-01T13:58:20.233Z</time></trkpt><trkpt lat="42.672095" lon="11.6347067"><ele>319.0</ele><time>2026-04-01T13:58:21.233Z</time></trkpt><trkpt lat="42.67202" lon="11.634615"><ele>319.0</ele><time>2026-04-01T13:58:22.232Z</time></trkpt><trkpt lat="42.6719467" lon="11.6345367"><ele>319.0</ele><time>2026-04-01T13:58:23.233Z</time></trkpt><trkpt lat="42.671885" lon="11.6344567"><ele>319.0</ele><time>2026-04-01T13:58:24.232Z</time></trkpt><trkpt lat="42.67184" lon="11.634375"><ele>319.0</ele><time>2026-04-01T13:58:25.233Z</time></trkpt><trkpt lat="42.671795" lon="11.6342933"><ele>319.0</ele><time>2026-04-01T13:58:26.232Z</time></trkpt><trkpt lat="42.67175" lon="11.6342067"><ele>317.75</ele><time>2026-04-01T13:58:27.233Z</time></trkpt><trkpt lat="42.6716917" lon="11.634115"><ele>316.5</ele><time>2026-04-01T13:58:28.232Z</time></trkpt><trkpt lat="42.67162" lon="11.6340017"><ele>315.25</ele><time>2026-04-01T13:58:29.233Z</time></trkpt><trkpt lat="42.671535" lon="11.6338683"><ele>314.0</ele><time>2026-04-01T13:58:30.232Z</time></trkpt><trkpt lat="42.6714417" lon="11.6337317"><ele>313.2</ele><time>2026-04-01T13:58:31.232Z</time></trkpt><trkpt lat="42.6713583" lon="11.6336183"><ele>312.4</ele><time>2026-04-01T13:58:32.233Z</time></trkpt><trkpt lat="42.67128" lon="11.6335083"><ele>311.6</ele><time>2026-04-01T13:58:33.233Z</time></trkpt><trkpt lat="42.6712167" lon="11.6334167"><ele>310.8</ele><time>2026-04-01T13:58:34.233Z</time></trkpt><trkpt lat="42.6711567" lon="11.6333267"><ele>310.0</ele><time>2026-04-01T13:58:35.232Z</time></trkpt><trkpt lat="42.67111" lon="11.633245"><ele>310.0</ele><time>2026-04-01T13:58:36.232Z</time></trkpt><trkpt lat="42.67106" lon="11.6331733"><ele>310.0</ele><time>2026-04-01T13:58:37.233Z</time></trkpt><trkpt lat="42.6709667" lon="11.6330867"><ele>310.0</ele><time>2026-04-01T13:58:39.233Z</time></trkpt><trkpt lat="42.6709217" lon="11.6329917"><ele>310.0</ele><time>2026-04-01T13:58:41.232Z</time></trkpt><trkpt lat="42.670975" lon="11.632845"><ele>310.0</ele><time>2026-04-01T13:58:43.232Z</time></trkpt><trkpt lat="42.6710267" lon="11.632755"><ele>309.66666666666663</ele><time>2026-04-01T13:58:44.233Z</time></trkpt><trkpt lat="42.6710733" lon="11.63266"><ele>309.3333333333333</ele><time>2026-04-01T13:58:45.232Z</time></trkpt><trkpt lat="42.6711117" lon="11.6325683"><ele>309.0</ele><time>2026-04-01T13:58:46.233Z</time></trkpt><trkpt lat="42.67114" lon="11.6324917"><ele>308.6666666666667</ele><time>2026-04-01T13:58:47.233Z</time></trkpt><trkpt lat="42.6711517" lon="11.6323483"><ele>308.33333333333337</ele><time>2026-04-01T13:58:49.233Z</time></trkpt><trkpt lat="42.6711317" lon="11.6322583"><ele>308.0</ele><time>2026-04-01T13:58:50.233Z</time></trkpt><trkpt lat="42.6710983" lon="11.6321817"><ele>307.85714285714283</ele><time>2026-04-01T13:58:51.233Z</time></trkpt><trkpt lat="42.6710533" lon="11.6321083"><ele>307.7142857142857</ele><time>2026-04-01T13:58:52.233Z</time></trkpt><trkpt lat="42.671005" lon="11.6320317"><ele>307.57142857142856</ele><time>2026-04-01T13:58:53.232Z</time></trkpt><trkpt lat="42.6709517" lon="11.63196"><ele>307.42857142857144</ele><time>2026-04-01T13:58:54.233Z</time></trkpt><trkpt lat="42.670905" lon="11.6318883"><ele>307.2857142857143</ele><time>2026-04-01T13:58:55.233Z</time></trkpt><trkpt lat="42.6708667" lon="11.6318017"><ele>307.1428571428571</ele><time>2026-04-01T13:58:56.232Z</time></trkpt><trkpt lat="42.6708217" lon="11.631715"><ele>307.0</ele><time>2026-04-01T13:58:57.232Z</time></trkpt><trkpt lat="42.6707683" lon="11.63163"><ele>306.16666666666663</ele><time>2026-04-01T13:58:58.232Z</time></trkpt><trkpt lat="42.6707267" lon="11.6315617"><ele>305.3333333333333</ele><time>2026-04-01T13:58:59.233Z</time></trkpt><trkpt lat="42.6706817" lon="11.6314983"><ele>304.5</ele><time>2026-04-01T13:59:00.233Z</time></trkpt><trkpt lat="42.6705817" lon="11.6314117"><ele>303.6666666666667</ele><time>2026-04-01T13:59:02.233Z</time></trkpt><trkpt lat="42.6705167" lon="11.631385"><ele>302.83333333333337</ele><time>2026-04-01T13:59:03.232Z</time></trkpt><trkpt lat="42.6704383" lon="11.63135"><ele>302.0</ele><time>2026-04-01T13:59:04.233Z</time></trkpt><trkpt lat="42.67037" lon="11.6313067"><ele>302.0</ele><time>2026-04-01T13:59:05.232Z</time></trkpt><trkpt lat="42.670305" lon="11.6312517"><ele>302.0</ele><time>2026-04-01T13:59:06.232Z</time></trkpt><trkpt lat="42.6702433" lon="11.6311967"><ele>302.0</ele><time>2026-04-01T13:59:07.233Z</time></trkpt><trkpt lat="42.6701817" lon="11.631135"><ele>302.0</ele><time>2026-04-01T13:59:08.233Z</time></trkpt><trkpt lat="42.6701117" lon="11.63105"><ele>302.0</ele><time>2026-04-01T13:59:09.233Z</time></trkpt><trkpt lat="42.670045" lon="11.63096"><ele>302.0</ele><time>2026-04-01T13:59:10.232Z</time></trkpt><trkpt lat="42.66998" lon="11.630865"><ele>299.6666666666667</ele><time>2026-04-01T13:59:11.232Z</time></trkpt><trkpt lat="42.6699117" lon="11.630785"><ele>297.33333333333337</ele><time>2026-04-01T13:59:12.233Z</time></trkpt><trkpt lat="42.6698417" lon="11.630695"><ele>295.0</ele><time>2026-04-01T13:59:13.233Z</time></trkpt><trkpt lat="42.669775" lon="11.63062"><ele>292.6666666666667</ele><time>2026-04-01T13:59:14.233Z</time></trkpt><trkpt lat="42.6697167" lon="11.6305433"><ele>290.3333333333333</ele><time>2026-04-01T13:59:15.232Z</time></trkpt><trkpt lat="42.669665" lon="11.6304817"><ele>288.0</ele><time>2026-04-01T13:59:16.233Z</time></trkpt><trkpt lat="42.6695467" lon="11.630415"><ele>288.0</ele><time>2026-04-01T13:59:18.232Z</time></trkpt><trkpt lat="42.66947" lon="11.6303867"><ele>288.0</ele><time>2026-04-01T13:59:19.233Z</time></trkpt><trkpt lat="42.669375" lon="11.63037"><ele>288.0</ele><time>2026-04-01T13:59:20.233Z</time></trkpt><trkpt lat="42.669285" lon="11.6303583"><ele>288.0</ele><time>2026-04-01T13:59:21.232Z</time></trkpt><trkpt lat="42.6691967" lon="11.63035"><ele>288.0</ele><time>2026-04-01T13:59:22.233Z</time></trkpt><trkpt lat="42.669125" lon="11.6303467"><ele>288.0</ele><time>2026-04-01T13:59:23.232Z</time></trkpt><trkpt lat="42.6690183" lon="11.6302817"><ele>286.3333333333333</ele><time>2026-04-01T13:59:25.232Z</time></trkpt><trkpt lat="42.66898" lon="11.6302083"><ele>284.6666666666667</ele><time>2026-04-01T13:59:26.233Z</time></trkpt><trkpt lat="42.6689633" lon="11.63011"><ele>283.0</ele><time>2026-04-01T13:59:27.233Z</time></trkpt><trkpt lat="42.668945" lon="11.6300067"><ele>281.33333333333337</ele><time>2026-04-01T13:59:28.233Z</time></trkpt><trkpt lat="42.6689317" lon="11.6299083"><ele>279.6666666666667</ele><time>2026-04-01T13:59:29.233Z</time></trkpt><trkpt lat="42.6689217" lon="11.6298083"><ele>278.0</ele><time>2026-04-01T13:59:30.233Z</time></trkpt><trkpt lat="42.66887" lon="11.6296717"><ele>278.0</ele><time>2026-04-01T13:59:32.233Z</time></trkpt><trkpt lat="42.6687883" lon="11.6296117"><ele>278.0</ele><time>2026-04-01T13:59:34.233Z</time></trkpt><trkpt lat="42.6686717" lon="11.6295833"><ele>278.0</ele><time>2026-04-01T13:59:36.233Z</time></trkpt><trkpt lat="42.6685983" lon="11.62955"><ele>278.0</ele><time>2026-04-01T13:59:37.233Z</time></trkpt><trkpt lat="42.66853" lon="11.6294883"><ele>278.0</ele><time>2026-04-01T13:59:38.233Z</time></trkpt><trkpt lat="42.6684717" lon="11.6294"><ele>277.1666666666667</ele><time>2026-04-01T13:59:39.232Z</time></trkpt><trkpt lat="42.6684217" lon="11.629305"><ele>276.33333333333337</ele><time>2026-04-01T13:59:40.232Z</time></trkpt><trkpt lat="42.6683817" lon="11.629195"><ele>275.5</ele><time>2026-04-01T13:59:41.232Z</time></trkpt><trkpt lat="42.668335" lon="11.62909"><ele>274.6666666666667</ele><time>2026-04-01T13:59:42.232Z</time></trkpt><trkpt lat="42.66827" lon="11.629"><ele>273.8333333333333</ele><time>2026-04-01T13:59:43.233Z</time></trkpt><trkpt lat="42.6681983" lon="11.6289267"><ele>273.0</ele><time>2026-04-01T13:59:44.233Z</time></trkpt><trkpt lat="42.6681317" lon="11.62885"><ele>273.0</ele><time>2026-04-01T13:59:45.233Z</time></trkpt><trkpt lat="42.668085" lon="11.6287867"><ele>273.0</ele><time>2026-04-01T13:59:46.233Z</time></trkpt><trkpt lat="42.6680633" lon="11.628705"><ele>273.0</ele><time>2026-04-01T13:59:47.233Z</time></trkpt><trkpt lat="42.668055" lon="11.6286183"><ele>273.0</ele><time>2026-04-01T13:59:48.232Z</time></trkpt><trkpt lat="42.66806" lon="11.62845"><ele>273.0</ele><time>2026-04-01T13:59:50.232Z</time></trkpt><trkpt lat="42.6680817" lon="11.6283033"><ele>273.0</ele><time>2026-04-01T13:59:52.233Z</time></trkpt><trkpt lat="42.6681017" lon="11.6281667"><ele>273.0</ele><time>2026-04-01T13:59:54.233Z</time></trkpt><trkpt lat="42.6681267" lon="11.6280333"><ele>273.0</ele><time>2026-04-01T13:59:56.233Z</time></trkpt><trkpt lat="42.66819" lon="11.6278817"><ele>273.0</ele><time>2026-04-01T13:59:58.233Z</time></trkpt><trkpt lat="42.6682367" lon="11.6278017"><ele>273.0</ele><time>2026-04-01T13:59:59.233Z</time></trkpt><trkpt lat="42.66829" lon="11.6277417"><ele>273.0</ele><time>2026-04-01T14:00:00.233Z</time></trkpt><trkpt lat="42.6683483" lon="11.6276833"><ele>273.0</ele><time>2026-04-01T14:00:01.232Z</time></trkpt><trkpt lat="42.6684117" lon="11.6276417"><ele>272.8</ele><time>2026-04-01T14:00:02.233Z</time></trkpt><trkpt lat="42.6684667" lon="11.6276"><ele>272.6</ele><time>2026-04-01T14:00:03.233Z</time></trkpt><trkpt lat="42.66856" lon="11.6275117"><ele>272.4</ele><time>2026-04-01T14:00:05.233Z</time></trkpt><trkpt lat="42.668635" lon="11.627395"><ele>272.2</ele><time>2026-04-01T14:00:07.233Z</time></trkpt><trkpt lat="42.668675" lon="11.62726"><ele>272.0</ele><time>2026-04-01T14:00:09.233Z</time></trkpt><trkpt lat="42.6686817" lon="11.6271033"><ele>270.5</ele><time>2026-04-01T14:00:11.232Z</time></trkpt><trkpt lat="42.6686583" lon="11.6269417"><ele>269.0</ele><time>2026-04-01T14:00:13.232Z</time></trkpt><trkpt lat="42.6686333" lon="11.6268517"><ele>267.5</ele><time>2026-04-01T14:00:14.233Z</time></trkpt><trkpt lat="42.6686" lon="11.62677"><ele>266.0</ele><time>2026-04-01T14:00:15.232Z</time></trkpt><trkpt lat="42.6685633" lon="11.6267"><ele>264.5</ele><time>2026-04-01T14:00:16.233Z</time></trkpt><trkpt lat="42.66852" lon="11.6266367"><ele>263.0</ele><time>2026-04-01T14:00:17.232Z</time></trkpt><trkpt lat="42.66847" lon="11.626565"><ele>263.0</ele><time>2026-04-01T14:00:18.233Z</time></trkpt><trkpt lat="42.6684167" lon="11.6264933"><ele>263.0</ele><time>2026-04-01T14:00:19.233Z</time></trkpt><trkpt lat="42.6683683" lon="11.6264117"><ele>263.0</ele><time>2026-04-01T14:00:20.233Z</time></trkpt><trkpt lat="42.6683283" lon="11.6263433"><ele>263.0</ele><time>2026-04-01T14:00:21.232Z</time></trkpt><trkpt lat="42.6682783" lon="11.6262133"><ele>263.0</ele><time>2026-04-01T14:00:23.232Z</time></trkpt><trkpt lat="42.6683217" lon="11.6260967"><ele>263.0</ele><time>2026-04-01T14:00:25.233Z</time></trkpt><trkpt lat="42.6683333" lon="11.6259283"><ele>261.0</ele><time>2026-04-01T14:00:27.232Z</time></trkpt><trkpt lat="42.6683383" lon="11.6258283"><ele>259.0</ele><time>2026-04-01T14:00:28.232Z</time></trkpt><trkpt lat="42.6683267" lon="11.6257267"><ele>257.0</ele><time>2026-04-01T14:00:29.232Z</time></trkpt><trkpt lat="42.6683133" lon="11.6256233"><ele>255.0</ele><time>2026-04-01T14:00:30.232Z</time></trkpt><trkpt lat="42.6682933" lon="11.6255367"><ele>253.00000000000003</ele><time>2026-04-01T14:00:31.233Z</time></trkpt><trkpt lat="42.6682333" lon="11.62543"><ele>251.0</ele><time>2026-04-01T14:00:33.232Z</time></trkpt><trkpt lat="42.6681383" lon="11.6253033"><ele>249.83333333333334</ele><time>2026-04-01T14:00:35.233Z</time></trkpt><trkpt lat="42.6680867" lon="11.625225"><ele>248.66666666666669</ele><time>2026-04-01T14:00:36.232Z</time></trkpt><trkpt lat="42.66804" lon="11.6251317"><ele>247.5</ele><time>2026-04-01T14:00:37.233Z</time></trkpt><trkpt lat="42.66799" lon="11.6250333"><ele>246.33333333333331</ele><time>2026-04-01T14:00:38.232Z</time></trkpt><trkpt lat="42.6679383" lon="11.624945"><ele>245.16666666666666</ele><time>2026-04-01T14:00:39.233Z</time></trkpt><trkpt lat="42.6678917" lon="11.6248717"><ele>244.0</ele><time>2026-04-01T14:00:40.233Z</time></trkpt><trkpt lat="42.6678433" lon="11.6248017"><ele>243.99999999999997</ele><time>2026-04-01T14:00:41.232Z</time></trkpt><trkpt lat="42.6678017" lon="11.6247183"><ele>244.0</ele><time>2026-04-01T14:00:42.233Z</time></trkpt><trkpt lat="42.6677633" lon="11.624635"><ele>244.0</ele><time>2026-04-01T14:00:43.233Z</time></trkpt><trkpt lat="42.6677167" lon="11.6245517"><ele>244.0</ele><time>2026-04-01T14:00:44.233Z</time></trkpt><trkpt lat="42.667665" lon="11.62447"><ele>243.99999999999997</ele><time>2026-04-01T14:00:45.232Z</time></trkpt><trkpt lat="42.6676183" lon="11.62438"><ele>244.0</ele><time>2026-04-01T14:00:46.232Z</time></trkpt><trkpt lat="42.667575" lon="11.6242917"><ele>244.16666666666666</ele><time>2026-04-01T14:00:47.232Z</time></trkpt><trkpt lat="42.6675283" lon="11.6241983"><ele>244.33333333333331</ele><time>2026-04-01T14:00:48.233Z</time></trkpt><trkpt lat="42.6674833" lon="11.6241117"><ele>244.5</ele><time>2026-04-01T14:00:49.232Z</time></trkpt><trkpt lat="42.6674383" lon="11.6240283"><ele>244.66666666666669</ele><time>2026-04-01T14:00:50.232Z</time></trkpt><trkpt lat="42.6673933" lon="11.6239383"><ele>244.83333333333334</ele><time>2026-04-01T14:00:51.233Z</time></trkpt><trkpt lat="42.6673467" lon="11.6238583"><ele>245.0</ele><time>2026-04-01T14:00:52.233Z</time></trkpt><trkpt lat="42.6672967" lon="11.623775"><ele>245.0</ele><time>2026-04-01T14:00:53.233Z</time></trkpt><trkpt lat="42.6672483" lon="11.6236917"><ele>245.0</ele><time>2026-04-01T14:00:54.233Z</time></trkpt><trkpt lat="42.6672" lon="11.6236067"><ele>245.0</ele><time>2026-04-01T14:00:55.233Z</time></trkpt><trkpt lat="42.6671517" lon="11.6235167"><ele>245.0</ele><time>2026-04-01T14:00:56.232Z</time></trkpt><trkpt lat="42.6671033" lon="11.6234417"><ele>245.0</ele><time>2026-04-01T14:00:57.233Z</time></trkpt><trkpt lat="42.66706" lon="11.6233717"><ele>245.0</ele><time>2026-04-01T14:00:58.232Z</time></trkpt><trkpt lat="42.6670183" lon="11.6233067"><ele>245.0</ele><time>2026-04-01T14:00:59.232Z</time></trkpt><trkpt lat="42.6669417" lon="11.6232167"><ele>244.0</ele><time>2026-04-01T14:01:01.232Z</time></trkpt><trkpt lat="42.6668533" lon="11.623215"><ele>243.0</ele><time>2026-04-01T14:01:03.232Z</time></trkpt><trkpt lat="42.6667433" lon="11.623285"><ele>242.0</ele><time>2026-04-01T14:01:05.233Z</time></trkpt><trkpt lat="42.6666733" lon="11.6233133"><ele>241.0</ele><time>2026-04-01T14:01:06.233Z</time></trkpt><trkpt lat="42.6665617" lon="11.6233167"><ele>240.0</ele><time>2026-04-01T14:01:08.232Z</time></trkpt><trkpt lat="42.66649" lon="11.6232183"><ele>240.0</ele><time>2026-04-01T14:01:10.233Z</time></trkpt><trkpt lat="42.6664483" lon="11.6231317"><ele>240.0</ele><time>2026-04-01T14:01:11.233Z</time></trkpt><trkpt lat="42.6663933" lon="11.62302"><ele>240.0</ele><time>2026-04-01T14:01:12.233Z</time></trkpt><trkpt lat="42.6663333" lon="11.6229017"><ele>240.0</ele><time>2026-04-01T14:01:13.232Z</time></trkpt><trkpt lat="42.6662767" lon="11.6227717"><ele>240.0</ele><time>2026-04-01T14:01:14.233Z</time></trkpt><trkpt lat="42.6662117" lon="11.62264"><ele>239.5</ele><time>2026-04-01T14:01:15.233Z</time></trkpt><trkpt lat="42.6661667" lon="11.6224983"><ele>239.0</ele><time>2026-04-01T14:01:16.233Z</time></trkpt><trkpt lat="42.6661217" lon="11.6223483"><ele>238.5</ele><time>2026-04-01T14:01:17.233Z</time></trkpt><trkpt lat="42.6661083" lon="11.6222033"><ele>238.0</ele><time>2026-04-01T14:01:18.233Z</time></trkpt><trkpt lat="42.666095" lon="11.6220433"><ele>237.8</ele><time>2026-04-01T14:01:19.232Z</time></trkpt><trkpt lat="42.6660883" lon="11.6219"><ele>237.60000000000002</ele><time>2026-04-01T14:01:20.233Z</time></trkpt><trkpt lat="42.66608" lon="11.6217667"><ele>237.39999999999998</ele><time>2026-04-01T14:01:21.232Z</time></trkpt><trkpt lat="42.6660733" lon="11.6216283"><ele>237.2</ele><time>2026-04-01T14:01:22.233Z</time></trkpt><trkpt lat="42.66607" lon="11.6214983"><ele>237.0</ele><time>2026-04-01T14:01:23.232Z</time></trkpt><trkpt lat="42.6660667" lon="11.621375"><ele>237.0</ele><time>2026-04-01T14:01:24.233Z</time></trkpt><trkpt lat="42.666065" lon="11.621265"><ele>237.0</ele><time>2026-04-01T14:01:25.232Z</time></trkpt><trkpt lat="42.666065" lon="11.621165"><ele>237.0</ele><time>2026-04-01T14:01:26.233Z</time></trkpt><trkpt lat="42.6660717" lon="11.6210683"><ele>237.0</ele><time>2026-04-01T14:01:27.233Z</time></trkpt><trkpt lat="42.6660883" lon="11.6209133"><ele>237.0</ele><time>2026-04-01T14:01:29.233Z</time></trkpt><trkpt lat="42.6660933" lon="11.6207883"><ele>237.0</ele><time>2026-04-01T14:01:31.233Z</time></trkpt><trkpt lat="42.6660417" lon="11.62068"><ele>236.2</ele><time>2026-04-01T14:01:33.233Z</time></trkpt><trkpt lat="42.6659567" lon="11.6206017"><ele>235.39999999999998</ele><time>2026-04-01T14:01:35.233Z</time></trkpt><trkpt lat="42.6658783" lon="11.6205183"><ele>234.60000000000002</ele><time>2026-04-01T14:01:37.233Z</time></trkpt><trkpt lat="42.6657883" lon="11.6204117"><ele>233.8</ele><time>2026-04-01T14:01:39.233Z</time></trkpt><trkpt lat="42.6656983" lon="11.6203133"><ele>233.0</ele><time>2026-04-01T14:01:41.233Z</time></trkpt><trkpt lat="42.665615" lon="11.62022"><ele>230.60000000000002</ele><time>2026-04-01T14:01:43.233Z</time></trkpt><trkpt lat="42.6655467" lon="11.620115"><ele>228.20000000000002</ele><time>2026-04-01T14:01:45.233Z</time></trkpt><trkpt lat="42.6654633" lon="11.6200333"><ele>225.8</ele><time>2026-04-01T14:01:47.233Z</time></trkpt><trkpt lat="42.66536" lon="11.61999"><ele>223.4</ele><time>2026-04-01T14:01:49.233Z</time></trkpt><trkpt lat="42.66526" lon="11.61996"><ele>221.0</ele><time>2026-04-01T14:01:51.233Z</time></trkpt><trkpt lat="42.6651783" lon="11.6199267"><ele>221.0</ele><time>2026-04-01T14:01:53.232Z</time></trkpt><trkpt lat="42.6651683" lon="11.6197833"><ele>221.00000000000003</ele><time>2026-04-01T14:02:22.233Z</time></trkpt><trkpt lat="42.665215" lon="11.6196817"><ele>221.00000000000003</ele><time>2026-04-01T14:02:24.233Z</time></trkpt><trkpt lat="42.6652767" lon="11.6197333"><ele>221.0</ele><time>2026-04-01T14:03:35.233Z</time></trkpt><trkpt lat="42.6653483" lon="11.6196817"><ele>221.0</ele><time>2026-04-01T14:04:10.233Z</time></trkpt><trkpt lat="42.6654883" lon="11.6196567"><ele>221.00000000000003</ele><time>2026-04-01T14:04:26.233Z</time></trkpt><trkpt lat="42.665565" lon="11.6196717"><ele>221.0</ele><time>2026-04-01T14:04:30.234Z</time></trkpt><trkpt lat="42.6656267" lon="11.6196917"><ele>221.0</ele><time>2026-04-01T14:04:33.233Z</time></trkpt><trkpt lat="42.6657017" lon="11.6196983"><ele>221.0</ele><time>2026-04-01T14:09:10.233Z</time></trkpt><trkpt lat="42.6657833" lon="11.6197383"><ele>221.00000000000003</ele><time>2026-04-01T14:09:12.233Z</time></trkpt><trkpt lat="42.6659167" lon="11.6197583"><ele>221.0</ele><time>2026-04-01T14:09:14.234Z</time></trkpt><trkpt lat="42.6659817" lon="11.6197583"><ele>221.0</ele><time>2026-04-01T14:09:15.234Z</time></trkpt><trkpt lat="42.666095" lon="11.6197717"><ele>221.00000000000003</ele><time>2026-04-01T14:09:17.233Z</time></trkpt><trkpt lat="42.6661867" lon="11.6198033"><ele>221.00000000000003</ele><time>2026-04-01T14:09:19.233Z</time></trkpt><trkpt lat="42.666275" lon="11.619835"><ele>221.0</ele><time>2026-04-01T14:09:21.233Z</time></trkpt><trkpt lat="42.6663383" lon="11.619865"><ele>221.0</ele><time>2026-04-01T14:09:23.234Z</time></trkpt><trkpt lat="42.666395" lon="11.6199633"><ele>219.83333333333334</ele><time>2026-04-01T14:09:26.233Z</time></trkpt><trkpt lat="42.6664617" lon="11.6200467"><ele>218.66666666666669</ele><time>2026-04-01T14:09:28.233Z</time></trkpt><trkpt lat="42.6664283" lon="11.6199683"><ele>217.5</ele><time>2026-04-01T14:09:51.233Z</time></trkpt><trkpt lat="42.6663683" lon="11.6199033"><ele>216.33333333333331</ele><time>2026-04-01T14:09:53.233Z</time></trkpt><trkpt lat="42.6663017" lon="11.6198633"><ele>215.16666666666666</ele><time>2026-04-01T14:09:55.233Z</time></trkpt><trkpt lat="42.6662317" lon="11.6197917"><ele>214.0</ele><time>2026-04-01T14:09:58.234Z</time></trkpt><trkpt lat="42.6661867" lon="11.6196933"><ele>214.0</ele><time>2026-04-01T14:10:01.233Z</time></trkpt><trkpt lat="42.666115" lon="11.6196233"><ele>213.99999999999997</ele><time>2026-04-01T14:10:05.234Z</time></trkpt><trkpt lat="42.6660383" lon="11.6194367"><ele>213.99999999999997</ele><time>2026-04-01T14:10:17.234Z</time></trkpt><trkpt lat="42.6659717" lon="11.6193583"><ele>214.0</ele><time>2026-04-01T14:10:20.234Z</time></trkpt><trkpt lat="42.665935" lon="11.6192883"><ele>214.0</ele><time>2026-04-01T14:10:23.233Z</time></trkpt><trkpt lat="42.6659167" lon="11.6191583"><ele>213.83333333333331</ele><time>2026-04-01T14:10:29.234Z</time></trkpt><trkpt lat="42.6658683" lon="11.6190767"><ele>213.66666666666666</ele><time>2026-04-01T14:10:33.234Z</time></trkpt><trkpt lat="42.6659333" lon="11.619095"><ele>213.5</ele><time>2026-04-01T14:11:07.234Z</time></trkpt><trkpt lat="42.6660167" lon="11.61914"><ele>213.33333333333331</ele><time>2026-04-01T14:11:21.234Z</time></trkpt><trkpt lat="42.66608" lon="11.61917"><ele>213.16666666666666</ele><time>2026-04-01T14:11:24.233Z</time></trkpt><trkpt lat="42.6661667" lon="11.6191733"><ele>213.0</ele><time>2026-04-01T14:11:27.233Z</time></trkpt><trkpt lat="42.6661983" lon="11.619085"><ele>213.0</ele><time>2026-04-01T14:11:31.233Z</time></trkpt><trkpt lat="42.666165" lon="11.619"><ele>213.0</ele><time>2026-04-01T14:11:34.234Z</time></trkpt><trkpt lat="42.66611" lon="11.618935"><ele>213.0</ele><time>2026-04-01T14:11:37.233Z</time></trkpt><trkpt lat="42.6660517" lon="11.6188533"><ele>213.0</ele><time>2026-04-01T14:11:40.233Z</time></trkpt><trkpt lat="42.665995" lon="11.618755"><ele>213.0</ele><time>2026-04-01T14:11:43.234Z</time></trkpt><trkpt lat="42.6659467" lon="11.6186467"><ele>213.0</ele><time>2026-04-01T14:11:46.234Z</time></trkpt><trkpt lat="42.6659" lon="11.6185867"><ele>213.0</ele><time>2026-04-01T14:11:48.234Z</time></trkpt><trkpt lat="42.6658517" lon="11.618505"><ele>213.0</ele><time>2026-04-01T14:11:51.233Z</time></trkpt><trkpt lat="42.6657917" lon="11.6184117"><ele>213.0</ele><time>2026-04-01T14:11:57.234Z</time></trkpt><trkpt lat="42.6656767" lon="11.6183883"><ele>213.0</ele><time>2026-04-01T14:12:06.233Z</time></trkpt><trkpt lat="42.6655767" lon="11.618325"><ele>213.0</ele><time>2026-04-01T14:12:30.234Z</time></trkpt><trkpt lat="42.6655133" lon="11.618345"><ele>212.99999999999997</ele><time>2026-04-01T14:12:33.233Z</time></trkpt><trkpt lat="42.665435" lon="11.6183367"><ele>213.0</ele><time>2026-04-01T14:12:38.234Z</time></trkpt><trkpt lat="42.6653867" lon="11.6182817"><ele>213.0</ele><time>2026-04-01T14:12:40.235Z</time></trkpt><trkpt lat="42.6653417" lon="11.6181917"><ele>213.0</ele><time>2026-04-01T14:12:43.235Z</time></trkpt><trkpt lat="42.665255" lon="11.6181817"><ele>213.0</ele><time>2026-04-01T14:12:47.235Z</time></trkpt><trkpt lat="42.6651933" lon="11.6182067"><ele>212.99999999999997</ele><time>2026-04-01T14:12:49.234Z</time></trkpt><trkpt lat="42.6651267" lon="11.61823"><ele>213.0</ele><time>2026-04-01T14:12:52.235Z</time></trkpt><trkpt lat="42.6650633" lon="11.6182067"><ele>213.16666666666666</ele><time>2026-04-01T14:12:56.235Z</time></trkpt><trkpt lat="42.665025" lon="11.618095"><ele>213.33333333333331</ele><time>2026-04-01T14:13:10.234Z</time></trkpt><trkpt lat="42.6649967" lon="11.6179767"><ele>213.5</ele><time>2026-04-01T14:13:12.235Z</time></trkpt><trkpt lat="42.664945" lon="11.6179083"><ele>213.66666666666666</ele><time>2026-04-01T14:13:14.235Z</time></trkpt><trkpt lat="42.6648883" lon="11.617835"><ele>213.83333333333331</ele><time>2026-04-01T14:13:26.235Z</time></trkpt><trkpt lat="42.6648" lon="11.6178367"><ele>214.0</ele><time>2026-04-01T14:13:29.234Z</time></trkpt><trkpt lat="42.6647217" lon="11.617835"><ele>213.99999999999997</ele><time>2026-04-01T14:13:31.235Z</time></trkpt><trkpt lat="42.6646467" lon="11.617885"><ele>214.0</ele><time>2026-04-01T14:13:33.234Z</time></trkpt><trkpt lat="42.6645733" lon="11.6179583"><ele>214.0</ele><time>2026-04-01T14:13:35.234Z</time></trkpt><trkpt lat="42.6645" lon="11.6180183"><ele>214.0</ele><time>2026-04-01T14:13:37.235Z</time></trkpt><trkpt lat="42.664445" lon="11.6180667"><ele>213.99999999999997</ele><time>2026-04-01T14:13:39.235Z</time></trkpt><trkpt lat="42.6643717" lon="11.6181333"><ele>214.0</ele><time>2026-04-01T14:13:42.234Z</time></trkpt><trkpt lat="42.66446" lon="11.6180567"><ele>213.99999999999997</ele><time>2026-04-01T14:13:55.235Z</time></trkpt><trkpt lat="42.6645467" lon="11.617995"><ele>214.0</ele><time>2026-04-01T14:13:57.235Z</time></trkpt><trkpt lat="42.66462" lon="11.6179283"><ele>214.0</ele><time>2026-04-01T14:13:59.235Z</time></trkpt><trkpt lat="42.6646733" lon="11.6178783"><ele>214.0</ele><time>2026-04-01T14:14:01.235Z</time></trkpt><trkpt lat="42.6647217" lon="11.617805"><ele>213.99999999999997</ele><time>2026-04-01T14:14:05.235Z</time></trkpt><trkpt lat="42.6647" lon="11.6177117"><ele>214.0</ele><time>2026-04-01T14:14:08.234Z</time></trkpt><trkpt lat="42.66469" lon="11.6176233"><ele>213.71428571428572</ele><time>2026-04-01T14:14:10.235Z</time></trkpt><trkpt lat="42.6646933" lon="11.6175267"><ele>213.42857142857144</ele><time>2026-04-01T14:14:12.235Z</time></trkpt><trkpt lat="42.6646817" lon="11.6174417"><ele>213.14285714285717</ele><time>2026-04-01T14:14:15.235Z</time></trkpt><trkpt lat="42.664705" lon="11.61736"><ele>212.85714285714286</ele><time>2026-04-01T14:14:18.235Z</time></trkpt><trkpt lat="42.6647633" lon="11.6172967"><ele>212.57142857142856</ele><time>2026-04-01T14:14:36.235Z</time></trkpt><trkpt lat="42.6647083" lon="11.61736"><ele>212.2857142857143</ele><time>2026-04-01T14:14:45.235Z</time></trkpt><trkpt lat="42.664635" lon="11.6173633"><ele>212.0</ele><time>2026-04-01T14:14:48.235Z</time></trkpt><trkpt lat="42.66456" lon="11.61737"><ele>212.00000000000003</ele><time>2026-04-01T14:15:03.235Z</time></trkpt><trkpt lat="42.6644833" lon="11.617425"><ele>212.0</ele><time>2026-04-01T14:15:06.235Z</time></trkpt><trkpt lat="42.6644033" lon="11.61745"><ele>212.0</ele><time>2026-04-01T14:15:09.234Z</time></trkpt><trkpt lat="42.6643283" lon="11.6174467"><ele>212.0</ele><time>2026-04-01T14:15:11.234Z</time></trkpt><trkpt lat="42.664255" lon="11.6173767"><ele>212.00000000000003</ele><time>2026-04-01T14:15:17.235Z</time></trkpt><trkpt lat="42.66418" lon="11.6174017"><ele>212.0</ele><time>2026-04-01T14:24:10.236Z</time></trkpt><trkpt lat="42.6640933" lon="11.6174267"><ele>212.2</ele><time>2026-04-01T14:24:13.236Z</time></trkpt><trkpt lat="42.66396" lon="11.61743"><ele>212.39999999999998</ele><time>2026-04-01T14:24:42.235Z</time></trkpt><trkpt lat="42.6638917" lon="11.6173517"><ele>212.60000000000002</ele><time>2026-04-01T14:24:45.236Z</time></trkpt><trkpt lat="42.6638333" lon="11.617305"><ele>212.8</ele><time>2026-04-01T14:24:48.235Z</time></trkpt><trkpt lat="42.6638" lon="11.6171783"><ele>213.0</ele><time>2026-04-01T14:24:59.236Z</time></trkpt><trkpt lat="42.66388" lon="11.61715"><ele>213.0</ele><time>2026-04-01T14:25:02.236Z</time></trkpt><trkpt lat="42.6639467" lon="11.617145"><ele>213.0</ele><time>2026-04-01T14:25:04.236Z</time></trkpt><trkpt lat="42.6640117" lon="11.6171483"><ele>213.0</ele><time>2026-04-01T14:25:06.236Z</time></trkpt><trkpt lat="42.664095" lon="11.6171583"><ele>213.0</ele><time>2026-04-01T14:25:09.236Z</time></trkpt><trkpt lat="42.66418" lon="11.6171317"><ele>213.0</ele><time>2026-04-01T14:25:12.236Z</time></trkpt><trkpt lat="42.6642417" lon="11.6170533"><ele>213.0</ele><time>2026-04-01T14:25:15.236Z</time></trkpt><trkpt lat="42.6643183" lon="11.61702"><ele>213.0</ele><time>2026-04-01T14:25:17.236Z</time></trkpt><trkpt lat="42.6644033" lon="11.61699"><ele>213.0</ele><time>2026-04-01T14:25:19.235Z</time></trkpt><trkpt lat="42.664475" lon="11.61699"><ele>213.0</ele><time>2026-04-01T14:25:22.236Z</time></trkpt><trkpt lat="42.6645067" lon="11.6169133"><ele>213.0</ele><time>2026-04-01T14:25:27.236Z</time></trkpt><trkpt lat="42.6644233" lon="11.6167633"><ele>213.0</ele><time>2026-04-01T14:25:48.236Z</time></trkpt><trkpt lat="42.664355" lon="11.6167667"><ele>213.0</ele><time>2026-04-01T14:25:51.235Z</time></trkpt><trkpt lat="42.6642217" lon="11.6167833"><ele>214.0</ele><time>2026-04-01T14:25:59.236Z</time></trkpt><trkpt lat="42.6643017" lon="11.6167583"><ele>215.0</ele><time>2026-04-01T14:26:17.235Z</time></trkpt><trkpt lat="42.664385" lon="11.61677"><ele>216.0</ele><time>2026-04-01T14:26:20.236Z</time></trkpt><trkpt lat="42.6644617" lon="11.616775"><ele>217.0</ele><time>2026-04-01T14:26:23.235Z</time></trkpt><trkpt lat="42.664505" lon="11.6167067"><ele>218.0</ele><time>2026-04-01T14:26:44.132Z</time></trkpt><trkpt lat="42.664515" lon="11.6165667"><ele>219.0</ele><time>2026-04-01T14:26:46.133Z</time></trkpt><trkpt lat="42.664525" lon="11.616655"><ele>219.0</ele><time>2026-04-01T14:27:08.206Z</time></trkpt><trkpt lat="42.6644983" lon="11.61675"><ele>219.0</ele><time>2026-04-01T14:27:21.206Z</time></trkpt><trkpt lat="42.6645033" lon="11.6168383"><ele>219.0</ele><time>2026-04-01T14:27:30.205Z</time></trkpt><trkpt lat="42.6645383" lon="11.6169417"><ele>219.0</ele><time>2026-04-01T14:27:34.205Z</time></trkpt><trkpt lat="42.6645033" lon="11.6170183"><ele>219.0</ele><time>2026-04-01T14:27:38.206Z</time></trkpt><trkpt lat="42.6644883" lon="11.6171167"><ele>219.0</ele><time>2026-04-01T14:27:52.206Z</time></trkpt><trkpt lat="42.6645683" lon="11.6170833"><ele>219.0</ele><time>2026-04-01T14:27:56.206Z</time></trkpt><trkpt lat="42.6646267" lon="11.6170267"><ele>219.0</ele><time>2026-04-01T14:27:59.205Z</time></trkpt><trkpt lat="42.6646867" lon="11.6169733"><ele>219.0</ele><time>2026-04-01T14:28:09.205Z</time></trkpt><trkpt lat="42.6646633" lon="11.6168783"><ele>219.0</ele><time>2026-04-01T14:28:16.206Z</time></trkpt><trkpt lat="42.6646333" lon="11.616785"><ele>219.0</ele><time>2026-04-01T14:28:20.206Z</time></trkpt><trkpt lat="42.6644883" lon="11.6171167"><ele>219.0</ele><time>2026-04-01T14:27:52.206Z</time></trkpt><trkpt lat="42.6645683" lon="11.6170833"><ele>219.0</ele><time>2026-04-01T14:27:56.206Z</time></trkpt><trkpt lat="42.6646267" lon="11.6170267"><ele>219.0</ele><time>2026-04-01T14:27:59.205Z</time></trkpt><trkpt lat="42.6646867" lon="11.6169733"><ele>219.0</ele><time>2026-04-01T14:28:09.205Z</time></trkpt><trkpt lat="42.6646633" lon="11.6168783"><ele>219.0</ele><time>2026-04-01T14:28:16.206Z</time></trkpt><trkpt lat="42.6646333" lon="11.616785"><ele>219.0</ele><time>2026-04-01T14:28:20.206Z</time></trkpt><trkpt lat="42.6646567" lon="11.6166383"><ele>219.0</ele><time>2026-04-01T14:28:36.206Z</time></trkpt><trkpt lat="42.6647083" lon="11.61658"><ele>219.0</ele><time>2026-04-01T14:28:43.205Z</time></trkpt><trkpt lat="42.664785" lon="11.6165967"><ele>219.0</ele><time>2026-04-01T14:39:29.207Z</time></trkpt><trkpt lat="42.6648567" lon="11.616595"><ele>219.0</ele><time>2026-04-01T14:39:32.207Z</time></trkpt><trkpt lat="42.6649067" lon="11.6165183"><ele>219.0</ele><time>2026-04-01T14:39:35.207Z</time></trkpt><trkpt lat="42.6649017" lon="11.6164183"><ele>219.0</ele><time>2026-04-01T14:39:38.206Z</time></trkpt><trkpt lat="42.6648567" lon="11.6163383"><ele>219.0</ele><time>2026-04-01T14:39:41.206Z</time></trkpt><trkpt lat="42.6648083" lon="11.61626"><ele>220.66666666666666</ele><time>2026-04-01T14:39:43.206Z</time></trkpt><trkpt lat="42.6647667" lon="11.6161417"><ele>222.33333333333331</ele><time>2026-04-01T14:39:45.207Z</time></trkpt><trkpt lat="42.6647417" lon="11.6160217"><ele>224.0</ele><time>2026-04-01T14:39:47.206Z</time></trkpt><trkpt lat="42.66473" lon="11.6159133"><ele>225.66666666666666</ele><time>2026-04-01T14:39:49.206Z</time></trkpt><trkpt lat="42.6647367" lon="11.615795"><ele>227.33333333333331</ele><time>2026-04-01T14:39:51.207Z</time></trkpt><trkpt lat="42.6647367" lon="11.6156817"><ele>229.0</ele><time>2026-04-01T14:39:53.206Z</time></trkpt><trkpt lat="42.664755" lon="11.61555"><ele>228.99999999999997</ele><time>2026-04-01T14:39:55.207Z</time></trkpt><trkpt lat="42.6647967" lon="11.6154133"><ele>229.0</ele><time>2026-04-01T14:39:57.207Z</time></trkpt><trkpt lat="42.664815" lon="11.61533"><ele>229.0</ele><time>2026-04-01T14:39:58.206Z</time></trkpt><trkpt lat="42.664825" lon="11.6152"><ele>229.0</ele><time>2026-04-01T14:40:00.207Z</time></trkpt><trkpt lat="42.6648333" lon="11.61507"><ele>228.99999999999997</ele><time>2026-04-01T14:40:02.206Z</time></trkpt><trkpt lat="42.664855" lon="11.6149733"><ele>229.0</ele><time>2026-04-01T14:40:04.207Z</time></trkpt><trkpt lat="42.6648683" lon="11.6148833"><ele>230.83333333333331</ele><time>2026-04-01T14:40:07.207Z</time></trkpt><trkpt lat="42.66489" lon="11.6147967"><ele>232.66666666666666</ele><time>2026-04-01T14:40:15.207Z</time></trkpt><trkpt lat="42.6649033" lon="11.6147033"><ele>234.5</ele><time>2026-04-01T14:40:17.207Z</time></trkpt><trkpt lat="42.6649167" lon="11.6145883"><ele>236.33333333333331</ele><time>2026-04-01T14:40:20.207Z</time></trkpt><trkpt lat="42.664935" lon="11.614495"><ele>238.16666666666666</ele><time>2026-04-01T14:40:22.206Z</time></trkpt><trkpt lat="42.6649567" lon="11.6143917"><ele>240.0</ele><time>2026-04-01T14:40:24.206Z</time></trkpt><trkpt lat="42.6649617" lon="11.6142633"><ele>242.0</ele><time>2026-04-01T14:40:26.207Z</time></trkpt><trkpt lat="42.66494" lon="11.61418"><ele>244.0</ele><time>2026-04-01T14:40:27.207Z</time></trkpt><trkpt lat="42.6649133" lon="11.614095"><ele>246.0</ele><time>2026-04-01T14:40:29.206Z</time></trkpt><trkpt lat="42.6648933" lon="11.6139567"><ele>248.0</ele><time>2026-04-01T14:40:31.207Z</time></trkpt><trkpt lat="42.6649" lon="11.6137967"><ele>250.0</ele><time>2026-04-01T14:40:33.206Z</time></trkpt><trkpt lat="42.66493" lon="11.6136967"><ele>252.0</ele><time>2026-04-01T14:40:34.206Z</time></trkpt><trkpt lat="42.664965" lon="11.6135883"><ele>252.6</ele><time>2026-04-01T14:40:35.207Z</time></trkpt><trkpt lat="42.66503" lon="11.613485"><ele>253.2</ele><time>2026-04-01T14:40:36.207Z</time></trkpt><trkpt lat="42.665095" lon="11.6133967"><ele>253.8</ele><time>2026-04-01T14:40:37.207Z</time></trkpt><trkpt lat="42.6651767" lon="11.6133117"><ele>254.4</ele><time>2026-04-01T14:40:38.206Z</time></trkpt><trkpt lat="42.6652583" lon="11.6132417"><ele>255.0</ele><time>2026-04-01T14:40:39.207Z</time></trkpt><trkpt lat="42.665325" lon="11.6131667"><ele>257.3333333333333</ele><time>2026-04-01T14:40:40.207Z</time></trkpt><trkpt lat="42.6653933" lon="11.6131017"><ele>259.6666666666667</ele><time>2026-04-01T14:40:41.206Z</time></trkpt><trkpt lat="42.6654617" lon="11.6130533"><ele>262.0</ele><time>2026-04-01T14:40:42.207Z</time></trkpt><trkpt lat="42.6655283" lon="11.6130017"><ele>264.33333333333337</ele><time>2026-04-01T14:40:43.207Z</time></trkpt><trkpt lat="42.665595" lon="11.6129517"><ele>266.6666666666667</ele><time>2026-04-01T14:40:44.206Z</time></trkpt><trkpt lat="42.6656567" lon="11.6129"><ele>269.0</ele><time>2026-04-01T14:40:45.207Z</time></trkpt><trkpt lat="42.6657267" lon="11.6128367"><ele>269.1666666666667</ele><time>2026-04-01T14:40:46.207Z</time></trkpt><trkpt lat="42.6657933" lon="11.61277"><ele>269.33333333333337</ele><time>2026-04-01T14:40:47.206Z</time></trkpt><trkpt lat="42.665855" lon="11.6127167"><ele>269.5</ele><time>2026-04-01T14:40:48.206Z</time></trkpt><trkpt lat="42.6659167" lon="11.6126633"><ele>269.6666666666667</ele><time>2026-04-01T14:40:49.207Z</time></trkpt><trkpt lat="42.6660267" lon="11.6125983"><ele>269.8333333333333</ele><time>2026-04-01T14:40:51.207Z</time></trkpt><trkpt lat="42.66608" lon="11.6125483"><ele>270.0</ele><time>2026-04-01T14:40:52.207Z</time></trkpt><trkpt lat="42.6661233" lon="11.6124667"><ele>272.6666666666667</ele><time>2026-04-01T14:40:53.207Z</time></trkpt><trkpt lat="42.6661567" lon="11.61236"><ele>275.3333333333333</ele><time>2026-04-01T14:40:54.207Z</time></trkpt><trkpt lat="42.6661767" lon="11.6122483"><ele>278.0</ele><time>2026-04-01T14:40:55.206Z</time></trkpt><trkpt lat="42.6661817" lon="11.6121267"><ele>280.66666666666663</ele><time>2026-04-01T14:40:56.207Z</time></trkpt><trkpt lat="42.66619" lon="11.6120017"><ele>283.3333333333333</ele><time>2026-04-01T14:40:57.207Z</time></trkpt><trkpt lat="42.66622" lon="11.6118817"><ele>286.0</ele><time>2026-04-01T14:40:58.207Z</time></trkpt><trkpt lat="42.6662583" lon="11.6117767"><ele>285.99999999999994</ele><time>2026-04-01T14:40:59.207Z</time></trkpt><trkpt lat="42.6663033" lon="11.6116983"><ele>286.0</ele><time>2026-04-01T14:41:00.206Z</time></trkpt><trkpt lat="42.6663433" lon="11.6116183"><ele>286.0</ele><time>2026-04-01T14:41:01.207Z</time></trkpt><trkpt lat="42.6663817" lon="11.6115367"><ele>286.0</ele><time>2026-04-01T14:41:02.207Z</time></trkpt><trkpt lat="42.6664183" lon="11.6114617"><ele>286.0</ele><time>2026-04-01T14:41:03.206Z</time></trkpt><trkpt lat="42.66645" lon="11.6113783"><ele>285.99999999999994</ele><time>2026-04-01T14:41:04.206Z</time></trkpt><trkpt lat="42.6664917" lon="11.6112967"><ele>286.0</ele><time>2026-04-01T14:41:05.207Z</time></trkpt><trkpt lat="42.66653" lon="11.6112167"><ele>286.6</ele><time>2026-04-01T14:41:06.207Z</time></trkpt><trkpt lat="42.6665833" lon="11.6110817"><ele>287.20000000000005</ele><time>2026-04-01T14:41:08.207Z</time></trkpt><trkpt lat="42.666635" lon="11.6109233"><ele>287.79999999999995</ele><time>2026-04-01T14:41:10.207Z</time></trkpt><trkpt lat="42.6666667" lon="11.6108267"><ele>288.4</ele><time>2026-04-01T14:41:11.206Z</time></trkpt><trkpt lat="42.6666917" lon="11.6107283"><ele>289.0</ele><time>2026-04-01T14:41:12.207Z</time></trkpt><trkpt lat="42.66671" lon="11.6106183"><ele>289.0</ele><time>2026-04-01T14:41:13.206Z</time></trkpt><trkpt lat="42.66673" lon="11.6105067"><ele>289.0</ele><time>2026-04-01T14:41:14.206Z</time></trkpt><trkpt lat="42.6667567" lon="11.6104067"><ele>289.0</ele><time>2026-04-01T14:41:15.206Z</time></trkpt><trkpt lat="42.666795" lon="11.61031"><ele>289.0</ele><time>2026-04-01T14:41:16.207Z</time></trkpt><trkpt lat="42.666835" lon="11.6102267"><ele>289.0</ele><time>2026-04-01T14:41:17.206Z</time></trkpt><trkpt lat="42.66687" lon="11.6101317"><ele>289.0</ele><time>2026-04-01T14:41:18.206Z</time></trkpt><trkpt lat="42.66689" lon="11.6100233"><ele>290.0</ele><time>2026-04-01T14:41:19.206Z</time></trkpt><trkpt lat="42.6669033" lon="11.6098983"><ele>291.0</ele><time>2026-04-01T14:41:20.206Z</time></trkpt><trkpt lat="42.6669017" lon="11.6097533"><ele>292.0</ele><time>2026-04-01T14:41:21.207Z</time></trkpt><trkpt lat="42.6669033" lon="11.6095767"><ele>293.0</ele><time>2026-04-01T14:41:22.206Z</time></trkpt><trkpt lat="42.6669167" lon="11.609385"><ele>293.0</ele><time>2026-04-01T14:41:23.206Z</time></trkpt><trkpt lat="42.6669367" lon="11.6092083"><ele>293.0</ele><time>2026-04-01T14:41:24.206Z</time></trkpt><trkpt lat="42.6669633" lon="11.609045"><ele>293.0</ele><time>2026-04-01T14:41:25.207Z</time></trkpt><trkpt lat="42.666995" lon="11.608895"><ele>293.0</ele><time>2026-04-01T14:41:26.206Z</time></trkpt><trkpt lat="42.66704" lon="11.608755"><ele>296.0</ele><time>2026-04-01T14:41:27.206Z</time></trkpt><trkpt lat="42.6670917" lon="11.6086117"><ele>299.0</ele><time>2026-04-01T14:41:28.206Z</time></trkpt><trkpt lat="42.6671517" lon="11.6084783"><ele>302.0</ele><time>2026-04-01T14:41:29.206Z</time></trkpt><trkpt lat="42.6672117" lon="11.6083417"><ele>305.0</ele><time>2026-04-01T14:41:30.206Z</time></trkpt><trkpt lat="42.6672683" lon="11.6082133"><ele>305.0</ele><time>2026-04-01T14:41:31.206Z</time></trkpt><trkpt lat="42.6673183" lon="11.6080983"><ele>305.0</ele><time>2026-04-01T14:41:32.206Z</time></trkpt><trkpt lat="42.6673617" lon="11.6079867"><ele>305.0</ele><time>2026-04-01T14:41:33.207Z</time></trkpt><trkpt lat="42.6674083" lon="11.6078683"><ele>305.0</ele><time>2026-04-01T14:41:34.207Z</time></trkpt><trkpt lat="42.6674533" lon="11.60776"><ele>305.0</ele><time>2026-04-01T14:41:35.207Z</time></trkpt><trkpt lat="42.6675033" lon="11.60765"><ele>307.0</ele><time>2026-04-01T14:41:36.207Z</time></trkpt><trkpt lat="42.667555" lon="11.6075333"><ele>309.0</ele><time>2026-04-01T14:41:37.207Z</time></trkpt><trkpt lat="42.6675967" lon="11.607425"><ele>311.0</ele><time>2026-04-01T14:41:38.206Z</time></trkpt><trkpt lat="42.6676467" lon="11.60732"><ele>313.0</ele><time>2026-04-01T14:41:39.207Z</time></trkpt><trkpt lat="42.6676933" lon="11.6072167"><ele>315.0</ele><time>2026-04-01T14:41:40.207Z</time></trkpt><trkpt lat="42.6677383" lon="11.6071117"><ele>315.0</ele><time>2026-04-01T14:41:41.206Z</time></trkpt><trkpt lat="42.6677733" lon="11.6069983"><ele>315.0</ele><time>2026-04-01T14:41:42.206Z</time></trkpt><trkpt lat="42.6678117" lon="11.6068883"><ele>315.0</ele><time>2026-04-01T14:41:43.206Z</time></trkpt><trkpt lat="42.66784" lon="11.606775"><ele>315.0</ele><time>2026-04-01T14:41:44.206Z</time></trkpt><trkpt lat="42.6678583" lon="11.6066583"><ele>315.0</ele><time>2026-04-01T14:41:45.207Z</time></trkpt><trkpt lat="42.6678817" lon="11.6065383"><ele>315.0</ele><time>2026-04-01T14:41:46.207Z</time></trkpt><trkpt lat="42.66791" lon="11.6064233"><ele>316.8</ele><time>2026-04-01T14:41:47.206Z</time></trkpt><trkpt lat="42.6679467" lon="11.606295"><ele>318.6</ele><time>2026-04-01T14:41:48.206Z</time></trkpt><trkpt lat="42.6679933" lon="11.6061733"><ele>320.4</ele><time>2026-04-01T14:41:49.206Z</time></trkpt><trkpt lat="42.6680467" lon="11.6060667"><ele>322.2</ele><time>2026-04-01T14:41:50.207Z</time></trkpt><trkpt lat="42.6680967" lon="11.6059483"><ele>324.0</ele><time>2026-04-01T14:41:51.207Z</time></trkpt><trkpt lat="42.6681567" lon="11.605835"><ele>324.79999999999995</ele><time>2026-04-01T14:41:52.206Z</time></trkpt><trkpt lat="42.66821" lon="11.6057167"><ele>325.59999999999997</ele><time>2026-04-01T14:41:53.206Z</time></trkpt><trkpt lat="42.6682617" lon="11.6055933"><ele>326.4</ele><time>2026-04-01T14:41:54.206Z</time></trkpt><trkpt lat="42.6683167" lon="11.6054633"><ele>327.2</ele><time>2026-04-01T14:41:55.206Z</time></trkpt><trkpt lat="42.6683667" lon="11.6053333"><ele>328.0</ele><time>2026-04-01T14:41:56.207Z</time></trkpt><trkpt lat="42.6684167" lon="11.6051983"><ele>328.59999999999997</ele><time>2026-04-01T14:41:57.207Z</time></trkpt><trkpt lat="42.6684683" lon="11.6050717"><ele>329.2</ele><time>2026-04-01T14:41:58.206Z</time></trkpt><trkpt lat="42.668525" lon="11.6049333"><ele>329.8</ele><time>2026-04-01T14:41:59.206Z</time></trkpt><trkpt lat="42.66858" lon="11.6048067"><ele>330.4</ele><time>2026-04-01T14:42:00.206Z</time></trkpt><trkpt lat="42.668645" lon="11.6046817"><ele>331.0</ele><time>2026-04-01T14:42:01.206Z</time></trkpt><trkpt lat="42.6687083" lon="11.6045683"><ele>332.8333333333333</ele><time>2026-04-01T14:42:02.207Z</time></trkpt><trkpt lat="42.6687683" lon="11.6044633"><ele>334.66666666666663</ele><time>2026-04-01T14:42:03.207Z</time></trkpt><trkpt lat="42.66882" lon="11.604365"><ele>336.5</ele><time>2026-04-01T14:42:04.207Z</time></trkpt><trkpt lat="42.66885" lon="11.604265"><ele>338.3333333333333</ele><time>2026-04-01T14:42:05.207Z</time></trkpt><trkpt lat="42.668865" lon="11.6041483"><ele>340.1666666666667</ele><time>2026-04-01T14:42:06.206Z</time></trkpt><trkpt lat="42.668865" lon="11.60402"><ele>342.0</ele><time>2026-04-01T14:42:07.206Z</time></trkpt><trkpt lat="42.6688517" lon="11.6038933"><ele>342.0</ele><time>2026-04-01T14:42:08.206Z</time></trkpt><trkpt lat="42.6688367" lon="11.6037483"><ele>342.0</ele><time>2026-04-01T14:42:09.207Z</time></trkpt><trkpt lat="42.6688233" lon="11.6036017"><ele>342.0</ele><time>2026-04-01T14:42:10.207Z</time></trkpt><trkpt lat="42.6688117" lon="11.6034483"><ele>342.0</ele><time>2026-04-01T14:42:11.207Z</time></trkpt><trkpt lat="42.6688033" lon="11.6032917"><ele>342.0</ele><time>2026-04-01T14:42:12.207Z</time></trkpt><trkpt lat="42.668805" lon="11.6031317"><ele>342.5</ele><time>2026-04-01T14:42:13.206Z</time></trkpt><trkpt lat="42.66881" lon="11.6029633"><ele>343.0</ele><time>2026-04-01T14:42:14.206Z</time></trkpt><trkpt lat="42.6688133" lon="11.6027817"><ele>343.5</ele><time>2026-04-01T14:42:15.207Z</time></trkpt><trkpt lat="42.6688167" lon="11.602595"><ele>344.0</ele><time>2026-04-01T14:42:16.206Z</time></trkpt><trkpt lat="42.66882" lon="11.6024167"><ele>344.25</ele><time>2026-04-01T14:42:17.207Z</time></trkpt><trkpt lat="42.668825" lon="11.60226"><ele>344.5</ele><time>2026-04-01T14:42:18.207Z</time></trkpt><trkpt lat="42.66885" lon="11.602115"><ele>344.75</ele><time>2026-04-01T14:42:19.207Z</time></trkpt><trkpt lat="42.668885" lon="11.60197"><ele>345.0</ele><time>2026-04-01T14:42:20.207Z</time></trkpt><trkpt lat="42.6689483" lon="11.6018283"><ele>346.5</ele><time>2026-04-01T14:42:21.207Z</time></trkpt><trkpt lat="42.6690283" lon="11.6016967"><ele>348.0</ele><time>2026-04-01T14:42:22.207Z</time></trkpt><trkpt lat="42.6691217" lon="11.601575"><ele>349.5</ele><time>2026-04-01T14:42:23.207Z</time></trkpt><trkpt lat="42.6692283" lon="11.6014767"><ele>351.0</ele><time>2026-04-01T14:42:24.207Z</time></trkpt><trkpt lat="42.6693433" lon="11.601385"><ele>353.0</ele><time>2026-04-01T14:42:25.207Z</time></trkpt><trkpt lat="42.6694517" lon="11.6012967"><ele>355.0</ele><time>2026-04-01T14:42:26.207Z</time></trkpt><trkpt lat="42.66955" lon="11.6012183"><ele>357.0</ele><time>2026-04-01T14:42:27.207Z</time></trkpt><trkpt lat="42.6696433" lon="11.6011267"><ele>359.0</ele><time>2026-04-01T14:42:28.207Z</time></trkpt><trkpt lat="42.669715" lon="11.6010233"><ele>360.0</ele><time>2026-04-01T14:42:29.207Z</time></trkpt><trkpt lat="42.6697717" lon="11.6009117"><ele>361.0</ele><time>2026-04-01T14:42:30.207Z</time></trkpt><trkpt lat="42.6698033" lon="11.6007967"><ele>362.0</ele><time>2026-04-01T14:42:31.207Z</time></trkpt><trkpt lat="42.669815" lon="11.6006717"><ele>363.0</ele><time>2026-04-01T14:42:32.206Z</time></trkpt><trkpt lat="42.6698017" lon="11.6005383"><ele>364.0</ele><time>2026-04-01T14:42:33.207Z</time></trkpt><trkpt lat="42.6697767" lon="11.60039"><ele>365.4</ele><time>2026-04-01T14:42:34.206Z</time></trkpt><trkpt lat="42.66976" lon="11.6002567"><ele>366.79999999999995</ele><time>2026-04-01T14:42:35.206Z</time></trkpt><trkpt lat="42.6697333" lon="11.60013"><ele>368.20000000000005</ele><time>2026-04-01T14:42:36.206Z</time></trkpt><trkpt lat="42.6696967" lon="11.6000083"><ele>369.6</ele><time>2026-04-01T14:42:37.207Z</time></trkpt><trkpt lat="42.6696483" lon="11.5998967"><ele>371.0</ele><time>2026-04-01T14:42:38.207Z</time></trkpt><trkpt lat="42.6695767" lon="11.599795"><ele>371.0</ele><time>2026-04-01T14:42:39.207Z</time></trkpt><trkpt lat="42.669495" lon="11.5996933"><ele>371.0</ele><time>2026-04-01T14:42:40.207Z</time></trkpt><trkpt lat="42.6694083" lon="11.59958"><ele>371.0</ele><time>2026-04-01T14:42:41.206Z</time></trkpt><trkpt lat="42.6693033" lon="11.5994767"><ele>371.0</ele><time>2026-04-01T14:42:42.206Z</time></trkpt><trkpt lat="42.6692083" lon="11.599365"><ele>371.33333333333337</ele><time>2026-04-01T14:42:43.206Z</time></trkpt><trkpt lat="42.6691383" lon="11.59926"><ele>371.6666666666667</ele><time>2026-04-01T14:42:44.207Z</time></trkpt><trkpt lat="42.6690933" lon="11.5991717"><ele>372.0</ele><time>2026-04-01T14:42:45.206Z</time></trkpt><trkpt lat="42.6690717" lon="11.5990817"><ele>372.3333333333333</ele><time>2026-04-01T14:42:46.207Z</time></trkpt><trkpt lat="42.669065" lon="11.5989783"><ele>372.66666666666663</ele><time>2026-04-01T14:42:47.207Z</time></trkpt><trkpt lat="42.669085" lon="11.5988683"><ele>373.0</ele><time>2026-04-01T14:42:48.207Z</time></trkpt><trkpt lat="42.6691033" lon="11.598755"><ele>373.0</ele><time>2026-04-01T14:42:49.207Z</time></trkpt><trkpt lat="42.669125" lon="11.5986483"><ele>383.0</ele><time>2026-04-01T14:42:50.206Z</time></trkpt><trkpt lat="42.6691317" lon="11.598555"><ele>383.0</ele><time>2026-04-01T14:42:51.207Z</time></trkpt><trkpt lat="42.6690883" lon="11.5984483"><ele>383.0</ele><time>2026-04-01T14:42:53.207Z</time></trkpt></trkseg></trk></gpx>